Wetterdaten: Samstag, 04.02.2017
Datum Zeit Temp. A. Temp. A. max Feuchte A. Luftdruck Regen Wind Richtung Richtung Sonnenschein ET UV Solar Taupunkt Windchill Windböen
04.02.2017 00:00 3,8 °C 3,8 °C 87 % 1009,2 hPa 0,0 mm 5,8 km/h (2 Bft) W-SW 256 ° 0 min 0,000 mm 0,0 UV-I 0 W/m² 1,8 °C 2,4 °C 9,7 km/h (2 Bft)
04.02.2017 00:01 3,8 °C 3,8 °C 87 % 1009,1 hPa 0,0 mm 6,3 km/h (2 Bft) W 262 ° 0 min 0,000 mm 0,0 UV-I 0 W/m² 1,8 °C 2,2 °C 8,0 km/h (2 Bft)
04.02.2017 00:02 3,8 °C 3,8 °C 87 % 1009,2 hPa 0,0 mm 3,8 km/h (1 Bft) W 272 ° 0 min 0,000 mm 0,0 UV-I 0 W/m² 1,8 °C 3,8 °C 6,4 km/h (2 Bft)
04.02.2017 00:03 3,8 °C 3,8 °C 87 % 1009,1 hPa 0,0 mm 3,4 km/h (1 Bft) W 272 ° 0 min 0,000 mm 0,0 UV-I 0 W/m² 1,8 °C 3,8 °C 4,8 km/h (1 Bft)
04.02.2017 00:04 3,8 °C 3,8 °C 87 % 1009,2 hPa 0,0 mm 3,6 km/h (1 Bft) W 272 ° 0 min 0,000 mm 0,0 UV-I 0 W/m² 1,8 °C 3,8 °C 4,8 km/h (1 Bft)
04.02.2017 00:05 3,8 °C 3,8 °C 87 % 1009,1 hPa 0,0 mm 3,9 km/h (1 Bft) W 271 ° 0 min 0,000 mm 0,0 UV-I 0 W/m² 1,8 °C 3,8 °C 6,4 km/h (2 Bft)
04.02.2017 00:06 3,8 °C 3,8 °C 87 % 1009,2 hPa 0,0 mm 4,6 km/h (1 Bft) W 263 ° 0 min 0,000 mm 0,0 UV-I 0 W/m² 1,8 °C 2,9 °C 6,4 km/h (2 Bft)
04.02.2017 00:07 3,8 °C 3,8 °C 87 % 1009,2 hPa 0,0 mm 4,0 km/h (1 Bft) W-SW 258 ° 0 min 0,000 mm 0,0 UV-I 0 W/m² 1,8 °C 3,8 °C 4,8 km/h (1 Bft)
04.02.2017 00:08 3,8 °C 3,8 °C 87 % 1009,2 hPa 0,0 mm 4,7 km/h (1 Bft) W-SW 258 ° 0 min 0,000 mm 0,0 UV-I 0 W/m² 1,8 °C 2,8 °C 6,4 km/h (2 Bft)
04.02.2017 00:09 3,8 °C 3,8 °C 87 % 1009,2 hPa 0,0 mm 4,4 km/h (1 Bft) W-SW 256 ° 0 min 0,000 mm 0,0 UV-I 0 W/m² 1,8 °C 3,8 °C 4,8 km/h (1 Bft)
04.02.2017 00:10 3,8 °C 3,8 °C 87 % 1009,2 hPa 0,0 mm 4,1 km/h (1 Bft) W 262 ° 0 min 0,000 mm 0,0 UV-I 0 W/m² 1,8 °C 3,8 °C 4,8 km/h (1 Bft)
04.02.2017 00:11 3,8 °C 3,8 °C 87 % 1009,2 hPa 0,0 mm 3,1 km/h (1 Bft) W 262 ° 0 min 0,000 mm 0,0 UV-I 0 W/m² 1,8 °C 3,8 °C 4,8 km/h (1 Bft)
04.02.2017 00:12 3,8 °C 3,8 °C 87 % 1009,2 hPa 0,0 mm 3,6 km/h (1 Bft) W-SW 238 ° 0 min 0,000 mm 0,0 UV-I 0 W/m² 1,8 °C 3,8 °C 4,8 km/h (1 Bft)
04.02.2017 00:13 3,8 °C 3,8 °C 87 % 1009,2 hPa 0,0 mm 5,8 km/h (2 Bft) W-SW 252 ° 0 min 0,000 mm 0,0 UV-I 0 W/m² 1,8 °C 2,4 °C 6,4 km/h (2 Bft)
04.02.2017 00:14 3,8 °C 3,8 °C 87 % 1009,2 hPa 0,0 mm 4,4 km/h (1 Bft) W 260 ° 0 min 0,000 mm 0,0 UV-I 0 W/m² 1,8 °C 3,8 °C 6,4 km/h (2 Bft)
04.02.2017 00:15 3,8 °C 3,8 °C 87 % 1009,2 hPa 0,0 mm 2,5 km/h (1 Bft) W 260 ° 0 min 0,000 mm 0,0 UV-I 0 W/m² 1,8 °C 3,8 °C 4,8 km/h (1 Bft)
04.02.2017 00:16 3,8 °C 3,8 °C 87 % 1009,2 hPa 0,0 mm 4,6 km/h (1 Bft) W-SW 254 ° 0 min 0,000 mm 0,0 UV-I 0 W/m² 1,8 °C 2,9 °C 8,0 km/h (2 Bft)
04.02.2017 00:17 3,8 °C 3,8 °C 87 % 1009,2 hPa 0,0 mm 3,7 km/h (1 Bft) W-SW 252 ° 0 min 0,000 mm 0,0 UV-I 0 W/m² 1,8 °C 3,8 °C 6,4 km/h (2 Bft)
04.02.2017 00:18 3,8 °C 3,8 °C 87 % 1009,2 hPa 0,0 mm 3,9 km/h (1 Bft) W-SW 249 ° 0 min 0,000 mm 0,0 UV-I 0 W/m² 1,8 °C 3,8 °C 6,4 km/h (2 Bft)
04.02.2017 00:19 3,8 °C 3,8 °C 87 % 1009,2 hPa 0,0 mm 3,8 km/h (1 Bft) SW 232 ° 0 min 0,000 mm 0,0 UV-I 0 W/m² 1,8 °C 3,8 °C 6,4 km/h (2 Bft)
04.02.2017 00:20 3,8 °C 3,8 °C 87 % 1009,2 hPa 0,0 mm 6,0 km/h (2 Bft) W-SW 252 ° 0 min 0,000 mm 0,0 UV-I 0 W/m² 1,8 °C 2,3 °C 12,9 km/h (3 Bft)
04.02.2017 00:21 3,8 °C 3,8 °C 87 % 1009,3 hPa 0,0 mm 7,2 km/h (2 Bft) W-SW 248 ° 0 min 0,000 mm 0,0 UV-I 0 W/m² 1,8 °C 2,0 °C 11,3 km/h (2 Bft)
04.02.2017 00:22 3,8 °C 3,8 °C 86 % 1009,3 hPa 0,0 mm 5,0 km/h (1 Bft) SW 235 ° 0 min 0,000 mm 0,0 UV-I 0 W/m² 1,7 °C 2,7 °C 9,7 km/h (2 Bft)
04.02.2017 00:23 3,8 °C 3,8 °C 86 % 1009,3 hPa 0,0 mm 5,8 km/h (2 Bft) W-SW 240 ° 0 min 0,000 mm 0,0 UV-I 0 W/m² 1,7 °C 2,4 °C 6,4 km/h (2 Bft)
04.02.2017 00:24 3,9 °C 3,9 °C 87 % 1009,3 hPa 0,0 mm 5,5 km/h (1 Bft) W-SW 248 ° 0 min 0,000 mm 0,0 UV-I 0 W/m² 1,9 °C 2,6 °C 8,0 km/h (2 Bft)
04.02.2017 00:25 3,9 °C 3,9 °C 87 % 1009,3 hPa 0,0 mm 5,2 km/h (1 Bft) SW 232 ° 0 min 0,000 mm 0,0 UV-I 0 W/m² 1,9 °C 2,8 °C 11,3 km/h (2 Bft)
04.02.2017 00:26 3,9 °C 3,9 °C 87 % 1009,3 hPa 0,0 mm 5,7 km/h (1 Bft) W-SW 250 ° 0 min 0,000 mm 0,0 UV-I 0 W/m² 1,9 °C 2,6 °C 12,9 km/h (3 Bft)
04.02.2017 00:27 3,9 °C 3,9 °C 87 % 1009,3 hPa 0,0 mm 9,7 km/h (2 Bft) SW 232 ° 0 min 0,000 mm 0,0 UV-I 0 W/m² 1,9 °C 1,4 °C 16,1 km/h (3 Bft)
04.02.2017 00:28 3,9 °C 3,9 °C 87 % 1009,3 hPa 0,0 mm 6,0 km/h (2 Bft) W-SW 251 ° 0 min 0,000 mm 0,0 UV-I 0 W/m² 1,9 °C 2,5 °C 9,7 km/h (2 Bft)
04.02.2017 00:29 3,9 °C 3,9 °C 87 % 1009,3 hPa 0,0 mm 4,8 km/h (1 Bft) W-SW 248 ° 0 min 0,000 mm 0,0 UV-I 0 W/m² 1,9 °C 2,9 °C 11,3 km/h (2 Bft)
04.02.2017 00:30 3,9 °C 3,9 °C 87 % 1009,3 hPa 0,0 mm 6,4 km/h (2 Bft) W-SW 253 ° 0 min 0,000 mm 0,0 UV-I 0 W/m² 1,9 °C 2,3 °C 8,0 km/h (2 Bft)
04.02.2017 00:31 3,9 °C 3,9 °C 87 % 1009,3 hPa 0,0 mm 6,2 km/h (2 Bft) W 265 ° 0 min 0,000 mm 0,0 UV-I 0 W/m² 1,9 °C 2,4 °C 9,7 km/h (2 Bft)
04.02.2017 00:32 3,9 °C 3,9 °C 88 % 1009,3 hPa 0,0 mm 3,6 km/h (1 Bft) W 263 ° 0 min 0,000 mm 0,0 UV-I 0 W/m² 2,1 °C 3,9 °C 4,8 km/h (1 Bft)
04.02.2017 00:33 3,9 °C 3,9 °C 88 % 1009,3 hPa 0,0 mm 4,0 km/h (1 Bft) SW 236 ° 0 min 0,000 mm 0,0 UV-I 0 W/m² 2,1 °C 3,9 °C 4,8 km/h (1 Bft)
04.02.2017 00:34 3,9 °C 3,9 °C 88 % 1009,3 hPa 0,0 mm 3,7 km/h (1 Bft) W-SW 246 ° 0 min 0,000 mm 0,0 UV-I 0 W/m² 2,1 °C 3,9 °C 4,8 km/h (1 Bft)
04.02.2017 00:35 3,9 °C 3,9 °C 88 % 1009,3 hPa 0,0 mm 2,7 km/h (1 Bft) W-SW 246 ° 0 min 0,000 mm 0,0 UV-I 0 W/m² 2,1 °C 3,9 °C 4,8 km/h (1 Bft)
04.02.2017 00:36 3,9 °C 4,0 °C 88 % 1009,3 hPa 0,0 mm 4,0 km/h (1 Bft) W-SW 244 ° 0 min 0,000 mm 0,0 UV-I 0 W/m² 2,1 °C 3,9 °C 4,8 km/h (1 Bft)
04.02.2017 00:37 3,9 °C 3,9 °C 88 % 1009,3 hPa 0,2 mm 3,4 km/h (1 Bft) W-SW 237 ° 0 min 0,000 mm 0,0 UV-I 0 W/m² 2,1 °C 3,9 °C 6,4 km/h (2 Bft)
04.02.2017 00:38 3,9 °C 3,9 °C 88 % 1009,3 hPa 0,0 mm 3,9 km/h (1 Bft) S-SW 202 ° 0 min 0,000 mm 0,0 UV-I 0 W/m² 2,1 °C 3,9 °C 6,4 km/h (2 Bft)
04.02.2017 00:39 3,9 °C 3,9 °C 89 % 1009,2 hPa 0,0 mm 3,9 km/h (1 Bft) S-SW 205 ° 0 min 0,000 mm 0,0 UV-I 0 W/m² 2,3 °C 3,9 °C 4,8 km/h (1 Bft)
04.02.2017 00:40 3,9 °C 3,9 °C 89 % 1009,2 hPa 0,0 mm 2,8 km/h (1 Bft) S-SW 205 ° 0 min 0,000 mm 0,0 UV-I 0 W/m² 2,3 °C 3,9 °C 4,8 km/h (1 Bft)
04.02.2017 00:41 3,9 °C 3,9 °C 89 % 1009,3 hPa 0,0 mm 2,4 km/h (1 Bft) S-SW 199 ° 0 min 0,000 mm 0,0 UV-I 0 W/m² 2,3 °C 3,9 °C 4,8 km/h (1 Bft)
04.02.2017 00:42 3,9 °C 3,9 °C 89 % 1009,2 hPa 0,0 mm 4,2 km/h (1 Bft) S-SW 196 ° 0 min 0,000 mm 0,0 UV-I 0 W/m² 2,3 °C 3,9 °C 6,4 km/h (2 Bft)
04.02.2017 00:43 3,9 °C 3,9 °C 89 % 1009,2 hPa 0,0 mm 3,1 km/h (1 Bft) S 181 ° 0 min 0,000 mm 0,0 UV-I 0 W/m² 2,3 °C 3,9 °C 4,8 km/h (1 Bft)
04.02.2017 00:44 3,9 °C 3,9 °C 89 % 1009,2 hPa 0,0 mm 2,5 km/h (1 Bft) S 182 ° 0 min 0,000 mm 0,0 UV-I 0 W/m² 2,3 °C 3,9 °C 4,8 km/h (1 Bft)
04.02.2017 00:45 3,9 °C 3,9 °C 89 % 1009,2 hPa 0,0 mm 4,2 km/h (1 Bft) S 191 ° 0 min 0,000 mm 0,0 UV-I 0 W/m² 2,3 °C 3,9 °C 6,4 km/h (2 Bft)
04.02.2017 00:46 3,9 °C 3,9 °C 89 % 1009,2 hPa 0,0 mm 3,9 km/h (1 Bft) S-SW 197 ° 0 min 0,000 mm 0,0 UV-I 0 W/m² 2,3 °C 3,9 °C 6,4 km/h (2 Bft)
04.02.2017 00:47 3,9 °C 3,9 °C 89 % 1009,2 hPa 0,0 mm 4,4 km/h (1 Bft) S 188 ° 0 min 0,000 mm 0,0 UV-I 0 W/m² 2,3 °C 3,9 °C 6,4 km/h (2 Bft)
04.02.2017 00:48 3,9 °C 3,9 °C 89 % 1009,2 hPa 0,0 mm 6,2 km/h (2 Bft) W-SW 249 ° 0 min 0,000 mm 0,0 UV-I 0 W/m² 2,3 °C 2,4 °C 11,3 km/h (2 Bft)
04.02.2017 00:49 3,9 °C 3,9 °C 89 % 1009,2 hPa 0,0 mm 6,2 km/h (2 Bft) W-SW 255 ° 0 min 0,000 mm 0,0 UV-I 0 W/m² 2,3 °C 2,4 °C 8,0 km/h (2 Bft)
04.02.2017 00:50 3,9 °C 3,9 °C 89 % 1009,2 hPa 0,0 mm 5,4 km/h (1 Bft) W-SW 244 ° 0 min 0,000 mm 0,0 UV-I 0 W/m² 2,3 °C 2,7 °C 8,0 km/h (2 Bft)
04.02.2017 00:51 3,9 °C 3,9 °C 89 % 1009,1 hPa 0,0 mm 6,4 km/h (2 Bft) W 259 ° 0 min 0,000 mm 0,0 UV-I 0 W/m² 2,3 °C 2,3 °C 12,9 km/h (3 Bft)
04.02.2017 00:52 3,9 °C 3,9 °C 89 % 1009,1 hPa 0,0 mm 4,1 km/h (1 Bft) SW 236 ° 0 min 0,000 mm 0,0 UV-I 0 W/m² 2,3 °C 3,9 °C 4,8 km/h (1 Bft)
04.02.2017 00:53 3,9 °C 3,9 °C 89 % 1009,2 hPa 0,0 mm 4,8 km/h (1 Bft) W-SW 244 ° 0 min 0,000 mm 0,0 UV-I 0 W/m² 2,3 °C 2,9 °C 6,4 km/h (2 Bft)
04.02.2017 00:54 3,9 °C 3,9 °C 89 % 1009,2 hPa 0,0 mm 2,7 km/h (1 Bft) W-SW 244 ° 0 min 0,000 mm 0,0 UV-I 0 W/m² 2,3 °C 3,9 °C 3,2 km/h (1 Bft)
04.02.2017 00:55 3,9 °C 3,9 °C 90 % 1009,2 hPa 0,2 mm 2,7 km/h (1 Bft) W-SW 244 ° 0 min 0,000 mm 0,0 UV-I 0 W/m² 2,4 °C 3,9 °C 4,8 km/h (1 Bft)
04.02.2017 00:56 3,9 °C 3,9 °C 90 % 1009,2 hPa 0,0 mm 2,7 km/h (1 Bft) W-SW 244 ° 0 min 0,000 mm 0,0 UV-I 0 W/m² 2,4 °C 3,9 °C 3,2 km/h (1 Bft)
04.02.2017 00:57 3,9 °C 3,9 °C 90 % 1009,2 hPa 0,0 mm 2,4 km/h (1 Bft) W-SW 244 ° 0 min 0,000 mm 0,0 UV-I 0 W/m² 2,4 °C 3,9 °C 3,2 km/h (1 Bft)
04.02.2017 00:58 3,8 °C 3,9 °C 90 % 1009,2 hPa 0,0 mm 4,1 km/h (1 Bft) W-SW 238 ° 0 min 0,000 mm 0,0 UV-I 0 W/m² 2,3 °C 3,8 °C 6,4 km/h (2 Bft)
04.02.2017 00:59 3,8 °C 3,8 °C 90 % 1009,2 hPa 0,0 mm 5,6 km/h (1 Bft) W 262 ° 0 min 0,000 mm 0,0 UV-I 0 W/m² 2,3 °C 2,5 °C 9,7 km/h (2 Bft)
04.02.2017 01:00 3,8 °C 3,8 °C 90 % 1009,2 hPa 0,0 mm 4,9 km/h (1 Bft) W-SW 248 ° 0 min 0,000 mm 0,0 UV-I 0 W/m² 2,3 °C 2,8 °C 6,4 km/h (2 Bft)
04.02.2017 01:01 3,8 °C 3,8 °C 90 % 1009,3 hPa 0,0 mm 5,5 km/h (1 Bft) W-SW 247 ° 0 min 0,000 mm 0,0 UV-I 0 W/m² 2,3 °C 2,5 °C 8,0 km/h (2 Bft)
04.02.2017 01:02 3,8 °C 3,8 °C 89 % 1009,3 hPa 0,0 mm 3,7 km/h (1 Bft) W-SW 247 ° 0 min 0,000 mm 0,0 UV-I 0 W/m² 2,2 °C 3,8 °C 4,8 km/h (1 Bft)
04.02.2017 01:03 3,8 °C 3,8 °C 90 % 1009,3 hPa 0,0 mm 4,2 km/h (1 Bft) SW 227 ° 0 min 0,000 mm 0,0 UV-I 0 W/m² 2,3 °C 3,8 °C 6,4 km/h (2 Bft)
04.02.2017 01:04 3,7 °C 3,8 °C 89 % 1009,3 hPa 0,0 mm 3,1 km/h (1 Bft) SW 227 ° 0 min 0,000 mm 0,0 UV-I 0 W/m² 2,1 °C 3,7 °C 4,8 km/h (1 Bft)
04.02.2017 01:05 3,7 °C 3,7 °C 90 % 1009,3 hPa 0,0 mm 6,3 km/h (2 Bft) W-SW 257 ° 0 min 0,000 mm 0,0 UV-I 0 W/m² 2,2 °C 2,1 °C 11,3 km/h (2 Bft)
04.02.2017 01:06 3,7 °C 3,7 °C 90 % 1009,3 hPa 0,0 mm 13,9 km/h (3 Bft) W 260 ° 0 min 0,000 mm 0,0 UV-I 0 W/m² 2,2 °C 0,3 °C 19,3 km/h (3 Bft)
04.02.2017 01:07 3,7 °C 3,7 °C 89 % 1009,3 hPa 0,0 mm 7,0 km/h (2 Bft) W-SW 255 ° 0 min 0,000 mm 0,0 UV-I 0 W/m² 2,1 °C 1,9 °C 11,3 km/h (2 Bft)
04.02.2017 01:08 3,7 °C 3,7 °C 89 % 1009,3 hPa 0,0 mm 8,7 km/h (2 Bft) W-SW 244 ° 0 min 0,000 mm 0,0 UV-I 0 W/m² 2,1 °C 1,4 °C 12,9 km/h (3 Bft)
04.02.2017 01:09 3,7 °C 3,7 °C 89 % 1009,2 hPa 0,0 mm 11,8 km/h (2 Bft) W 271 ° 0 min 0,000 mm 0,0 UV-I 0 W/m² 2,1 °C 0,7 °C 14,5 km/h (3 Bft)
04.02.2017 01:10 3,7 °C 3,7 °C 89 % 1009,2 hPa 0,0 mm 6,8 km/h (2 Bft) W-SW 251 ° 0 min 0,000 mm 0,0 UV-I 0 W/m² 2,1 °C 2,0 °C 12,9 km/h (3 Bft)
04.02.2017 01:11 3,6 °C 3,7 °C 89 % 1009,2 hPa 0,0 mm 6,1 km/h (2 Bft) W 275 ° 0 min 0,000 mm 0,0 UV-I 0 W/m² 2,0 °C 2,1 °C 12,9 km/h (3 Bft)
04.02.2017 01:12 3,6 °C 3,6 °C 89 % 1009,2 hPa 0,0 mm 10,5 km/h (2 Bft) W 267 ° 0 min 0,000 mm 0,0 UV-I 0 W/m² 2,0 °C 0,9 °C 19,3 km/h (3 Bft)
04.02.2017 01:13 3,6 °C 3,6 °C 89 % 1009,2 hPa 0,0 mm 15,3 km/h (3 Bft) W-SW 254 ° 0 min 0,000 mm 0,0 UV-I 0 W/m² 2,0 °C -0,0 °C 19,3 km/h (3 Bft)
04.02.2017 01:14 3,6 °C 3,6 °C 89 % 1009,2 hPa 0,0 mm 10,1 km/h (2 Bft) W-SW 252 ° 0 min 0,000 mm 0,0 UV-I 0 W/m² 2,0 °C 1,0 °C 12,9 km/h (3 Bft)
04.02.2017 01:15 3,5 °C 3,6 °C 89 % 1009,2 hPa 0,0 mm 14,6 km/h (3 Bft) W 259 ° 0 min 0,000 mm 0,0 UV-I 0 W/m² 1,9 °C -0,0 °C 19,3 km/h (3 Bft)
04.02.2017 01:16 3,5 °C 3,5 °C 89 % 1009,2 hPa 0,0 mm 8,4 km/h (2 Bft) W-SW 254 ° 0 min 0,000 mm 0,0 UV-I 0 W/m² 1,9 °C 1,3 °C 12,9 km/h (3 Bft)
04.02.2017 01:17 3,5 °C 3,5 °C 89 % 1009,2 hPa 0,0 mm 12,0 km/h (2 Bft) W-SW 247 ° 0 min 0,000 mm 0,0 UV-I 0 W/m² 1,9 °C 0,4 °C 14,5 km/h (3 Bft)
04.02.2017 01:18 3,4 °C 3,5 °C 89 % 1009,2 hPa 0,0 mm 13,8 km/h (3 Bft) W-SW 251 ° 0 min 0,000 mm 0,0 UV-I 0 W/m² 1,8 °C -0,0 °C 17,7 km/h (3 Bft)
04.02.2017 01:19 3,5 °C 3,5 °C 89 % 1009,3 hPa 0,0 mm 10,3 km/h (2 Bft) W 263 ° 0 min 0,000 mm 0,0 UV-I 0 W/m² 1,9 °C 0,8 °C 16,1 km/h (3 Bft)
04.02.2017 01:20 3,4 °C 3,5 °C 89 % 1009,3 hPa 0,0 mm 10,6 km/h (2 Bft) W-SW 247 ° 0 min 0,000 mm 0,0 UV-I 0 W/m² 1,8 °C 0,6 °C 16,1 km/h (3 Bft)
04.02.2017 01:21 3,4 °C 3,4 °C 90 % 1009,3 hPa 0,0 mm 16,6 km/h (3 Bft) W-NW 296 ° 0 min 0,000 mm 0,0 UV-I 0 W/m² 1,9 °C -0,5 °C 25,7 km/h (4 Bft)
04.02.2017 01:22 3,4 °C 3,4 °C 89 % 1009,3 hPa 0,0 mm 14,7 km/h (3 Bft) W 269 ° 0 min 0,000 mm 0,0 UV-I 0 W/m² 1,8 °C -0,2 °C 20,9 km/h (4 Bft)
04.02.2017 01:23 3,4 °C 3,4 °C 90 % 1009,3 hPa 0,0 mm 14,8 km/h (3 Bft) W 263 ° 0 min 0,000 mm 0,0 UV-I 0 W/m² 1,9 °C -0,2 °C 22,5 km/h (4 Bft)
04.02.2017 01:24 3,3 °C 3,4 °C 90 % 1009,3 hPa 0,0 mm 13,4 km/h (3 Bft) W 273 ° 0 min 0,000 mm 0,0 UV-I 0 W/m² 1,8 °C -0,1 °C 20,9 km/h (4 Bft)
04.02.2017 01:25 3,3 °C 3,3 °C 90 % 1009,3 hPa 0,0 mm 10,3 km/h (2 Bft) W 280 ° 0 min 0,000 mm 0,0 UV-I 0 W/m² 1,8 °C 0,6 °C 14,5 km/h (3 Bft)
04.02.2017 01:26 3,3 °C 3,3 °C 90 % 1009,3 hPa 0,0 mm 10,9 km/h (2 Bft) SW 229 ° 0 min 0,000 mm 0,0 UV-I 0 W/m² 1,8 °C 0,4 °C 14,5 km/h (3 Bft)
04.02.2017 01:27 3,3 °C 3,3 °C 90 % 1009,3 hPa 0,2 mm 7,8 km/h (2 Bft) W 259 ° 0 min 0,000 mm 0,0 UV-I 0 W/m² 1,8 °C 1,2 °C 11,3 km/h (2 Bft)
04.02.2017 01:28 3,3 °C 3,3 °C 90 % 1009,2 hPa 0,0 mm 9,4 km/h (2 Bft) W 279 ° 0 min 0,000 mm 0,0 UV-I 0 W/m² 1,8 °C 0,8 °C 14,5 km/h (3 Bft)
04.02.2017 01:29 3,3 °C 3,3 °C 90 % 1009,2 hPa 0,0 mm 11,9 km/h (2 Bft) S-SW 196 ° 0 min 0,000 mm 0,0 UV-I 0 W/m² 1,8 °C 0,2 °C 14,5 km/h (3 Bft)
04.02.2017 01:30 3,2 °C 3,3 °C 90 % 1009,2 hPa 0,0 mm 8,0 km/h (2 Bft) W 272 ° 0 min 0,000 mm 0,0 UV-I 0 W/m² 1,7 °C 1,0 °C 14,5 km/h (3 Bft)
04.02.2017 01:31 3,2 °C 3,2 °C 90 % 1009,2 hPa 0,0 mm 8,0 km/h (2 Bft) SW 231 ° 0 min 0,000 mm 0,0 UV-I 0 W/m² 1,7 °C 1,0 °C 12,9 km/h (3 Bft)
04.02.2017 01:32 3,2 °C 3,2 °C 90 % 1009,2 hPa 0,0 mm 6,6 km/h (2 Bft) W 259 ° 0 min 0,000 mm 0,0 UV-I 0 W/m² 1,7 °C 1,4 °C 11,3 km/h (2 Bft)
04.02.2017 01:33 3,2 °C 3,2 °C 90 % 1009,2 hPa 0,0 mm 5,3 km/h (1 Bft) SW 221 ° 0 min 0,000 mm 0,0 UV-I 0 W/m² 1,7 °C 1,9 °C 12,9 km/h (3 Bft)
04.02.2017 01:34 3,2 °C 3,2 °C 90 % 1009,2 hPa 0,0 mm 6,4 km/h (2 Bft) S-SW 198 ° 0 min 0,000 mm 0,0 UV-I 0 W/m² 1,7 °C 1,5 °C 11,3 km/h (2 Bft)
04.02.2017 01:35 3,1 °C 3,2 °C 90 % 1009,2 hPa 0,0 mm 6,6 km/h (2 Bft) W-SW 240 ° 0 min 0,000 mm 0,0 UV-I 0 W/m² 1,6 °C 1,3 °C 16,1 km/h (3 Bft)
04.02.2017 01:36 3,1 °C 3,2 °C 90 % 1009,2 hPa 0,0 mm 10,1 km/h (2 Bft) W-SW 237 ° 0 min 0,000 mm 0,0 UV-I 0 W/m² 1,6 °C 0,4 °C 14,5 km/h (3 Bft)
04.02.2017 01:37 3,1 °C 3,1 °C 90 % 1009,2 hPa 0,0 mm 8,8 km/h (2 Bft) W-SW 252 ° 0 min 0,000 mm 0,0 UV-I 0 W/m² 1,6 °C 0,7 °C 16,1 km/h (3 Bft)
04.02.2017 01:38 3,1 °C 3,1 °C 90 % 1009,2 hPa 0,0 mm 14,9 km/h (3 Bft) W-SW 247 ° 0 min 0,000 mm 0,0 UV-I 0 W/m² 1,6 °C -0,6 °C 22,5 km/h (4 Bft)
04.02.2017 01:39 3,1 °C 3,1 °C 90 % 1009,2 hPa 0,0 mm 10,0 km/h (2 Bft) W 260 ° 0 min 0,000 mm 0,0 UV-I 0 W/m² 1,6 °C 0,4 °C 17,7 km/h (3 Bft)
04.02.2017 01:40 3,1 °C 3,1 °C 91 % 1009,2 hPa 0,0 mm 11,1 km/h (2 Bft) SW 219 ° 0 min 0,000 mm 0,0 UV-I 0 W/m² 1,8 °C 0,1 °C 19,3 km/h (3 Bft)
04.02.2017 01:41 3,1 °C 3,1 °C 91 % 1009,2 hPa 0,2 mm 11,2 km/h (2 Bft) SW 226 ° 0 min 0,000 mm 0,0 UV-I 0 W/m² 1,8 °C 0,1 °C 16,1 km/h (3 Bft)
04.02.2017 01:42 3,0 °C 3,1 °C 91 % 1009,2 hPa 0,0 mm 15,6 km/h (3 Bft) W-SW 252 ° 0 min 0,000 mm 0,0 UV-I 0 W/m² 1,7 °C -0,8 °C 22,5 km/h (4 Bft)
04.02.2017 01:43 3,1 °C 3,1 °C 91 % 1009,3 hPa 0,0 mm 17,6 km/h (3 Bft) W-SW 248 ° 0 min 0,000 mm 0,0 UV-I 0 W/m² 1,8 °C -1,0 °C 24,1 km/h (4 Bft)
04.02.2017 01:44 3,0 °C 3,1 °C 91 % 1009,3 hPa 0,0 mm 11,1 km/h (2 Bft) W-SW 248 ° 0 min 0,000 mm 0,0 UV-I 0 W/m² 1,7 °C 0,0 °C 17,7 km/h (3 Bft)
04.02.2017 01:45 3,0 °C 3,0 °C 91 % 1009,3 hPa 0,0 mm 13,7 km/h (3 Bft) W 277 ° 0 min 0,000 mm 0,0 UV-I 0 W/m² 1,7 °C -0,5 °C 22,5 km/h (4 Bft)
04.02.2017 01:46 3,0 °C 3,0 °C 90 % 1009,2 hPa 0,0 mm 10,4 km/h (2 Bft) W 271 ° 0 min 0,000 mm 0,0 UV-I 0 W/m² 1,5 °C 0,2 °C 20,9 km/h (4 Bft)
04.02.2017 01:47 2,9 °C 3,0 °C 90 % 1009,2 hPa 0,0 mm 11,6 km/h (2 Bft) W-SW 246 ° 0 min 0,000 mm 0,0 UV-I 0 W/m² 1,4 °C -0,2 °C 19,3 km/h (3 Bft)
04.02.2017 01:48 2,9 °C 3,0 °C 90 % 1009,2 hPa 0,0 mm 15,9 km/h (3 Bft) SW 234 ° 0 min 0,000 mm 0,0 UV-I 0 W/m² 1,4 °C -1,0 °C 19,3 km/h (3 Bft)
04.02.2017 01:49 2,9 °C 2,9 °C 90 % 1009,2 hPa 0,2 mm 15,2 km/h (3 Bft) W 262 ° 0 min 0,000 mm 0,0 UV-I 0 W/m² 1,4 °C -0,9 °C 22,5 km/h (4 Bft)
04.02.2017 01:50 2,9 °C 2,9 °C 90 % 1009,1 hPa 0,0 mm 14,6 km/h (3 Bft) W-SW 238 ° 0 min 0,000 mm 0,0 UV-I 0 W/m² 1,4 °C -0,8 °C 20,9 km/h (4 Bft)
04.02.2017 01:51 2,9 °C 2,9 °C 90 % 1009,1 hPa 0,0 mm 11,1 km/h (2 Bft) W-SW 251 ° 0 min 0,000 mm 0,0 UV-I 0 W/m² 1,4 °C -0,1 °C 22,5 km/h (4 Bft)
04.02.2017 01:52 2,8 °C 2,9 °C 90 % 1009,2 hPa 0,0 mm 14,3 km/h (3 Bft) W 270 ° 0 min 0,000 mm 0,0 UV-I 0 W/m² 1,3 °C -0,8 °C 19,3 km/h (3 Bft)
04.02.2017 01:53 2,9 °C 2,9 °C 91 % 1009,2 hPa 0,0 mm 14,1 km/h (3 Bft) W-SW 247 ° 0 min 0,000 mm 0,0 UV-I 0 W/m² 1,6 °C -0,7 °C 17,7 km/h (3 Bft)
04.02.2017 01:54 2,8 °C 2,9 °C 91 % 1009,2 hPa 0,0 mm 11,5 km/h (2 Bft) W-SW 251 ° 0 min 0,000 mm 0,0 UV-I 0 W/m² 1,5 °C -0,3 °C 14,5 km/h (3 Bft)
04.02.2017 01:55 2,8 °C 2,8 °C 91 % 1009,2 hPa 0,0 mm 12,4 km/h (3 Bft) S-SW 209 ° 0 min 0,000 mm 0,0 UV-I 0 W/m² 1,5 °C -0,5 °C 16,1 km/h (3 Bft)
04.02.2017 01:56 2,8 °C 2,8 °C 91 % 1009,2 hPa 0,2 mm 7,5 km/h (2 Bft) W-SW 246 ° 0 min 0,000 mm 0,0 UV-I 0 W/m² 1,5 °C 0,7 °C 14,5 km/h (3 Bft)
04.02.2017 01:57 2,7 °C 2,8 °C 91 % 1009,2 hPa 0,0 mm 10,5 km/h (2 Bft) S-SW 211 ° 0 min 0,000 mm 0,0 UV-I 0 W/m² 1,4 °C -0,2 °C 17,7 km/h (3 Bft)
04.02.2017 01:58 2,7 °C 2,7 °C 91 % 1009,2 hPa 0,0 mm 10,3 km/h (2 Bft) W-SW 252 ° 0 min 0,000 mm 0,0 UV-I 0 W/m² 1,4 °C -0,2 °C 19,3 km/h (3 Bft)
04.02.2017 01:59 2,7 °C 2,7 °C 91 % 1009,2 hPa 0,0 mm 10,8 km/h (2 Bft) SW 233 ° 0 min 0,000 mm 0,0 UV-I 0 W/m² 1,4 °C -0,3 °C 17,7 km/h (3 Bft)
04.02.2017 02:00 2,7 °C 2,7 °C 91 % 1009,3 hPa 0,0 mm 8,7 km/h (2 Bft) S-SW 196 ° 0 min 0,000 mm 0,0 UV-I 0 W/m² 1,4 °C 0,2 °C 14,5 km/h (3 Bft)
04.02.2017 02:01 2,7 °C 2,7 °C 91 % 1009,2 hPa 0,2 mm 6,1 km/h (2 Bft) S-SW 192 ° 0 min 0,000 mm 0,0 UV-I 0 W/m² 1,4 °C 1,0 °C 9,7 km/h (2 Bft)
04.02.2017 02:02 2,6 °C 2,7 °C 91 % 1009,1 hPa 0,0 mm 10,9 km/h (2 Bft) S-SW 207 ° 0 min 0,000 mm 0,0 UV-I 0 W/m² 1,3 °C -0,4 °C 16,1 km/h (3 Bft)
04.02.2017 02:03 2,6 °C 2,6 °C 91 % 1009,1 hPa 0,0 mm 8,0 km/h (2 Bft) S-SW 202 ° 0 min 0,000 mm 0,0 UV-I 0 W/m² 1,3 °C 0,3 °C 12,9 km/h (3 Bft)
04.02.2017 02:04 2,6 °C 2,6 °C 91 % 1009,2 hPa 0,0 mm 7,9 km/h (2 Bft) W-SW 242 ° 0 min 0,000 mm 0,0 UV-I 0 W/m² 1,3 °C 0,3 °C 12,9 km/h (3 Bft)
04.02.2017 02:05 2,6 °C 2,6 °C 91 % 1009,2 hPa 0,0 mm 7,4 km/h (2 Bft) S-SW 206 ° 0 min 0,000 mm 0,0 UV-I 0 W/m² 1,3 °C 0,5 °C 9,7 km/h (2 Bft)
04.02.2017 02:06 2,6 °C 2,6 °C 91 % 1009,2 hPa 0,2 mm 6,4 km/h (2 Bft) S-SW 207 ° 0 min 0,000 mm 0,0 UV-I 0 W/m² 1,3 °C 0,8 °C 12,9 km/h (3 Bft)
04.02.2017 02:07 2,6 °C 2,6 °C 91 % 1009,2 hPa 0,0 mm 10,3 km/h (2 Bft) W-SW 250 ° 0 min 0,000 mm 0,0 UV-I 0 W/m² 1,3 °C -0,3 °C 16,1 km/h (3 Bft)
04.02.2017 02:08 2,6 °C 2,6 °C 91 % 1009,2 hPa 0,0 mm 7,3 km/h (2 Bft) S-SW 207 ° 0 min 0,000 mm 0,0 UV-I 0 W/m² 1,3 °C 0,5 °C 14,5 km/h (3 Bft)
04.02.2017 02:09 2,6 °C 2,6 °C 91 % 1009,1 hPa 0,0 mm 8,9 km/h (2 Bft) W-SW 249 ° 0 min 0,000 mm 0,0 UV-I 0 W/m² 1,3 °C 0,1 °C 16,1 km/h (3 Bft)
04.02.2017 02:10 2,6 °C 2,6 °C 91 % 1009,2 hPa 0,0 mm 5,5 km/h (1 Bft) W-SW 253 ° 0 min 0,000 mm 0,0 UV-I 0 W/m² 1,3 °C 1,2 °C 9,7 km/h (2 Bft)
04.02.2017 02:11 2,6 °C 2,6 °C 91 % 1009,1 hPa 0,0 mm 5,8 km/h (2 Bft) SW 220 ° 0 min 0,000 mm 0,0 UV-I 0 W/m² 1,3 °C 1,0 °C 8,0 km/h (2 Bft)
04.02.2017 02:12 2,6 °C 2,6 °C 91 % 1009,1 hPa 0,0 mm 8,0 km/h (2 Bft) SW 223 ° 0 min 0,000 mm 0,0 UV-I 0 W/m² 1,3 °C 0,3 °C 11,3 km/h (2 Bft)
04.02.2017 02:13 2,6 °C 2,6 °C 91 % 1009,1 hPa 0,0 mm 5,4 km/h (1 Bft) S 188 ° 0 min 0,000 mm 0,0 UV-I 0 W/m² 1,3 °C 1,2 °C 11,3 km/h (2 Bft)
04.02.2017 02:14 2,6 °C 2,6 °C 91 % 1009,1 hPa 0,0 mm 7,8 km/h (2 Bft) S-SW 192 ° 0 min 0,000 mm 0,0 UV-I 0 W/m² 1,3 °C 0,4 °C 12,9 km/h (3 Bft)
04.02.2017 02:15 2,6 °C 2,6 °C 91 % 1009,0 hPa 0,0 mm 7,2 km/h (2 Bft) SW 226 ° 0 min 0,000 mm 0,0 UV-I 0 W/m² 1,3 °C 0,6 °C 9,7 km/h (2 Bft)
04.02.2017 02:16 2,6 °C 2,6 °C 91 % 1009,0 hPa 0,0 mm 4,2 km/h (1 Bft) SW 228 ° 0 min 0,000 mm 0,0 UV-I 0 W/m² 1,3 °C 2,6 °C 6,4 km/h (2 Bft)
04.02.2017 02:17 2,6 °C 2,6 °C 91 % 1008,9 hPa 0,0 mm 8,0 km/h (2 Bft) S-SW 209 ° 0 min 0,000 mm 0,0 UV-I 0 W/m² 1,3 °C 0,3 °C 16,1 km/h (3 Bft)
04.02.2017 02:18 2,6 °C 2,6 °C 91 % 1008,9 hPa 0,0 mm 7,2 km/h (2 Bft) S-SW 211 ° 0 min 0,000 mm 0,0 UV-I 0 W/m² 1,3 °C 0,6 °C 12,9 km/h (3 Bft)
04.02.2017 02:19 2,6 °C 2,6 °C 91 % 1008,9 hPa 0,0 mm 6,1 km/h (2 Bft) S 180 ° 0 min 0,000 mm 0,0 UV-I 0 W/m² 1,3 °C 0,9 °C 8,0 km/h (2 Bft)
04.02.2017 02:20 2,7 °C 2,7 °C 91 % 1008,9 hPa 0,0 mm 7,1 km/h (2 Bft) S-SW 212 ° 0 min 0,000 mm 0,0 UV-I 0 W/m² 1,4 °C 0,7 °C 11,3 km/h (2 Bft)
04.02.2017 02:21 2,7 °C 2,7 °C 91 % 1008,9 hPa 0,0 mm 7,4 km/h (2 Bft) S 188 ° 0 min 0,000 mm 0,0 UV-I 0 W/m² 1,4 °C 0,6 °C 9,7 km/h (2 Bft)
04.02.2017 02:22 2,7 °C 2,7 °C 91 % 1008,9 hPa 0,0 mm 6,1 km/h (2 Bft) S-SW 207 ° 0 min 0,000 mm 0,0 UV-I 0 W/m² 1,4 °C 1,0 °C 11,3 km/h (2 Bft)
04.02.2017 02:23 2,7 °C 2,7 °C 91 % 1008,8 hPa 0,0 mm 7,2 km/h (2 Bft) SW 227 ° 0 min 0,000 mm 0,0 UV-I 0 W/m² 1,4 °C 0,7 °C 9,7 km/h (2 Bft)
04.02.2017 02:24 2,7 °C 2,7 °C 91 % 1008,8 hPa 0,0 mm 4,4 km/h (1 Bft) S-SW 208 ° 0 min 0,000 mm 0,0 UV-I 0 W/m² 1,4 °C 2,7 °C 6,4 km/h (2 Bft)
04.02.2017 02:25 2,8 °C 2,8 °C 91 % 1008,9 hPa 0,0 mm 8,7 km/h (2 Bft) S-SW 194 ° 0 min 0,000 mm 0,0 UV-I 0 W/m² 1,5 °C 0,4 °C 12,9 km/h (3 Bft)
04.02.2017 02:26 2,8 °C 2,8 °C 91 % 1008,9 hPa 0,0 mm 5,6 km/h (1 Bft) SW 219 ° 0 min 0,000 mm 0,0 UV-I 0 W/m² 1,5 °C 1,3 °C 11,3 km/h (2 Bft)
04.02.2017 02:27 2,8 °C 2,8 °C 91 % 1008,8 hPa 0,0 mm 7,5 km/h (2 Bft) W 275 ° 0 min 0,000 mm 0,0 UV-I 0 W/m² 1,5 °C 0,7 °C 14,5 km/h (3 Bft)
04.02.2017 02:28 2,8 °C 2,8 °C 91 % 1008,8 hPa 0,0 mm 6,7 km/h (2 Bft) SW 230 ° 0 min 0,000 mm 0,0 UV-I 0 W/m² 1,5 °C 1,0 °C 9,7 km/h (2 Bft)
04.02.2017 02:29 2,8 °C 2,8 °C 91 % 1008,8 hPa 0,0 mm 5,1 km/h (1 Bft) S-SW 212 ° 0 min 0,000 mm 0,0 UV-I 0 W/m² 1,5 °C 1,5 °C 6,4 km/h (2 Bft)
04.02.2017 02:30 2,8 °C 2,8 °C 90 % 1008,8 hPa 0,0 mm 10,3 km/h (2 Bft) W 263 ° 0 min 0,000 mm 0,0 UV-I 0 W/m² 1,3 °C -0,0 °C 16,1 km/h (3 Bft)
04.02.2017 02:31 2,9 °C 2,9 °C 90 % 1008,8 hPa 0,0 mm 9,0 km/h (2 Bft) S-SW 194 ° 0 min 0,000 mm 0,0 UV-I 0 W/m² 1,4 °C 0,4 °C 14,5 km/h (3 Bft)
04.02.2017 02:32 2,9 °C 2,9 °C 90 % 1008,8 hPa 0,0 mm 5,9 km/h (2 Bft) W-SW 240 ° 0 min 0,000 mm 0,0 UV-I 0 W/m² 1,4 °C 1,3 °C 14,5 km/h (3 Bft)
04.02.2017 02:33 2,9 °C 2,9 °C 90 % 1008,7 hPa 0,0 mm 4,4 km/h (1 Bft) S 175 ° 0 min 0,000 mm 0,0 UV-I 0 W/m² 1,4 °C 2,9 °C 6,4 km/h (2 Bft)
04.02.2017 02:34 2,9 °C 2,9 °C 90 % 1008,7 hPa 0,0 mm 7,5 km/h (2 Bft) SW 219 ° 0 min 0,000 mm 0,0 UV-I 0 W/m² 1,4 °C 0,8 °C 11,3 km/h (2 Bft)
04.02.2017 02:35 3,0 °C 3,0 °C 90 % 1008,7 hPa 0,0 mm 5,7 km/h (1 Bft) SW 230 ° 0 min 0,000 mm 0,0 UV-I 0 W/m² 1,5 °C 1,5 °C 6,4 km/h (2 Bft)
04.02.2017 02:36 3,0 °C 3,0 °C 89 % 1008,7 hPa 0,0 mm 5,2 km/h (1 Bft) S-SW 207 ° 0 min 0,000 mm 0,0 UV-I 0 W/m² 1,4 °C 1,7 °C 6,4 km/h (2 Bft)
04.02.2017 02:37 3,0 °C 3,0 °C 89 % 1008,7 hPa 0,0 mm 7,3 km/h (2 Bft) SW 227 ° 0 min 0,000 mm 0,0 UV-I 0 W/m² 1,4 °C 1,0 °C 14,5 km/h (3 Bft)
04.02.2017 02:38 3,1 °C 3,1 °C 89 % 1008,6 hPa 0,0 mm 8,9 km/h (2 Bft) SW 218 ° 0 min 0,000 mm 0,0 UV-I 0 W/m² 1,5 °C 0,7 °C 14,5 km/h (3 Bft)
04.02.2017 02:39 3,1 °C 3,1 °C 89 % 1008,6 hPa 0,0 mm 6,8 km/h (2 Bft) S-SW 193 ° 0 min 0,000 mm 0,0 UV-I 0 W/m² 1,5 °C 1,3 °C 9,7 km/h (2 Bft)
04.02.2017 02:40 3,1 °C 3,1 °C 89 % 1008,6 hPa 0,0 mm 9,4 km/h (2 Bft) SW 215 ° 0 min 0,000 mm 0,0 UV-I 0 W/m² 1,5 °C 0,5 °C 16,1 km/h (3 Bft)
04.02.2017 02:41 3,1 °C 3,1 °C 88 % 1008,6 hPa 0,0 mm 7,9 km/h (2 Bft) S-SW 209 ° 0 min 0,000 mm 0,0 UV-I 0 W/m² 1,3 °C 0,9 °C 12,9 km/h (3 Bft)
04.02.2017 02:42 3,1 °C 3,1 °C 88 % 1008,6 hPa 0,0 mm 9,0 km/h (2 Bft) S-SW 202 ° 0 min 0,000 mm 0,0 UV-I 0 W/m² 1,3 °C 0,6 °C 16,1 km/h (3 Bft)
04.02.2017 02:43 3,1 °C 3,2 °C 88 % 1008,7 hPa 0,0 mm 6,6 km/h (2 Bft) S-SW 209 ° 0 min 0,000 mm 0,0 UV-I 0 W/m² 1,3 °C 1,3 °C 14,5 km/h (3 Bft)
04.02.2017 02:44 3,1 °C 3,1 °C 89 % 1008,6 hPa 0,2 mm 6,2 km/h (2 Bft) SW 217 ° 0 min 0,000 mm 0,0 UV-I 0 W/m² 1,5 °C 1,5 °C 9,7 km/h (2 Bft)
04.02.2017 02:45 3,1 °C 3,2 °C 88 % 1008,6 hPa 0,0 mm 6,5 km/h (2 Bft) S 173 ° 0 min 0,000 mm 0,0 UV-I 0 W/m² 1,3 °C 1,4 °C 12,9 km/h (3 Bft)
04.02.2017 02:46 3,2 °C 3,2 °C 88 % 1008,5 hPa 0,0 mm 9,6 km/h (2 Bft) S 188 ° 0 min 0,000 mm 0,0 UV-I 0 W/m² 1,4 °C 0,6 °C 12,9 km/h (3 Bft)
04.02.2017 02:47 3,2 °C 3,2 °C 88 % 1008,5 hPa 0,0 mm 6,4 km/h (2 Bft) S-SW 205 ° 0 min 0,000 mm 0,0 UV-I 0 W/m² 1,4 °C 1,5 °C 8,0 km/h (2 Bft)
04.02.2017 02:48 3,2 °C 3,2 °C 88 % 1008,6 hPa 0,0 mm 6,8 km/h (2 Bft) S-SW 198 ° 0 min 0,000 mm 0,0 UV-I 0 W/m² 1,4 °C 1,4 °C 9,7 km/h (2 Bft)
04.02.2017 02:49 3,2 °C 3,2 °C 88 % 1008,5 hPa 0,0 mm 10,6 km/h (2 Bft) S 187 ° 0 min 0,000 mm 0,0 UV-I 0 W/m² 1,4 °C 0,4 °C 16,1 km/h (3 Bft)
04.02.2017 02:50 3,2 °C 3,2 °C 87 % 1008,5 hPa 0,0 mm 8,0 km/h (2 Bft) SW 218 ° 0 min 0,000 mm 0,0 UV-I 0 W/m² 1,2 °C 1,0 °C 14,5 km/h (3 Bft)
04.02.2017 02:51 3,2 °C 3,2 °C 87 % 1008,6 hPa 0,0 mm 7,2 km/h (2 Bft) SW 217 ° 0 min 0,000 mm 0,0 UV-I 0 W/m² 1,2 °C 1,3 °C 11,3 km/h (2 Bft)
04.02.2017 02:52 3,2 °C 3,3 °C 87 % 1008,6 hPa 0,0 mm 5,7 km/h (1 Bft) W-SW 242 ° 0 min 0,000 mm 0,0 UV-I 0 W/m² 1,2 °C 1,8 °C 8,0 km/h (2 Bft)
04.02.2017 02:53 3,3 °C 3,3 °C 87 % 1008,6 hPa 0,0 mm 6,8 km/h (2 Bft) S-SW 194 ° 0 min 0,000 mm 0,0 UV-I 0 W/m² 1,3 °C 1,5 °C 9,7 km/h (2 Bft)
04.02.2017 02:54 3,3 °C 3,3 °C 87 % 1008,6 hPa 0,0 mm 9,3 km/h (2 Bft) S-SW 207 ° 0 min 0,000 mm 0,0 UV-I 0 W/m² 1,3 °C 0,8 °C 14,5 km/h (3 Bft)
04.02.2017 02:55 3,3 °C 3,3 °C 87 % 1008,6 hPa 0,0 mm 7,7 km/h (2 Bft) S 171 ° 0 min 0,000 mm 0,0 UV-I 0 W/m² 1,3 °C 1,2 °C 11,3 km/h (2 Bft)
04.02.2017 02:56 3,3 °C 3,3 °C 88 % 1008,7 hPa 0,0 mm 5,4 km/h (1 Bft) S-SW 196 ° 0 min 0,000 mm 0,0 UV-I 0 W/m² 1,5 °C 2,0 °C 9,7 km/h (2 Bft)
04.02.2017 02:57 3,3 °C 3,3 °C 88 % 1008,7 hPa 0,0 mm 6,6 km/h (2 Bft) SW 232 ° 0 min 0,000 mm 0,0 UV-I 0 W/m² 1,5 °C 1,6 °C 9,7 km/h (2 Bft)
04.02.2017 02:58 3,3 °C 3,3 °C 88 % 1008,7 hPa 0,0 mm 4,8 km/h (1 Bft) SW 215 ° 0 min 0,000 mm 0,0 UV-I 0 W/m² 1,5 °C 2,2 °C 8,0 km/h (2 Bft)
04.02.2017 02:59 3,3 °C 3,3 °C 88 % 1008,7 hPa 0,0 mm 5,0 km/h (1 Bft) SW 223 ° 0 min 0,000 mm 0,0 UV-I 0 W/m² 1,5 °C 2,2 °C 8,0 km/h (2 Bft)
04.02.2017 03:00 3,3 °C 3,3 °C 88 % 1008,7 hPa 0,0 mm 4,5 km/h (1 Bft) S 190 ° 0 min 0,000 mm 0,0 UV-I 0 W/m² 1,5 °C 3,3 °C 6,4 km/h (2 Bft)
04.02.2017 03:01 3,2 °C 3,3 °C 88 % 1008,7 hPa 0,0 mm 2,7 km/h (1 Bft) S 190 ° 0 min 0,000 mm 0,0 UV-I 0 W/m² 1,4 °C 3,2 °C 6,4 km/h (2 Bft)
04.02.2017 03:02 3,2 °C 3,3 °C 88 % 1008,7 hPa 0,0 mm 6,2 km/h (2 Bft) S-SW 196 ° 0 min 0,000 mm 0,0 UV-I 0 W/m² 1,4 °C 1,6 °C 9,7 km/h (2 Bft)
04.02.2017 03:03 3,2 °C 3,2 °C 89 % 1008,7 hPa 0,0 mm 4,6 km/h (1 Bft) SW 225 ° 0 min 0,000 mm 0,0 UV-I 0 W/m² 1,6 °C 2,2 °C 6,4 km/h (2 Bft)
04.02.2017 03:04 3,2 °C 3,2 °C 89 % 1008,8 hPa 0,0 mm 6,1 km/h (2 Bft) SW 214 ° 0 min 0,000 mm 0,0 UV-I 0 W/m² 1,6 °C 1,6 °C 8,0 km/h (2 Bft)
04.02.2017 03:05 3,1 °C 3,2 °C 89 % 1008,8 hPa 0,0 mm 5,3 km/h (1 Bft) S-SW 202 ° 0 min 0,000 mm 0,0 UV-I 0 W/m² 1,5 °C 1,8 °C 8,0 km/h (2 Bft)
04.02.2017 03:06 3,1 °C 3,1 °C 89 % 1008,7 hPa 0,0 mm 8,0 km/h (2 Bft) S-SW 207 ° 0 min 0,000 mm 0,0 UV-I 0 W/m² 1,5 °C 0,9 °C 11,3 km/h (2 Bft)
04.02.2017 03:07 3,1 °C 3,1 °C 89 % 1008,7 hPa 0,0 mm 4,8 km/h (1 Bft) S 188 ° 0 min 0,000 mm 0,0 UV-I 0 W/m² 1,5 °C 2,0 °C 8,0 km/h (2 Bft)
04.02.2017 03:08 3,0 °C 3,1 °C 89 % 1008,7 hPa 0,0 mm 5,6 km/h (1 Bft) S 191 ° 0 min 0,000 mm 0,0 UV-I 0 W/m² 1,4 °C 1,6 °C 9,7 km/h (2 Bft)
04.02.2017 03:09 3,1 °C 3,1 °C 89 % 1008,7 hPa 0,0 mm 6,6 km/h (2 Bft) S-SW 212 ° 0 min 0,000 mm 0,0 UV-I 0 W/m² 1,5 °C 1,3 °C 9,7 km/h (2 Bft)
04.02.2017 03:10 3,0 °C 3,1 °C 89 % 1008,7 hPa 0,0 mm 9,2 km/h (2 Bft) S-SW 192 ° 0 min 0,000 mm 0,0 UV-I 0 W/m² 1,4 °C 0,5 °C 16,1 km/h (3 Bft)
04.02.2017 03:11 3,0 °C 3,0 °C 89 % 1008,7 hPa 0,0 mm 8,0 km/h (2 Bft) SW 225 ° 0 min 0,000 mm 0,0 UV-I 0 W/m² 1,4 °C 0,8 °C 12,9 km/h (3 Bft)
04.02.2017 03:12 2,9 °C 3,0 °C 89 % 1008,7 hPa 0,0 mm 6,9 km/h (2 Bft) S-SW 202 ° 0 min 0,000 mm 0,0 UV-I 0 W/m² 1,3 °C 1,0 °C 9,7 km/h (2 Bft)
04.02.2017 03:13 3,0 °C 3,0 °C 89 % 1008,8 hPa 0,0 mm 5,6 km/h (1 Bft) S-SW 193 ° 0 min 0,000 mm 0,0 UV-I 0 W/m² 1,4 °C 1,6 °C 8,0 km/h (2 Bft)
04.02.2017 03:14 3,0 °C 3,0 °C 89 % 1008,7 hPa 0,0 mm 5,8 km/h (2 Bft) S-SO 167 ° 0 min 0,000 mm 0,0 UV-I 0 W/m² 1,4 °C 1,5 °C 8,0 km/h (2 Bft)
04.02.2017 03:15 3,0 °C 3,0 °C 89 % 1008,7 hPa 0,0 mm 6,2 km/h (2 Bft) W-SW 254 ° 0 min 0,000 mm 0,0 UV-I 0 W/m² 1,4 °C 1,4 °C 11,3 km/h (2 Bft)
04.02.2017 03:16 3,0 °C 3,0 °C 89 % 1008,7 hPa 0,0 mm 6,7 km/h (2 Bft) S 188 ° 0 min 0,000 mm 0,0 UV-I 0 W/m² 1,4 °C 1,2 °C 9,7 km/h (2 Bft)
04.02.2017 03:17 3,0 °C 3,0 °C 89 % 1008,7 hPa 0,0 mm 7,8 km/h (2 Bft) S-SW 213 ° 0 min 0,000 mm 0,0 UV-I 0 W/m² 1,4 °C 0,8 °C 16,1 km/h (3 Bft)
04.02.2017 03:18 3,0 °C 3,0 °C 89 % 1008,7 hPa 0,0 mm 3,8 km/h (1 Bft) S-SW 201 ° 0 min 0,000 mm 0,0 UV-I 0 W/m² 1,4 °C 3,0 °C 4,8 km/h (1 Bft)
04.02.2017 03:19 3,0 °C 3,1 °C 89 % 1008,7 hPa 0,0 mm 3,6 km/h (1 Bft) S-SW 207 ° 0 min 0,000 mm 0,0 UV-I 0 W/m² 1,4 °C 3,0 °C 4,8 km/h (1 Bft)
04.02.2017 03:20 3,1 °C 3,1 °C 89 % 1008,7 hPa 0,0 mm 3,6 km/h (1 Bft) SW 215 ° 0 min 0,000 mm 0,0 UV-I 0 W/m² 1,5 °C 3,1 °C 4,8 km/h (1 Bft)
04.02.2017 03:21 3,1 °C 3,1 °C 89 % 1008,7 hPa 0,0 mm 3,8 km/h (1 Bft) SW 217 ° 0 min 0,000 mm 0,0 UV-I 0 W/m² 1,5 °C 3,1 °C 6,4 km/h (2 Bft)
04.02.2017 03:22 3,1 °C 3,1 °C 89 % 1008,7 hPa 0,0 mm 5,6 km/h (1 Bft) SW 228 ° 0 min 0,000 mm 0,0 UV-I 0 W/m² 1,5 °C 1,7 °C 8,0 km/h (2 Bft)
04.02.2017 03:23 3,1 °C 3,1 °C 88 % 1008,7 hPa 0,0 mm 6,2 km/h (2 Bft) S-SW 192 ° 0 min 0,000 mm 0,0 UV-I 0 W/m² 1,3 °C 1,5 °C 9,7 km/h (2 Bft)
04.02.2017 03:24 3,1 °C 3,1 °C 88 % 1008,7 hPa 0,0 mm 4,6 km/h (1 Bft) SW 219 ° 0 min 0,000 mm 0,0 UV-I 0 W/m² 1,3 °C 2,1 °C 8,0 km/h (2 Bft)
04.02.2017 03:25 3,1 °C 3,2 °C 89 % 1008,7 hPa 0,0 mm 4,2 km/h (1 Bft) S 187 ° 0 min 0,000 mm 0,0 UV-I 0 W/m² 1,5 °C 3,1 °C 6,4 km/h (2 Bft)
04.02.2017 03:26 3,1 °C 3,2 °C 88 % 1008,7 hPa 0,0 mm 3,3 km/h (1 Bft) S 187 ° 0 min 0,000 mm 0,0 UV-I 0 W/m² 1,3 °C 3,1 °C 4,8 km/h (1 Bft)
04.02.2017 03:27 3,2 °C 3,2 °C 88 % 1008,7 hPa 0,0 mm 5,0 km/h (1 Bft) S-SW 193 ° 0 min 0,000 mm 0,0 UV-I 0 W/m² 1,4 °C 2,0 °C 8,0 km/h (2 Bft)
04.02.2017 03:28 3,2 °C 3,2 °C 88 % 1008,7 hPa 0,0 mm 4,1 km/h (1 Bft) SW 217 ° 0 min 0,000 mm 0,0 UV-I 0 W/m² 1,4 °C 3,2 °C 6,4 km/h (2 Bft)
04.02.2017 03:29 3,2 °C 3,2 °C 88 % 1008,7 hPa 0,0 mm 4,1 km/h (1 Bft) S-SW 205 ° 0 min 0,000 mm 0,0 UV-I 0 W/m² 1,4 °C 3,2 °C 6,4 km/h (2 Bft)
04.02.2017 03:30 3,2 °C 3,2 °C 88 % 1008,7 hPa 0,0 mm 2,9 km/h (1 Bft) S-SW 205 ° 0 min 0,000 mm 0,0 UV-I 0 W/m² 1,4 °C 3,2 °C 4,8 km/h (1 Bft)
04.02.2017 03:31 3,2 °C 3,2 °C 88 % 1008,7 hPa 0,0 mm 3,7 km/h (1 Bft) S-SW 205 ° 0 min 0,000 mm 0,0 UV-I 0 W/m² 1,4 °C 3,2 °C 4,8 km/h (1 Bft)
04.02.2017 03:32 3,2 °C 3,2 °C 88 % 1008,7 hPa 0,0 mm 4,8 km/h (1 Bft) S-SW 193 ° 0 min 0,000 mm 0,0 UV-I 0 W/m² 1,4 °C 2,1 °C 6,4 km/h (2 Bft)
04.02.2017 03:33 3,2 °C 3,2 °C 88 % 1008,7 hPa 0,0 mm 4,6 km/h (1 Bft) S-SW 193 ° 0 min 0,000 mm 0,0 UV-I 0 W/m² 1,4 °C 2,2 °C 6,4 km/h (2 Bft)
04.02.2017 03:34 3,2 °C 3,2 °C 88 % 1008,7 hPa 0,0 mm 4,4 km/h (1 Bft) S-SW 207 ° 0 min 0,000 mm 0,0 UV-I 0 W/m² 1,4 °C 3,2 °C 4,8 km/h (1 Bft)
04.02.2017 03:35 3,2 °C 3,2 °C 88 % 1008,7 hPa 0,0 mm 2,4 km/h (1 Bft) S 183 ° 0 min 0,000 mm 0,0 UV-I 0 W/m² 1,4 °C 3,2 °C 3,2 km/h (1 Bft)
04.02.2017 03:36 3,2 °C 3,2 °C 88 % 1008,6 hPa 0,0 mm 3,2 km/h (1 Bft) S 184 ° 0 min 0,000 mm 0,0 UV-I 0 W/m² 1,4 °C 3,2 °C 6,4 km/h (2 Bft)
04.02.2017 03:37 3,2 °C 3,2 °C 88 % 1008,6 hPa 0,0 mm 4,0 km/h (1 Bft) S 184 ° 0 min 0,000 mm 0,0 UV-I 0 W/m² 1,4 °C 3,2 °C 6,4 km/h (2 Bft)
04.02.2017 03:38 3,2 °C 3,2 °C 88 % 1008,6 hPa 0,0 mm 3,8 km/h (1 Bft) S 184 ° 0 min 0,000 mm 0,0 UV-I 0 W/m² 1,4 °C 3,2 °C 6,4 km/h (2 Bft)
04.02.2017 03:39 3,2 °C 3,2 °C 88 % 1008,7 hPa 0,0 mm 4,0 km/h (1 Bft) SW 214 ° 0 min 0,000 mm 0,0 UV-I 0 W/m² 1,4 °C 3,2 °C 6,4 km/h (2 Bft)
04.02.2017 03:40 3,2 °C 3,2 °C 88 % 1008,7 hPa 0,0 mm 4,2 km/h (1 Bft) SW 227 ° 0 min 0,000 mm 0,0 UV-I 0 W/m² 1,4 °C 3,2 °C 6,4 km/h (2 Bft)
04.02.2017 03:41 3,2 °C 3,2 °C 88 % 1008,7 hPa 0,0 mm 2,8 km/h (1 Bft) S-SW 203 ° 0 min 0,000 mm 0,0 UV-I 0 W/m² 1,4 °C 3,2 °C 4,8 km/h (1 Bft)
04.02.2017 03:42 3,2 °C 3,2 °C 88 % 1008,7 hPa 0,0 mm 3,9 km/h (1 Bft) S-SW 210 ° 0 min 0,000 mm 0,0 UV-I 0 W/m² 1,4 °C 3,2 °C 6,4 km/h (2 Bft)
04.02.2017 03:43 3,2 °C 3,2 °C 88 % 1008,7 hPa 0,0 mm 4,4 km/h (1 Bft) S-SW 211 ° 0 min 0,000 mm 0,0 UV-I 0 W/m² 1,4 °C 3,2 °C 8,0 km/h (2 Bft)
04.02.2017 03:44 3,2 °C 3,2 °C 87 % 1008,7 hPa 0,0 mm 3,5 km/h (1 Bft) S-SW 194 ° 0 min 0,000 mm 0,0 UV-I 0 W/m² 1,2 °C 3,2 °C 6,4 km/h (2 Bft)
04.02.2017 03:45 3,3 °C 3,3 °C 87 % 1008,7 hPa 0,0 mm 3,8 km/h (1 Bft) SW 227 ° 0 min 0,000 mm 0,0 UV-I 0 W/m² 1,3 °C 3,3 °C 6,4 km/h (2 Bft)
04.02.2017 03:46 3,2 °C 3,3 °C 87 % 1008,6 hPa 0,0 mm 5,2 km/h (1 Bft) S-SW 196 ° 0 min 0,000 mm 0,0 UV-I 0 W/m² 1,2 °C 2,0 °C 8,0 km/h (2 Bft)
04.02.2017 03:47 3,3 °C 3,3 °C 87 % 1008,6 hPa 0,0 mm 6,5 km/h (2 Bft) S-SW 199 ° 0 min 0,000 mm 0,0 UV-I 0 W/m² 1,3 °C 1,6 °C 11,3 km/h (2 Bft)
04.02.2017 03:48 3,3 °C 3,3 °C 87 % 1008,6 hPa 0,0 mm 6,0 km/h (2 Bft) W-SW 250 ° 0 min 0,000 mm 0,0 UV-I 0 W/m² 1,3 °C 1,8 °C 11,3 km/h (2 Bft)
04.02.2017 03:49 3,3 °C 3,3 °C 87 % 1008,5 hPa 0,0 mm 5,4 km/h (1 Bft) S 187 ° 0 min 0,000 mm 0,0 UV-I 0 W/m² 1,3 °C 2,0 °C 8,0 km/h (2 Bft)
04.02.2017 03:50 3,3 °C 3,3 °C 87 % 1008,5 hPa 0,0 mm 2,8 km/h (1 Bft) S 187 ° 0 min 0,000 mm 0,0 UV-I 0 W/m² 1,3 °C 3,3 °C 4,8 km/h (1 Bft)
04.02.2017 03:51 3,3 °C 3,3 °C 87 % 1008,4 hPa 0,0 mm 3,8 km/h (1 Bft) SW 220 ° 0 min 0,000 mm 0,0 UV-I 0 W/m² 1,3 °C 3,3 °C 8,0 km/h (2 Bft)
04.02.2017 03:52 3,3 °C 3,3 °C 87 % 1008,4 hPa 0,0 mm 4,8 km/h (1 Bft) S 176 ° 0 min 0,000 mm 0,0 UV-I 0 W/m² 1,3 °C 2,2 °C 9,7 km/h (2 Bft)
04.02.2017 03:53 3,3 °C 3,3 °C 87 % 1008,4 hPa 0,0 mm 4,6 km/h (1 Bft) W-SW 252 ° 0 min 0,000 mm 0,0 UV-I 0 W/m² 1,3 °C 2,3 °C 6,4 km/h (2 Bft)
04.02.2017 03:54 3,3 °C 3,4 °C 87 % 1008,4 hPa 0,0 mm 4,3 km/h (1 Bft) S-SW 204 ° 0 min 0,000 mm 0,0 UV-I 0 W/m² 1,3 °C 3,3 °C 6,4 km/h (2 Bft)
04.02.2017 03:55 3,3 °C 3,3 °C 86 % 1008,4 hPa 0,0 mm 2,9 km/h (1 Bft) S-SW 204 ° 0 min 0,000 mm 0,0 UV-I 0 W/m² 1,2 °C 3,3 °C 4,8 km/h (1 Bft)
04.02.2017 03:56 3,4 °C 3,4 °C 86 % 1008,4 hPa 0,0 mm 6,4 km/h (2 Bft) S-SW 204 ° 0 min 0,000 mm 0,0 UV-I 0 W/m² 1,3 °C 1,7 °C 9,7 km/h (2 Bft)
04.02.2017 03:57 3,4 °C 3,4 °C 86 % 1008,4 hPa 0,0 mm 6,6 km/h (2 Bft) S-SW 198 ° 0 min 0,000 mm 0,0 UV-I 0 W/m² 1,3 °C 1,7 °C 9,7 km/h (2 Bft)
04.02.2017 03:58 3,4 °C 3,4 °C 87 % 1008,4 hPa 0,0 mm 6,6 km/h (2 Bft) S 175 ° 0 min 0,000 mm 0,0 UV-I 0 W/m² 1,4 °C 1,7 °C 12,9 km/h (3 Bft)
04.02.2017 03:59 3,4 °C 3,4 °C 87 % 1008,5 hPa 0,0 mm 6,6 km/h (2 Bft) S 182 ° 0 min 0,000 mm 0,0 UV-I 0 W/m² 1,4 °C 1,7 °C 8,0 km/h (2 Bft)
04.02.2017 04:00 3,4 °C 3,4 °C 87 % 1008,5 hPa 0,0 mm 6,5 km/h (2 Bft) S-SW 199 ° 0 min 0,000 mm 0,0 UV-I 0 W/m² 1,4 °C 1,7 °C 12,9 km/h (3 Bft)
04.02.2017 04:01 3,4 °C 3,4 °C 87 % 1008,4 hPa 0,0 mm 1,7 km/h (1 Bft) SW 223 ° 0 min 0,000 mm 0,0 UV-I 0 W/m² 1,4 °C 3,4 °C 3,2 km/h (1 Bft)
04.02.2017 04:02 3,4 °C 3,4 °C 87 % 1008,4 hPa 0,0 mm 2,5 km/h (1 Bft) SW 217 ° 0 min 0,000 mm 0,0 UV-I 0 W/m² 1,4 °C 3,4 °C 6,4 km/h (2 Bft)
04.02.2017 04:03 3,4 °C 3,4 °C 87 % 1008,4 hPa 0,0 mm 2,5 km/h (1 Bft) S-SW 193 ° 0 min 0,000 mm 0,0 UV-I 0 W/m² 1,4 °C 3,4 °C 3,2 km/h (1 Bft)
04.02.2017 04:04 3,4 °C 3,4 °C 87 % 1008,3 hPa 0,0 mm 6,9 km/h (2 Bft) S 188 ° 0 min 0,000 mm 0,0 UV-I 0 W/m² 1,4 °C 1,6 °C 11,3 km/h (2 Bft)
04.02.2017 04:05 3,4 °C 3,4 °C 86 % 1008,2 hPa 0,0 mm 3,3 km/h (1 Bft) S 186 ° 0 min 0,000 mm 0,0 UV-I 0 W/m² 1,3 °C 3,4 °C 4,8 km/h (1 Bft)
04.02.2017 04:06 3,3 °C 3,4 °C 86 % 1008,2 hPa 0,0 mm 4,2 km/h (1 Bft) W-SW 244 ° 0 min 0,000 mm 0,0 UV-I 0 W/m² 1,2 °C 3,3 °C 6,4 km/h (2 Bft)
04.02.2017 04:07 3,3 °C 3,3 °C 86 % 1008,2 hPa 0,0 mm 4,1 km/h (1 Bft) W 268 ° 0 min 0,000 mm 0,0 UV-I 0 W/m² 1,2 °C 3,3 °C 9,7 km/h (2 Bft)
04.02.2017 04:08 3,3 °C 3,4 °C 86 % 1008,2 hPa 0,0 mm 2,7 km/h (1 Bft) S-SW 199 ° 0 min 0,000 mm 0,0 UV-I 0 W/m² 1,2 °C 3,3 °C 6,4 km/h (2 Bft)
04.02.2017 04:09 3,3 °C 3,3 °C 86 % 1008,2 hPa 0,0 mm 6,8 km/h (2 Bft) SW 232 ° 0 min 0,000 mm 0,0 UV-I 0 W/m² 1,2 °C 1,5 °C 12,9 km/h (3 Bft)
04.02.2017 04:10 3,4 °C 3,4 °C 86 % 1008,2 hPa 0,0 mm 5,5 km/h (1 Bft) S-SW 211 ° 0 min 0,000 mm 0,0 UV-I 0 W/m² 1,3 °C 2,1 °C 9,7 km/h (2 Bft)
04.02.2017 04:11 3,4 °C 3,4 °C 86 % 1008,2 hPa 0,0 mm 5,3 km/h (1 Bft) S-SW 196 ° 0 min 0,000 mm 0,0 UV-I 0 W/m² 1,3 °C 2,1 °C 6,4 km/h (2 Bft)
04.02.2017 04:12 3,4 °C 3,4 °C 86 % 1008,1 hPa 0,0 mm 4,3 km/h (1 Bft) S 190 ° 0 min 0,000 mm 0,0 UV-I 0 W/m² 1,3 °C 3,4 °C 8,0 km/h (2 Bft)
04.02.2017 04:13 3,3 °C 3,4 °C 86 % 1008,1 hPa 0,0 mm 5,2 km/h (1 Bft) S 179 ° 0 min 0,000 mm 0,0 UV-I 0 W/m² 1,2 °C 2,1 °C 8,0 km/h (2 Bft)
04.02.2017 04:14 3,3 °C 3,4 °C 86 % 1008,1 hPa 0,0 mm 7,1 km/h (2 Bft) S-SW 210 ° 0 min 0,000 mm 0,0 UV-I 0 W/m² 1,2 °C 1,4 °C 9,7 km/h (2 Bft)
04.02.2017 04:15 3,3 °C 3,3 °C 85 % 1008,1 hPa 0,0 mm 3,2 km/h (1 Bft) S-SW 192 ° 0 min 0,000 mm 0,0 UV-I 0 W/m² 1,0 °C 3,3 °C 4,8 km/h (1 Bft)
04.02.2017 04:16 3,3 °C 3,3 °C 86 % 1008,1 hPa 0,0 mm 4,2 km/h (1 Bft) S-SW 192 ° 0 min 0,000 mm 0,0 UV-I 0 W/m² 1,2 °C 3,3 °C 4,8 km/h (1 Bft)
04.02.2017 04:17 3,3 °C 3,3 °C 86 % 1008,1 hPa 0,0 mm 3,6 km/h (1 Bft) S 186 ° 0 min 0,000 mm 0,0 UV-I 0 W/m² 1,2 °C 3,3 °C 4,8 km/h (1 Bft)
04.02.2017 04:18 3,3 °C 3,3 °C 86 % 1008,2 hPa 0,0 mm 2,3 km/h (1 Bft) S 186 ° 0 min 0,000 mm 0,0 UV-I 0 W/m² 1,2 °C 3,3 °C 4,8 km/h (1 Bft)
04.02.2017 04:19 3,3 °C 3,3 °C 87 % 1008,2 hPa 0,0 mm 2,3 km/h (1 Bft) S 178 ° 0 min 0,000 mm 0,0 UV-I 0 W/m² 1,3 °C 3,3 °C 4,8 km/h (1 Bft)
04.02.2017 04:20 3,3 °C 3,3 °C 87 % 1008,2 hPa 0,0 mm 3,3 km/h (1 Bft) S 189 ° 0 min 0,000 mm 0,0 UV-I 0 W/m² 1,3 °C 3,3 °C 4,8 km/h (1 Bft)
04.02.2017 04:21 3,3 °C 3,3 °C 87 % 1008,2 hPa 0,0 mm 2,4 km/h (1 Bft) S 189 ° 0 min 0,000 mm 0,0 UV-I 0 W/m² 1,3 °C 3,3 °C 3,2 km/h (1 Bft)
04.02.2017 04:22 3,3 °C 3,3 °C 87 % 1008,2 hPa 0,0 mm 1,5 km/h (1 Bft) S 189 ° 0 min 0,000 mm 0,0 UV-I 0 W/m² 1,3 °C 3,3 °C 3,2 km/h (1 Bft)
04.02.2017 04:23 3,3 °C 3,3 °C 88 % 1008,2 hPa 0,0 mm 1,1 km/h (1 Bft) S 189 ° 0 min 0,000 mm 0,0 UV-I 0 W/m² 1,5 °C 3,3 °C 1,6 km/h (1 Bft)
04.02.2017 04:24 3,3 °C 3,3 °C 88 % 1008,2 hPa 0,0 mm 0,7 km/h (0 Bft) S 189 ° 0 min 0,000 mm 0,0 UV-I 0 W/m² 1,5 °C 3,3 °C 1,6 km/h (1 Bft)
04.02.2017 04:25 3,3 °C 3,3 °C 88 % 1008,2 hPa 0,0 mm 0,8 km/h (0 Bft) S 189 ° 0 min 0,000 mm 0,0 UV-I 0 W/m² 1,5 °C 3,3 °C 1,6 km/h (1 Bft)
04.02.2017 04:26 3,2 °C 3,3 °C 88 % 1008,1 hPa 0,0 mm 1,4 km/h (1 Bft) S 189 ° 0 min 0,000 mm 0,0 UV-I 0 W/m² 1,4 °C 3,2 °C 3,2 km/h (1 Bft)
04.02.2017 04:27 3,2 °C 3,3 °C 88 % 1008,1 hPa 0,0 mm 0,8 km/h (0 Bft) S 189 ° 0 min 0,000 mm 0,0 UV-I 0 W/m² 1,4 °C 3,2 °C 1,6 km/h (1 Bft)
04.02.2017 04:28 3,2 °C 3,2 °C 88 % 1008,2 hPa 0,0 mm 1,5 km/h (1 Bft) S 189 ° 0 min 0,000 mm 0,0 UV-I 0 W/m² 1,4 °C 3,2 °C 3,2 km/h (1 Bft)
04.02.2017 04:29 3,2 °C 3,2 °C 88 % 1008,1 hPa 0,0 mm 2,8 km/h (1 Bft) S 189 ° 0 min 0,000 mm 0,0 UV-I 0 W/m² 1,4 °C 3,2 °C 4,8 km/h (1 Bft)
04.02.2017 04:30 3,2 °C 3,2 °C 89 % 1008,1 hPa 0,0 mm 2,1 km/h (1 Bft) S 189 ° 0 min 0,000 mm 0,0 UV-I 0 W/m² 1,6 °C 3,2 °C 3,2 km/h (1 Bft)
04.02.2017 04:31 3,2 °C 3,2 °C 89 % 1008,1 hPa 0,0 mm 2,4 km/h (1 Bft) S 189 ° 0 min 0,000 mm 0,0 UV-I 0 W/m² 1,6 °C 3,2 °C 3,2 km/h (1 Bft)
04.02.2017 04:32 3,1 °C 3,2 °C 89 % 1008,1 hPa 0,0 mm 0,4 km/h (0 Bft) S 189 ° 0 min 0,000 mm 0,0 UV-I 0 W/m² 1,5 °C 3,1 °C 1,6 km/h (1 Bft)
04.02.2017 04:33 3,1 °C 3,1 °C 89 % 1008,1 hPa 0,0 mm 0,0 km/h (0 Bft) S 189 ° 0 min 0,000 mm 0,0 UV-I 0 W/m² 1,5 °C 3,1 °C 0,0 km/h (0 Bft)
04.02.2017 04:34 3,1 °C 3,1 °C 89 % 1008,1 hPa 0,0 mm 0,5 km/h (0 Bft) S 189 ° 0 min 0,000 mm 0,0 UV-I 0 W/m² 1,5 °C 3,1 °C 1,6 km/h (1 Bft)
04.02.2017 04:35 3,1 °C 3,1 °C 89 % 1008,1 hPa 0,0 mm 1,1 km/h (1 Bft) S 189 ° 0 min 0,000 mm 0,0 UV-I 0 W/m² 1,5 °C 3,1 °C 3,2 km/h (1 Bft)
04.02.2017 04:36 3,0 °C 3,1 °C 89 % 1008,1 hPa 0,0 mm 3,0 km/h (1 Bft) O 92 ° 0 min 0,000 mm 0,0 UV-I 0 W/m² 1,4 °C 3,0 °C 4,8 km/h (1 Bft)
04.02.2017 04:37 3,0 °C 3,0 °C 89 % 1008,0 hPa 0,0 mm 1,7 km/h (1 Bft) O 92 ° 0 min 0,000 mm 0,0 UV-I 0 W/m² 1,4 °C 3,0 °C 3,2 km/h (1 Bft)
04.02.2017 04:38 2,9 °C 3,0 °C 89 % 1008,0 hPa 0,0 mm 1,2 km/h (1 Bft) O 92 ° 0 min 0,000 mm 0,0 UV-I 0 W/m² 1,3 °C 2,9 °C 1,6 km/h (1 Bft)
04.02.2017 04:39 2,9 °C 2,9 °C 90 % 1008,0 hPa 0,0 mm 1,3 km/h (1 Bft) O 92 ° 0 min 0,000 mm 0,0 UV-I 0 W/m² 1,4 °C 2,9 °C 3,2 km/h (1 Bft)
04.02.2017 04:40 2,9 °C 2,9 °C 89 % 1008,0 hPa 0,0 mm 2,7 km/h (1 Bft) O 92 ° 0 min 0,000 mm 0,0 UV-I 0 W/m² 1,3 °C 2,9 °C 4,8 km/h (1 Bft)
04.02.2017 04:41 2,8 °C 2,9 °C 90 % 1007,9 hPa 0,0 mm 0,3 km/h (0 Bft) O 92 ° 0 min 0,000 mm 0,0 UV-I 0 W/m² 1,3 °C 2,8 °C 1,6 km/h (1 Bft)
04.02.2017 04:42 2,8 °C 2,8 °C 90 % 1007,9 hPa 0,0 mm 0,3 km/h (0 Bft) O 92 ° 0 min 0,000 mm 0,0 UV-I 0 W/m² 1,3 °C 2,8 °C 1,6 km/h (1 Bft)
04.02.2017 04:43 2,8 °C 2,8 °C 90 % 1007,8 hPa 0,0 mm 2,2 km/h (1 Bft) O 92 ° 0 min 0,000 mm 0,0 UV-I 0 W/m² 1,3 °C 2,8 °C 3,2 km/h (1 Bft)
04.02.2017 04:44 2,8 °C 2,8 °C 90 % 1007,8 hPa 0,0 mm 0,5 km/h (0 Bft) O 92 ° 0 min 0,000 mm 0,0 UV-I 0 W/m² 1,3 °C 2,8 °C 1,6 km/h (1 Bft)
04.02.2017 04:45 2,7 °C 2,8 °C 90 % 1007,8 hPa 0,0 mm 0,3 km/h (0 Bft) O 92 ° 0 min 0,000 mm 0,0 UV-I 0 W/m² 1,2 °C 2,7 °C 1,6 km/h (1 Bft)
04.02.2017 04:46 2,7 °C 2,8 °C 90 % 1007,8 hPa 0,0 mm 0,2 km/h (0 Bft) O 92 ° 0 min 0,000 mm 0,0 UV-I 0 W/m² 1,2 °C 2,7 °C 1,6 km/h (1 Bft)
04.02.2017 04:47 2,7 °C 2,7 °C 90 % 1007,8 hPa 0,0 mm 0,0 km/h (0 Bft) O 92 ° 0 min 0,000 mm 0,0 UV-I 0 W/m² 1,2 °C 2,7 °C 0,0 km/h (0 Bft)
04.02.2017 04:48 2,7 °C 2,7 °C 90 % 1007,8 hPa 0,0 mm 0,9 km/h (0 Bft) O 92 ° 0 min 0,000 mm 0,0 UV-I 0 W/m² 1,2 °C 2,7 °C 1,6 km/h (1 Bft)
04.02.2017 04:49 2,7 °C 2,7 °C 90 % 1007,8 hPa 0,0 mm 1,5 km/h (1 Bft) O 92 ° 0 min 0,000 mm 0,0 UV-I 0 W/m² 1,2 °C 2,7 °C 3,2 km/h (1 Bft)
04.02.2017 04:50 2,7 °C 2,7 °C 90 % 1007,8 hPa 0,0 mm 2,6 km/h (1 Bft) O 92 ° 0 min 0,000 mm 0,0 UV-I 0 W/m² 1,2 °C 2,7 °C 3,2 km/h (1 Bft)
04.02.2017 04:51 2,6 °C 2,7 °C 90 % 1007,8 hPa 0,0 mm 1,6 km/h (1 Bft) O 92 ° 0 min 0,000 mm 0,0 UV-I 0 W/m² 1,1 °C 2,6 °C 1,6 km/h (1 Bft)
04.02.2017 04:52 2,6 °C 2,6 °C 90 % 1007,8 hPa 0,0 mm 0,7 km/h (0 Bft) O 92 ° 0 min 0,000 mm 0,0 UV-I 0 W/m² 1,1 °C 2,6 °C 1,6 km/h (1 Bft)
04.02.2017 04:53 2,6 °C 2,6 °C 90 % 1007,8 hPa 0,0 mm 0,9 km/h (0 Bft) O 92 ° 0 min 0,000 mm 0,0 UV-I 0 W/m² 1,1 °C 2,6 °C 1,6 km/h (1 Bft)
04.02.2017 04:54 2,6 °C 2,6 °C 90 % 1007,8 hPa 0,0 mm 1,3 km/h (1 Bft) O 92 ° 0 min 0,000 mm 0,0 UV-I 0 W/m² 1,1 °C 2,6 °C 1,6 km/h (1 Bft)
04.02.2017 04:55 2,6 °C 2,6 °C 90 % 1007,9 hPa 0,0 mm 1,3 km/h (1 Bft) O 92 ° 0 min 0,000 mm 0,0 UV-I 0 W/m² 1,1 °C 2,6 °C 1,6 km/h (1 Bft)
04.02.2017 04:56 2,6 °C 2,6 °C 90 % 1007,9 hPa 0,0 mm 1,1 km/h (1 Bft) O 92 ° 0 min 0,000 mm 0,0 UV-I 0 W/m² 1,1 °C 2,6 °C 3,2 km/h (1 Bft)
04.02.2017 04:57 2,5 °C 2,6 °C 90 % 1007,9 hPa 0,0 mm 0,1 km/h (0 Bft) O 92 ° 0 min 0,000 mm 0,0 UV-I 0 W/m² 1,0 °C 2,5 °C 1,6 km/h (1 Bft)
04.02.2017 04:58 2,5 °C 2,5 °C 90 % 1007,8 hPa 0,0 mm 0,1 km/h (0 Bft) O 92 ° 0 min 0,000 mm 0,0 UV-I 0 W/m² 1,0 °C 2,5 °C 1,6 km/h (1 Bft)
04.02.2017 04:59 2,4 °C 2,5 °C 90 % 1007,8 hPa 0,0 mm 1,8 km/h (1 Bft) O 92 ° 0 min 0,000 mm 0,0 UV-I 0 W/m² 0,9 °C 2,4 °C 3,2 km/h (1 Bft)
04.02.2017 05:00 2,4 °C 2,4 °C 90 % 1007,9 hPa 0,0 mm 1,6 km/h (1 Bft) O 92 ° 0 min 0,000 mm 0,0 UV-I 0 W/m² 0,9 °C 2,4 °C 3,2 km/h (1 Bft)
04.02.2017 05:01 2,4 °C 2,4 °C 91 % 1007,8 hPa 0,0 mm 1,5 km/h (1 Bft) O 92 ° 0 min 0,000 mm 0,0 UV-I 0 W/m² 1,1 °C 2,4 °C 3,2 km/h (1 Bft)
04.02.2017 05:02 2,4 °C 2,4 °C 91 % 1007,8 hPa 0,0 mm 0,0 km/h (0 Bft) O 92 ° 0 min 0,000 mm 0,0 UV-I 0 W/m² 1,1 °C 2,4 °C 0,0 km/h (0 Bft)
04.02.2017 05:03 2,4 °C 2,4 °C 91 % 1007,8 hPa 0,0 mm 0,0 km/h (0 Bft) O 92 ° 0 min 0,000 mm 0,0 UV-I 0 W/m² 1,1 °C 2,4 °C 0,0 km/h (0 Bft)
04.02.2017 05:04 2,4 °C 2,4 °C 91 % 1007,8 hPa 0,0 mm 0,0 km/h (0 Bft) O 92 ° 0 min 0,000 mm 0,0 UV-I 0 W/m² 1,1 °C 2,4 °C 0,0 km/h (0 Bft)
04.02.2017 05:05 2,4 °C 2,4 °C 90 % 1007,8 hPa 0,0 mm 0,1 km/h (0 Bft) O 92 ° 0 min 0,000 mm 0,0 UV-I 0 W/m² 0,9 °C 2,4 °C 1,6 km/h (1 Bft)
04.02.2017 05:06 2,3 °C 2,4 °C 90 % 1007,8 hPa 0,0 mm 0,0 km/h (0 Bft) O 92 ° 0 min 0,000 mm 0,0 UV-I 0 W/m² 0,8 °C 2,3 °C 0,0 km/h (0 Bft)
04.02.2017 05:07 2,3 °C 2,3 °C 90 % 1007,7 hPa 0,0 mm 0,1 km/h (0 Bft) O 92 ° 0 min 0,000 mm 0,0 UV-I 0 W/m² 0,8 °C 2,3 °C 1,6 km/h (1 Bft)
04.02.2017 05:08 2,3 °C 2,3 °C 90 % 1007,7 hPa 0,0 mm 0,1 km/h (0 Bft) O 92 ° 0 min 0,000 mm 0,0 UV-I 0 W/m² 0,8 °C 2,3 °C 1,6 km/h (1 Bft)
04.02.2017 05:09 2,3 °C 2,3 °C 90 % 1007,6 hPa 0,0 mm 0,1 km/h (0 Bft) O 92 ° 0 min 0,000 mm 0,0 UV-I 0 W/m² 0,8 °C 2,3 °C 1,6 km/h (1 Bft)
04.02.2017 05:10 2,3 °C 2,3 °C 90 % 1007,6 hPa 0,0 mm 0,3 km/h (0 Bft) O 92 ° 0 min 0,000 mm 0,0 UV-I 0 W/m² 0,8 °C 2,3 °C 1,6 km/h (1 Bft)
04.02.2017 05:11 2,3 °C 2,3 °C 90 % 1007,7 hPa 0,0 mm 0,0 km/h (0 Bft) O 92 ° 0 min 0,000 mm 0,0 UV-I 0 W/m² 0,8 °C 2,3 °C 0,0 km/h (0 Bft)
04.02.2017 05:12 2,3 °C 2,3 °C 90 % 1007,6 hPa 0,0 mm 0,0 km/h (0 Bft) O 92 ° 0 min 0,000 mm 0,0 UV-I 0 W/m² 0,8 °C 2,3 °C 0,0 km/h (0 Bft)
04.02.2017 05:13 2,3 °C 2,3 °C 90 % 1007,6 hPa 0,0 mm 0,1 km/h (0 Bft) O 92 ° 0 min 0,000 mm 0,0 UV-I 0 W/m² 0,8 °C 2,3 °C 1,6 km/h (1 Bft)
04.02.2017 05:14 2,3 °C 2,3 °C 90 % 1007,7 hPa 0,0 mm 0,0 km/h (0 Bft) O 92 ° 0 min 0,000 mm 0,0 UV-I 0 W/m² 0,8 °C 2,3 °C 0,0 km/h (0 Bft)
04.02.2017 05:15 2,2 °C 2,3 °C 90 % 1007,6 hPa 0,0 mm 0,0 km/h (0 Bft) O 92 ° 0 min 0,000 mm 0,0 UV-I 0 W/m² 0,7 °C 2,2 °C 0,0 km/h (0 Bft)
04.02.2017 05:16 2,2 °C 2,3 °C 90 % 1007,5 hPa 0,0 mm 0,1 km/h (0 Bft) O 92 ° 0 min 0,000 mm 0,0 UV-I 0 W/m² 0,7 °C 2,2 °C 1,6 km/h (1 Bft)
04.02.2017 05:17 2,2 °C 2,2 °C 90 % 1007,5 hPa 0,0 mm 0,1 km/h (0 Bft) O 92 ° 0 min 0,000 mm 0,0 UV-I 0 W/m² 0,7 °C 2,2 °C 1,6 km/h (1 Bft)
04.02.2017 05:18 2,2 °C 2,2 °C 90 % 1007,5 hPa 0,0 mm 0,1 km/h (0 Bft) O 92 ° 0 min 0,000 mm 0,0 UV-I 0 W/m² 0,7 °C 2,2 °C 1,6 km/h (1 Bft)
04.02.2017 05:19 2,2 °C 2,2 °C 90 % 1007,4 hPa 0,0 mm 0,0 km/h (0 Bft) O 92 ° 0 min 0,000 mm 0,0 UV-I 0 W/m² 0,7 °C 2,2 °C 0,0 km/h (0 Bft)
04.02.2017 05:20 2,2 °C 2,2 °C 90 % 1007,5 hPa 0,0 mm 0,0 km/h (0 Bft) O 92 ° 0 min 0,000 mm 0,0 UV-I 0 W/m² 0,7 °C 2,2 °C 0,0 km/h (0 Bft)
04.02.2017 05:21 2,1 °C 2,2 °C 90 % 1007,4 hPa 0,0 mm 0,0 km/h (0 Bft) O 92 ° 0 min 0,000 mm 0,0 UV-I 0 W/m² 0,6 °C 2,1 °C 0,0 km/h (0 Bft)
04.02.2017 05:22 2,1 °C 2,1 °C 90 % 1007,5 hPa 0,0 mm 0,8 km/h (0 Bft) O 92 ° 0 min 0,000 mm 0,0 UV-I 0 W/m² 0,6 °C 2,1 °C 3,2 km/h (1 Bft)
04.02.2017 05:23 2,1 °C 2,1 °C 90 % 1007,4 hPa 0,0 mm 1,9 km/h (1 Bft) O 92 ° 0 min 0,000 mm 0,0 UV-I 0 W/m² 0,6 °C 2,1 °C 3,2 km/h (1 Bft)
04.02.2017 05:24 2,1 °C 2,1 °C 90 % 1007,4 hPa 0,0 mm 1,1 km/h (1 Bft) O 92 ° 0 min 0,000 mm 0,0 UV-I 0 W/m² 0,6 °C 2,1 °C 1,6 km/h (1 Bft)
04.02.2017 05:25 2,0 °C 2,1 °C 90 % 1007,4 hPa 0,0 mm 1,4 km/h (1 Bft) O 92 ° 0 min 0,000 mm 0,0 UV-I 0 W/m² 0,5 °C 2,0 °C 3,2 km/h (1 Bft)
04.02.2017 05:26 2,0 °C 2,0 °C 90 % 1007,4 hPa 0,0 mm 0,5 km/h (0 Bft) O 92 ° 0 min 0,000 mm 0,0 UV-I 0 W/m² 0,5 °C 2,0 °C 1,6 km/h (1 Bft)
04.02.2017 05:27 1,9 °C 2,0 °C 90 % 1007,3 hPa 0,0 mm 2,4 km/h (1 Bft) O 92 ° 0 min 0,000 mm 0,0 UV-I 0 W/m² 0,4 °C 1,9 °C 3,2 km/h (1 Bft)
04.02.2017 05:28 1,9 °C 1,9 °C 90 % 1007,3 hPa 0,0 mm 1,8 km/h (1 Bft) O 92 ° 0 min 0,000 mm 0,0 UV-I 0 W/m² 0,4 °C 1,9 °C 3,2 km/h (1 Bft)
04.02.2017 05:29 1,9 °C 1,9 °C 90 % 1007,3 hPa 0,0 mm 0,1 km/h (0 Bft) O 92 ° 0 min 0,000 mm 0,0 UV-I 0 W/m² 0,4 °C 1,9 °C 1,6 km/h (1 Bft)
04.02.2017 05:30 1,9 °C 1,9 °C 90 % 1007,3 hPa 0,0 mm 1,5 km/h (1 Bft) O 92 ° 0 min 0,000 mm 0,0 UV-I 0 W/m² 0,4 °C 1,9 °C 3,2 km/h (1 Bft)
04.02.2017 05:31 1,8 °C 1,9 °C 90 % 1007,4 hPa 0,0 mm 0,4 km/h (0 Bft) O 92 ° 0 min 0,000 mm 0,0 UV-I 0 W/m² 0,3 °C 1,8 °C 1,6 km/h (1 Bft)
04.02.2017 05:32 1,8 °C 1,9 °C 90 % 1007,5 hPa 0,0 mm 0,9 km/h (0 Bft) O 92 ° 0 min 0,000 mm 0,0 UV-I 0 W/m² 0,3 °C 1,8 °C 1,6 km/h (1 Bft)
04.02.2017 05:33 1,8 °C 1,9 °C 90 % 1007,5 hPa 0,0 mm 0,5 km/h (0 Bft) O 92 ° 0 min 0,000 mm 0,0 UV-I 0 W/m² 0,3 °C 1,8 °C 1,6 km/h (1 Bft)
04.02.2017 05:34 1,8 °C 1,8 °C 90 % 1007,5 hPa 0,0 mm 0,0 km/h (0 Bft) O 92 ° 0 min 0,000 mm 0,0 UV-I 0 W/m² 0,3 °C 1,8 °C 0,0 km/h (0 Bft)
04.02.2017 05:35 1,8 °C 1,8 °C 90 % 1007,4 hPa 0,0 mm 0,3 km/h (0 Bft) O 92 ° 0 min 0,000 mm 0,0 UV-I 0 W/m² 0,3 °C 1,8 °C 1,6 km/h (1 Bft)
04.02.2017 05:36 1,8 °C 1,8 °C 90 % 1007,4 hPa 0,0 mm 0,9 km/h (0 Bft) O 92 ° 0 min 0,000 mm 0,0 UV-I 0 W/m² 0,3 °C 1,8 °C 1,6 km/h (1 Bft)
04.02.2017 05:37 1,8 °C 1,8 °C 90 % 1007,4 hPa 0,0 mm 0,3 km/h (0 Bft) O 92 ° 0 min 0,000 mm 0,0 UV-I 0 W/m² 0,3 °C 1,8 °C 1,6 km/h (1 Bft)
04.02.2017 05:38 1,7 °C 1,8 °C 90 % 1007,4 hPa 0,0 mm 0,0 km/h (0 Bft) O 92 ° 0 min 0,000 mm 0,0 UV-I 0 W/m² 0,2 °C 1,7 °C 0,0 km/h (0 Bft)
04.02.2017 05:39 1,7 °C 1,8 °C 90 % 1007,4 hPa 0,0 mm 0,0 km/h (0 Bft) O 92 ° 0 min 0,000 mm 0,0 UV-I 0 W/m² 0,2 °C 1,7 °C 0,0 km/h (0 Bft)
04.02.2017 05:40 1,7 °C 1,7 °C 90 % 1007,4 hPa 0,0 mm 0,0 km/h (0 Bft) O 92 ° 0 min 0,000 mm 0,0 UV-I 0 W/m² 0,2 °C 1,7 °C 0,0 km/h (0 Bft)
04.02.2017 05:41 1,7 °C 1,7 °C 90 % 1007,3 hPa 0,0 mm 0,0 km/h (0 Bft) O 92 ° 0 min 0,000 mm 0,0 UV-I 0 W/m² 0,2 °C 1,7 °C 0,0 km/h (0 Bft)
04.02.2017 05:42 1,7 °C 1,7 °C 90 % 1007,2 hPa 0,0 mm 2,1 km/h (1 Bft) O 92 ° 0 min 0,000 mm 0,0 UV-I 0 W/m² 0,2 °C 1,7 °C 3,2 km/h (1 Bft)
04.02.2017 05:43 1,6 °C 1,7 °C 90 % 1007,1 hPa 0,0 mm 3,0 km/h (1 Bft) O 92 ° 0 min 0,000 mm 0,0 UV-I 0 W/m² 0,1 °C 1,6 °C 3,2 km/h (1 Bft)
04.02.2017 05:44 1,6 °C 1,7 °C 90 % 1007,1 hPa 0,0 mm 2,4 km/h (1 Bft) O 92 ° 0 min 0,000 mm 0,0 UV-I 0 W/m² 0,1 °C 1,6 °C 3,2 km/h (1 Bft)
04.02.2017 05:45 1,6 °C 1,6 °C 90 % 1007,0 hPa 0,0 mm 1,2 km/h (1 Bft) O 92 ° 0 min 0,000 mm 0,0 UV-I 0 W/m² 0,1 °C 1,6 °C 3,2 km/h (1 Bft)
04.02.2017 05:46 1,6 °C 1,6 °C 90 % 1007,0 hPa 0,0 mm 1,1 km/h (1 Bft) O 92 ° 0 min 0,000 mm 0,0 UV-I 0 W/m² 0,1 °C 1,6 °C 1,6 km/h (1 Bft)
04.02.2017 05:47 1,6 °C 1,6 °C 91 % 1007,0 hPa 0,0 mm 0,9 km/h (0 Bft) O 92 ° 0 min 0,000 mm 0,0 UV-I 0 W/m² 0,3 °C 1,6 °C 3,2 km/h (1 Bft)
04.02.2017 05:48 1,5 °C 1,6 °C 91 % 1007,0 hPa 0,0 mm 2,1 km/h (1 Bft) O 93 ° 0 min 0,000 mm 0,0 UV-I 0 W/m² 0,2 °C 1,5 °C 4,8 km/h (1 Bft)
04.02.2017 05:49 1,5 °C 1,5 °C 91 % 1006,9 hPa 0,0 mm 4,2 km/h (1 Bft) O-SO 107 ° 0 min 0,000 mm 0,0 UV-I 0 W/m² 0,2 °C 1,5 °C 8,0 km/h (2 Bft)
04.02.2017 05:50 1,4 °C 1,5 °C 91 % 1006,9 hPa 0,0 mm 3,7 km/h (1 Bft) S 183 ° 0 min 0,000 mm 0,0 UV-I 0 W/m² 0,1 °C 1,4 °C 6,4 km/h (2 Bft)
04.02.2017 05:51 1,4 °C 1,4 °C 91 % 1006,9 hPa 0,0 mm 4,0 km/h (1 Bft) W-SW 244 ° 0 min 0,000 mm 0,0 UV-I 0 W/m² 0,1 °C 1,4 °C 6,4 km/h (2 Bft)
04.02.2017 05:52 1,4 °C 1,4 °C 91 % 1006,7 hPa 0,0 mm 2,3 km/h (1 Bft) SW 229 ° 0 min 0,000 mm 0,0 UV-I 0 W/m² 0,1 °C 1,4 °C 4,8 km/h (1 Bft)
04.02.2017 05:53 1,4 °C 1,4 °C 91 % 1006,7 hPa 0,0 mm 1,5 km/h (1 Bft) SW 230 ° 0 min 0,000 mm 0,0 UV-I 0 W/m² 0,1 °C 1,4 °C 4,8 km/h (1 Bft)
04.02.2017 05:54 1,4 °C 1,4 °C 91 % 1006,7 hPa 0,0 mm 2,3 km/h (1 Bft) SW 230 ° 0 min 0,000 mm 0,0 UV-I 0 W/m² 0,1 °C 1,4 °C 4,8 km/h (1 Bft)
04.02.2017 05:55 1,4 °C 1,4 °C 91 % 1006,6 hPa 0,0 mm 1,1 km/h (1 Bft) SW 230 ° 0 min 0,000 mm 0,0 UV-I 0 W/m² 0,1 °C 1,4 °C 3,2 km/h (1 Bft)
04.02.2017 05:56 1,4 °C 1,4 °C 91 % 1006,6 hPa 0,0 mm 1,3 km/h (1 Bft) SW 231 ° 0 min 0,000 mm 0,0 UV-I 0 W/m² 0,1 °C 1,4 °C 3,2 km/h (1 Bft)
04.02.2017 05:57 1,4 °C 1,4 °C 91 % 1006,6 hPa 0,0 mm 0,8 km/h (0 Bft) SW 231 ° 0 min 0,000 mm 0,0 UV-I 0 W/m² 0,1 °C 1,4 °C 1,6 km/h (1 Bft)
04.02.2017 05:58 1,4 °C 1,4 °C 91 % 1006,6 hPa 0,0 mm 1,1 km/h (1 Bft) SW 231 ° 0 min 0,000 mm 0,0 UV-I 0 W/m² 0,1 °C 1,4 °C 1,6 km/h (1 Bft)
04.02.2017 05:59 1,4 °C 1,4 °C 92 % 1006,5 hPa 0,0 mm 0,4 km/h (0 Bft) SW 231 ° 0 min 0,000 mm 0,0 UV-I 0 W/m² 0,2 °C 1,4 °C 1,6 km/h (1 Bft)
04.02.2017 06:00 1,4 °C 1,4 °C 92 % 1006,5 hPa 0,0 mm 0,4 km/h (0 Bft) SW 231 ° 0 min 0,000 mm 0,0 UV-I 0 W/m² 0,2 °C 1,4 °C 1,6 km/h (1 Bft)
04.02.2017 06:01 1,3 °C 1,4 °C 92 % 1006,5 hPa 0,0 mm 3,8 km/h (1 Bft) O 94 ° 0 min 0,000 mm 0,0 UV-I 0 W/m² 0,1 °C 1,3 °C 4,8 km/h (1 Bft)
04.02.2017 06:02 1,3 °C 1,4 °C 92 % 1006,5 hPa 0,0 mm 3,4 km/h (1 Bft) O 101 ° 0 min 0,000 mm 0,0 UV-I 0 W/m² 0,1 °C 1,3 °C 4,8 km/h (1 Bft)
04.02.2017 06:03 1,3 °C 1,4 °C 92 % 1006,5 hPa 0,0 mm 2,1 km/h (1 Bft) O 101 ° 0 min 0,000 mm 0,0 UV-I 0 W/m² 0,1 °C 1,3 °C 3,2 km/h (1 Bft)
04.02.2017 06:04 1,3 °C 1,3 °C 92 % 1006,5 hPa 0,0 mm 1,4 km/h (1 Bft) O 101 ° 0 min 0,000 mm 0,0 UV-I 0 W/m² 0,1 °C 1,3 °C 3,2 km/h (1 Bft)
04.02.2017 06:05 1,3 °C 1,3 °C 92 % 1006,5 hPa 0,0 mm 1,2 km/h (1 Bft) O 101 ° 0 min 0,000 mm 0,0 UV-I 0 W/m² 0,1 °C 1,3 °C 3,2 km/h (1 Bft)
04.02.2017 06:06 1,3 °C 1,3 °C 92 % 1006,6 hPa 0,0 mm 0,0 km/h (0 Bft) O 101 ° 0 min 0,000 mm 0,0 UV-I 0 W/m² 0,1 °C 1,3 °C 0,0 km/h (0 Bft)
04.02.2017 06:07 1,3 °C 1,3 °C 92 % 1006,6 hPa 0,0 mm 0,7 km/h (0 Bft) O 101 ° 0 min 0,000 mm 0,0 UV-I 0 W/m² 0,1 °C 1,3 °C 1,6 km/h (1 Bft)
04.02.2017 06:08 1,3 °C 1,3 °C 92 % 1006,5 hPa 0,0 mm 0,3 km/h (0 Bft) O 101 ° 0 min 0,000 mm 0,0 UV-I 0 W/m² 0,1 °C 1,3 °C 1,6 km/h (1 Bft)
04.02.2017 06:09 1,3 °C 1,3 °C 92 % 1006,6 hPa 0,0 mm 0,9 km/h (0 Bft) SO 126 ° 0 min 0,000 mm 0,0 UV-I 0 W/m² 0,1 °C 1,3 °C 3,2 km/h (1 Bft)
04.02.2017 06:10 1,3 °C 1,3 °C 92 % 1006,6 hPa 0,0 mm 3,6 km/h (1 Bft) S-SO 153 ° 0 min 0,000 mm 0,0 UV-I 0 W/m² 0,1 °C 1,3 °C 4,8 km/h (1 Bft)
04.02.2017 06:11 1,3 °C 1,3 °C 92 % 1006,5 hPa 0,0 mm 2,0 km/h (1 Bft) S-SO 168 ° 0 min 0,000 mm 0,0 UV-I 0 W/m² 0,1 °C 1,3 °C 3,2 km/h (1 Bft)
04.02.2017 06:12 1,2 °C 1,3 °C 92 % 1006,5 hPa 0,0 mm 2,5 km/h (1 Bft) W-SW 248 ° 0 min 0,000 mm 0,0 UV-I 0 W/m² 0,0 °C 1,2 °C 4,8 km/h (1 Bft)
04.02.2017 06:13 1,2 °C 1,2 °C 92 % 1006,6 hPa 0,0 mm 1,3 km/h (1 Bft) SO 130 ° 0 min 0,000 mm 0,0 UV-I 0 W/m² 0,0 °C 1,2 °C 3,2 km/h (1 Bft)
04.02.2017 06:14 1,2 °C 1,2 °C 92 % 1006,6 hPa 0,0 mm 2,7 km/h (1 Bft) SO 146 ° 0 min 0,000 mm 0,0 UV-I 0 W/m² 0,0 °C 1,2 °C 3,2 km/h (1 Bft)
04.02.2017 06:15 1,2 °C 1,2 °C 92 % 1006,6 hPa 0,0 mm 1,9 km/h (1 Bft) O-NO 78 ° 0 min 0,000 mm 0,0 UV-I 0 W/m² 0,0 °C 1,2 °C 3,2 km/h (1 Bft)
04.02.2017 06:16 1,2 °C 1,2 °C 92 % 1006,6 hPa 0,0 mm 3,3 km/h (1 Bft) N-NO 24 ° 0 min 0,000 mm 0,0 UV-I 0 W/m² 0,0 °C 1,2 °C 4,8 km/h (1 Bft)
04.02.2017 06:17 1,2 °C 1,2 °C 92 % 1006,6 hPa 0,0 mm 2,6 km/h (1 Bft) NO 51 ° 0 min 0,000 mm 0,0 UV-I 0 W/m² 0,0 °C 1,2 °C 4,8 km/h (1 Bft)
04.02.2017 06:18 1,1 °C 1,2 °C 92 % 1006,6 hPa 0,0 mm 2,9 km/h (1 Bft) O 81 ° 0 min 0,000 mm 0,0 UV-I 0 W/m² -0,1 °C 1,1 °C 6,4 km/h (2 Bft)
04.02.2017 06:19 1,1 °C 1,1 °C 92 % 1006,6 hPa 0,0 mm 3,3 km/h (1 Bft) O 81 ° 0 min 0,000 mm 0,0 UV-I 0 W/m² -0,1 °C 1,1 °C 4,8 km/h (1 Bft)
04.02.2017 06:20 1,1 °C 1,1 °C 92 % 1006,7 hPa 0,0 mm 4,0 km/h (1 Bft) O 81 ° 0 min 0,000 mm 0,0 UV-I 0 W/m² -0,1 °C 1,1 °C 4,8 km/h (1 Bft)
04.02.2017 06:21 1,1 °C 1,1 °C 92 % 1006,6 hPa 0,0 mm 3,3 km/h (1 Bft) O 81 ° 0 min 0,000 mm 0,0 UV-I 0 W/m² -0,1 °C 1,1 °C 4,8 km/h (1 Bft)
04.02.2017 06:22 1,1 °C 1,1 °C 92 % 1006,6 hPa 0,0 mm 2,4 km/h (1 Bft) O 81 ° 0 min 0,000 mm 0,0 UV-I 0 W/m² -0,1 °C 1,1 °C 3,2 km/h (1 Bft)
04.02.2017 06:23 1,1 °C 1,1 °C 92 % 1006,6 hPa 0,0 mm 1,8 km/h (1 Bft) O 81 ° 0 min 0,000 mm 0,0 UV-I 0 W/m² -0,1 °C 1,1 °C 3,2 km/h (1 Bft)
04.02.2017 06:24 1,1 °C 1,1 °C 92 % 1006,7 hPa 0,0 mm 0,7 km/h (0 Bft) O 81 ° 0 min 0,000 mm 0,0 UV-I 0 W/m² -0,1 °C 1,1 °C 1,6 km/h (1 Bft)
04.02.2017 06:25 1,1 °C 1,1 °C 92 % 1006,6 hPa 0,0 mm 0,0 km/h (0 Bft) O 81 ° 0 min 0,000 mm 0,0 UV-I 0 W/m² -0,1 °C 1,1 °C 0,0 km/h (0 Bft)
04.02.2017 06:26 1,0 °C 1,1 °C 92 % 1006,6 hPa 0,0 mm 0,0 km/h (0 Bft) O 81 ° 0 min 0,000 mm 0,0 UV-I 0 W/m² -0,2 °C 1,0 °C 0,0 km/h (0 Bft)
04.02.2017 06:27 1,0 °C 1,0 °C 92 % 1006,6 hPa 0,0 mm 0,1 km/h (0 Bft) O 81 ° 0 min 0,000 mm 0,0 UV-I 0 W/m² -0,2 °C 1,0 °C 1,6 km/h (1 Bft)
04.02.2017 06:28 1,0 °C 1,0 °C 92 % 1006,6 hPa 0,0 mm 0,0 km/h (0 Bft) O 81 ° 0 min 0,000 mm 0,0 UV-I 0 W/m² -0,2 °C 1,0 °C 0,0 km/h (0 Bft)
04.02.2017 06:29 1,0 °C 1,0 °C 92 % 1006,6 hPa 0,0 mm 0,0 km/h (0 Bft) O 81 ° 0 min 0,000 mm 0,0 UV-I 0 W/m² -0,2 °C 1,0 °C 0,0 km/h (0 Bft)
04.02.2017 06:30 0,9 °C 1,0 °C 92 % 1006,5 hPa 0,0 mm 0,0 km/h (0 Bft) O 81 ° 0 min 0,000 mm 0,0 UV-I 0 W/m² -0,2 °C 0,9 °C 0,0 km/h (0 Bft)
04.02.2017 06:31 0,9 °C 1,0 °C 92 % 1006,5 hPa 0,0 mm 0,0 km/h (0 Bft) O 81 ° 0 min 0,000 mm 0,0 UV-I 0 W/m² -0,2 °C 0,9 °C 0,0 km/h (0 Bft)
04.02.2017 06:32 0,9 °C 0,9 °C 92 % 1006,5 hPa 0,0 mm 0,0 km/h (0 Bft) O 81 ° 0 min 0,000 mm 0,0 UV-I 0 W/m² -0,2 °C 0,9 °C 0,0 km/h (0 Bft)
04.02.2017 06:33 0,9 °C 0,9 °C 92 % 1006,5 hPa 0,0 mm 0,0 km/h (0 Bft) O 81 ° 0 min 0,000 mm 0,0 UV-I 0 W/m² -0,2 °C 0,9 °C 0,0 km/h (0 Bft)
04.02.2017 06:34 0,9 °C 0,9 °C 92 % 1006,5 hPa 0,0 mm 0,3 km/h (0 Bft) O 81 ° 0 min 0,000 mm 0,0 UV-I 0 W/m² -0,2 °C 0,9 °C 1,6 km/h (1 Bft)
04.02.2017 06:35 0,9 °C 0,9 °C 92 % 1006,5 hPa 0,0 mm 1,2 km/h (1 Bft) O 81 ° 0 min 0,000 mm 0,0 UV-I 0 W/m² -0,2 °C 0,9 °C 1,6 km/h (1 Bft)
04.02.2017 06:36 0,9 °C 0,9 °C 92 % 1006,4 hPa 0,0 mm 1,3 km/h (1 Bft) O 81 ° 0 min 0,000 mm 0,0 UV-I 0 W/m² -0,2 °C 0,9 °C 1,6 km/h (1 Bft)
04.02.2017 06:37 0,8 °C 0,9 °C 92 % 1006,5 hPa 0,0 mm 1,5 km/h (1 Bft) O 81 ° 0 min 0,000 mm 0,0 UV-I 0 W/m² -0,3 °C 0,8 °C 3,2 km/h (1 Bft)
04.02.2017 06:38 0,8 °C 0,8 °C 92 % 1006,4 hPa 0,0 mm 2,1 km/h (1 Bft) O 81 ° 0 min 0,000 mm 0,0 UV-I 0 W/m² -0,3 °C 0,8 °C 3,2 km/h (1 Bft)
04.02.2017 06:39 0,8 °C 0,8 °C 92 % 1006,4 hPa 0,0 mm 2,1 km/h (1 Bft) O 81 ° 0 min 0,000 mm 0,0 UV-I 0 W/m² -0,3 °C 0,8 °C 3,2 km/h (1 Bft)
04.02.2017 06:40 0,8 °C 0,8 °C 91 % 1006,4 hPa 0,0 mm 0,9 km/h (0 Bft) O 81 ° 0 min 0,000 mm 0,0 UV-I 0 W/m² -0,5 °C 0,8 °C 1,6 km/h (1 Bft)
04.02.2017 06:41 0,8 °C 0,8 °C 92 % 1006,4 hPa 0,0 mm 0,3 km/h (0 Bft) O 81 ° 0 min 0,000 mm 0,0 UV-I 0 W/m² -0,3 °C 0,8 °C 1,6 km/h (1 Bft)
04.02.2017 06:42 0,8 °C 0,8 °C 92 % 1006,3 hPa 0,0 mm 0,1 km/h (0 Bft) O 81 ° 0 min 0,000 mm 0,0 UV-I 0 W/m² -0,3 °C 0,8 °C 1,6 km/h (1 Bft)
04.02.2017 06:43 0,7 °C 0,8 °C 92 % 1006,2 hPa 0,0 mm 1,9 km/h (1 Bft) O 81 ° 0 min 0,000 mm 0,0 UV-I 0 W/m² -0,4 °C 0,7 °C 3,2 km/h (1 Bft)
04.02.2017 06:44 0,7 °C 0,7 °C 92 % 1006,2 hPa 0,0 mm 1,5 km/h (1 Bft) O 81 ° 0 min 0,000 mm 0,0 UV-I 0 W/m² -0,4 °C 0,7 °C 1,6 km/h (1 Bft)
04.02.2017 06:45 0,7 °C 0,7 °C 92 % 1006,2 hPa 0,0 mm 1,3 km/h (1 Bft) O 81 ° 0 min 0,000 mm 0,0 UV-I 0 W/m² -0,4 °C 0,7 °C 1,6 km/h (1 Bft)
04.02.2017 06:46 0,7 °C 0,7 °C 92 % 1006,1 hPa 0,0 mm 1,7 km/h (1 Bft) O 81 ° 0 min 0,000 mm 0,0 UV-I 0 W/m² -0,4 °C 0,7 °C 3,2 km/h (1 Bft)
04.02.2017 06:47 0,6 °C 0,7 °C 92 % 1006,0 hPa 0,0 mm 1,3 km/h (1 Bft) O 81 ° 0 min 0,000 mm 0,0 UV-I 0 W/m² -0,5 °C 0,6 °C 3,2 km/h (1 Bft)
04.02.2017 06:48 0,6 °C 0,6 °C 92 % 1006,0 hPa 0,0 mm 2,4 km/h (1 Bft) O 81 ° 0 min 0,000 mm 0,0 UV-I 0 W/m² -0,5 °C 0,6 °C 3,2 km/h (1 Bft)
04.02.2017 06:49 0,6 °C 0,6 °C 92 % 1006,0 hPa 0,0 mm 3,2 km/h (1 Bft) O 82 ° 0 min 0,000 mm 0,0 UV-I 0 W/m² -0,5 °C 0,6 °C 3,2 km/h (1 Bft)
04.02.2017 06:50 0,6 °C 0,6 °C 92 % 1006,1 hPa 0,0 mm 3,2 km/h (1 Bft) O 82 ° 0 min 0,000 mm 0,0 UV-I 0 W/m² -0,5 °C 0,6 °C 4,8 km/h (1 Bft)
04.02.2017 06:51 0,6 °C 0,6 °C 92 % 1006,1 hPa 0,0 mm 3,0 km/h (1 Bft) O-SO 119 ° 0 min 0,000 mm 0,0 UV-I 0 W/m² -0,5 °C 0,6 °C 3,2 km/h (1 Bft)
04.02.2017 06:52 0,6 °C 0,6 °C 92 % 1006,1 hPa 0,0 mm 3,0 km/h (1 Bft) S 184 ° 0 min 0,000 mm 0,0 UV-I 0 W/m² -0,5 °C 0,6 °C 4,8 km/h (1 Bft)
04.02.2017 06:53 0,6 °C 0,6 °C 93 % 1006,1 hPa 0,0 mm 2,9 km/h (1 Bft) S 184 ° 0 min 0,000 mm 0,0 UV-I 0 W/m² -0,4 °C 0,6 °C 4,8 km/h (1 Bft)
04.02.2017 06:54 0,6 °C 0,6 °C 93 % 1006,1 hPa 0,0 mm 1,9 km/h (1 Bft) S 184 ° 0 min 0,000 mm 0,0 UV-I 0 W/m² -0,4 °C 0,6 °C 3,2 km/h (1 Bft)
04.02.2017 06:55 0,6 °C 0,6 °C 93 % 1006,0 hPa 0,0 mm 0,5 km/h (0 Bft) S 184 ° 0 min 0,000 mm 0,0 UV-I 0 W/m² -0,4 °C 0,6 °C 1,6 km/h (1 Bft)
04.02.2017 06:56 0,6 °C 0,6 °C 93 % 1006,0 hPa 0,0 mm 1,6 km/h (1 Bft) S 184 ° 0 min 0,000 mm 0,0 UV-I 0 W/m² -0,4 °C 0,6 °C 3,2 km/h (1 Bft)
04.02.2017 06:57 0,6 °C 0,6 °C 93 % 1006,0 hPa 0,0 mm 1,7 km/h (1 Bft) S 184 ° 0 min 0,000 mm 0,0 UV-I 0 W/m² -0,4 °C 0,6 °C 3,2 km/h (1 Bft)
04.02.2017 06:58 0,6 °C 0,6 °C 93 % 1006,0 hPa 0,0 mm 0,7 km/h (0 Bft) S 184 ° 0 min 0,000 mm 0,0 UV-I 0 W/m² -0,4 °C 0,6 °C 1,6 km/h (1 Bft)
04.02.2017 06:59 0,6 °C 0,6 °C 93 % 1006,0 hPa 0,0 mm 3,3 km/h (1 Bft) NW 309 ° 0 min 0,000 mm 0,0 UV-I 0 W/m² -0,4 °C 0,6 °C 4,8 km/h (1 Bft)
04.02.2017 07:00 0,5 °C 0,6 °C 93 % 1006,1 hPa 0,0 mm 3,5 km/h (1 Bft) NW 309 ° 0 min 0,000 mm 0,0 UV-I 0 W/m² -0,5 °C 0,5 °C 4,8 km/h (1 Bft)
04.02.2017 07:01 0,4 °C 0,5 °C 92 % 1006,1 hPa 0,0 mm 1,8 km/h (1 Bft) NW 309 ° 0 min 0,000 mm 0,0 UV-I 0 W/m² -0,7 °C 0,4 °C 3,2 km/h (1 Bft)
04.02.2017 07:02 0,4 °C 0,4 °C 92 % 1006,1 hPa 0,0 mm 2,1 km/h (1 Bft) NW 309 ° 0 min 0,000 mm 0,0 UV-I 0 W/m² -0,7 °C 0,4 °C 3,2 km/h (1 Bft)
04.02.2017 07:03 0,3 °C 0,4 °C 92 % 1006,2 hPa 0,0 mm 2,4 km/h (1 Bft) NW 309 ° 0 min 0,000 mm 0,0 UV-I 0 W/m² -0,8 °C 0,3 °C 3,2 km/h (1 Bft)
04.02.2017 07:04 0,3 °C 0,3 °C 92 % 1006,2 hPa 0,0 mm 2,9 km/h (1 Bft) NW 309 ° 0 min 0,000 mm 0,0 UV-I 0 W/m² -0,8 °C 0,3 °C 4,8 km/h (1 Bft)
04.02.2017 07:05 0,3 °C 0,3 °C 92 % 1006,1 hPa 0,0 mm 3,8 km/h (1 Bft) W 271 ° 0 min 0,000 mm 0,0 UV-I 0 W/m² -0,8 °C 0,3 °C 4,8 km/h (1 Bft)
04.02.2017 07:06 0,2 °C 0,3 °C 92 % 1006,1 hPa 0,0 mm 3,2 km/h (1 Bft) S-SW 201 ° 0 min 0,000 mm 0,0 UV-I 0 W/m² -0,9 °C 0,2 °C 4,8 km/h (1 Bft)
04.02.2017 07:07 0,2 °C 0,2 °C 92 % 1006,1 hPa 0,0 mm 2,5 km/h (1 Bft) S-SW 201 ° 0 min 0,000 mm 0,0 UV-I 0 W/m² -0,9 °C 0,2 °C 3,2 km/h (1 Bft)
04.02.2017 07:08 0,2 °C 0,2 °C 92 % 1006,0 hPa 0,0 mm 2,5 km/h (1 Bft) S-SW 201 ° 0 min 0,000 mm 0,0 UV-I 0 W/m² -0,9 °C 0,2 °C 3,2 km/h (1 Bft)
04.02.2017 07:09 0,2 °C 0,2 °C 92 % 1006,0 hPa 0,0 mm 2,6 km/h (1 Bft) S-SW 201 ° 0 min 0,000 mm 0,0 UV-I 0 W/m² -0,9 °C 0,2 °C 4,8 km/h (1 Bft)
04.02.2017 07:10 0,2 °C 0,2 °C 93 % 1006,0 hPa 0,0 mm 2,1 km/h (1 Bft) S-SW 201 ° 0 min 0,000 mm 0,0 UV-I 0 W/m² -0,8 °C 0,2 °C 4,8 km/h (1 Bft)
04.02.2017 07:11 0,2 °C 0,2 °C 93 % 1006,0 hPa 0,0 mm 2,9 km/h (1 Bft) S-SW 201 ° 0 min 0,000 mm 0,0 UV-I 0 W/m² -0,8 °C 0,2 °C 3,2 km/h (1 Bft)
04.02.2017 07:12 0,1 °C 0,2 °C 92 % 1006,0 hPa 0,0 mm 2,7 km/h (1 Bft) S-SW 201 ° 0 min 0,000 mm 0,0 UV-I 0 W/m² -1,0 °C 0,1 °C 4,8 km/h (1 Bft)
04.02.2017 07:13 0,1 °C 0,2 °C 92 % 1006,0 hPa 0,0 mm 2,1 km/h (1 Bft) S-SW 201 ° 0 min 0,000 mm 0,0 UV-I 0 W/m² -1,0 °C 0,1 °C 3,2 km/h (1 Bft)
04.02.2017 07:14 0,1 °C 0,2 °C 93 % 1006,0 hPa 0,0 mm 1,5 km/h (1 Bft) S-SW 201 ° 0 min 0,000 mm 0,0 UV-I 0 W/m² -0,9 °C 0,1 °C 3,2 km/h (1 Bft)
04.02.2017 07:15 0,1 °C 0,1 °C 93 % 1006,0 hPa 0,0 mm 0,7 km/h (0 Bft) S-SW 201 ° 0 min 0,000 mm 0,0 UV-I 0 W/m² -0,9 °C 0,1 °C 1,6 km/h (1 Bft)
04.02.2017 07:16 0,1 °C 0,1 °C 93 % 1006,0 hPa 0,0 mm 0,6 km/h (0 Bft) S-SW 201 ° 0 min 0,000 mm 0,0 UV-I 0 W/m² -0,9 °C 0,1 °C 1,6 km/h (1 Bft)
04.02.2017 07:17 0,1 °C 0,1 °C 93 % 1005,9 hPa 0,0 mm 0,9 km/h (0 Bft) S-SW 201 ° 0 min 0,000 mm 0,0 UV-I 0 W/m² -0,9 °C 0,1 °C 3,2 km/h (1 Bft)
04.02.2017 07:18 0,1 °C 0,1 °C 93 % 1005,9 hPa 0,0 mm 1,5 km/h (1 Bft) S-SW 201 ° 0 min 0,000 mm 0,0 UV-I 0 W/m² -0,9 °C 0,1 °C 3,2 km/h (1 Bft)
04.02.2017 07:19 0,1 °C 0,1 °C 93 % 1005,9 hPa 0,0 mm 1,5 km/h (1 Bft) S-SW 201 ° 0 min 0,000 mm 0,0 UV-I 0 W/m² -0,9 °C 0,1 °C 3,2 km/h (1 Bft)
04.02.2017 07:20 0,1 °C 0,1 °C 93 % 1005,9 hPa 0,0 mm 1,5 km/h (1 Bft) S 176 ° 0 min 0,000 mm 0,0 UV-I 0 W/m² -0,9 °C 0,1 °C 3,2 km/h (1 Bft)
04.02.2017 07:21 0,1 °C 0,1 °C 93 % 1005,8 hPa 0,0 mm 1,7 km/h (1 Bft) S-SW 198 ° 0 min 0,000 mm 0,0 UV-I 0 W/m² -0,9 °C 0,1 °C 3,2 km/h (1 Bft)
04.02.2017 07:22 0,1 °C 0,1 °C 93 % 1005,8 hPa 0,0 mm 2,4 km/h (1 Bft) S-SW 198 ° 0 min 0,000 mm 0,0 UV-I 0 W/m² -0,9 °C 0,1 °C 3,2 km/h (1 Bft)
04.02.2017 07:23 0,1 °C 0,1 °C 93 % 1005,8 hPa 0,0 mm 1,9 km/h (1 Bft) O-SO 112 ° 0 min 0,000 mm 0,0 UV-I 0 W/m² -0,9 °C 0,1 °C 3,2 km/h (1 Bft)
04.02.2017 07:24 0,1 °C 0,1 °C 93 % 1005,8 hPa 0,0 mm 5,2 km/h (1 Bft) N-NO 24 ° 0 min 0,000 mm 0,0 UV-I 0 W/m² -0,9 °C -1,6 °C 6,4 km/h (2 Bft)
04.02.2017 07:25 0,1 °C 0,1 °C 93 % 1005,8 hPa 0,0 mm 3,1 km/h (1 Bft) NO 44 ° 0 min 0,000 mm 0,0 UV-I 0 W/m² -0,9 °C 0,1 °C 4,8 km/h (1 Bft)
04.02.2017 07:26 0,1 °C 0,1 °C 93 % 1005,8 hPa 0,0 mm 3,7 km/h (1 Bft) NO 46 ° 0 min 0,000 mm 0,0 UV-I 0 W/m² -0,9 °C 0,1 °C 4,8 km/h (1 Bft)
04.02.2017 07:27 0,1 °C 0,1 °C 93 % 1005,8 hPa 0,0 mm 3,6 km/h (1 Bft) NO 46 ° 0 min 0,000 mm 0,0 UV-I 0 W/m² -0,9 °C 0,1 °C 4,8 km/h (1 Bft)
04.02.2017 07:28 0,1 °C 0,1 °C 93 % 1005,7 hPa 0,0 mm 3,2 km/h (1 Bft) NO 46 ° 0 min 0,000 mm 0,0 UV-I 0 W/m² -0,9 °C 0,1 °C 4,8 km/h (1 Bft)
04.02.2017 07:29 0,1 °C 0,1 °C 93 % 1005,7 hPa 0,0 mm 2,5 km/h (1 Bft) NO 46 ° 0 min 0,000 mm 0,0 UV-I 0 W/m² -0,9 °C 0,1 °C 3,2 km/h (1 Bft)
04.02.2017 07:30 0,0 °C 0,1 °C 93 % 1005,7 hPa 0,0 mm 1,5 km/h (1 Bft) NO 46 ° 0 min 0,000 mm 0,0 UV-I 0 W/m² -1,0 °C 0,0 °C 3,2 km/h (1 Bft)
04.02.2017 07:31 0,0 °C 0,1 °C 93 % 1005,7 hPa 0,0 mm 2,1 km/h (1 Bft) NO 46 ° 0 min 0,000 mm 0,0 UV-I 0 W/m² -1,0 °C 0,0 °C 3,2 km/h (1 Bft)
04.02.2017 07:32 0,0 °C 0,0 °C 93 % 1005,7 hPa 0,0 mm 1,1 km/h (1 Bft) NO 46 ° 0 min 0,000 mm 0,0 UV-I 0 W/m² -1,0 °C 0,0 °C 1,6 km/h (1 Bft)
04.02.2017 07:33 0,0 °C 0,0 °C 93 % 1005,7 hPa 0,0 mm 0,5 km/h (0 Bft) NO 46 ° 0 min 0,000 mm 0,0 UV-I 0 W/m² -1,0 °C 0,0 °C 1,6 km/h (1 Bft)
04.02.2017 07:34 0,0 °C 0,0 °C 93 % 1005,7 hPa 0,0 mm 0,0 km/h (0 Bft) NO 46 ° 0 min 0,000 mm 0,0 UV-I 0 W/m² -1,0 °C 0,0 °C 0,0 km/h (0 Bft)
04.02.2017 07:35 0,0 °C 0,0 °C 93 % 1005,7 hPa 0,0 mm 0,0 km/h (0 Bft) NO 46 ° 0 min 0,000 mm 0,0 UV-I 0 W/m² -1,0 °C 0,0 °C 0,0 km/h (0 Bft)
04.02.2017 07:36 0,0 °C 0,0 °C 93 % 1005,7 hPa 0,0 mm 0,0 km/h (0 Bft) NO 46 ° 0 min 0,000 mm 0,0 UV-I 0 W/m² -1,0 °C 0,0 °C 0,0 km/h (0 Bft)
04.02.2017 07:37 -0,1 °C 0,0 °C 93 % 1005,7 hPa 0,0 mm 0,0 km/h (0 Bft) NO 46 ° 0 min 0,000 mm 0,0 UV-I 0 W/m² -1,1 °C -0,1 °C 0,0 km/h (0 Bft)
04.02.2017 07:38 -0,1 °C -0,1 °C 93 % 1005,7 hPa 0,0 mm 1,3 km/h (1 Bft) NO 46 ° 0 min 0,000 mm 0,0 UV-I 5 W/m² -1,1 °C -0,1 °C 3,2 km/h (1 Bft)
04.02.2017 07:39 -0,1 °C -0,1 °C 93 % 1005,7 hPa 0,0 mm 0,1 km/h (0 Bft) NO 46 ° 0 min 0,000 mm 0,0 UV-I 5 W/m² -1,1 °C -0,1 °C 1,6 km/h (1 Bft)
04.02.2017 07:40 -0,1 °C -0,1 °C 93 % 1005,7 hPa 0,0 mm 1,6 km/h (1 Bft) NO 46 ° 0 min 0,000 mm 0,0 UV-I 5 W/m² -1,1 °C -0,1 °C 3,2 km/h (1 Bft)
04.02.2017 07:41 -0,1 °C -0,1 °C 93 % 1005,7 hPa 0,0 mm 2,1 km/h (1 Bft) NO 46 ° 0 min 0,000 mm 0,0 UV-I 5 W/m² -1,1 °C -0,1 °C 3,2 km/h (1 Bft)
04.02.2017 07:42 -0,1 °C -0,1 °C 93 % 1005,7 hPa 0,0 mm 2,7 km/h (1 Bft) NO 46 ° 0 min 0,000 mm 0,0 UV-I 5 W/m² -1,1 °C -0,1 °C 3,2 km/h (1 Bft)
04.02.2017 07:43 -0,1 °C -0,1 °C 93 % 1005,6 hPa 0,0 mm 2,7 km/h (1 Bft) NO 46 ° 0 min 0,000 mm 0,0 UV-I 5 W/m² -1,1 °C -0,1 °C 4,8 km/h (1 Bft)
04.02.2017 07:44 -0,1 °C -0,1 °C 93 % 1005,7 hPa 0,0 mm 2,0 km/h (1 Bft) NO 46 ° 0 min 0,000 mm 0,0 UV-I 5 W/m² -1,1 °C -0,1 °C 4,8 km/h (1 Bft)
04.02.2017 07:45 -0,1 °C -0,1 °C 93 % 1005,7 hPa 0,0 mm 2,1 km/h (1 Bft) NO 46 ° 0 min 0,000 mm 0,0 UV-I 5 W/m² -1,1 °C -0,1 °C 3,2 km/h (1 Bft)
04.02.2017 07:46 -0,1 °C -0,1 °C 94 % 1005,6 hPa 0,0 mm 2,0 km/h (1 Bft) NO 46 ° 0 min 0,000 mm 0,0 UV-I 7 W/m² -0,9 °C -0,1 °C 3,2 km/h (1 Bft)
04.02.2017 07:47 -0,1 °C -0,1 °C 94 % 1005,7 hPa 0,0 mm 2,0 km/h (1 Bft) NO 46 ° 0 min 0,000 mm 0,0 UV-I 9 W/m² -0,9 °C -0,1 °C 3,2 km/h (1 Bft)
04.02.2017 07:48 -0,1 °C -0,1 °C 94 % 1005,6 hPa 0,0 mm 1,2 km/h (1 Bft) NO 46 ° 0 min 0,000 mm 0,0 UV-I 11 W/m² -0,9 °C -0,1 °C 3,2 km/h (1 Bft)
04.02.2017 07:49 0,0 °C 0,0 °C 94 % 1005,6 hPa 0,0 mm 2,0 km/h (1 Bft) NO 46 ° 0 min 0,000 mm 0,0 UV-I 11 W/m² -0,8 °C 0,0 °C 3,2 km/h (1 Bft)
04.02.2017 07:50 0,0 °C 0,0 °C 94 % 1005,6 hPa 0,0 mm 0,5 km/h (0 Bft) NO 46 ° 0 min 0,000 mm 0,0 UV-I 12 W/m² -0,8 °C 0,0 °C 1,6 km/h (1 Bft)
04.02.2017 07:51 0,0 °C 0,0 °C 94 % 1005,6 hPa 0,0 mm 0,4 km/h (0 Bft) NO 46 ° 0 min 0,000 mm 0,0 UV-I 12 W/m² -0,8 °C 0,0 °C 1,6 km/h (1 Bft)
04.02.2017 07:52 0,0 °C 0,0 °C 94 % 1005,5 hPa 0,0 mm 0,6 km/h (0 Bft) NO 46 ° 0 min 0,000 mm 0,0 UV-I 12 W/m² -0,8 °C 0,0 °C 1,6 km/h (1 Bft)
04.02.2017 07:53 0,0 °C 0,1 °C 94 % 1005,5 hPa 0,0 mm 0,1 km/h (0 Bft) NO 46 ° 0 min 0,000 mm 0,0 UV-I 14 W/m² -0,8 °C 0,0 °C 1,6 km/h (1 Bft)
04.02.2017 07:54 0,0 °C 0,0 °C 94 % 1005,5 hPa 0,0 mm 0,7 km/h (0 Bft) NO 46 ° 0 min 0,000 mm 0,0 UV-I 14 W/m² -0,8 °C 0,0 °C 1,6 km/h (1 Bft)
04.02.2017 07:55 0,0 °C 0,0 °C 94 % 1005,4 hPa 0,0 mm 1,6 km/h (1 Bft) N-NW 331 ° 0 min 0,000 mm 0,0 UV-I 14 W/m² -0,8 °C 0,0 °C 3,2 km/h (1 Bft)
04.02.2017 07:56 -0,1 °C 0,0 °C 94 % 1005,4 hPa 0,0 mm 0,8 km/h (0 Bft) N-NW 331 ° 0 min 0,000 mm 0,0 UV-I 14 W/m² -0,9 °C -0,1 °C 1,6 km/h (1 Bft)
04.02.2017 07:57 -0,1 °C 0,0 °C 93 % 1005,4 hPa 0,0 mm 0,0 km/h (0 Bft) N-NW 331 ° 0 min 0,000 mm 0,0 UV-I 14 W/m² -1,1 °C -0,1 °C 0,0 km/h (0 Bft)
04.02.2017 07:58 -0,1 °C -0,1 °C 93 % 1005,4 hPa 0,0 mm 0,8 km/h (0 Bft) O-NO 76 ° 0 min 0,000 mm 0,0 UV-I 14 W/m² -1,1 °C -0,1 °C 3,2 km/h (1 Bft)
04.02.2017 07:59 -0,1 °C -0,1 °C 93 % 1005,4 hPa 0,0 mm 1,5 km/h (1 Bft) O-NO 76 ° 0 min 0,000 mm 0,0 UV-I 16 W/m² -1,1 °C -0,1 °C 3,2 km/h (1 Bft)
04.02.2017 08:00 -0,1 °C -0,1 °C 93 % 1005,4 hPa 0,0 mm 0,7 km/h (0 Bft) O-NO 76 ° 0 min 0,000 mm 0,0 UV-I 16 W/m² -1,1 °C -0,1 °C 1,6 km/h (1 Bft)
04.02.2017 08:01 -0,1 °C -0,1 °C 93 % 1005,4 hPa 0,0 mm 1,2 km/h (1 Bft) O-NO 76 ° 0 min 0,000 mm 0,0 UV-I 16 W/m² -1,1 °C -0,1 °C 3,2 km/h (1 Bft)
04.02.2017 08:02 -0,1 °C -0,1 °C 93 % 1005,4 hPa 0,0 mm 0,4 km/h (0 Bft) O-NO 76 ° 0 min 0,000 mm 0,0 UV-I 18 W/m² -1,1 °C -0,1 °C 1,6 km/h (1 Bft)
04.02.2017 08:03 -0,1 °C -0,1 °C 93 % 1005,4 hPa 0,0 mm 0,1 km/h (0 Bft) O-NO 76 ° 0 min 0,000 mm 0,0 UV-I 19 W/m² -1,1 °C -0,1 °C 1,6 km/h (1 Bft)
04.02.2017 08:04 -0,2 °C -0,1 °C 93 % 1005,4 hPa 0,0 mm 0,1 km/h (0 Bft) O-NO 76 ° 0 min 0,000 mm 0,0 UV-I 19 W/m² -1,2 °C -0,2 °C 1,6 km/h (1 Bft)
04.02.2017 08:05 -0,2 °C -0,2 °C 93 % 1005,4 hPa 0,0 mm 1,3 km/h (1 Bft) O-NO 76 ° 0 min 0,000 mm 0,0 UV-I 21 W/m² -1,2 °C -0,2 °C 3,2 km/h (1 Bft)
04.02.2017 08:06 -0,2 °C -0,2 °C 93 % 1005,3 hPa 0,0 mm 0,7 km/h (0 Bft) O-NO 76 ° 0 min 0,000 mm 0,0 UV-I 21 W/m² -1,2 °C -0,2 °C 1,6 km/h (1 Bft)
04.02.2017 08:07 -0,2 °C -0,2 °C 93 % 1005,3 hPa 0,0 mm 0,1 km/h (0 Bft) O-NO 76 ° 0 min 0,000 mm 0,0 UV-I 23 W/m² -1,2 °C -0,2 °C 1,6 km/h (1 Bft)
04.02.2017 08:08 -0,2 °C -0,2 °C 93 % 1005,2 hPa 0,0 mm 0,3 km/h (0 Bft) O-NO 76 ° 0 min 0,000 mm 0,0 UV-I 23 W/m² -1,2 °C -0,2 °C 1,6 km/h (1 Bft)
04.02.2017 08:09 -0,2 °C -0,2 °C 93 % 1005,3 hPa 0,0 mm 1,3 km/h (1 Bft) O-NO 76 ° 0 min 0,000 mm 0,0 UV-I 25 W/m² -1,2 °C -0,2 °C 3,2 km/h (1 Bft)
04.02.2017 08:10 -0,3 °C -0,2 °C 93 % 1005,2 hPa 0,0 mm 2,0 km/h (1 Bft) O-NO 76 ° 0 min 0,000 mm 0,0 UV-I 25 W/m² -1,3 °C -0,3 °C 3,2 km/h (1 Bft)
04.02.2017 08:11 -0,3 °C -0,2 °C 93 % 1005,2 hPa 0,0 mm 1,0 km/h (0 Bft) O-NO 76 ° 0 min 0,000 mm 0,0 UV-I 26 W/m² -1,3 °C -0,3 °C 1,6 km/h (1 Bft)
04.02.2017 08:12 -0,2 °C -0,2 °C 93 % 1005,1 hPa 0,0 mm 0,8 km/h (0 Bft) O-NO 76 ° 0 min 0,000 mm 0,0 UV-I 26 W/m² -1,2 °C -0,2 °C 1,6 km/h (1 Bft)
04.02.2017 08:13 -0,2 °C -0,2 °C 93 % 1005,2 hPa 0,0 mm 0,0 km/h (0 Bft) O-NO 76 ° 0 min 0,000 mm 0,0 UV-I 26 W/m² -1,2 °C -0,2 °C 0,0 km/h (0 Bft)
04.02.2017 08:14 -0,2 °C -0,2 °C 93 % 1005,2 hPa 0,0 mm 2,2 km/h (1 Bft) O-NO 61 ° 0 min 0,000 mm 0,0 UV-I 28 W/m² -1,2 °C -0,2 °C 4,8 km/h (1 Bft)
04.02.2017 08:15 -0,2 °C -0,2 °C 93 % 1005,2 hPa 0,0 mm 2,5 km/h (1 Bft) O-NO 61 ° 0 min 0,000 mm 0,0 UV-I 28 W/m² -1,2 °C -0,2 °C 3,2 km/h (1 Bft)
04.02.2017 08:16 -0,3 °C -0,2 °C 93 % 1005,2 hPa 0,0 mm 0,6 km/h (0 Bft) O-NO 61 ° 0 min 0,000 mm 0,0 UV-I 28 W/m² -1,3 °C -0,3 °C 1,6 km/h (1 Bft)
04.02.2017 08:17 -0,3 °C -0,3 °C 93 % 1005,2 hPa 0,0 mm 1,2 km/h (1 Bft) O-NO 61 ° 0 min 0,000 mm 0,0 UV-I 30 W/m² -1,3 °C -0,3 °C 3,2 km/h (1 Bft)
04.02.2017 08:18 -0,3 °C -0,3 °C 93 % 1005,2 hPa 0,0 mm 1,1 km/h (1 Bft) O-NO 61 ° 0 min 0,000 mm 0,0 UV-I 30 W/m² -1,3 °C -0,3 °C 1,6 km/h (1 Bft)
04.02.2017 08:19 -0,3 °C -0,3 °C 93 % 1005,1 hPa 0,0 mm 1,3 km/h (1 Bft) O-NO 61 ° 0 min 0,000 mm 0,0 UV-I 30 W/m² -1,3 °C -0,3 °C 1,6 km/h (1 Bft)
04.02.2017 08:20 -0,3 °C -0,3 °C 93 % 1005,1 hPa 0,0 mm 0,2 km/h (0 Bft) O-NO 61 ° 0 min 0,000 mm 0,0 UV-I 30 W/m² -1,3 °C -0,3 °C 1,6 km/h (1 Bft)
04.02.2017 08:21 -0,3 °C -0,3 °C 93 % 1005,1 hPa 0,0 mm 1,4 km/h (1 Bft) O-NO 61 ° 0 min 0,000 mm 0,0 UV-I 32 W/m² -1,3 °C -0,3 °C 1,6 km/h (1 Bft)
04.02.2017 08:22 -0,3 °C -0,3 °C 93 % 1005,0 hPa 0,0 mm 1,3 km/h (1 Bft) O-NO 61 ° 0 min 0,000 mm 0,0 UV-I 32 W/m² -1,3 °C -0,3 °C 1,6 km/h (1 Bft)
04.02.2017 08:23 -0,3 °C -0,3 °C 93 % 1005,0 hPa 0,0 mm 1,2 km/h (1 Bft) O-NO 61 ° 0 min 0,000 mm 0,0 UV-I 32 W/m² -1,3 °C -0,3 °C 1,6 km/h (1 Bft)
04.02.2017 08:24 -0,3 °C -0,3 °C 94 % 1005,0 hPa 0,0 mm 2,0 km/h (1 Bft) O-NO 61 ° 0 min 0,000 mm 0,0 UV-I 32 W/m² -1,1 °C -0,3 °C 3,2 km/h (1 Bft)
04.02.2017 08:25 -0,3 °C -0,3 °C 94 % 1005,0 hPa 0,0 mm 3,1 km/h (1 Bft) SO 139 ° 0 min 0,000 mm 0,0 UV-I 32 W/m² -1,1 °C -0,3 °C 4,8 km/h (1 Bft)
04.02.2017 08:26 -0,3 °C -0,3 °C 94 % 1005,0 hPa 0,0 mm 3,8 km/h (1 Bft) S-SO 157 ° 0 min 0,000 mm 0,0 UV-I 32 W/m² -1,1 °C -0,3 °C 4,8 km/h (1 Bft)
04.02.2017 08:27 -0,2 °C -0,2 °C 94 % 1005,0 hPa 0,0 mm 4,0 km/h (1 Bft) S-SO 159 ° 0 min 0,000 mm 0,0 UV-I 32 W/m² -1,0 °C -0,2 °C 6,4 km/h (2 Bft)
04.02.2017 08:28 -0,2 °C -0,2 °C 94 % 1005,0 hPa 0,0 mm 1,1 km/h (1 Bft) S-SO 159 ° 0 min 0,000 mm 0,0 UV-I 32 W/m² -1,0 °C -0,2 °C 1,6 km/h (1 Bft)
04.02.2017 08:29 -0,2 °C -0,2 °C 94 % 1005,0 hPa 0,0 mm 1,1 km/h (1 Bft) S-SO 159 ° 0 min 0,000 mm 0,0 UV-I 32 W/m² -1,0 °C -0,2 °C 1,6 km/h (1 Bft)
04.02.2017 08:30 -0,2 °C -0,1 °C 94 % 1005,0 hPa 0,0 mm 0,6 km/h (0 Bft) S-SO 159 ° 0 min 0,000 mm 0,0 UV-I 30 W/m² -1,0 °C -0,2 °C 1,6 km/h (1 Bft)
04.02.2017 08:31 -0,1 °C -0,1 °C 94 % 1005,0 hPa 0,0 mm 0,0 km/h (0 Bft) S-SO 159 ° 0 min 0,000 mm 0,0 UV-I 30 W/m² -0,9 °C -0,1 °C 0,0 km/h (0 Bft)
04.02.2017 08:32 -0,1 °C -0,1 °C 94 % 1005,0 hPa 0,0 mm 0,1 km/h (0 Bft) S-SO 159 ° 0 min 0,000 mm 0,0 UV-I 32 W/m² -0,9 °C -0,1 °C 1,6 km/h (1 Bft)
04.02.2017 08:33 -0,1 °C -0,1 °C 94 % 1005,0 hPa 0,0 mm 0,3 km/h (0 Bft) S-SO 159 ° 0 min 0,000 mm 0,0 UV-I 32 W/m² -0,9 °C -0,1 °C 1,6 km/h (1 Bft)
04.02.2017 08:34 0,0 °C 0,0 °C 94 % 1005,0 hPa 0,0 mm 1,3 km/h (1 Bft) S-SO 159 ° 0 min 0,000 mm 0,0 UV-I 33 W/m² -0,8 °C 0,0 °C 1,6 km/h (1 Bft)
04.02.2017 08:35 0,0 °C 0,0 °C 94 % 1005,0 hPa 0,0 mm 0,5 km/h (0 Bft) S-SO 159 ° 0 min 0,000 mm 0,0 UV-I 33 W/m² -0,8 °C 0,0 °C 1,6 km/h (1 Bft)
04.02.2017 08:36 0,0 °C 0,0 °C 94 % 1005,0 hPa 0,0 mm 0,0 km/h (0 Bft) S-SO 159 ° 0 min 0,000 mm 0,0 UV-I 35 W/m² -0,8 °C 0,0 °C 0,0 km/h (0 Bft)
04.02.2017 08:37 0,0 °C 0,0 °C 94 % 1005,0 hPa 0,0 mm 0,1 km/h (0 Bft) S-SO 159 ° 0 min 0,000 mm 0,0 UV-I 37 W/m² -0,8 °C 0,0 °C 1,6 km/h (1 Bft)
04.02.2017 08:38 -0,1 °C 0,0 °C 94 % 1005,0 hPa 0,0 mm 0,6 km/h (0 Bft) S-SO 159 ° 0 min 0,000 mm 0,0 UV-I 39 W/m² -0,9 °C -0,1 °C 1,6 km/h (1 Bft)
04.02.2017 08:39 0,0 °C 0,0 °C 94 % 1004,9 hPa 0,0 mm 0,1 km/h (0 Bft) S-SO 159 ° 0 min 0,000 mm 0,0 UV-I 40 W/m² -0,8 °C 0,0 °C 1,6 km/h (1 Bft)
04.02.2017 08:40 0,0 °C 0,0 °C 94 % 1004,9 hPa 0,0 mm 0,1 km/h (0 Bft) S-SO 159 ° 0 min 0,000 mm 0,0 UV-I 42 W/m² -0,8 °C 0,0 °C 1,6 km/h (1 Bft)
04.02.2017 08:41 0,0 °C 0,0 °C 94 % 1004,9 hPa 0,0 mm 0,8 km/h (0 Bft) S-SO 159 ° 0 min 0,000 mm 0,0 UV-I 44 W/m² -0,8 °C 0,0 °C 1,6 km/h (1 Bft)
04.02.2017 08:42 0,0 °C 0,0 °C 94 % 1004,9 hPa 0,0 mm 0,1 km/h (0 Bft) S-SO 159 ° 0 min 0,000 mm 0,0 UV-I 44 W/m² -0,8 °C 0,0 °C 1,6 km/h (1 Bft)
04.02.2017 08:43 0,1 °C 0,1 °C 94 % 1004,8 hPa 0,0 mm 0,0 km/h (0 Bft) S-SO 159 ° 0 min 0,000 mm 0,0 UV-I 44 W/m² -0,7 °C 0,1 °C 0,0 km/h (0 Bft)
04.02.2017 08:44 0,1 °C 0,1 °C 94 % 1004,9 hPa 0,0 mm 0,0 km/h (0 Bft) S-SO 159 ° 0 min 0,000 mm 0,0 UV-I 44 W/m² -0,7 °C 0,1 °C 0,0 km/h (0 Bft)
04.02.2017 08:45 0,1 °C 0,1 °C 94 % 1004,9 hPa 0,0 mm 0,0 km/h (0 Bft) S-SO 159 ° 0 min 0,000 mm 0,0 UV-I 44 W/m² -0,7 °C 0,1 °C 0,0 km/h (0 Bft)
04.02.2017 08:46 0,1 °C 0,1 °C 94 % 1004,8 hPa 0,0 mm 0,0 km/h (0 Bft) S-SO 159 ° 0 min 0,000 mm 0,0 UV-I 42 W/m² -0,7 °C 0,1 °C 0,0 km/h (0 Bft)
04.02.2017 08:47 0,1 °C 0,1 °C 94 % 1004,8 hPa 0,0 mm 0,2 km/h (0 Bft) S-SO 159 ° 0 min 0,000 mm 0,0 UV-I 40 W/m² -0,7 °C 0,1 °C 1,6 km/h (1 Bft)
04.02.2017 08:48 0,1 °C 0,1 °C 94 % 1004,9 hPa 0,0 mm 1,1 km/h (1 Bft) S-SO 159 ° 0 min 0,000 mm 0,0 UV-I 40 W/m² -0,7 °C 0,1 °C 3,2 km/h (1 Bft)
04.02.2017 08:49 0,1 °C 0,1 °C 94 % 1004,9 hPa 0,0 mm 2,6 km/h (1 Bft) O-NO 71 ° 0 min 0,000 mm 0,0 UV-I 40 W/m² -0,7 °C 0,1 °C 4,8 km/h (1 Bft)
04.02.2017 08:50 0,1 °C 0,1 °C 94 % 1004,8 hPa 0,0 mm 2,6 km/h (1 Bft) O-SO 118 ° 0 min 0,000 mm 0,0 UV-I 42 W/m² -0,7 °C 0,1 °C 4,8 km/h (1 Bft)
04.02.2017 08:51 0,1 °C 0,2 °C 94 % 1004,8 hPa 0,0 mm 1,8 km/h (1 Bft) O-SO 118 ° 0 min 0,000 mm 0,0 UV-I 42 W/m² -0,7 °C 0,1 °C 3,2 km/h (1 Bft)
04.02.2017 08:52 0,2 °C 0,2 °C 94 % 1004,8 hPa 0,0 mm 5,3 km/h (1 Bft) O-SO 112 ° 0 min 0,000 mm 0,0 UV-I 44 W/m² -0,6 °C -1,5 °C 8,0 km/h (2 Bft)
04.02.2017 08:53 0,2 °C 0,2 °C 94 % 1004,8 hPa 0,0 mm 8,9 km/h (2 Bft) O-NO 59 ° 0 min 0,000 mm 0,0 UV-I 44 W/m² -0,6 °C -2,8 °C 14,5 km/h (3 Bft)
04.02.2017 08:54 0,3 °C 0,3 °C 95 % 1004,8 hPa 0,0 mm 4,4 km/h (1 Bft) O-SO 118 ° 0 min 0,000 mm 0,0 UV-I 46 W/m² -0,4 °C 0,3 °C 6,4 km/h (2 Bft)
04.02.2017 08:55 0,4 °C 0,4 °C 95 % 1004,7 hPa 0,0 mm 4,2 km/h (1 Bft) O-SO 113 ° 0 min 0,000 mm 0,0 UV-I 46 W/m² -0,3 °C 0,4 °C 8,0 km/h (2 Bft)
04.02.2017 08:56 0,4 °C 0,4 °C 95 % 1004,7 hPa 0,0 mm 2,5 km/h (1 Bft) O 86 ° 0 min 0,000 mm 0,0 UV-I 44 W/m² -0,3 °C 0,4 °C 4,8 km/h (1 Bft)
04.02.2017 08:57 0,5 °C 0,5 °C 95 % 1004,7 hPa 0,0 mm 3,3 km/h (1 Bft) O 95 ° 0 min 0,000 mm 0,0 UV-I 44 W/m² -0,2 °C 0,5 °C 4,8 km/h (1 Bft)
04.02.2017 08:58 0,6 °C 0,6 °C 95 % 1004,7 hPa 0,0 mm 3,5 km/h (1 Bft) O 81 ° 0 min 0,000 mm 0,0 UV-I 44 W/m² -0,1 °C 0,6 °C 4,8 km/h (1 Bft)
04.02.2017 08:59 0,6 °C 0,6 °C 95 % 1004,7 hPa 0,0 mm 3,8 km/h (1 Bft) O-NO 72 ° 0 min 0,000 mm 0,0 UV-I 42 W/m² -0,1 °C 0,6 °C 6,4 km/h (2 Bft)
04.02.2017 09:00 0,6 °C 0,6 °C 95 % 1004,6 hPa 0,0 mm 5,6 km/h (1 Bft) O-NO 65 ° 0 min 0,000 mm 0,0 UV-I 42 W/m² -0,1 °C -1,2 °C 6,4 km/h (2 Bft)
04.02.2017 09:01 0,6 °C 0,6 °C 95 % 1004,5 hPa 0,0 mm 4,0 km/h (1 Bft) O-SO 110 ° 0 min 0,000 mm 0,0 UV-I 42 W/m² -0,1 °C 0,6 °C 6,4 km/h (2 Bft)
04.02.2017 09:02 0,6 °C 0,7 °C 95 % 1004,5 hPa 0,0 mm 3,4 km/h (1 Bft) O-NO 77 ° 0 min 0,000 mm 0,0 UV-I 40 W/m² -0,1 °C 0,6 °C 4,8 km/h (1 Bft)
04.02.2017 09:03 0,7 °C 0,7 °C 95 % 1004,4 hPa 0,0 mm 2,2 km/h (1 Bft) O-NO 76 ° 0 min 0,000 mm 0,0 UV-I 40 W/m² -0,0 °C 0,7 °C 4,8 km/h (1 Bft)
04.02.2017 09:04 0,7 °C 0,7 °C 95 % 1004,4 hPa 0,0 mm 2,7 km/h (1 Bft) O 82 ° 0 min 0,000 mm 0,0 UV-I 40 W/m² -0,0 °C 0,7 °C 4,8 km/h (1 Bft)
04.02.2017 09:05 0,8 °C 0,8 °C 95 % 1004,3 hPa 0,0 mm 1,7 km/h (1 Bft) O 82 ° 0 min 0,000 mm 0,0 UV-I 39 W/m² 0,1 °C 0,8 °C 3,2 km/h (1 Bft)
04.02.2017 09:06 0,8 °C 0,8 °C 95 % 1004,3 hPa 0,0 mm 2,2 km/h (1 Bft) O-NO 68 ° 0 min 0,000 mm 0,0 UV-I 39 W/m² 0,1 °C 0,8 °C 4,8 km/h (1 Bft)
04.02.2017 09:07 0,8 °C 0,8 °C 95 % 1004,3 hPa 0,0 mm 2,6 km/h (1 Bft) O-NO 68 ° 0 min 0,000 mm 0,0 UV-I 39 W/m² 0,1 °C 0,8 °C 3,2 km/h (1 Bft)
04.02.2017 09:08 0,8 °C 0,8 °C 95 % 1004,3 hPa 0,0 mm 2,0 km/h (1 Bft) O-NO 68 ° 0 min 0,000 mm 0,0 UV-I 39 W/m² 0,1 °C 0,8 °C 3,2 km/h (1 Bft)
04.02.2017 09:09 0,8 °C 0,8 °C 95 % 1004,3 hPa 0,0 mm 1,8 km/h (1 Bft) O-NO 68 ° 0 min 0,000 mm 0,0 UV-I 39 W/m² 0,1 °C 0,8 °C 3,2 km/h (1 Bft)
04.02.2017 09:10 0,8 °C 0,8 °C 95 % 1004,2 hPa 0,0 mm 1,3 km/h (1 Bft) O-NO 68 ° 0 min 0,000 mm 0,0 UV-I 39 W/m² 0,1 °C 0,8 °C 3,2 km/h (1 Bft)
04.02.2017 09:11 0,8 °C 0,9 °C 95 % 1004,2 hPa 0,0 mm 0,8 km/h (0 Bft) O-NO 68 ° 0 min 0,000 mm 0,0 UV-I 39 W/m² 0,1 °C 0,8 °C 1,6 km/h (1 Bft)
04.02.2017 09:12 0,9 °C 0,9 °C 95 % 1004,2 hPa 0,0 mm 0,4 km/h (0 Bft) O-NO 68 ° 0 min 0,000 mm 0,0 UV-I 39 W/m² 0,2 °C 0,9 °C 1,6 km/h (1 Bft)
04.02.2017 09:13 0,9 °C 0,9 °C 95 % 1004,2 hPa 0,0 mm 2,1 km/h (1 Bft) O-NO 68 ° 0 min 0,000 mm 0,0 UV-I 39 W/m² 0,2 °C 0,9 °C 3,2 km/h (1 Bft)
04.02.2017 09:14 0,9 °C 0,9 °C 95 % 1004,1 hPa 0,0 mm 2,3 km/h (1 Bft) O-NO 68 ° 0 min 0,000 mm 0,0 UV-I 39 W/m² 0,2 °C 0,9 °C 3,2 km/h (1 Bft)
04.02.2017 09:15 1,0 °C 1,0 °C 95 % 1004,1 hPa 0,0 mm 0,9 km/h (0 Bft) O-NO 68 ° 0 min 0,000 mm 0,0 UV-I 37 W/m² 0,3 °C 1,0 °C 3,2 km/h (1 Bft)
04.02.2017 09:16 1,1 °C 1,1 °C 95 % 1004,1 hPa 0,0 mm 1,7 km/h (1 Bft) O-NO 68 ° 0 min 0,000 mm 0,0 UV-I 40 W/m² 0,4 °C 1,1 °C 3,2 km/h (1 Bft)
04.02.2017 09:17 1,1 °C 1,1 °C 95 % 1004,1 hPa 0,0 mm 1,9 km/h (1 Bft) O-NO 68 ° 0 min 0,000 mm 0,0 UV-I 44 W/m² 0,4 °C 1,1 °C 3,2 km/h (1 Bft)
04.02.2017 09:18 1,1 °C 1,1 °C 95 % 1004,1 hPa 0,0 mm 2,0 km/h (1 Bft) O-NO 68 ° 0 min 0,000 mm 0,0 UV-I 47 W/m² 0,4 °C 1,1 °C 3,2 km/h (1 Bft)
04.02.2017 09:19 1,2 °C 1,2 °C 95 % 1004,1 hPa 0,0 mm 2,5 km/h (1 Bft) O-NO 68 ° 0 min 0,000 mm 0,0 UV-I 51 W/m² 0,5 °C 1,2 °C 3,2 km/h (1 Bft)
04.02.2017 09:20 1,2 °C 1,2 °C 95 % 1004,1 hPa 0,0 mm 1,7 km/h (1 Bft) O-NO 68 ° 0 min 0,000 mm 0,0 UV-I 53 W/m² 0,5 °C 1,2 °C 3,2 km/h (1 Bft)
04.02.2017 09:21 1,2 °C 1,2 °C 95 % 1004,0 hPa 0,0 mm 2,2 km/h (1 Bft) O 82 ° 0 min 0,000 mm 0,0 UV-I 56 W/m² 0,5 °C 1,2 °C 3,2 km/h (1 Bft)
04.02.2017 09:22 1,2 °C 1,2 °C 95 % 1004,1 hPa 0,0 mm 1,3 km/h (1 Bft) O 90 ° 0 min 0,000 mm 0,6 UV-I 58 W/m² 0,5 °C 1,2 °C 3,2 km/h (1 Bft)
04.02.2017 09:23 1,3 °C 1,3 °C 95 % 1004,1 hPa 0,0 mm 2,9 km/h (1 Bft) O 82 ° 0 min 0,000 mm 0,6 UV-I 60 W/m² 0,6 °C 1,3 °C 6,4 km/h (2 Bft)
04.02.2017 09:24 1,3 °C 1,3 °C 95 % 1004,0 hPa 0,0 mm 1,1 km/h (1 Bft) O 82 ° 0 min 0,000 mm 0,6 UV-I 62 W/m² 0,6 °C 1,3 °C 3,2 km/h (1 Bft)
04.02.2017 09:25 1,3 °C 1,3 °C 95 % 1004,0 hPa 0,0 mm 1,8 km/h (1 Bft) O 82 ° 0 min 0,000 mm 0,6 UV-I 62 W/m² 0,6 °C 1,3 °C 3,2 km/h (1 Bft)
04.02.2017 09:26 1,3 °C 1,4 °C 95 % 1004,1 hPa 0,0 mm 1,9 km/h (1 Bft) O 82 ° 0 min 0,000 mm 0,6 UV-I 63 W/m² 0,6 °C 1,3 °C 3,2 km/h (1 Bft)
04.02.2017 09:27 1,4 °C 1,4 °C 95 % 1004,0 hPa 0,0 mm 2,7 km/h (1 Bft) S-SO 151 ° 0 min 0,000 mm 0,6 UV-I 63 W/m² 0,7 °C 1,4 °C 6,4 km/h (2 Bft)
04.02.2017 09:28 1,4 °C 1,4 °C 95 % 1004,0 hPa 0,0 mm 1,1 km/h (1 Bft) S-SO 151 ° 0 min 0,000 mm 0,7 UV-I 63 W/m² 0,7 °C 1,4 °C 3,2 km/h (1 Bft)
04.02.2017 09:29 1,4 °C 1,4 °C 95 % 1004,0 hPa 0,0 mm 0,9 km/h (0 Bft) S-SO 150 ° 0 min 0,000 mm 0,7 UV-I 63 W/m² 0,7 °C 1,4 °C 3,2 km/h (1 Bft)
04.02.2017 09:30 1,4 °C 1,5 °C 95 % 1004,0 hPa 0,0 mm 3,3 km/h (1 Bft) NO 47 ° 0 min 0,000 mm 0,7 UV-I 62 W/m² 0,7 °C 1,4 °C 6,4 km/h (2 Bft)
04.02.2017 09:31 1,5 °C 1,5 °C 95 % 1004,1 hPa 0,0 mm 2,1 km/h (1 Bft) O-SO 102 ° 0 min 0,000 mm 0,7 UV-I 62 W/m² 0,8 °C 1,5 °C 3,2 km/h (1 Bft)
04.02.2017 09:32 1,6 °C 1,6 °C 95 % 1004,0 hPa 0,0 mm 1,0 km/h (0 Bft) O-SO 102 ° 0 min 0,000 mm 0,7 UV-I 60 W/m² 0,9 °C 1,6 °C 3,2 km/h (1 Bft)
04.02.2017 09:33 1,6 °C 1,6 °C 95 % 1004,1 hPa 0,0 mm 2,2 km/h (1 Bft) S 175 ° 0 min 0,000 mm 0,7 UV-I 54 W/m² 0,9 °C 1,6 °C 4,8 km/h (1 Bft)
04.02.2017 09:34 1,7 °C 1,7 °C 95 % 1004,1 hPa 0,0 mm 1,7 km/h (1 Bft) O 81 ° 0 min 0,000 mm 0,0 UV-I 53 W/m² 1,0 °C 1,7 °C 3,2 km/h (1 Bft)
04.02.2017 09:35 1,7 °C 1,7 °C 95 % 1004,1 hPa 0,0 mm 1,5 km/h (1 Bft) O 81 ° 0 min 0,000 mm 0,0 UV-I 51 W/m² 1,0 °C 1,7 °C 3,2 km/h (1 Bft)
04.02.2017 09:36 1,8 °C 1,8 °C 95 % 1004,0 hPa 0,0 mm 2,6 km/h (1 Bft) O 81 ° 0 min 0,000 mm 0,0 UV-I 49 W/m² 1,1 °C 1,8 °C 3,2 km/h (1 Bft)
04.02.2017 09:37 1,8 °C 1,8 °C 95 % 1004,0 hPa 0,0 mm 2,7 km/h (1 Bft) O 81 ° 0 min 0,000 mm 0,0 UV-I 47 W/m² 1,1 °C 1,8 °C 4,8 km/h (1 Bft)
04.02.2017 09:38 1,8 °C 1,8 °C 95 % 1004,0 hPa 0,0 mm 3,6 km/h (1 Bft) O-NO 67 ° 0 min 0,000 mm 0,0 UV-I 46 W/m² 1,1 °C 1,8 °C 6,4 km/h (2 Bft)
04.02.2017 09:39 1,9 °C 1,9 °C 95 % 1004,0 hPa 0,0 mm 3,2 km/h (1 Bft) O-SO 119 ° 0 min 0,000 mm 0,0 UV-I 46 W/m² 1,2 °C 1,9 °C 4,8 km/h (1 Bft)
04.02.2017 09:40 1,9 °C 1,9 °C 95 % 1004,0 hPa 0,0 mm 1,6 km/h (1 Bft) NO 56 ° 0 min 0,000 mm 0,0 UV-I 44 W/m² 1,2 °C 1,9 °C 3,2 km/h (1 Bft)
04.02.2017 09:41 1,9 °C 1,9 °C 95 % 1004,0 hPa 0,0 mm 2,6 km/h (1 Bft) O-NO 64 ° 0 min 0,000 mm 0,0 UV-I 44 W/m² 1,2 °C 1,9 °C 4,8 km/h (1 Bft)
04.02.2017 09:42 1,9 °C 1,9 °C 94 % 1004,0 hPa 0,0 mm 2,2 km/h (1 Bft) O-NO 64 ° 0 min 0,000 mm 0,0 UV-I 46 W/m² 1,0 °C 1,9 °C 3,2 km/h (1 Bft)
04.02.2017 09:43 2,0 °C 2,0 °C 94 % 1004,0 hPa 0,0 mm 2,6 km/h (1 Bft) O-NO 64 ° 0 min 0,000 mm 0,0 UV-I 46 W/m² 1,1 °C 2,0 °C 4,8 km/h (1 Bft)
04.02.2017 09:44 2,0 °C 2,0 °C 94 % 1004,0 hPa 0,0 mm 0,5 km/h (0 Bft) O-NO 64 ° 0 min 0,000 mm 0,0 UV-I 47 W/m² 1,1 °C 2,0 °C 1,6 km/h (1 Bft)
04.02.2017 09:45 2,1 °C 2,1 °C 94 % 1003,9 hPa 0,0 mm 3,0 km/h (1 Bft) O-NO 63 ° 0 min 0,000 mm 0,0 UV-I 49 W/m² 1,2 °C 2,1 °C 4,8 km/h (1 Bft)
04.02.2017 09:46 2,1 °C 2,1 °C 94 % 1003,9 hPa 0,0 mm 3,0 km/h (1 Bft) O-NO 63 ° 0 min 0,000 mm 0,0 UV-I 51 W/m² 1,2 °C 2,1 °C 4,8 km/h (1 Bft)
04.02.2017 09:47 2,1 °C 2,1 °C 94 % 1003,9 hPa 0,0 mm 2,3 km/h (1 Bft) O-NO 63 ° 0 min 0,000 mm 0,0 UV-I 54 W/m² 1,2 °C 2,1 °C 4,8 km/h (1 Bft)
04.02.2017 09:48 2,1 °C 2,1 °C 94 % 1003,9 hPa 0,0 mm 4,0 km/h (1 Bft) O-NO 76 ° 0 min 0,000 mm 0,8 UV-I 58 W/m² 1,2 °C 2,1 °C 8,0 km/h (2 Bft)
04.02.2017 09:49 2,2 °C 2,2 °C 94 % 1003,9 hPa 0,0 mm 8,2 km/h (2 Bft) O 86 ° 0 min 0,000 mm 0,8 UV-I 62 W/m² 1,3 °C -0,2 °C 11,3 km/h (2 Bft)
04.02.2017 09:50 2,2 °C 2,2 °C 94 % 1003,8 hPa 0,0 mm 7,0 km/h (2 Bft) NO 56 ° 0 min 0,000 mm 0,8 UV-I 67 W/m² 1,3 °C 0,2 °C 8,0 km/h (2 Bft)
04.02.2017 09:51 2,2 °C 2,2 °C 94 % 1003,7 hPa 0,0 mm 5,4 km/h (1 Bft) O-NO 69 ° 0 min 0,000 mm 0,8 UV-I 70 W/m² 1,3 °C 0,7 °C 6,4 km/h (2 Bft)
04.02.2017 09:52 2,3 °C 2,3 °C 94 % 1003,7 hPa 0,0 mm 3,7 km/h (1 Bft) O-NO 66 ° 0 min 0,000 mm 0,8 UV-I 74 W/m² 1,4 °C 2,3 °C 4,8 km/h (1 Bft)
04.02.2017 09:53 2,3 °C 2,3 °C 94 % 1003,7 hPa 0,0 mm 6,2 km/h (2 Bft) O-NO 73 ° 0 min 0,000 mm 0,8 UV-I 74 W/m² 1,4 °C 0,5 °C 12,9 km/h (3 Bft)
04.02.2017 09:54 2,4 °C 2,4 °C 93 % 1003,6 hPa 0,0 mm 5,9 km/h (2 Bft) O-NO 69 ° 0 min 0,000 mm 0,8 UV-I 76 W/m² 1,4 °C 0,8 °C 8,0 km/h (2 Bft)
04.02.2017 09:55 2,6 °C 2,6 °C 93 % 1003,6 hPa 0,0 mm 6,6 km/h (2 Bft) O-NO 74 ° 0 min 0,000 mm 0,8 UV-I 77 W/m² 1,6 °C 0,8 °C 8,0 km/h (2 Bft)
04.02.2017 09:56 2,7 °C 2,7 °C 92 % 1003,6 hPa 0,0 mm 7,4 km/h (2 Bft) O 81 ° 0 min 0,000 mm 0,8 UV-I 77 W/m² 1,5 °C 0,6 °C 8,0 km/h (2 Bft)
04.02.2017 09:57 2,8 °C 2,8 °C 91 % 1003,6 hPa 0,0 mm 6,2 km/h (2 Bft) O-SO 105 ° 0 min 0,000 mm 0,8 UV-I 77 W/m² 1,5 °C 1,1 °C 11,3 km/h (2 Bft)
04.02.2017 09:58 2,8 °C 2,8 °C 92 % 1003,6 hPa 0,0 mm 4,3 km/h (1 Bft) O-NO 62 ° 0 min 0,000 mm 0,8 UV-I 76 W/m² 1,6 °C 2,8 °C 6,4 km/h (2 Bft)
04.02.2017 09:59 2,9 °C 2,9 °C 92 % 1003,6 hPa 0,0 mm 6,1 km/h (2 Bft) O 87 ° 0 min 0,000 mm 0,8 UV-I 72 W/m² 1,7 °C 1,3 °C 9,7 km/h (2 Bft)
04.02.2017 10:00 3,1 °C 3,1 °C 91 % 1003,6 hPa 0,0 mm 6,0 km/h (2 Bft) O-NO 71 ° 0 min 0,000 mm 0,8 UV-I 70 W/m² 1,8 °C 1,5 °C 9,7 km/h (2 Bft)
04.02.2017 10:01 3,2 °C 3,2 °C 90 % 1003,6 hPa 0,0 mm 6,5 km/h (2 Bft) NO 44 ° 0 min 0,025 mm 0,8 UV-I 69 W/m² 1,7 °C 1,5 °C 11,3 km/h (2 Bft)
04.02.2017 10:02 3,2 °C 3,2 °C 89 % 1003,5 hPa 0,0 mm 6,9 km/h (2 Bft) O 90 ° 0 min 0,000 mm 0,8 UV-I 67 W/m² 1,6 °C 1,3 °C 11,3 km/h (2 Bft)
04.02.2017 10:03 3,2 °C 3,2 °C 88 % 1003,5 hPa 0,0 mm 5,8 km/h (2 Bft) O 80 ° 0 min 0,000 mm 0,8 UV-I 65 W/m² 1,4 °C 1,7 °C 6,4 km/h (2 Bft)
04.02.2017 10:04 3,2 °C 3,2 °C 89 % 1003,5 hPa 0,0 mm 8,4 km/h (2 Bft) O-NO 78 ° 0 min 0,000 mm 0,8 UV-I 65 W/m² 1,6 °C 0,9 °C 14,5 km/h (3 Bft)
04.02.2017 10:05 3,2 °C 3,2 °C 89 % 1003,4 hPa 0,0 mm 4,6 km/h (1 Bft) O 98 ° 0 min 0,000 mm 0,9 UV-I 65 W/m² 1,6 °C 2,2 °C 6,4 km/h (2 Bft)
04.02.2017 10:06 3,2 °C 3,2 °C 89 % 1003,4 hPa 0,0 mm 7,8 km/h (2 Bft) O-NO 57 ° 0 min 0,000 mm 0,9 UV-I 65 W/m² 1,6 °C 1,1 °C 11,3 km/h (2 Bft)
04.02.2017 10:07 3,2 °C 3,2 °C 89 % 1003,4 hPa 0,0 mm 4,6 km/h (1 Bft) NO 41 ° 0 min 0,000 mm 0,9 UV-I 67 W/m² 1,6 °C 2,2 °C 6,4 km/h (2 Bft)
04.02.2017 10:08 3,1 °C 3,2 °C 89 % 1003,4 hPa 0,0 mm 2,9 km/h (1 Bft) O-NO 68 ° 0 min 0,000 mm 0,9 UV-I 72 W/m² 1,5 °C 3,1 °C 4,8 km/h (1 Bft)
04.02.2017 10:09 3,0 °C 3,1 °C 89 % 1003,4 hPa 0,0 mm 2,3 km/h (1 Bft) O-NO 71 ° 0 min 0,000 mm 0,9 UV-I 70 W/m² 1,4 °C 3,0 °C 4,8 km/h (1 Bft)
04.02.2017 10:10 2,9 °C 3,0 °C 90 % 1003,4 hPa 0,0 mm 5,9 km/h (2 Bft) O 80 ° 0 min 0,000 mm 0,9 UV-I 69 W/m² 1,4 °C 1,3 °C 9,7 km/h (2 Bft)
04.02.2017 10:11 2,8 °C 2,9 °C 90 % 1003,2 hPa 0,0 mm 6,3 km/h (2 Bft) O 84 ° 0 min 0,000 mm 0,9 UV-I 69 W/m² 1,3 °C 1,1 °C 9,7 km/h (2 Bft)
04.02.2017 10:12 2,9 °C 2,9 °C 90 % 1003,2 hPa 0,0 mm 5,2 km/h (1 Bft) O-NO 65 ° 0 min 0,000 mm 0,9 UV-I 70 W/m² 1,4 °C 1,6 °C 8,0 km/h (2 Bft)
04.02.2017 10:13 3,0 °C 3,0 °C 89 % 1003,2 hPa 0,0 mm 5,8 km/h (2 Bft) O-NO 77 ° 0 min 0,000 mm 0,9 UV-I 74 W/m² 1,4 °C 1,5 °C 8,0 km/h (2 Bft)
04.02.2017 10:14 3,1 °C 3,1 °C 89 % 1003,3 hPa 0,0 mm 3,9 km/h (1 Bft) NO 55 ° 0 min 0,000 mm 0,9 UV-I 77 W/m² 1,5 °C 3,1 °C 8,0 km/h (2 Bft)
04.02.2017 10:15 3,2 °C 3,2 °C 90 % 1003,2 hPa 0,0 mm 6,1 km/h (2 Bft) O-NO 63 ° 0 min 0,000 mm 0,9 UV-I 83 W/m² 1,7 °C 1,6 °C 11,3 km/h (2 Bft)
04.02.2017 10:16 3,3 °C 3,3 °C 89 % 1003,1 hPa 0,0 mm 5,3 km/h (1 Bft) O-NO 76 ° 0 min 0,000 mm 0,9 UV-I 86 W/m² 1,7 °C 2,0 °C 8,0 km/h (2 Bft)
04.02.2017 10:17 3,4 °C 3,4 °C 88 % 1003,1 hPa 0,0 mm 5,3 km/h (1 Bft) O 98 ° 0 min 0,000 mm 0,9 UV-I 86 W/m² 1,6 °C 2,1 °C 8,0 km/h (2 Bft)
04.02.2017 10:18 3,5 °C 3,5 °C 89 % 1003,1 hPa 0,0 mm 4,6 km/h (1 Bft) O-NO 71 ° 0 min 0,000 mm 1,0 UV-I 90 W/m² 1,9 °C 2,6 °C 6,4 km/h (2 Bft)
04.02.2017 10:19 3,5 °C 3,5 °C 89 % 1003,1 hPa 0,0 mm 5,5 km/h (1 Bft) NO 54 ° 0 min 0,000 mm 1,0 UV-I 88 W/m² 1,9 °C 2,2 °C 8,0 km/h (2 Bft)
04.02.2017 10:20 3,6 °C 3,6 °C 88 % 1003,1 hPa 0,0 mm 3,5 km/h (1 Bft) NO 45 ° 0 min 0,000 mm 1,0 UV-I 84 W/m² 1,8 °C 3,6 °C 6,4 km/h (2 Bft)
04.02.2017 10:21 3,6 °C 3,6 °C 88 % 1003,0 hPa 0,0 mm 5,6 km/h (1 Bft) O-NO 69 ° 0 min 0,000 mm 1,0 UV-I 83 W/m² 1,8 °C 2,3 °C 8,0 km/h (2 Bft)
04.02.2017 10:22 3,6 °C 3,6 °C 88 % 1003,1 hPa 0,0 mm 2,3 km/h (1 Bft) O-NO 69 ° 0 min 0,000 mm 1,0 UV-I 81 W/m² 1,8 °C 3,6 °C 4,8 km/h (1 Bft)
04.02.2017 10:23 3,5 °C 3,6 °C 89 % 1003,0 hPa 0,0 mm 3,2 km/h (1 Bft) O 82 ° 0 min 0,000 mm 1,0 UV-I 83 W/m² 1,9 °C 3,5 °C 4,8 km/h (1 Bft)
04.02.2017 10:24 3,4 °C 3,5 °C 89 % 1003,0 hPa 0,0 mm 2,3 km/h (1 Bft) O 82 ° 0 min 0,000 mm 1,0 UV-I 84 W/m² 1,8 °C 3,4 °C 3,2 km/h (1 Bft)
04.02.2017 10:25 3,5 °C 3,5 °C 89 % 1003,0 hPa 0,0 mm 4,9 km/h (1 Bft) O-NO 74 ° 0 min 0,000 mm 1,0 UV-I 84 W/m² 1,9 °C 2,4 °C 8,0 km/h (2 Bft)
04.02.2017 10:26 3,4 °C 3,5 °C 89 % 1002,9 hPa 0,0 mm 4,2 km/h (1 Bft) O-NO 70 ° 0 min 0,000 mm 1,0 UV-I 86 W/m² 1,8 °C 3,4 °C 6,4 km/h (2 Bft)
04.02.2017 10:27 3,4 °C 3,4 °C 89 % 1002,9 hPa 0,0 mm 5,6 km/h (1 Bft) O-NO 67 ° 0 min 0,000 mm 1,0 UV-I 90 W/m² 1,8 °C 2,0 °C 9,7 km/h (2 Bft)
04.02.2017 10:28 3,3 °C 3,4 °C 90 % 1002,9 hPa 0,0 mm 5,8 km/h (2 Bft) O-NO 63 ° 0 min 0,000 mm 1,0 UV-I 91 W/m² 1,8 °C 1,8 °C 9,7 km/h (2 Bft)
04.02.2017 10:29 3,3 °C 3,3 °C 89 % 1002,9 hPa 0,0 mm 4,3 km/h (1 Bft) O-SO 104 ° 0 min 0,000 mm 1,0 UV-I 95 W/m² 1,7 °C 3,3 °C 8,0 km/h (2 Bft)
04.02.2017 10:30 3,4 °C 3,4 °C 88 % 1002,9 hPa 0,0 mm 4,0 km/h (1 Bft) O 79 ° 0 min 0,000 mm 1,0 UV-I 95 W/m² 1,6 °C 3,4 °C 6,4 km/h (2 Bft)
04.02.2017 10:31 3,4 °C 3,5 °C 88 % 1002,8 hPa 0,0 mm 8,6 km/h (2 Bft) O 85 ° 0 min 0,000 mm 1,0 UV-I 91 W/m² 1,6 °C 1,1 °C 12,9 km/h (3 Bft)
04.02.2017 10:32 3,5 °C 3,5 °C 88 % 1002,8 hPa 0,0 mm 7,6 km/h (2 Bft) O-NO 78 ° 0 min 0,000 mm 1,0 UV-I 90 W/m² 1,7 °C 1,5 °C 11,3 km/h (2 Bft)
04.02.2017 10:33 3,5 °C 3,5 °C 87 % 1002,8 hPa 0,0 mm 7,5 km/h (2 Bft) O 98 ° 0 min 0,000 mm 1,0 UV-I 88 W/m² 1,5 °C 1,5 °C 12,9 km/h (3 Bft)
04.02.2017 10:34 3,5 °C 3,6 °C 88 % 1002,8 hPa 0,0 mm 7,4 km/h (2 Bft) O-SO 103 ° 0 min 0,000 mm 1,0 UV-I 86 W/m² 1,7 °C 1,5 °C 14,5 km/h (3 Bft)
04.02.2017 10:35 3,6 °C 3,6 °C 87 % 1002,8 hPa 0,0 mm 8,0 km/h (2 Bft) NO 53 ° 0 min 0,000 mm 1,0 UV-I 83 W/m² 1,6 °C 1,5 °C 11,3 km/h (2 Bft)
04.02.2017 10:36 3,6 °C 3,6 °C 88 % 1002,8 hPa 0,0 mm 8,8 km/h (2 Bft) O 90 ° 0 min 0,000 mm 1,0 UV-I 79 W/m² 1,8 °C 1,3 °C 12,9 km/h (3 Bft)
04.02.2017 10:37 3,8 °C 3,8 °C 87 % 1002,8 hPa 0,0 mm 7,4 km/h (2 Bft) O-NO 67 ° 0 min 0,000 mm 1,0 UV-I 74 W/m² 1,8 °C 1,9 °C 11,3 km/h (2 Bft)
04.02.2017 10:38 3,8 °C 3,8 °C 87 % 1002,8 hPa 0,0 mm 7,1 km/h (2 Bft) O 80 ° 0 min 0,000 mm 1,0 UV-I 70 W/m² 1,8 °C 2,0 °C 14,5 km/h (3 Bft)
04.02.2017 10:39 3,9 °C 3,9 °C 87 % 1002,7 hPa 0,0 mm 7,2 km/h (2 Bft) O-NO 67 ° 0 min 0,000 mm 1,0 UV-I 67 W/m² 1,9 °C 2,1 °C 9,7 km/h (2 Bft)
04.02.2017 10:40 3,8 °C 3,9 °C 87 % 1002,7 hPa 0,0 mm 8,4 km/h (2 Bft) NO 53 ° 0 min 0,000 mm 1,0 UV-I 62 W/m² 1,8 °C 1,6 °C 11,3 km/h (2 Bft)
04.02.2017 10:41 3,8 °C 3,8 °C 87 % 1002,6 hPa 0,0 mm 10,1 km/h (2 Bft) O-NO 71 ° 0 min 0,000 mm 1,0 UV-I 62 W/m² 1,8 °C 1,2 °C 14,5 km/h (3 Bft)
04.02.2017 10:42 3,8 °C 3,8 °C 87 % 1002,6 hPa 0,0 mm 9,5 km/h (2 Bft) O-NO 76 ° 0 min 0,000 mm 1,0 UV-I 56 W/m² 1,8 °C 1,3 °C 14,5 km/h (3 Bft)
04.02.2017 10:43 3,8 °C 3,8 °C 87 % 1002,6 hPa 0,0 mm 6,2 km/h (2 Bft) O 93 ° 0 min 0,000 mm 0,0 UV-I 53 W/m² 1,8 °C 2,3 °C 12,9 km/h (3 Bft)
04.02.2017 10:44 3,7 °C 3,8 °C 87 % 1002,6 hPa 0,0 mm 8,2 km/h (2 Bft) O-NO 61 ° 0 min 0,000 mm 0,0 UV-I 51 W/m² 1,7 °C 1,6 °C 12,9 km/h (3 Bft)
04.02.2017 10:45 3,7 °C 3,7 °C 87 % 1002,5 hPa 0,0 mm 9,5 km/h (2 Bft) O-NO 66 ° 0 min 0,000 mm 0,0 UV-I 53 W/m² 1,7 °C 1,2 °C 12,9 km/h (3 Bft)
04.02.2017 10:46 3,7 °C 3,7 °C 87 % 1002,4 hPa 0,0 mm 10,0 km/h (2 Bft) O-SO 112 ° 0 min 0,000 mm 0,0 UV-I 53 W/m² 1,7 °C 1,1 °C 14,5 km/h (3 Bft)
04.02.2017 10:47 3,7 °C 3,7 °C 87 % 1002,4 hPa 0,0 mm 7,4 km/h (2 Bft) O 79 ° 0 min 0,000 mm 0,0 UV-I 54 W/m² 1,7 °C 1,8 °C 11,3 km/h (2 Bft)
04.02.2017 10:48 3,7 °C 3,7 °C 87 % 1002,4 hPa 0,0 mm 4,8 km/h (1 Bft) O-NO 74 ° 0 min 0,000 mm 0,0 UV-I 54 W/m² 1,7 °C 2,7 °C 6,4 km/h (2 Bft)
04.02.2017 10:49 3,7 °C 3,7 °C 87 % 1002,4 hPa 0,0 mm 3,4 km/h (1 Bft) O 91 ° 0 min 0,000 mm 1,0 UV-I 58 W/m² 1,7 °C 3,7 °C 4,8 km/h (1 Bft)
04.02.2017 10:50 3,6 °C 3,7 °C 88 % 1002,3 hPa 0,0 mm 4,4 km/h (1 Bft) O-NO 76 ° 0 min 0,000 mm 1,0 UV-I 62 W/m² 1,8 °C 3,6 °C 8,0 km/h (2 Bft)
04.02.2017 10:51 3,6 °C 3,6 °C 88 % 1002,3 hPa 0,0 mm 4,3 km/h (1 Bft) O-NO 70 ° 0 min 0,000 mm 1,0 UV-I 67 W/m² 1,8 °C 3,6 °C 8,0 km/h (2 Bft)
04.02.2017 10:52 3,5 °C 3,6 °C 89 % 1002,4 hPa 0,0 mm 2,9 km/h (1 Bft) O-NO 70 ° 0 min 0,000 mm 1,0 UV-I 72 W/m² 1,9 °C 3,5 °C 4,8 km/h (1 Bft)
04.02.2017 10:53 3,3 °C 3,5 °C 89 % 1002,4 hPa 0,0 mm 6,6 km/h (2 Bft) O-NO 71 ° 0 min 0,000 mm 1,0 UV-I 77 W/m² 1,7 °C 1,6 °C 9,7 km/h (2 Bft)
04.02.2017 10:54 3,2 °C 3,3 °C 89 % 1002,3 hPa 0,0 mm 6,1 km/h (2 Bft) O-NO 77 ° 0 min 0,000 mm 1,0 UV-I 90 W/m² 1,6 °C 1,6 °C 8,0 km/h (2 Bft)
04.02.2017 10:55 3,2 °C 3,2 °C 89 % 1002,3 hPa 0,0 mm 5,7 km/h (1 Bft) O-NO 74 ° 0 min 0,000 mm 1,0 UV-I 95 W/m² 1,6 °C 1,8 °C 8,0 km/h (2 Bft)
04.02.2017 10:56 3,2 °C 3,2 °C 89 % 1002,2 hPa 0,0 mm 4,8 km/h (1 Bft) O-SO 113 ° 0 min 0,000 mm 1,1 UV-I 100 W/m² 1,6 °C 2,1 °C 8,0 km/h (2 Bft)
04.02.2017 10:57 3,2 °C 3,2 °C 89 % 1002,2 hPa 0,0 mm 3,6 km/h (1 Bft) O-NO 64 ° 0 min 0,000 mm 1,1 UV-I 105 W/m² 1,6 °C 3,2 °C 6,4 km/h (2 Bft)
04.02.2017 10:58 3,3 °C 3,3 °C 90 % 1002,3 hPa 0,0 mm 4,0 km/h (1 Bft) O-NO 69 ° 0 min 0,000 mm 1,1 UV-I 105 W/m² 1,8 °C 3,3 °C 6,4 km/h (2 Bft)
04.02.2017 10:59 3,3 °C 3,3 °C 90 % 1002,2 hPa 0,0 mm 7,4 km/h (2 Bft) O-NO 61 ° 0 min 0,000 mm 1,1 UV-I 111 W/m² 1,8 °C 1,3 °C 12,9 km/h (3 Bft)
04.02.2017 11:00 3,4 °C 3,4 °C 88 % 1002,2 hPa 0,0 mm 6,8 km/h (2 Bft) O-NO 66 ° 0 min 0,026 mm 1,1 UV-I 116 W/m² 1,6 °C 1,6 °C 9,7 km/h (2 Bft)
04.02.2017 11:01 3,4 °C 3,4 °C 88 % 1002,3 hPa 0,0 mm 4,8 km/h (1 Bft) O 85 ° 0 min 0,000 mm 1,1 UV-I 118 W/m² 1,6 °C 2,4 °C 8,0 km/h (2 Bft)
04.02.2017 11:02 3,6 °C 3,6 °C 89 % 1002,2 hPa 0,0 mm 4,8 km/h (1 Bft) O-NO 76 ° 0 min 0,000 mm 1,1 UV-I 120 W/m² 2,0 °C 2,6 °C 6,4 km/h (2 Bft)
04.02.2017 11:03 3,6 °C 3,6 °C 89 % 1002,2 hPa 0,0 mm 5,0 km/h (1 Bft) O-SO 123 ° 0 min 0,000 mm 1,1 UV-I 123 W/m² 2,0 °C 2,5 °C 8,0 km/h (2 Bft)
04.02.2017 11:04 3,6 °C 3,6 °C 89 % 1002,2 hPa 0,0 mm 5,7 km/h (1 Bft) O-NO 69 ° 0 min 0,000 mm 1,1 UV-I 125 W/m² 2,0 °C 2,2 °C 8,0 km/h (2 Bft)
04.02.2017 11:05 3,7 °C 3,7 °C 88 % 1002,2 hPa 0,0 mm 8,5 km/h (2 Bft) O-NO 76 ° 0 min 0,000 mm 1,1 UV-I 127 W/m² 1,9 °C 1,5 °C 12,9 km/h (3 Bft)
04.02.2017 11:06 3,7 °C 3,7 °C 88 % 1002,2 hPa 0,0 mm 6,4 km/h (2 Bft) O-NO 70 ° 0 min 0,000 mm 1,1 UV-I 132 W/m² 1,9 °C 2,1 °C 8,0 km/h (2 Bft)
04.02.2017 11:07 3,8 °C 3,8 °C 88 % 1002,2 hPa 0,0 mm 4,9 km/h (1 Bft) O-NO 70 ° 0 min 0,000 mm 1,1 UV-I 137 W/m² 2,0 °C 2,8 °C 6,4 km/h (2 Bft)
04.02.2017 11:08 3,8 °C 3,8 °C 88 % 1002,2 hPa 0,0 mm 3,8 km/h (1 Bft) O-NO 61 ° 0 min 0,000 mm 1,1 UV-I 141 W/m² 2,0 °C 3,8 °C 4,8 km/h (1 Bft)
04.02.2017 11:09 3,8 °C 3,8 °C 88 % 1002,2 hPa 0,0 mm 2,4 km/h (1 Bft) O-NO 61 ° 0 min 0,000 mm 1,1 UV-I 144 W/m² 2,0 °C 3,8 °C 3,2 km/h (1 Bft)
04.02.2017 11:10 3,7 °C 3,8 °C 89 % 1002,2 hPa 0,0 mm 2,3 km/h (1 Bft) O-NO 61 ° 0 min 0,000 mm 1,1 UV-I 148 W/m² 2,1 °C 3,7 °C 3,2 km/h (1 Bft)
04.02.2017 11:11 3,8 °C 3,8 °C 88 % 1002,2 hPa 0,0 mm 5,2 km/h (1 Bft) O-NO 74 ° 0 min 0,000 mm 1,1 UV-I 149 W/m² 2,0 °C 2,6 °C 6,4 km/h (2 Bft)
04.02.2017 11:12 3,7 °C 3,8 °C 89 % 1002,2 hPa 0,0 mm 3,0 km/h (1 Bft) O-NO 74 ° 0 min 0,000 mm 1,1 UV-I 153 W/m² 2,1 °C 3,7 °C 4,8 km/h (1 Bft)
04.02.2017 11:13 3,7 °C 3,7 °C 89 % 1002,2 hPa 0,0 mm 3,9 km/h (1 Bft) O-NO 64 ° 0 min 0,000 mm 1,1 UV-I 155 W/m² 2,1 °C 3,7 °C 4,8 km/h (1 Bft)
04.02.2017 11:14 3,7 °C 3,7 °C 89 % 1002,1 hPa 0,0 mm 3,8 km/h (1 Bft) O 80 ° 0 min 0,000 mm 1,1 UV-I 156 W/m² 2,1 °C 3,7 °C 6,4 km/h (2 Bft)
04.02.2017 11:15 3,7 °C 3,7 °C 89 % 1002,1 hPa 0,0 mm 2,4 km/h (1 Bft) O 80 ° 0 min 0,000 mm 1,1 UV-I 156 W/m² 2,1 °C 3,7 °C 3,2 km/h (1 Bft)
04.02.2017 11:16 3,7 °C 3,7 °C 89 % 1002,1 hPa 0,0 mm 4,6 km/h (1 Bft) O-NO 57 ° 0 min 0,000 mm 1,1 UV-I 158 W/m² 2,1 °C 2,8 °C 4,8 km/h (1 Bft)
04.02.2017 11:17 3,7 °C 3,7 °C 89 % 1002,0 hPa 0,0 mm 5,3 km/h (1 Bft) O-NO 65 ° 0 min 0,000 mm 1,1 UV-I 162 W/m² 2,1 °C 2,5 °C 8,0 km/h (2 Bft)
04.02.2017 11:18 3,6 °C 3,7 °C 89 % 1002,0 hPa 0,0 mm 6,6 km/h (2 Bft) O-NO 68 ° 0 min 0,000 mm 1,1 UV-I 165 W/m² 2,0 °C 1,9 °C 9,7 km/h (2 Bft)
04.02.2017 11:19 3,7 °C 3,7 °C 89 % 1001,9 hPa 0,0 mm 7,2 km/h (2 Bft) O-NO 61 ° 0 min 0,000 mm 1,2 UV-I 169 W/m² 2,1 °C 1,8 °C 12,9 km/h (3 Bft)
04.02.2017 11:20 3,8 °C 3,8 °C 89 % 1001,9 hPa 0,0 mm 5,4 km/h (1 Bft) O-NO 68 ° 0 min 0,000 mm 1,2 UV-I 171 W/m² 2,2 °C 2,6 °C 8,0 km/h (2 Bft)
04.02.2017 11:21 3,9 °C 3,9 °C 88 % 1001,8 hPa 0,0 mm 5,7 km/h (1 Bft) O 94 ° 0 min 0,000 mm 1,2 UV-I 172 W/m² 2,1 °C 2,6 °C 11,3 km/h (2 Bft)
04.02.2017 11:22 3,9 °C 3,9 °C 88 % 1001,7 hPa 0,0 mm 6,9 km/h (2 Bft) O 81 ° 0 min 0,000 mm 1,2 UV-I 174 W/m² 2,1 °C 2,2 °C 9,7 km/h (2 Bft)
04.02.2017 11:23 4,0 °C 4,0 °C 88 % 1001,7 hPa 0,0 mm 8,3 km/h (2 Bft) O-NO 65 ° 0 min 0,000 mm 1,2 UV-I 176 W/m² 2,2 °C 1,9 °C 11,3 km/h (2 Bft)
04.02.2017 11:24 4,2 °C 4,2 °C 88 % 1001,7 hPa 0,0 mm 11,5 km/h (2 Bft) O-NO 71 ° 0 min 0,000 mm 1,2 UV-I 181 W/m² 2,4 °C 1,4 °C 16,1 km/h (3 Bft)
04.02.2017 11:25 4,2 °C 4,2 °C 87 % 1001,7 hPa 0,0 mm 7,4 km/h (2 Bft) O 85 ° 0 min 0,000 mm 1,3 UV-I 183 W/m² 2,2 °C 2,4 °C 9,7 km/h (2 Bft)
04.02.2017 11:26 4,3 °C 4,3 °C 87 % 1001,6 hPa 0,0 mm 6,3 km/h (2 Bft) O-NO 65 ° 0 min 0,000 mm 1,3 UV-I 183 W/m² 2,3 °C 2,8 °C 8,0 km/h (2 Bft)
04.02.2017 11:27 4,3 °C 4,3 °C 87 % 1001,6 hPa 0,0 mm 7,2 km/h (2 Bft) O-NO 73 ° 0 min 0,000 mm 1,3 UV-I 185 W/m² 2,3 °C 2,5 °C 9,7 km/h (2 Bft)
04.02.2017 11:28 4,3 °C 4,3 °C 87 % 1001,5 hPa 0,0 mm 6,6 km/h (2 Bft) O-NO 75 ° 0 min 0,000 mm 1,3 UV-I 185 W/m² 2,3 °C 2,7 °C 9,7 km/h (2 Bft)
04.02.2017 11:29 4,3 °C 4,3 °C 86 % 1001,4 hPa 0,0 mm 6,8 km/h (2 Bft) O-NO 61 ° 0 min 0,000 mm 1,3 UV-I 185 W/m² 2,2 °C 2,7 °C 11,3 km/h (2 Bft)
04.02.2017 11:30 4,3 °C 4,3 °C 86 % 1001,4 hPa 0,0 mm 8,0 km/h (2 Bft) O-NO 75 ° 0 min 0,000 mm 1,3 UV-I 185 W/m² 2,2 °C 2,3 °C 12,9 km/h (3 Bft)
04.02.2017 11:31 4,4 °C 4,4 °C 85 % 1001,4 hPa 0,0 mm 5,7 km/h (1 Bft) O-NO 74 ° 0 min 0,000 mm 1,3 UV-I 181 W/m² 2,1 °C 3,1 °C 6,4 km/h (2 Bft)
04.02.2017 11:32 4,5 °C 4,5 °C 85 % 1001,3 hPa 0,0 mm 3,6 km/h (1 Bft) O-NO 63 ° 0 min 0,000 mm 1,3 UV-I 179 W/m² 2,2 °C 4,5 °C 6,4 km/h (2 Bft)
04.02.2017 11:33 4,6 °C 4,6 °C 85 % 1001,3 hPa 0,0 mm 4,5 km/h (1 Bft) O-NO 57 ° 0 min 0,000 mm 1,3 UV-I 178 W/m² 2,3 °C 4,6 °C 6,4 km/h (2 Bft)
04.02.2017 11:34 4,6 °C 4,6 °C 85 % 1001,3 hPa 0,0 mm 4,6 km/h (1 Bft) O-NO 60 ° 0 min 0,000 mm 1,3 UV-I 174 W/m² 2,3 °C 3,8 °C 6,4 km/h (2 Bft)
04.02.2017 11:35 4,6 °C 4,6 °C 85 % 1001,3 hPa 0,0 mm 5,6 km/h (1 Bft) O-NO 67 ° 0 min 0,000 mm 1,3 UV-I 172 W/m² 2,3 °C 3,4 °C 9,7 km/h (2 Bft)
04.02.2017 11:36 4,6 °C 4,6 °C 85 % 1001,3 hPa 0,0 mm 1,6 km/h (1 Bft) O-NO 67 ° 0 min 0,000 mm 1,3 UV-I 169 W/m² 2,3 °C 4,6 °C 3,2 km/h (1 Bft)
04.02.2017 11:37 4,6 °C 4,6 °C 85 % 1001,3 hPa 0,0 mm 3,8 km/h (1 Bft) O-NO 78 ° 0 min 0,000 mm 1,3 UV-I 169 W/m² 2,3 °C 4,6 °C 6,4 km/h (2 Bft)
04.02.2017 11:38 4,6 °C 4,6 °C 85 % 1001,3 hPa 0,0 mm 2,2 km/h (1 Bft) O-NO 78 ° 0 min 0,000 mm 1,3 UV-I 169 W/m² 2,3 °C 4,6 °C 4,8 km/h (1 Bft)
04.02.2017 11:39 4,6 °C 4,6 °C 84 % 1001,3 hPa 0,0 mm 6,8 km/h (2 Bft) O 80 ° 0 min 0,000 mm 1,3 UV-I 171 W/m² 2,1 °C 3,0 °C 11,3 km/h (2 Bft)
04.02.2017 11:40 4,6 °C 4,7 °C 84 % 1001,2 hPa 0,0 mm 4,0 km/h (1 Bft) O-NO 62 ° 0 min 0,000 mm 1,3 UV-I 172 W/m² 2,1 °C 4,6 °C 8,0 km/h (2 Bft)
04.02.2017 11:41 4,7 °C 4,7 °C 83 % 1001,1 hPa 0,0 mm 2,7 km/h (1 Bft) O-NO 62 ° 0 min 0,000 mm 1,3 UV-I 176 W/m² 2,1 °C 4,7 °C 3,2 km/h (1 Bft)
04.02.2017 11:42 4,7 °C 4,7 °C 84 % 1001,1 hPa 0,0 mm 6,1 km/h (2 Bft) O-NO 77 ° 0 min 0,000 mm 1,3 UV-I 179 W/m² 2,2 °C 3,3 °C 11,3 km/h (2 Bft)
04.02.2017 11:43 4,7 °C 4,7 °C 84 % 1001,1 hPa 0,0 mm 7,1 km/h (2 Bft) O-NO 62 ° 0 min 0,000 mm 1,4 UV-I 181 W/m² 2,2 °C 3,0 °C 9,7 km/h (2 Bft)
04.02.2017 11:44 4,7 °C 4,7 °C 84 % 1001,0 hPa 0,0 mm 6,5 km/h (2 Bft) O-NO 74 ° 0 min 0,000 mm 1,4 UV-I 183 W/m² 2,2 °C 3,2 °C 8,0 km/h (2 Bft)
04.02.2017 11:45 4,8 °C 4,8 °C 83 % 1001,0 hPa 0,0 mm 4,5 km/h (1 Bft) O-NO 67 ° 0 min 0,000 mm 1,4 UV-I 183 W/m² 2,2 °C 4,8 °C 6,4 km/h (2 Bft)
04.02.2017 11:46 4,9 °C 4,9 °C 83 % 1000,9 hPa 0,0 mm 6,6 km/h (2 Bft) O-NO 68 ° 0 min 0,000 mm 1,4 UV-I 185 W/m² 2,3 °C 3,4 °C 9,7 km/h (2 Bft)
04.02.2017 11:47 4,9 °C 4,9 °C 82 % 1000,9 hPa 0,0 mm 8,1 km/h (2 Bft) NO 46 ° 0 min 0,000 mm 1,4 UV-I 188 W/m² 2,1 °C 3,0 °C 11,3 km/h (2 Bft)
04.02.2017 11:48 5,1 °C 5,1 °C 82 % 1000,9 hPa 0,0 mm 6,0 km/h (2 Bft) O-NO 63 ° 0 min 0,000 mm 1,4 UV-I 190 W/m² 2,3 °C 3,8 °C 8,0 km/h (2 Bft)
04.02.2017 11:49 5,1 °C 5,1 °C 82 % 1000,8 hPa 0,0 mm 4,2 km/h (1 Bft) NO 51 ° 0 min 0,000 mm 1,4 UV-I 192 W/m² 2,3 °C 5,1 °C 9,7 km/h (2 Bft)
04.02.2017 11:50 5,1 °C 5,1 °C 82 % 1000,8 hPa 0,0 mm 8,0 km/h (2 Bft) O-NO 66 ° 0 min 0,000 mm 1,4 UV-I 193 W/m² 2,3 °C 3,3 °C 11,3 km/h (2 Bft)
04.02.2017 11:51 5,1 °C 5,1 °C 82 % 1000,8 hPa 0,0 mm 7,5 km/h (2 Bft) O-NO 73 ° 0 min 0,000 mm 1,4 UV-I 193 W/m² 2,3 °C 3,4 °C 12,9 km/h (3 Bft)
04.02.2017 11:52 5,1 °C 5,1 °C 82 % 1000,8 hPa 0,0 mm 4,9 km/h (1 Bft) NO 42 ° 0 min 0,000 mm 1,3 UV-I 193 W/m² 2,3 °C 4,2 °C 8,0 km/h (2 Bft)
04.02.2017 11:53 5,0 °C 5,1 °C 83 % 1000,8 hPa 0,0 mm 4,3 km/h (1 Bft) O 82 ° 0 min 0,000 mm 1,3 UV-I 188 W/m² 2,4 °C 5,0 °C 6,4 km/h (2 Bft)
04.02.2017 11:54 4,9 °C 5,0 °C 83 % 1000,8 hPa 0,0 mm 4,0 km/h (1 Bft) NO 43 ° 0 min 0,000 mm 1,3 UV-I 185 W/m² 2,3 °C 4,9 °C 6,4 km/h (2 Bft)
04.02.2017 11:55 5,1 °C 5,1 °C 83 % 1000,8 hPa 0,0 mm 3,4 km/h (1 Bft) NO 48 ° 0 min 0,000 mm 1,3 UV-I 181 W/m² 2,5 °C 5,1 °C 4,8 km/h (1 Bft)
04.02.2017 11:56 5,2 °C 5,2 °C 82 % 1000,8 hPa 0,0 mm 1,7 km/h (1 Bft) NO 49 ° 0 min 0,000 mm 1,3 UV-I 178 W/m² 2,4 °C 5,2 °C 3,2 km/h (1 Bft)
04.02.2017 11:57 5,2 °C 5,2 °C 81 % 1000,8 hPa 0,0 mm 4,4 km/h (1 Bft) O-NO 71 ° 0 min 0,000 mm 1,3 UV-I 176 W/m² 2,2 °C 5,2 °C 6,4 km/h (2 Bft)
04.02.2017 11:58 5,3 °C 5,3 °C 81 % 1000,8 hPa 0,0 mm 5,2 km/h (1 Bft) O-NO 66 ° 0 min 0,000 mm 1,3 UV-I 176 W/m² 2,3 °C 4,3 °C 6,4 km/h (2 Bft)
04.02.2017 11:59 5,3 °C 5,3 °C 81 % 1000,8 hPa 0,0 mm 2,5 km/h (1 Bft) NO 47 ° 0 min 0,000 mm 1,3 UV-I 176 W/m² 2,3 °C 5,3 °C 6,4 km/h (2 Bft)
04.02.2017 12:00 5,3 °C 5,3 °C 80 % 1000,8 hPa 0,0 mm 4,1 km/h (1 Bft) NO 51 ° 0 min 0,000 mm 1,3 UV-I 174 W/m² 2,1 °C 5,3 °C 6,4 km/h (2 Bft)
04.02.2017 12:01 5,3 °C 5,3 °C 81 % 1000,8 hPa 0,0 mm 2,8 km/h (1 Bft) NO 51 ° 0 min 0,076 mm 1,3 UV-I 174 W/m² 2,3 °C 5,3 °C 4,8 km/h (1 Bft)
04.02.2017 12:02 5,3 °C 5,4 °C 80 % 1000,8 hPa 0,0 mm 5,4 km/h (1 Bft) NO 36 ° 0 min 0,000 mm 1,3 UV-I 176 W/m² 2,1 °C 4,3 °C 8,0 km/h (2 Bft)
04.02.2017 12:03 5,4 °C 5,4 °C 80 % 1000,8 hPa 0,0 mm 3,0 km/h (1 Bft) NO 54 ° 0 min 0,000 mm 1,3 UV-I 179 W/m² 2,2 °C 5,4 °C 6,4 km/h (2 Bft)
04.02.2017 12:04 5,3 °C 5,4 °C 80 % 1000,8 hPa 0,0 mm 4,9 km/h (1 Bft) O-NO 74 ° 0 min 0,000 mm 1,3 UV-I 183 W/m² 2,1 °C 4,5 °C 11,3 km/h (2 Bft)
04.02.2017 12:05 5,3 °C 5,3 °C 80 % 1000,8 hPa 0,0 mm 4,2 km/h (1 Bft) O 86 ° 0 min 0,000 mm 1,3 UV-I 188 W/m² 2,1 °C 5,3 °C 6,4 km/h (2 Bft)
04.02.2017 12:06 5,4 °C 5,4 °C 80 % 1000,8 hPa 0,0 mm 5,5 km/h (1 Bft) O 84 ° 0 min 0,000 mm 1,3 UV-I 190 W/m² 2,2 °C 4,4 °C 6,4 km/h (2 Bft)
04.02.2017 12:07 5,4 °C 5,4 °C 79 % 1000,7 hPa 0,0 mm 5,9 km/h (2 Bft) NO 51 ° 0 min 0,000 mm 1,3 UV-I 190 W/m² 2,1 °C 4,2 °C 9,7 km/h (2 Bft)
04.02.2017 12:08 5,5 °C 5,5 °C 79 % 1000,7 hPa 0,0 mm 6,2 km/h (2 Bft) O 82 ° 0 min 0,000 mm 1,3 UV-I 190 W/m² 2,2 °C 4,2 °C 11,3 km/h (2 Bft)
04.02.2017 12:09 5,5 °C 5,5 °C 79 % 1000,7 hPa 0,0 mm 5,7 km/h (1 Bft) O-NO 72 ° 0 min 0,000 mm 1,3 UV-I 190 W/m² 2,2 °C 4,4 °C 8,0 km/h (2 Bft)
04.02.2017 12:10 5,4 °C 5,5 °C 79 % 1000,7 hPa 0,0 mm 4,1 km/h (1 Bft) O-NO 57 ° 0 min 0,000 mm 1,3 UV-I 188 W/m² 2,1 °C 5,4 °C 6,4 km/h (2 Bft)
04.02.2017 12:11 5,4 °C 5,5 °C 79 % 1000,6 hPa 0,0 mm 1,4 km/h (1 Bft) O-NO 57 ° 0 min 0,000 mm 1,3 UV-I 181 W/m² 2,1 °C 5,4 °C 3,2 km/h (1 Bft)
04.02.2017 12:12 5,4 °C 5,5 °C 79 % 1000,6 hPa 0,0 mm 3,0 km/h (1 Bft) O-NO 71 ° 0 min 0,000 mm 1,3 UV-I 178 W/m² 2,1 °C 5,4 °C 4,8 km/h (1 Bft)
04.02.2017 12:13 5,4 °C 5,4 °C 79 % 1000,6 hPa 0,0 mm 3,3 km/h (1 Bft) O-NO 72 ° 0 min 0,000 mm 1,2 UV-I 172 W/m² 2,1 °C 5,4 °C 4,8 km/h (1 Bft)
04.02.2017 12:14 5,4 °C 5,4 °C 80 % 1000,6 hPa 0,0 mm 4,4 km/h (1 Bft) NO 56 ° 0 min 0,000 mm 1,2 UV-I 167 W/m² 2,2 °C 5,4 °C 6,4 km/h (2 Bft)
04.02.2017 12:15 5,4 °C 5,4 °C 80 % 1000,6 hPa 0,0 mm 3,9 km/h (1 Bft) O-NO 69 ° 0 min 0,000 mm 1,2 UV-I 163 W/m² 2,2 °C 5,4 °C 6,4 km/h (2 Bft)
04.02.2017 12:16 5,4 °C 5,4 °C 80 % 1000,7 hPa 0,0 mm 3,2 km/h (1 Bft) O-NO 69 ° 0 min 0,000 mm 1,2 UV-I 160 W/m² 2,2 °C 5,4 °C 6,4 km/h (2 Bft)
04.02.2017 12:17 5,5 °C 5,5 °C 79 % 1000,7 hPa 0,0 mm 5,7 km/h (1 Bft) O-NO 60 ° 0 min 0,000 mm 1,1 UV-I 151 W/m² 2,2 °C 4,4 °C 8,0 km/h (2 Bft)
04.02.2017 12:18 5,5 °C 5,6 °C 79 % 1000,6 hPa 0,0 mm 5,0 km/h (1 Bft) O-NO 78 ° 0 min 0,000 mm 1,1 UV-I 146 W/m² 2,2 °C 4,7 °C 6,4 km/h (2 Bft)
04.02.2017 12:19 5,5 °C 5,5 °C 79 % 1000,6 hPa 0,0 mm 4,8 km/h (1 Bft) O-NO 60 ° 0 min 0,000 mm 1,1 UV-I 141 W/m² 2,2 °C 4,7 °C 6,4 km/h (2 Bft)
04.02.2017 12:20 5,5 °C 5,6 °C 79 % 1000,6 hPa 0,0 mm 5,6 km/h (1 Bft) NO 48 ° 0 min 0,000 mm 1,0 UV-I 135 W/m² 2,2 °C 4,4 °C 8,0 km/h (2 Bft)
04.02.2017 12:21 5,4 °C 5,5 °C 80 % 1000,6 hPa 0,0 mm 4,7 km/h (1 Bft) NO 40 ° 0 min 0,000 mm 1,0 UV-I 130 W/m² 2,2 °C 4,7 °C 6,4 km/h (2 Bft)
04.02.2017 12:22 5,5 °C 5,5 °C 80 % 1000,5 hPa 0,0 mm 6,4 km/h (2 Bft) O-NO 65 ° 0 min 0,000 mm 1,0 UV-I 121 W/m² 2,3 °C 4,2 °C 8,0 km/h (2 Bft)
04.02.2017 12:23 5,4 °C 5,5 °C 80 % 1000,5 hPa 0,0 mm 5,2 km/h (1 Bft) O-NO 76 ° 0 min 0,000 mm 0,9 UV-I 116 W/m² 2,2 °C 4,5 °C 6,4 km/h (2 Bft)
04.02.2017 12:24 5,2 °C 5,4 °C 82 % 1000,5 hPa 0,0 mm 3,6 km/h (1 Bft) O-NO 76 ° 0 min 0,000 mm 0,9 UV-I 111 W/m² 2,4 °C 5,2 °C 4,8 km/h (1 Bft)
04.02.2017 12:25 5,2 °C 5,2 °C 83 % 1000,5 hPa 0,0 mm 4,3 km/h (1 Bft) O-NO 76 ° 0 min 0,000 mm 0,8 UV-I 105 W/m² 2,6 °C 5,2 °C 8,0 km/h (2 Bft)
04.02.2017 12:26 5,2 °C 5,2 °C 82 % 1000,5 hPa 0,0 mm 8,0 km/h (2 Bft) O-NO 66 ° 0 min 0,000 mm 0,8 UV-I 102 W/m² 2,4 °C 3,4 °C 12,9 km/h (3 Bft)
04.02.2017 12:27 5,2 °C 5,2 °C 81 % 1000,5 hPa 0,0 mm 7,0 km/h (2 Bft) O-NO 67 ° 0 min 0,000 mm 0,8 UV-I 98 W/m² 2,2 °C 3,6 °C 11,3 km/h (2 Bft)
04.02.2017 12:28 5,2 °C 5,2 °C 80 % 1000,5 hPa 0,0 mm 6,2 km/h (2 Bft) O-NO 67 ° 0 min 0,000 mm 0,7 UV-I 93 W/m² 2,0 °C 3,9 °C 11,3 km/h (2 Bft)
04.02.2017 12:29 5,2 °C 5,2 °C 82 % 1000,6 hPa 0,0 mm 7,8 km/h (2 Bft) O-NO 57 ° 0 min 0,000 mm 0,7 UV-I 90 W/m² 2,4 °C 3,4 °C 12,9 km/h (3 Bft)
04.02.2017 12:30 5,2 °C 5,2 °C 81 % 1000,5 hPa 0,0 mm 8,6 km/h (2 Bft) O-NO 61 ° 0 min 0,000 mm 0,6 UV-I 86 W/m² 2,2 °C 3,2 °C 12,9 km/h (3 Bft)
04.02.2017 12:31 5,1 °C 5,2 °C 82 % 1000,6 hPa 0,0 mm 3,6 km/h (1 Bft) O-NO 61 ° 0 min 0,000 mm 0,6 UV-I 84 W/m² 2,3 °C 5,1 °C 4,8 km/h (1 Bft)
04.02.2017 12:32 5,1 °C 5,1 °C 81 % 1000,5 hPa 0,0 mm 3,6 km/h (1 Bft) O-NO 61 ° 0 min 0,000 mm 0,6 UV-I 83 W/m² 2,1 °C 5,1 °C 4,8 km/h (1 Bft)
04.02.2017 12:33 5,1 °C 5,1 °C 81 % 1000,5 hPa 0,0 mm 3,9 km/h (1 Bft) O-NO 67 ° 0 min 0,000 mm 0,6 UV-I 83 W/m² 2,1 °C 5,1 °C 4,8 km/h (1 Bft)
04.02.2017 12:34 5,1 °C 5,1 °C 81 % 1000,5 hPa 0,0 mm 1,7 km/h (1 Bft) O-NO 67 ° 0 min 0,000 mm 0,6 UV-I 81 W/m² 2,1 °C 5,1 °C 3,2 km/h (1 Bft)
04.02.2017 12:35 5,1 °C 5,2 °C 81 % 1000,5 hPa 0,0 mm 4,0 km/h (1 Bft) NO 51 ° 0 min 0,000 mm 0,6 UV-I 79 W/m² 2,1 °C 5,1 °C 6,4 km/h (2 Bft)
04.02.2017 12:36 5,1 °C 5,1 °C 81 % 1000,5 hPa 0,0 mm 2,9 km/h (1 Bft) NO 51 ° 0 min 0,000 mm 0,6 UV-I 79 W/m² 2,1 °C 5,1 °C 4,8 km/h (1 Bft)
04.02.2017 12:37 5,0 °C 5,1 °C 80 % 1000,5 hPa 0,0 mm 2,3 km/h (1 Bft) NO 51 ° 0 min 0,000 mm 0,6 UV-I 79 W/m² 1,8 °C 5,0 °C 3,2 km/h (1 Bft)
04.02.2017 12:38 5,0 °C 5,0 °C 81 % 1000,6 hPa 0,0 mm 2,3 km/h (1 Bft) O-SO 121 ° 0 min 0,000 mm 0,6 UV-I 77 W/m² 2,0 °C 5,0 °C 4,8 km/h (1 Bft)
04.02.2017 12:39 5,1 °C 5,1 °C 81 % 1000,6 hPa 0,0 mm 1,1 km/h (1 Bft) O-SO 121 ° 0 min 0,000 mm 0,6 UV-I 79 W/m² 2,1 °C 5,1 °C 3,2 km/h (1 Bft)
04.02.2017 12:40 5,1 °C 5,1 °C 81 % 1000,5 hPa 0,0 mm 0,9 km/h (0 Bft) O-SO 121 ° 0 min 0,000 mm 0,6 UV-I 83 W/m² 2,1 °C 5,1 °C 3,2 km/h (1 Bft)
04.02.2017 12:41 5,1 °C 5,1 °C 81 % 1000,5 hPa 0,0 mm 0,8 km/h (0 Bft) O-SO 121 ° 0 min 0,000 mm 0,6 UV-I 83 W/m² 2,1 °C 5,1 °C 1,6 km/h (1 Bft)
04.02.2017 12:42 5,1 °C 5,1 °C 82 % 1000,5 hPa 0,0 mm 0,4 km/h (0 Bft) O-SO 121 ° 0 min 0,000 mm 0,6 UV-I 84 W/m² 2,3 °C 5,1 °C 1,6 km/h (1 Bft)
04.02.2017 12:43 5,1 °C 5,1 °C 81 % 1000,6 hPa 0,0 mm 0,5 km/h (0 Bft) O-SO 121 ° 0 min 0,000 mm 0,6 UV-I 86 W/m² 2,1 °C 5,1 °C 1,6 km/h (1 Bft)
04.02.2017 12:44 5,1 °C 5,1 °C 81 % 1000,6 hPa 0,0 mm 1,6 km/h (1 Bft) O-SO 109 ° 0 min 0,000 mm 0,7 UV-I 88 W/m² 2,1 °C 5,1 °C 3,2 km/h (1 Bft)
04.02.2017 12:45 5,2 °C 5,2 °C 80 % 1000,6 hPa 0,0 mm 1,1 km/h (1 Bft) O-SO 109 ° 0 min 0,000 mm 0,7 UV-I 90 W/m² 2,0 °C 5,2 °C 3,2 km/h (1 Bft)
04.02.2017 12:46 5,3 °C 5,3 °C 80 % 1000,7 hPa 0,0 mm 2,1 km/h (1 Bft) O-SO 109 ° 0 min 0,000 mm 0,7 UV-I 95 W/m² 2,1 °C 5,3 °C 3,2 km/h (1 Bft)
04.02.2017 12:47 5,3 °C 5,3 °C 79 % 1000,6 hPa 0,0 mm 0,0 km/h (0 Bft) O-SO 109 ° 0 min 0,000 mm 0,7 UV-I 98 W/m² 2,0 °C 5,3 °C 0,0 km/h (0 Bft)
04.02.2017 12:48 5,4 °C 5,4 °C 79 % 1000,6 hPa 0,0 mm 0,1 km/h (0 Bft) O-SO 109 ° 0 min 0,000 mm 0,8 UV-I 102 W/m² 2,1 °C 5,4 °C 1,6 km/h (1 Bft)
04.02.2017 12:49 5,4 °C 5,4 °C 79 % 1000,7 hPa 0,0 mm 0,0 km/h (0 Bft) O-SO 109 ° 0 min 0,000 mm 0,8 UV-I 105 W/m² 2,1 °C 5,4 °C 0,0 km/h (0 Bft)
04.02.2017 12:50 5,3 °C 5,4 °C 79 % 1000,7 hPa 0,0 mm 0,1 km/h (0 Bft) O-SO 109 ° 0 min 0,000 mm 0,8 UV-I 113 W/m² 2,0 °C 5,3 °C 1,6 km/h (1 Bft)
04.02.2017 12:51 5,3 °C 5,3 °C 79 % 1000,7 hPa 0,0 mm 0,3 km/h (0 Bft) O-SO 109 ° 0 min 0,000 mm 0,9 UV-I 118 W/m² 2,0 °C 5,3 °C 1,6 km/h (1 Bft)
04.02.2017 12:52 5,4 °C 5,4 °C 79 % 1000,7 hPa 0,0 mm 1,7 km/h (1 Bft) O-SO 109 ° 0 min 0,000 mm 0,9 UV-I 134 W/m² 2,1 °C 5,4 °C 3,2 km/h (1 Bft)
04.02.2017 12:53 5,4 °C 5,4 °C 80 % 1000,7 hPa 0,0 mm 2,6 km/h (1 Bft) O-SO 109 ° 0 min 0,000 mm 1,0 UV-I 142 W/m² 2,2 °C 5,4 °C 4,8 km/h (1 Bft)
04.02.2017 12:54 5,4 °C 5,4 °C 80 % 1000,6 hPa 0,0 mm 3,5 km/h (1 Bft) O-SO 109 ° 0 min 0,000 mm 1,1 UV-I 149 W/m² 2,2 °C 5,4 °C 4,8 km/h (1 Bft)
04.02.2017 12:55 5,5 °C 5,5 °C 79 % 1000,5 hPa 0,0 mm 2,2 km/h (1 Bft) O-SO 109 ° 0 min 0,000 mm 1,1 UV-I 155 W/m² 2,2 °C 5,5 °C 3,2 km/h (1 Bft)
04.02.2017 12:56 5,6 °C 5,6 °C 79 % 1000,5 hPa 0,0 mm 2,7 km/h (1 Bft) O-SO 109 ° 0 min 0,000 mm 1,1 UV-I 158 W/m² 2,3 °C 5,6 °C 4,8 km/h (1 Bft)
04.02.2017 12:57 5,6 °C 5,6 °C 79 % 1000,4 hPa 0,0 mm 2,1 km/h (1 Bft) O-SO 109 ° 0 min 0,000 mm 1,1 UV-I 162 W/m² 2,3 °C 5,6 °C 3,2 km/h (1 Bft)
04.02.2017 12:58 5,6 °C 5,6 °C 79 % 1000,4 hPa 0,0 mm 2,6 km/h (1 Bft) O-SO 109 ° 0 min 0,000 mm 1,1 UV-I 165 W/m² 2,3 °C 5,6 °C 3,2 km/h (1 Bft)
04.02.2017 12:59 5,6 °C 5,6 °C 80 % 1000,4 hPa 0,0 mm 4,0 km/h (1 Bft) O-SO 123 ° 0 min 0,000 mm 1,2 UV-I 165 W/m² 2,4 °C 5,6 °C 4,8 km/h (1 Bft)
04.02.2017 13:00 5,6 °C 5,6 °C 79 % 1000,4 hPa 0,0 mm 3,7 km/h (1 Bft) O-SO 116 ° 0 min 0,000 mm 1,2 UV-I 165 W/m² 2,3 °C 5,6 °C 4,8 km/h (1 Bft)
04.02.2017 13:01 5,6 °C 5,6 °C 80 % 1000,3 hPa 0,0 mm 3,2 km/h (1 Bft) O-SO 115 ° 0 min 0,051 mm 1,2 UV-I 165 W/m² 2,4 °C 5,6 °C 4,8 km/h (1 Bft)
04.02.2017 13:02 5,6 °C 5,6 °C 81 % 1000,3 hPa 0,0 mm 2,2 km/h (1 Bft) O-SO 115 ° 0 min 0,000 mm 1,2 UV-I 165 W/m² 2,6 °C 5,6 °C 4,8 km/h (1 Bft)
04.02.2017 13:03 5,4 °C 5,6 °C 82 % 1000,3 hPa 0,0 mm 4,5 km/h (1 Bft) O 80 ° 0 min 0,000 mm 1,1 UV-I 163 W/m² 2,6 °C 5,4 °C 6,4 km/h (2 Bft)
04.02.2017 13:04 5,3 °C 5,4 °C 81 % 1000,3 hPa 0,0 mm 2,3 km/h (1 Bft) O 80 ° 0 min 0,000 mm 1,1 UV-I 163 W/m² 2,3 °C 5,3 °C 4,8 km/h (1 Bft)
04.02.2017 13:05 5,3 °C 5,3 °C 81 % 1000,3 hPa 0,0 mm 0,3 km/h (0 Bft) O 80 ° 0 min 0,000 mm 1,1 UV-I 162 W/m² 2,3 °C 5,3 °C 1,6 km/h (1 Bft)
04.02.2017 13:06 5,3 °C 5,3 °C 80 % 1000,2 hPa 0,0 mm 0,5 km/h (0 Bft) O 80 ° 0 min 0,000 mm 1,1 UV-I 162 W/m² 2,1 °C 5,3 °C 1,6 km/h (1 Bft)
04.02.2017 13:07 5,4 °C 5,4 °C 79 % 1000,2 hPa 0,0 mm 1,9 km/h (1 Bft) O 80 ° 0 min 0,000 mm 1,1 UV-I 155 W/m² 2,1 °C 5,4 °C 3,2 km/h (1 Bft)
04.02.2017 13:08 5,5 °C 5,5 °C 79 % 1000,2 hPa 0,0 mm 2,5 km/h (1 Bft) O-NO 78 ° 0 min 0,000 mm 1,0 UV-I 148 W/m² 2,2 °C 5,5 °C 3,2 km/h (1 Bft)
04.02.2017 13:09 5,6 °C 5,6 °C 79 % 1000,0 hPa 0,0 mm 2,1 km/h (1 Bft) O-NO 78 ° 0 min 0,000 mm 1,0 UV-I 130 W/m² 2,3 °C 5,6 °C 3,2 km/h (1 Bft)
04.02.2017 13:10 5,6 °C 5,6 °C 80 % 1000,0 hPa 0,0 mm 0,6 km/h (0 Bft) O-NO 78 ° 0 min 0,000 mm 0,9 UV-I 128 W/m² 2,4 °C 5,6 °C 1,6 km/h (1 Bft)
04.02.2017 13:11 5,6 °C 5,6 °C 80 % 1000,0 hPa 0,0 mm 0,0 km/h (0 Bft) O-NO 78 ° 0 min 0,000 mm 0,9 UV-I 132 W/m² 2,4 °C 5,6 °C 0,0 km/h (0 Bft)
04.02.2017 13:12 5,6 °C 5,6 °C 79 % 999,9 hPa 0,0 mm 0,2 km/h (0 Bft) O-NO 78 ° 0 min 0,000 mm 1,0 UV-I 139 W/m² 2,3 °C 5,6 °C 1,6 km/h (1 Bft)
04.02.2017 13:13 5,7 °C 5,7 °C 78 % 1000,0 hPa 0,0 mm 2,3 km/h (1 Bft) O-NO 78 ° 0 min 0,000 mm 1,0 UV-I 146 W/m² 2,2 °C 5,7 °C 3,2 km/h (1 Bft)
04.02.2017 13:14 5,7 °C 5,7 °C 78 % 1000,0 hPa 0,0 mm 1,0 km/h (0 Bft) O-NO 78 ° 0 min 0,000 mm 1,0 UV-I 151 W/m² 2,2 °C 5,7 °C 1,6 km/h (1 Bft)
04.02.2017 13:15 5,6 °C 5,7 °C 79 % 1000,0 hPa 0,0 mm 1,2 km/h (1 Bft) O-NO 78 ° 0 min 0,000 mm 1,1 UV-I 162 W/m² 2,3 °C 5,6 °C 1,6 km/h (1 Bft)
04.02.2017 13:16 5,6 °C 5,6 °C 78 % 999,9 hPa 0,0 mm 1,7 km/h (1 Bft) O-NO 78 ° 0 min 0,000 mm 1,1 UV-I 165 W/m² 2,1 °C 5,6 °C 3,2 km/h (1 Bft)
04.02.2017 13:17 5,6 °C 5,7 °C 78 % 999,9 hPa 0,0 mm 2,4 km/h (1 Bft) O-NO 78 ° 0 min 0,000 mm 1,1 UV-I 167 W/m² 2,1 °C 5,6 °C 3,2 km/h (1 Bft)
04.02.2017 13:18 5,5 °C 5,6 °C 79 % 999,9 hPa 0,0 mm 1,7 km/h (1 Bft) O-NO 78 ° 0 min 0,000 mm 1,1 UV-I 167 W/m² 2,2 °C 5,5 °C 3,2 km/h (1 Bft)
04.02.2017 13:19 5,4 °C 5,5 °C 80 % 999,7 hPa 0,0 mm 0,2 km/h (0 Bft) O-NO 78 ° 0 min 0,000 mm 1,1 UV-I 165 W/m² 2,2 °C 5,4 °C 1,6 km/h (1 Bft)
04.02.2017 13:20 5,4 °C 5,4 °C 80 % 999,7 hPa 0,0 mm 0,0 km/h (0 Bft) O-NO 78 ° 0 min 0,000 mm 1,1 UV-I 162 W/m² 2,2 °C 5,4 °C 0,0 km/h (0 Bft)
04.02.2017 13:21 5,5 °C 5,5 °C 80 % 999,7 hPa 0,0 mm 0,0 km/h (0 Bft) O-NO 78 ° 0 min 0,000 mm 1,1 UV-I 156 W/m² 2,3 °C 5,5 °C 0,0 km/h (0 Bft)
04.02.2017 13:22 5,6 °C 5,6 °C 79 % 999,6 hPa 0,0 mm 0,9 km/h (0 Bft) O-NO 78 ° 0 min 0,000 mm 1,1 UV-I 153 W/m² 2,3 °C 5,6 °C 3,2 km/h (1 Bft)
04.02.2017 13:23 5,6 °C 5,6 °C 79 % 999,7 hPa 0,0 mm 2,5 km/h (1 Bft) O-NO 78 ° 0 min 0,000 mm 1,1 UV-I 151 W/m² 2,3 °C 5,6 °C 3,2 km/h (1 Bft)
04.02.2017 13:24 5,6 °C 5,6 °C 78 % 999,7 hPa 0,0 mm 2,3 km/h (1 Bft) O-NO 78 ° 0 min 0,000 mm 1,1 UV-I 149 W/m² 2,1 °C 5,6 °C 3,2 km/h (1 Bft)
04.02.2017 13:25 5,7 °C 5,7 °C 78 % 999,7 hPa 0,0 mm 0,5 km/h (0 Bft) O-NO 78 ° 0 min 0,000 mm 1,1 UV-I 149 W/m² 2,2 °C 5,7 °C 1,6 km/h (1 Bft)
04.02.2017 13:26 5,8 °C 5,8 °C 78 % 999,7 hPa 0,0 mm 2,0 km/h (1 Bft) O-NO 78 ° 0 min 0,000 mm 1,0 UV-I 148 W/m² 2,3 °C 5,8 °C 4,8 km/h (1 Bft)
04.02.2017 13:27 5,8 °C 5,8 °C 77 % 999,6 hPa 0,0 mm 0,6 km/h (0 Bft) O-NO 78 ° 0 min 0,000 mm 1,0 UV-I 146 W/m² 2,1 °C 5,8 °C 3,2 km/h (1 Bft)
04.02.2017 13:28 5,8 °C 5,8 °C 77 % 999,6 hPa 0,0 mm 0,0 km/h (0 Bft) O-NO 78 ° 0 min 0,000 mm 1,0 UV-I 146 W/m² 2,1 °C 5,8 °C 0,0 km/h (0 Bft)
04.02.2017 13:29 5,8 °C 5,8 °C 77 % 999,6 hPa 0,0 mm 0,2 km/h (0 Bft) O-NO 78 ° 0 min 0,000 mm 1,0 UV-I 142 W/m² 2,1 °C 5,8 °C 1,6 km/h (1 Bft)
04.02.2017 13:30 5,8 °C 5,9 °C 77 % 999,7 hPa 0,0 mm 2,7 km/h (1 Bft) O-NO 78 ° 0 min 0,000 mm 1,0 UV-I 139 W/m² 2,1 °C 5,8 °C 3,2 km/h (1 Bft)
04.02.2017 13:31 5,8 °C 5,9 °C 78 % 999,7 hPa 0,0 mm 1,9 km/h (1 Bft) O-NO 78 ° 0 min 0,000 mm 1,0 UV-I 137 W/m² 2,3 °C 5,8 °C 4,8 km/h (1 Bft)
04.02.2017 13:32 5,8 °C 5,8 °C 78 % 999,7 hPa 0,0 mm 3,3 km/h (1 Bft) W-NW 298 ° 0 min 0,000 mm 1,0 UV-I 135 W/m² 2,3 °C 5,8 °C 4,8 km/h (1 Bft)
04.02.2017 13:33 5,6 °C 5,8 °C 79 % 999,7 hPa 0,0 mm 2,3 km/h (1 Bft) W-NW 286 ° 0 min 0,000 mm 0,9 UV-I 134 W/m² 2,3 °C 5,6 °C 4,8 km/h (1 Bft)
04.02.2017 13:34 5,5 °C 5,6 °C 80 % 999,7 hPa 0,0 mm 0,1 km/h (0 Bft) W-NW 286 ° 0 min 0,000 mm 0,9 UV-I 135 W/m² 2,3 °C 5,5 °C 1,6 km/h (1 Bft)
04.02.2017 13:35 5,5 °C 5,5 °C 80 % 999,6 hPa 0,0 mm 0,3 km/h (0 Bft) W-NW 286 ° 0 min 0,000 mm 0,9 UV-I 135 W/m² 2,3 °C 5,5 °C 1,6 km/h (1 Bft)
04.02.2017 13:36 5,5 °C 5,5 °C 80 % 999,6 hPa 0,0 mm 0,1 km/h (0 Bft) W-NW 286 ° 0 min 0,000 mm 0,9 UV-I 137 W/m² 2,3 °C 5,5 °C 1,6 km/h (1 Bft)
04.02.2017 13:37 5,5 °C 5,5 °C 80 % 999,6 hPa 0,0 mm 0,7 km/h (0 Bft) W-NW 286 ° 0 min 0,000 mm 0,9 UV-I 137 W/m² 2,3 °C 5,5 °C 1,6 km/h (1 Bft)
04.02.2017 13:38 5,4 °C 5,5 °C 80 % 999,6 hPa 0,0 mm 0,3 km/h (0 Bft) W-NW 286 ° 0 min 0,000 mm 0,9 UV-I 139 W/m² 2,2 °C 5,4 °C 1,6 km/h (1 Bft)
04.02.2017 13:39 5,4 °C 5,4 °C 81 % 999,6 hPa 0,0 mm 0,3 km/h (0 Bft) W-NW 286 ° 0 min 0,000 mm 0,9 UV-I 137 W/m² 2,4 °C 5,4 °C 1,6 km/h (1 Bft)
04.02.2017 13:40 5,4 °C 5,5 °C 81 % 999,6 hPa 0,0 mm 0,0 km/h (0 Bft) W-NW 286 ° 0 min 0,000 mm 0,9 UV-I 137 W/m² 2,4 °C 5,4 °C 0,0 km/h (0 Bft)
04.02.2017 13:41 5,5 °C 5,5 °C 81 % 999,6 hPa 0,0 mm 0,0 km/h (0 Bft) W-NW 286 ° 0 min 0,000 mm 0,9 UV-I 135 W/m² 2,5 °C 5,5 °C 0,0 km/h (0 Bft)
04.02.2017 13:42 5,5 °C 5,5 °C 81 % 999,6 hPa 0,0 mm 0,0 km/h (0 Bft) W-NW 286 ° 0 min 0,000 mm 0,9 UV-I 134 W/m² 2,5 °C 5,5 °C 0,0 km/h (0 Bft)
04.02.2017 13:43 5,4 °C 5,5 °C 81 % 999,6 hPa 0,0 mm 0,3 km/h (0 Bft) W-NW 286 ° 0 min 0,000 mm 0,9 UV-I 130 W/m² 2,4 °C 5,4 °C 1,6 km/h (1 Bft)
04.02.2017 13:44 5,4 °C 5,4 °C 81 % 999,6 hPa 0,0 mm 0,0 km/h (0 Bft) W-NW 286 ° 0 min 0,000 mm 0,9 UV-I 125 W/m² 2,4 °C 5,4 °C 0,0 km/h (0 Bft)
04.02.2017 13:45 5,4 °C 5,4 °C 81 % 999,6 hPa 0,0 mm 0,0 km/h (0 Bft) W-NW 286 ° 0 min 0,000 mm 0,8 UV-I 121 W/m² 2,4 °C 5,4 °C 0,0 km/h (0 Bft)
04.02.2017 13:46 5,4 °C 5,4 °C 81 % 999,5 hPa 0,0 mm 0,0 km/h (0 Bft) W-NW 286 ° 0 min 0,000 mm 0,8 UV-I 121 W/m² 2,4 °C 5,4 °C 0,0 km/h (0 Bft)
04.02.2017 13:47 5,5 °C 5,5 °C 81 % 999,5 hPa 0,0 mm 0,0 km/h (0 Bft) W-NW 286 ° 0 min 0,000 mm 0,8 UV-I 116 W/m² 2,5 °C 5,5 °C 0,0 km/h (0 Bft)
04.02.2017 13:48 5,5 °C 5,5 °C 80 % 999,6 hPa 0,0 mm 0,0 km/h (0 Bft) W-NW 286 ° 0 min 0,000 mm 0,8 UV-I 114 W/m² 2,3 °C 5,5 °C 0,0 km/h (0 Bft)
04.02.2017 13:49 5,5 °C 5,5 °C 80 % 999,6 hPa 0,0 mm 0,0 km/h (0 Bft) W-NW 286 ° 0 min 0,000 mm 0,8 UV-I 114 W/m² 2,3 °C 5,5 °C 0,0 km/h (0 Bft)
04.02.2017 13:50 5,4 °C 5,5 °C 80 % 999,6 hPa 0,0 mm 0,0 km/h (0 Bft) W-NW 286 ° 0 min 0,000 mm 0,8 UV-I 113 W/m² 2,2 °C 5,4 °C 0,0 km/h (0 Bft)
04.02.2017 13:51 5,5 °C 5,5 °C 80 % 999,6 hPa 0,0 mm 0,8 km/h (0 Bft) W-NW 286 ° 0 min 0,000 mm 0,8 UV-I 113 W/m² 2,3 °C 5,5 °C 1,6 km/h (1 Bft)
04.02.2017 13:52 5,4 °C 5,5 °C 81 % 999,6 hPa 0,0 mm 1,9 km/h (1 Bft) W-NW 286 ° 0 min 0,000 mm 0,7 UV-I 113 W/m² 2,4 °C 5,4 °C 3,2 km/h (1 Bft)
04.02.2017 13:53 5,4 °C 5,5 °C 81 % 999,7 hPa 0,0 mm 2,1 km/h (1 Bft) W 277 ° 0 min 0,000 mm 0,7 UV-I 114 W/m² 2,4 °C 5,4 °C 4,8 km/h (1 Bft)
04.02.2017 13:54 5,4 °C 5,4 °C 82 % 999,7 hPa 0,0 mm 3,6 km/h (1 Bft) W 277 ° 0 min 0,000 mm 0,7 UV-I 114 W/m² 2,6 °C 5,4 °C 4,8 km/h (1 Bft)
04.02.2017 13:55 5,4 °C 5,4 °C 81 % 999,7 hPa 0,0 mm 3,3 km/h (1 Bft) W 277 ° 0 min 0,000 mm 0,7 UV-I 116 W/m² 2,4 °C 5,4 °C 4,8 km/h (1 Bft)
04.02.2017 13:56 5,4 °C 5,4 °C 81 % 999,7 hPa 0,0 mm 4,0 km/h (1 Bft) W 277 ° 0 min 0,000 mm 0,7 UV-I 116 W/m² 2,4 °C 5,4 °C 4,8 km/h (1 Bft)
04.02.2017 13:57 5,3 °C 5,4 °C 81 % 999,7 hPa 0,0 mm 3,7 km/h (1 Bft) W 277 ° 0 min 0,000 mm 0,7 UV-I 116 W/m² 2,3 °C 5,3 °C 4,8 km/h (1 Bft)
04.02.2017 13:58 5,3 °C 5,4 °C 81 % 999,7 hPa 0,0 mm 4,6 km/h (1 Bft) W 275 ° 0 min 0,000 mm 0,7 UV-I 114 W/m² 2,3 °C 4,6 °C 4,8 km/h (1 Bft)
04.02.2017 13:59 5,4 °C 5,4 °C 81 % 999,7 hPa 0,0 mm 3,4 km/h (1 Bft) W 275 ° 0 min 0,000 mm 0,7 UV-I 111 W/m² 2,4 °C 5,4 °C 4,8 km/h (1 Bft)
04.02.2017 14:00 5,4 °C 5,4 °C 80 % 999,7 hPa 0,0 mm 4,6 km/h (1 Bft) W 281 ° 0 min 0,000 mm 0,7 UV-I 107 W/m² 2,2 °C 4,7 °C 6,4 km/h (2 Bft)
04.02.2017 14:01 5,4 °C 5,4 °C 80 % 999,7 hPa 0,0 mm 4,2 km/h (1 Bft) W 262 ° 0 min 0,051 mm 0,7 UV-I 104 W/m² 2,2 °C 5,4 °C 4,8 km/h (1 Bft)
04.02.2017 14:02 5,4 °C 5,4 °C 80 % 999,7 hPa 0,0 mm 4,9 km/h (1 Bft) W-SW 252 ° 0 min 0,000 mm 0,6 UV-I 97 W/m² 2,2 °C 4,6 °C 6,4 km/h (2 Bft)
04.02.2017 14:03 5,4 °C 5,4 °C 80 % 999,7 hPa 0,0 mm 4,8 km/h (1 Bft) W-SW 237 ° 0 min 0,000 mm 0,6 UV-I 93 W/m² 2,2 °C 4,6 °C 6,4 km/h (2 Bft)
04.02.2017 14:04 5,3 °C 5,4 °C 80 % 999,7 hPa 0,0 mm 5,5 km/h (1 Bft) W-SW 250 ° 0 min 0,000 mm 0,6 UV-I 91 W/m² 2,1 °C 4,2 °C 6,4 km/h (2 Bft)
04.02.2017 14:05 5,2 °C 5,3 °C 80 % 999,7 hPa 0,0 mm 3,6 km/h (1 Bft) W-NW 286 ° 0 min 0,000 mm 0,6 UV-I 90 W/m² 2,0 °C 5,2 °C 6,4 km/h (2 Bft)
04.02.2017 14:06 5,2 °C 5,2 °C 81 % 999,7 hPa 0,0 mm 3,4 km/h (1 Bft) W-NW 282 ° 0 min 0,000 mm 0,6 UV-I 90 W/m² 2,2 °C 5,2 °C 4,8 km/h (1 Bft)
04.02.2017 14:07 5,2 °C 5,2 °C 81 % 999,7 hPa 0,0 mm 3,2 km/h (1 Bft) W-NW 282 ° 0 min 0,000 mm 0,6 UV-I 88 W/m² 2,2 °C 5,2 °C 3,2 km/h (1 Bft)
04.02.2017 14:08 5,1 °C 5,2 °C 81 % 999,7 hPa 0,0 mm 4,5 km/h (1 Bft) W-SW 244 ° 0 min 0,000 mm 0,6 UV-I 90 W/m² 2,1 °C 5,1 °C 6,4 km/h (2 Bft)
04.02.2017 14:09 5,1 °C 5,1 °C 82 % 999,7 hPa 0,0 mm 5,2 km/h (1 Bft) W 279 ° 0 min 0,000 mm 0,6 UV-I 90 W/m² 2,3 °C 4,1 °C 8,0 km/h (2 Bft)
04.02.2017 14:10 5,0 °C 5,1 °C 82 % 999,7 hPa 0,0 mm 3,5 km/h (1 Bft) W 279 ° 0 min 0,000 mm 0,6 UV-I 91 W/m² 2,2 °C 5,0 °C 4,8 km/h (1 Bft)
04.02.2017 14:11 5,0 °C 5,1 °C 82 % 999,7 hPa 0,0 mm 3,4 km/h (1 Bft) W 279 ° 0 min 0,000 mm 0,6 UV-I 95 W/m² 2,2 °C 5,0 °C 4,8 km/h (1 Bft)
04.02.2017 14:12 5,1 °C 5,1 °C 82 % 999,7 hPa 0,0 mm 4,1 km/h (1 Bft) W 275 ° 0 min 0,000 mm 0,6 UV-I 98 W/m² 2,3 °C 5,1 °C 6,4 km/h (2 Bft)
04.02.2017 14:13 5,1 °C 5,1 °C 82 % 999,7 hPa 0,0 mm 2,9 km/h (1 Bft) W 275 ° 0 min 0,000 mm 0,6 UV-I 102 W/m² 2,3 °C 5,1 °C 4,8 km/h (1 Bft)
04.02.2017 14:14 5,2 °C 5,2 °C 81 % 999,8 hPa 0,0 mm 3,2 km/h (1 Bft) W 275 ° 0 min 0,000 mm 0,6 UV-I 105 W/m² 2,2 °C 5,2 °C 4,8 km/h (1 Bft)
04.02.2017 14:15 5,2 °C 5,2 °C 81 % 999,8 hPa 0,0 mm 4,4 km/h (1 Bft) W 260 ° 0 min 0,000 mm 0,7 UV-I 107 W/m² 2,2 °C 5,2 °C 4,8 km/h (1 Bft)
04.02.2017 14:16 5,2 °C 5,2 °C 81 % 999,9 hPa 0,0 mm 5,6 km/h (1 Bft) W 260 ° 0 min 0,000 mm 0,7 UV-I 109 W/m² 2,2 °C 4,1 °C 9,7 km/h (2 Bft)
04.02.2017 14:17 5,2 °C 5,2 °C 81 % 999,9 hPa 0,0 mm 4,2 km/h (1 Bft) W-SW 256 ° 0 min 0,000 mm 0,7 UV-I 109 W/m² 2,2 °C 5,2 °C 6,4 km/h (2 Bft)
04.02.2017 14:18 5,2 °C 5,2 °C 81 % 1000,0 hPa 0,0 mm 3,7 km/h (1 Bft) W-SW 253 ° 0 min 0,000 mm 0,7 UV-I 111 W/m² 2,2 °C 5,2 °C 4,8 km/h (1 Bft)
04.02.2017 14:19 5,3 °C 5,3 °C 81 % 999,9 hPa 0,0 mm 3,4 km/h (1 Bft) W-SW 258 ° 0 min 0,000 mm 0,7 UV-I 114 W/m² 2,3 °C 5,3 °C 4,8 km/h (1 Bft)
04.02.2017 14:20 5,3 °C 5,3 °C 81 % 1000,0 hPa 0,0 mm 4,6 km/h (1 Bft) W-SW 244 ° 0 min 0,000 mm 0,7 UV-I 120 W/m² 2,3 °C 4,6 °C 6,4 km/h (2 Bft)
04.02.2017 14:21 5,3 °C 5,3 °C 81 % 1000,0 hPa 0,0 mm 3,9 km/h (1 Bft) W-SW 245 ° 0 min 0,000 mm 0,7 UV-I 123 W/m² 2,3 °C 5,3 °C 6,4 km/h (2 Bft)
04.02.2017 14:22 5,3 °C 5,3 °C 81 % 1000,0 hPa 0,0 mm 5,4 km/h (1 Bft) W 271 ° 0 min 0,000 mm 0,8 UV-I 125 W/m² 2,3 °C 4,3 °C 9,7 km/h (2 Bft)
04.02.2017 14:23 5,3 °C 5,3 °C 80 % 1000,0 hPa 0,0 mm 5,0 km/h (1 Bft) W-NW 286 ° 0 min 0,000 mm 0,8 UV-I 127 W/m² 2,1 °C 4,4 °C 6,4 km/h (2 Bft)
04.02.2017 14:24 5,3 °C 5,3 °C 81 % 1000,1 hPa 0,0 mm 2,7 km/h (1 Bft) W-SW 252 ° 0 min 0,000 mm 0,8 UV-I 130 W/m² 2,3 °C 5,3 °C 6,4 km/h (2 Bft)
04.02.2017 14:25 5,3 °C 5,3 °C 81 % 1000,1 hPa 0,0 mm 4,8 km/h (1 Bft) W-SW 254 ° 0 min 0,000 mm 0,8 UV-I 132 W/m² 2,3 °C 4,5 °C 6,4 km/h (2 Bft)
04.02.2017 14:26 5,3 °C 5,3 °C 80 % 1000,1 hPa 0,0 mm 3,6 km/h (1 Bft) W 270 ° 0 min 0,000 mm 0,8 UV-I 135 W/m² 2,1 °C 5,3 °C 6,4 km/h (2 Bft)
04.02.2017 14:27 5,3 °C 5,3 °C 80 % 1000,1 hPa 0,0 mm 4,5 km/h (1 Bft) SW 236 ° 0 min 0,000 mm 0,8 UV-I 137 W/m² 2,1 °C 5,3 °C 6,4 km/h (2 Bft)
04.02.2017 14:28 5,3 °C 5,3 °C 80 % 1000,2 hPa 0,0 mm 3,0 km/h (1 Bft) W 261 ° 0 min 0,000 mm 0,8 UV-I 135 W/m² 2,1 °C 5,3 °C 4,8 km/h (1 Bft)
04.02.2017 14:29 5,4 °C 5,4 °C 80 % 1000,3 hPa 0,0 mm 3,8 km/h (1 Bft) W 281 ° 0 min 0,000 mm 0,8 UV-I 134 W/m² 2,2 °C 5,4 °C 6,4 km/h (2 Bft)
04.02.2017 14:30 5,5 °C 5,5 °C 80 % 1000,3 hPa 0,0 mm 3,8 km/h (1 Bft) W 265 ° 0 min 0,000 mm 0,8 UV-I 130 W/m² 2,3 °C 5,5 °C 6,4 km/h (2 Bft)
04.02.2017 14:31 5,5 °C 5,5 °C 79 % 1000,2 hPa 0,0 mm 3,4 km/h (1 Bft) W 273 ° 0 min 0,000 mm 0,8 UV-I 118 W/m² 2,2 °C 5,5 °C 4,8 km/h (1 Bft)
04.02.2017 14:32 5,5 °C 5,6 °C 79 % 1000,2 hPa 0,0 mm 2,6 km/h (1 Bft) W 274 ° 0 min 0,000 mm 0,7 UV-I 113 W/m² 2,2 °C 5,5 °C 4,8 km/h (1 Bft)
04.02.2017 14:33 5,6 °C 5,6 °C 79 % 1000,2 hPa 0,0 mm 1,7 km/h (1 Bft) W 274 ° 0 min 0,000 mm 0,7 UV-I 111 W/m² 2,3 °C 5,6 °C 3,2 km/h (1 Bft)
04.02.2017 14:34 5,5 °C 5,6 °C 79 % 1000,2 hPa 0,0 mm 1,3 km/h (1 Bft) W 279 ° 0 min 0,000 mm 0,7 UV-I 113 W/m² 2,2 °C 5,5 °C 4,8 km/h (1 Bft)
04.02.2017 14:35 5,5 °C 5,6 °C 79 % 1000,3 hPa 0,0 mm 2,6 km/h (1 Bft) W 279 ° 0 min 0,000 mm 0,7 UV-I 114 W/m² 2,2 °C 5,5 °C 4,8 km/h (1 Bft)
04.02.2017 14:36 5,5 °C 5,5 °C 80 % 1000,3 hPa 0,0 mm 2,8 km/h (1 Bft) W 279 ° 0 min 0,000 mm 0,7 UV-I 114 W/m² 2,3 °C 5,5 °C 3,2 km/h (1 Bft)
04.02.2017 14:37 5,4 °C 5,5 °C 80 % 1000,3 hPa 0,0 mm 2,5 km/h (1 Bft) W 279 ° 0 min 0,000 mm 0,7 UV-I 111 W/m² 2,2 °C 5,4 °C 3,2 km/h (1 Bft)
04.02.2017 14:38 5,4 °C 5,5 °C 80 % 1000,2 hPa 0,0 mm 0,5 km/h (0 Bft) W 279 ° 0 min 0,000 mm 0,7 UV-I 98 W/m² 2,2 °C 5,4 °C 1,6 km/h (1 Bft)
04.02.2017 14:39 5,4 °C 5,4 °C 80 % 1000,2 hPa 0,0 mm 0,7 km/h (0 Bft) W 279 ° 0 min 0,000 mm 0,6 UV-I 91 W/m² 2,2 °C 5,4 °C 1,6 km/h (1 Bft)
04.02.2017 14:40 5,3 °C 5,4 °C 80 % 1000,2 hPa 0,0 mm 0,9 km/h (0 Bft) W 279 ° 0 min 0,000 mm 0,6 UV-I 86 W/m² 2,1 °C 5,3 °C 1,6 km/h (1 Bft)
04.02.2017 14:41 5,3 °C 5,4 °C 80 % 1000,3 hPa 0,0 mm 2,3 km/h (1 Bft) W 279 ° 0 min 0,000 mm 0,6 UV-I 86 W/m² 2,1 °C 5,3 °C 3,2 km/h (1 Bft)
04.02.2017 14:42 5,4 °C 5,4 °C 80 % 1000,3 hPa 0,0 mm 2,1 km/h (1 Bft) W 279 ° 0 min 0,000 mm 0,6 UV-I 81 W/m² 2,2 °C 5,4 °C 3,2 km/h (1 Bft)
04.02.2017 14:43 5,4 °C 5,4 °C 80 % 1000,3 hPa 0,0 mm 1,6 km/h (1 Bft) W 279 ° 0 min 0,000 mm 0,5 UV-I 77 W/m² 2,2 °C 5,4 °C 3,2 km/h (1 Bft)
04.02.2017 14:44 5,4 °C 5,4 °C 79 % 1000,3 hPa 0,0 mm 0,2 km/h (0 Bft) W 279 ° 0 min 0,000 mm 0,5 UV-I 76 W/m² 2,1 °C 5,4 °C 1,6 km/h (1 Bft)
04.02.2017 14:45 5,4 °C 5,4 °C 79 % 1000,3 hPa 0,0 mm 2,7 km/h (1 Bft) W 279 ° 0 min 0,000 mm 0,5 UV-I 74 W/m² 2,1 °C 5,4 °C 4,8 km/h (1 Bft)
04.02.2017 14:46 5,4 °C 5,4 °C 78 % 1000,3 hPa 0,0 mm 2,4 km/h (1 Bft) W 279 ° 0 min 0,000 mm 0,5 UV-I 74 W/m² 1,9 °C 5,4 °C 3,2 km/h (1 Bft)
04.02.2017 14:47 5,3 °C 5,4 °C 79 % 1000,4 hPa 0,0 mm 1,9 km/h (1 Bft) W 279 ° 0 min 0,000 mm 0,5 UV-I 72 W/m² 2,0 °C 5,3 °C 3,2 km/h (1 Bft)
04.02.2017 14:48 5,4 °C 5,4 °C 78 % 1000,4 hPa 0,0 mm 0,3 km/h (0 Bft) W 279 ° 0 min 0,000 mm 0,5 UV-I 72 W/m² 1,9 °C 5,4 °C 1,6 km/h (1 Bft)
04.02.2017 14:49 5,4 °C 5,4 °C 77 % 1000,4 hPa 0,0 mm 2,1 km/h (1 Bft) W 267 ° 0 min 0,000 mm 0,5 UV-I 74 W/m² 1,7 °C 5,4 °C 4,8 km/h (1 Bft)
04.02.2017 14:50 5,4 °C 5,4 °C 77 % 1000,5 hPa 0,0 mm 5,7 km/h (1 Bft) W-SW 257 ° 0 min 0,000 mm 0,5 UV-I 77 W/m² 1,7 °C 4,3 °C 8,0 km/h (2 Bft)
04.02.2017 14:51 5,4 °C 5,5 °C 77 % 1000,6 hPa 0,0 mm 4,8 km/h (1 Bft) W-SW 241 ° 0 min 0,000 mm 0,5 UV-I 81 W/m² 1,7 °C 4,6 °C 8,0 km/h (2 Bft)
04.02.2017 14:52 5,5 °C 5,5 °C 76 % 1000,6 hPa 0,0 mm 5,8 km/h (2 Bft) W-SW 257 ° 0 min 0,000 mm 0,5 UV-I 86 W/m² 1,6 °C 4,4 °C 9,7 km/h (2 Bft)
04.02.2017 14:53 5,6 °C 5,6 °C 76 % 1000,6 hPa 0,0 mm 6,1 km/h (2 Bft) W 276 ° 0 min 0,000 mm 0,5 UV-I 91 W/m² 1,7 °C 4,4 °C 11,3 km/h (2 Bft)
04.02.2017 14:54 5,5 °C 5,6 °C 76 % 1000,7 hPa 0,0 mm 7,7 km/h (2 Bft) W 269 ° 0 min 0,000 mm 0,5 UV-I 93 W/m² 1,6 °C 3,8 °C 11,3 km/h (2 Bft)
04.02.2017 14:55 5,6 °C 5,6 °C 76 % 1000,7 hPa 0,0 mm 4,8 km/h (1 Bft) W 263 ° 0 min 0,000 mm 0,5 UV-I 90 W/m² 1,7 °C 4,8 °C 6,4 km/h (2 Bft)
04.02.2017 14:56 5,5 °C 5,6 °C 77 % 1000,6 hPa 0,0 mm 8,8 km/h (2 Bft) W-NW 290 ° 0 min 0,000 mm 0,5 UV-I 88 W/m² 1,8 °C 3,5 °C 12,9 km/h (3 Bft)
04.02.2017 14:57 5,5 °C 5,5 °C 76 % 1000,6 hPa 0,0 mm 10,3 km/h (2 Bft) W-SW 253 ° 0 min 0,000 mm 0,5 UV-I 86 W/m² 1,6 °C 3,2 °C 14,5 km/h (3 Bft)
04.02.2017 14:58 5,5 °C 5,5 °C 76 % 1000,7 hPa 0,0 mm 8,7 km/h (2 Bft) W-SW 249 ° 0 min 0,000 mm 0,5 UV-I 84 W/m² 1,6 °C 3,5 °C 12,9 km/h (3 Bft)
04.02.2017 14:59 5,5 °C 5,5 °C 76 % 1000,7 hPa 0,0 mm 5,1 km/h (1 Bft) W 267 ° 0 min 0,000 mm 0,5 UV-I 83 W/m² 1,6 °C 4,6 °C 8,0 km/h (2 Bft)
04.02.2017 15:00 5,5 °C 5,5 °C 76 % 1000,7 hPa 0,0 mm 6,2 km/h (2 Bft) W-SW 257 ° 0 min 0,000 mm 0,5 UV-I 79 W/m² 1,6 °C 4,2 °C 9,7 km/h (2 Bft)
04.02.2017 15:01 5,5 °C 5,5 °C 76 % 1000,7 hPa 0,0 mm 7,6 km/h (2 Bft) W 259 ° 0 min 0,050 mm 0,0 UV-I 67 W/m² 1,6 °C 3,8 °C 11,3 km/h (2 Bft)
04.02.2017 15:02 5,5 °C 5,5 °C 76 % 1000,7 hPa 0,0 mm 8,6 km/h (2 Bft) W-SW 248 ° 0 min 0,000 mm 0,0 UV-I 63 W/m² 1,6 °C 3,6 °C 11,3 km/h (2 Bft)
04.02.2017 15:03 5,4 °C 5,5 °C 76 % 1000,7 hPa 0,0 mm 7,0 km/h (2 Bft) W 267 ° 0 min 0,000 mm 0,0 UV-I 60 W/m² 1,5 °C 3,9 °C 11,3 km/h (2 Bft)
04.02.2017 15:04 5,4 °C 5,4 °C 76 % 1000,8 hPa 0,0 mm 7,0 km/h (2 Bft) W 268 ° 0 min 0,000 mm 0,0 UV-I 56 W/m² 1,5 °C 3,9 °C 11,3 km/h (2 Bft)
04.02.2017 15:05 5,4 °C 5,4 °C 76 % 1000,8 hPa 0,0 mm 4,7 km/h (1 Bft) W-SW 248 ° 0 min 0,000 mm 0,0 UV-I 54 W/m² 1,5 °C 4,7 °C 9,7 km/h (2 Bft)
04.02.2017 15:06 5,4 °C 5,4 °C 77 % 1000,8 hPa 0,0 mm 6,4 km/h (2 Bft) W 260 ° 0 min 0,000 mm 0,0 UV-I 53 W/m² 1,7 °C 4,1 °C 9,7 km/h (2 Bft)
04.02.2017 15:07 5,4 °C 5,4 °C 77 % 1000,9 hPa 0,0 mm 8,0 km/h (2 Bft) W-SW 256 ° 0 min 0,000 mm 0,0 UV-I 51 W/m² 1,7 °C 3,6 °C 11,3 km/h (2 Bft)
04.02.2017 15:08 5,4 °C 5,4 °C 77 % 1000,9 hPa 0,0 mm 6,1 km/h (2 Bft) S-SW 201 ° 0 min 0,000 mm 0,0 UV-I 49 W/m² 1,7 °C 4,2 °C 9,7 km/h (2 Bft)
04.02.2017 15:09 5,4 °C 5,4 °C 76 % 1000,9 hPa 0,0 mm 4,8 km/h (1 Bft) S-SW 210 ° 0 min 0,000 mm 0,0 UV-I 47 W/m² 1,5 °C 4,6 °C 6,4 km/h (2 Bft)
04.02.2017 15:10 5,4 °C 5,4 °C 76 % 1000,9 hPa 0,0 mm 5,5 km/h (1 Bft) S-SW 197 ° 0 min 0,000 mm 0,0 UV-I 46 W/m² 1,5 °C 4,4 °C 8,0 km/h (2 Bft)
04.02.2017 15:11 5,4 °C 5,4 °C 76 % 1001,0 hPa 0,0 mm 5,9 km/h (2 Bft) SW 216 ° 0 min 0,000 mm 0,0 UV-I 42 W/m² 1,5 °C 4,2 °C 8,0 km/h (2 Bft)
04.02.2017 15:12 5,4 °C 5,5 °C 76 % 1001,0 hPa 0,0 mm 5,5 km/h (1 Bft) S 177 ° 0 min 0,000 mm 0,0 UV-I 39 W/m² 1,5 °C 4,4 °C 8,0 km/h (2 Bft)
04.02.2017 15:13 5,5 °C 5,5 °C 76 % 1000,9 hPa 0,0 mm 2,5 km/h (1 Bft) W-SW 257 ° 0 min 0,000 mm 0,0 UV-I 37 W/m² 1,6 °C 5,5 °C 3,2 km/h (1 Bft)
04.02.2017 15:14 5,4 °C 5,5 °C 76 % 1000,9 hPa 0,0 mm 5,2 km/h (1 Bft) S 185 ° 0 min 0,000 mm 0,0 UV-I 35 W/m² 1,5 °C 4,5 °C 8,0 km/h (2 Bft)
04.02.2017 15:15 5,5 °C 5,5 °C 76 % 1000,9 hPa 0,0 mm 4,8 km/h (1 Bft) S 181 ° 0 min 0,000 mm 0,0 UV-I 35 W/m² 1,6 °C 4,7 °C 8,0 km/h (2 Bft)
04.02.2017 15:16 5,5 °C 5,6 °C 75 % 1000,9 hPa 0,0 mm 6,0 km/h (2 Bft) S 187 ° 0 min 0,000 mm 0,0 UV-I 35 W/m² 1,4 °C 4,3 °C 8,0 km/h (2 Bft)
04.02.2017 15:17 5,6 °C 5,6 °C 75 % 1000,9 hPa 0,0 mm 4,5 km/h (1 Bft) S 190 ° 0 min 0,000 mm 0,0 UV-I 35 W/m² 1,5 °C 5,6 °C 6,4 km/h (2 Bft)
04.02.2017 15:18 5,6 °C 5,6 °C 75 % 1000,9 hPa 0,0 mm 5,3 km/h (1 Bft) SW 234 ° 0 min 0,000 mm 0,0 UV-I 35 W/m² 1,5 °C 4,7 °C 8,0 km/h (2 Bft)
04.02.2017 15:19 5,6 °C 5,6 °C 76 % 1000,9 hPa 0,0 mm 5,2 km/h (1 Bft) S-SW 197 ° 0 min 0,000 mm 0,0 UV-I 37 W/m² 1,7 °C 4,7 °C 6,4 km/h (2 Bft)
04.02.2017 15:20 5,6 °C 5,6 °C 75 % 1000,9 hPa 0,0 mm 3,8 km/h (1 Bft) S-SW 197 ° 0 min 0,000 mm 0,0 UV-I 37 W/m² 1,5 °C 5,6 °C 4,8 km/h (1 Bft)
04.02.2017 15:21 5,6 °C 5,6 °C 76 % 1000,9 hPa 0,0 mm 1,6 km/h (1 Bft) S-SW 197 ° 0 min 0,000 mm 0,0 UV-I 37 W/m² 1,7 °C 5,6 °C 3,2 km/h (1 Bft)
04.02.2017 15:22 5,4 °C 5,6 °C 78 % 1000,8 hPa 0,0 mm 1,9 km/h (1 Bft) S-SW 197 ° 0 min 0,000 mm 0,0 UV-I 37 W/m² 1,9 °C 5,4 °C 3,2 km/h (1 Bft)
04.02.2017 15:23 5,4 °C 5,4 °C 77 % 1000,8 hPa 0,0 mm 3,6 km/h (1 Bft) S-SW 196 ° 0 min 0,000 mm 0,0 UV-I 37 W/m² 1,7 °C 5,4 °C 4,8 km/h (1 Bft)
04.02.2017 15:24 5,3 °C 5,4 °C 77 % 1000,9 hPa 0,0 mm 1,7 km/h (1 Bft) S-SW 196 ° 0 min 0,000 mm 0,0 UV-I 37 W/m² 1,6 °C 5,3 °C 3,2 km/h (1 Bft)
04.02.2017 15:25 5,3 °C 5,3 °C 79 % 1000,8 hPa 0,0 mm 1,8 km/h (1 Bft) SO 134 ° 0 min 0,000 mm 0,0 UV-I 39 W/m² 2,0 °C 5,3 °C 3,2 km/h (1 Bft)
04.02.2017 15:26 5,2 °C 5,3 °C 79 % 1000,8 hPa 0,0 mm 1,6 km/h (1 Bft) SO 134 ° 0 min 0,000 mm 0,0 UV-I 37 W/m² 1,9 °C 5,2 °C 3,2 km/h (1 Bft)
04.02.2017 15:27 5,2 °C 5,2 °C 79 % 1000,9 hPa 0,0 mm 1,1 km/h (1 Bft) SO 134 ° 0 min 0,000 mm 0,0 UV-I 37 W/m² 1,9 °C 5,2 °C 1,6 km/h (1 Bft)
04.02.2017 15:28 5,2 °C 5,2 °C 78 % 1000,8 hPa 0,0 mm 0,6 km/h (0 Bft) SO 134 ° 0 min 0,000 mm 0,0 UV-I 37 W/m² 1,7 °C 5,2 °C 1,6 km/h (1 Bft)
04.02.2017 15:29 5,1 °C 5,2 °C 79 % 1000,9 hPa 0,0 mm 2,7 km/h (1 Bft) SO 134 ° 0 min 0,000 mm 0,0 UV-I 35 W/m² 1,8 °C 5,1 °C 3,2 km/h (1 Bft)
04.02.2017 15:30 5,1 °C 5,1 °C 79 % 1000,8 hPa 0,0 mm 3,6 km/h (1 Bft) SO 134 ° 0 min 0,000 mm 0,0 UV-I 32 W/m² 1,8 °C 5,1 °C 4,8 km/h (1 Bft)
04.02.2017 15:31 5,1 °C 5,1 °C 79 % 1000,9 hPa 0,0 mm 1,0 km/h (0 Bft) SO 134 ° 0 min 0,000 mm 0,0 UV-I 32 W/m² 1,8 °C 5,1 °C 1,6 km/h (1 Bft)
04.02.2017 15:32 5,1 °C 5,1 °C 80 % 1000,8 hPa 0,0 mm 1,7 km/h (1 Bft) SO 134 ° 0 min 0,000 mm 0,0 UV-I 30 W/m² 1,9 °C 5,1 °C 3,2 km/h (1 Bft)
04.02.2017 15:33 5,1 °C 5,1 °C 79 % 1000,8 hPa 0,0 mm 1,5 km/h (1 Bft) SO 134 ° 0 min 0,000 mm 0,0 UV-I 28 W/m² 1,8 °C 5,1 °C 3,2 km/h (1 Bft)
04.02.2017 15:34 5,1 °C 5,1 °C 78 % 1000,9 hPa 0,0 mm 1,5 km/h (1 Bft) W 259 ° 0 min 0,000 mm 0,0 UV-I 28 W/m² 1,6 °C 5,1 °C 3,2 km/h (1 Bft)
04.02.2017 15:35 4,9 °C 5,1 °C 78 % 1000,8 hPa 0,0 mm 0,3 km/h (0 Bft) W 259 ° 0 min 0,000 mm 0,0 UV-I 26 W/m² 1,4 °C 4,9 °C 1,6 km/h (1 Bft)
04.02.2017 15:36 4,8 °C 4,9 °C 79 % 1000,8 hPa 0,0 mm 1,1 km/h (1 Bft) W 259 ° 0 min 0,000 mm 0,0 UV-I 26 W/m² 1,5 °C 4,8 °C 3,2 km/h (1 Bft)
04.02.2017 15:37 4,8 °C 4,8 °C 78 % 1000,9 hPa 0,0 mm 2,5 km/h (1 Bft) O 93 ° 0 min 0,000 mm 0,0 UV-I 25 W/m² 1,3 °C 4,8 °C 4,8 km/h (1 Bft)
04.02.2017 15:38 4,8 °C 4,8 °C 79 % 1000,8 hPa 0,0 mm 1,2 km/h (1 Bft) O 93 ° 0 min 0,000 mm 0,0 UV-I 25 W/m² 1,5 °C 4,8 °C 3,2 km/h (1 Bft)
04.02.2017 15:39 4,8 °C 4,8 °C 77 % 1000,8 hPa 0,0 mm 3,3 km/h (1 Bft) W-SW 239 ° 0 min 0,000 mm 0,0 UV-I 25 W/m² 1,1 °C 4,8 °C 6,4 km/h (2 Bft)
04.02.2017 15:40 4,8 °C 4,8 °C 76 % 1000,9 hPa 0,0 mm 4,8 km/h (1 Bft) SW 220 ° 0 min 0,000 mm 0,0 UV-I 25 W/m² 0,9 °C 3,9 °C 6,4 km/h (2 Bft)
04.02.2017 15:41 4,9 °C 4,9 °C 76 % 1000,8 hPa 0,0 mm 5,3 km/h (1 Bft) S-SW 210 ° 0 min 0,000 mm 0,0 UV-I 23 W/m² 1,0 °C 3,9 °C 6,4 km/h (2 Bft)
04.02.2017 15:42 5,0 °C 5,0 °C 76 % 1000,8 hPa 0,0 mm 7,0 km/h (2 Bft) W-SW 246 ° 0 min 0,000 mm 0,0 UV-I 23 W/m² 1,1 °C 3,4 °C 9,7 km/h (2 Bft)
04.02.2017 15:43 5,1 °C 5,1 °C 75 % 1000,9 hPa 0,0 mm 4,3 km/h (1 Bft) S-SW 209 ° 0 min 0,000 mm 0,0 UV-I 23 W/m² 1,0 °C 5,1 °C 6,4 km/h (2 Bft)
04.02.2017 15:44 5,1 °C 5,1 °C 76 % 1000,9 hPa 0,0 mm 5,8 km/h (2 Bft) S-SW 200 ° 0 min 0,000 mm 0,0 UV-I 23 W/m² 1,2 °C 3,9 °C 8,0 km/h (2 Bft)
04.02.2017 15:45 5,1 °C 5,2 °C 75 % 1001,0 hPa 0,0 mm 7,0 km/h (2 Bft) S-SW 202 ° 0 min 0,000 mm 0,0 UV-I 23 W/m² 1,0 °C 3,5 °C 11,3 km/h (2 Bft)
04.02.2017 15:46 5,2 °C 5,2 °C 75 % 1001,0 hPa 0,0 mm 6,8 km/h (2 Bft) S-SW 213 ° 0 min 0,000 mm 0,0 UV-I 23 W/m² 1,1 °C 3,7 °C 9,7 km/h (2 Bft)
04.02.2017 15:47 5,2 °C 5,2 °C 75 % 1001,0 hPa 0,0 mm 6,6 km/h (2 Bft) S-SW 202 ° 0 min 0,000 mm 0,0 UV-I 26 W/m² 1,1 °C 3,8 °C 11,3 km/h (2 Bft)
04.02.2017 15:48 5,2 °C 5,3 °C 75 % 1001,0 hPa 0,0 mm 5,6 km/h (1 Bft) W-SW 238 ° 0 min 0,000 mm 0,0 UV-I 28 W/m² 1,1 °C 4,1 °C 8,0 km/h (2 Bft)
04.02.2017 15:49 5,2 °C 5,3 °C 75 % 1001,0 hPa 0,0 mm 7,0 km/h (2 Bft) S-SW 213 ° 0 min 0,000 mm 0,0 UV-I 30 W/m² 1,1 °C 3,6 °C 11,3 km/h (2 Bft)
04.02.2017 15:50 5,2 °C 5,3 °C 75 % 1001,0 hPa 0,0 mm 6,4 km/h (2 Bft) S-SW 206 ° 0 min 0,000 mm 0,0 UV-I 30 W/m² 1,1 °C 3,8 °C 8,0 km/h (2 Bft)
04.02.2017 15:51 5,3 °C 5,3 °C 75 % 1001,0 hPa 0,0 mm 6,3 km/h (2 Bft) S 191 ° 0 min 0,000 mm 0,0 UV-I 30 W/m² 1,2 °C 4,0 °C 11,3 km/h (2 Bft)
04.02.2017 15:52 5,2 °C 5,3 °C 77 % 1001,0 hPa 0,0 mm 3,2 km/h (1 Bft) O-SO 109 ° 0 min 0,000 mm 0,0 UV-I 30 W/m² 1,5 °C 5,2 °C 4,8 km/h (1 Bft)
04.02.2017 15:53 5,1 °C 5,2 °C 79 % 1001,0 hPa 0,0 mm 1,9 km/h (1 Bft) O-SO 110 ° 0 min 0,000 mm 0,0 UV-I 28 W/m² 1,8 °C 5,1 °C 4,8 km/h (1 Bft)
04.02.2017 15:54 4,9 °C 5,1 °C 77 % 1000,9 hPa 0,0 mm 2,3 km/h (1 Bft) O-SO 110 ° 0 min 0,000 mm 0,0 UV-I 26 W/m² 1,2 °C 4,9 °C 3,2 km/h (1 Bft)
04.02.2017 15:55 4,9 °C 4,9 °C 77 % 1000,9 hPa 0,0 mm 1,2 km/h (1 Bft) O-SO 110 ° 0 min 0,000 mm 0,0 UV-I 26 W/m² 1,2 °C 4,9 °C 3,2 km/h (1 Bft)
04.02.2017 15:56 4,8 °C 4,9 °C 77 % 1001,0 hPa 0,0 mm 2,3 km/h (1 Bft) NW 317 ° 0 min 0,000 mm 0,0 UV-I 26 W/m² 1,1 °C 4,8 °C 4,8 km/h (1 Bft)
04.02.2017 15:57 4,8 °C 4,8 °C 78 % 1001,0 hPa 0,0 mm 0,3 km/h (0 Bft) NW 317 ° 0 min 0,000 mm 0,0 UV-I 26 W/m² 1,3 °C 4,8 °C 1,6 km/h (1 Bft)
04.02.2017 15:58 4,8 °C 4,8 °C 77 % 1001,0 hPa 0,0 mm 4,6 km/h (1 Bft) SW 233 ° 0 min 0,000 mm 0,0 UV-I 25 W/m² 1,1 °C 4,0 °C 9,7 km/h (2 Bft)
04.02.2017 15:59 4,8 °C 4,8 °C 77 % 1001,0 hPa 0,0 mm 2,8 km/h (1 Bft) SW 221 ° 0 min 0,000 mm 0,0 UV-I 26 W/m² 1,1 °C 4,8 °C 4,8 km/h (1 Bft)
04.02.2017 16:00 4,7 °C 4,8 °C 78 % 1001,0 hPa 0,0 mm 1,9 km/h (1 Bft) SW 215 ° 0 min 0,000 mm 0,0 UV-I 26 W/m² 1,2 °C 4,7 °C 3,2 km/h (1 Bft)
04.02.2017 16:01 4,8 °C 4,8 °C 78 % 1001,0 hPa 0,0 mm 0,9 km/h (0 Bft) SW 215 ° 0 min 0,026 mm 0,0 UV-I 26 W/m² 1,3 °C 4,8 °C 1,6 km/h (1 Bft)
04.02.2017 16:02 4,8 °C 4,8 °C 77 % 1001,0 hPa 0,0 mm 1,0 km/h (0 Bft) W-SW 237 ° 0 min 0,000 mm 0,0 UV-I 25 W/m² 1,1 °C 4,8 °C 3,2 km/h (1 Bft)
04.02.2017 16:03 4,8 °C 4,8 °C 78 % 1001,0 hPa 0,0 mm 0,5 km/h (0 Bft) W-SW 237 ° 0 min 0,000 mm 0,0 UV-I 25 W/m² 1,3 °C 4,8 °C 1,6 km/h (1 Bft)
04.02.2017 16:04 4,8 °C 4,8 °C 76 % 1001,0 hPa 0,0 mm 4,7 km/h (1 Bft) S-SW 193 ° 0 min 0,000 mm 0,0 UV-I 23 W/m² 0,9 °C 4,0 °C 11,3 km/h (2 Bft)
04.02.2017 16:05 4,8 °C 4,8 °C 75 % 1001,1 hPa 0,0 mm 6,4 km/h (2 Bft) SW 227 ° 0 min 0,000 mm 0,0 UV-I 21 W/m² 0,8 °C 3,4 °C 9,7 km/h (2 Bft)
04.02.2017 16:06 4,9 °C 4,9 °C 76 % 1001,0 hPa 0,0 mm 5,2 km/h (1 Bft) S-SW 204 ° 0 min 0,000 mm 0,0 UV-I 19 W/m² 1,0 °C 3,9 °C 9,7 km/h (2 Bft)
04.02.2017 16:07 4,9 °C 4,9 °C 76 % 1001,0 hPa 0,0 mm 3,7 km/h (1 Bft) S 175 ° 0 min 0,000 mm 0,0 UV-I 19 W/m² 1,0 °C 4,9 °C 4,8 km/h (1 Bft)
04.02.2017 16:08 4,9 °C 4,9 °C 76 % 1001,1 hPa 0,0 mm 1,4 km/h (1 Bft) S 175 ° 0 min 0,000 mm 0,0 UV-I 19 W/m² 1,0 °C 4,9 °C 4,8 km/h (1 Bft)
04.02.2017 16:09 4,9 °C 4,9 °C 78 % 1001,0 hPa 0,0 mm 2,5 km/h (1 Bft) S 175 ° 0 min 0,000 mm 0,0 UV-I 19 W/m² 1,4 °C 4,9 °C 3,2 km/h (1 Bft)
04.02.2017 16:10 4,9 °C 4,9 °C 78 % 1001,0 hPa 0,0 mm 5,2 km/h (1 Bft) O 80 ° 0 min 0,000 mm 0,0 UV-I 21 W/m² 1,4 °C 3,9 °C 6,4 km/h (2 Bft)
04.02.2017 16:11 4,9 °C 4,9 °C 78 % 1001,0 hPa 0,0 mm 4,9 km/h (1 Bft) O-SO 110 ° 0 min 0,000 mm 0,0 UV-I 23 W/m² 1,4 °C 4,0 °C 6,4 km/h (2 Bft)
04.02.2017 16:12 4,9 °C 4,9 °C 78 % 1001,0 hPa 0,0 mm 3,5 km/h (1 Bft) O 80 ° 0 min 0,000 mm 0,0 UV-I 25 W/m² 1,4 °C 4,9 °C 4,8 km/h (1 Bft)
04.02.2017 16:13 4,8 °C 4,9 °C 77 % 1001,0 hPa 0,0 mm 1,4 km/h (1 Bft) O 80 ° 0 min 0,000 mm 0,0 UV-I 25 W/m² 1,1 °C 4,8 °C 3,2 km/h (1 Bft)
04.02.2017 16:14 4,8 °C 4,8 °C 77 % 1001,1 hPa 0,0 mm 2,2 km/h (1 Bft) NW 322 ° 0 min 0,000 mm 0,0 UV-I 25 W/m² 1,1 °C 4,8 °C 4,8 km/h (1 Bft)
04.02.2017 16:15 4,8 °C 4,8 °C 77 % 1001,2 hPa 0,0 mm 1,5 km/h (1 Bft) NW 317 ° 0 min 0,000 mm 0,0 UV-I 25 W/m² 1,1 °C 4,8 °C 3,2 km/h (1 Bft)
04.02.2017 16:16 4,8 °C 4,8 °C 76 % 1001,2 hPa 0,0 mm 0,4 km/h (0 Bft) W 265 ° 0 min 0,000 mm 0,0 UV-I 25 W/m² 0,9 °C 4,8 °C 3,2 km/h (1 Bft)
04.02.2017 16:17 4,8 °C 4,8 °C 76 % 1001,2 hPa 0,0 mm 4,2 km/h (1 Bft) S-SO 161 ° 0 min 0,000 mm 0,0 UV-I 23 W/m² 0,9 °C 4,8 °C 11,3 km/h (2 Bft)
04.02.2017 16:18 4,8 °C 4,8 °C 76 % 1001,3 hPa 0,0 mm 5,0 km/h (1 Bft) S-SW 207 ° 0 min 0,000 mm 0,0 UV-I 23 W/m² 0,9 °C 3,9 °C 6,4 km/h (2 Bft)
04.02.2017 16:19 4,8 °C 4,8 °C 75 % 1001,3 hPa 0,0 mm 5,2 km/h (1 Bft) S-SW 203 ° 0 min 0,000 mm 0,0 UV-I 23 W/m² 0,8 °C 3,8 °C 6,4 km/h (2 Bft)
04.02.2017 16:20 4,8 °C 4,8 °C 77 % 1001,3 hPa 0,0 mm 2,1 km/h (1 Bft) S-SW 203 ° 0 min 0,000 mm 0,0 UV-I 23 W/m² 1,1 °C 4,8 °C 3,2 km/h (1 Bft)
04.02.2017 16:21 4,8 °C 4,8 °C 78 % 1001,3 hPa 0,0 mm 1,5 km/h (1 Bft) S-SW 202 ° 0 min 0,000 mm 0,0 UV-I 23 W/m² 1,3 °C 4,8 °C 3,2 km/h (1 Bft)
04.02.2017 16:22 4,8 °C 4,8 °C 78 % 1001,3 hPa 0,0 mm 0,9 km/h (0 Bft) S-SW 202 ° 0 min 0,000 mm 0,0 UV-I 23 W/m² 1,3 °C 4,8 °C 1,6 km/h (1 Bft)
04.02.2017 16:23 4,8 °C 4,8 °C 77 % 1001,3 hPa 0,0 mm 1,7 km/h (1 Bft) S-SO 151 ° 0 min 0,000 mm 0,0 UV-I 26 W/m² 1,1 °C 4,8 °C 3,2 km/h (1 Bft)
04.02.2017 16:24 4,8 °C 4,8 °C 78 % 1001,3 hPa 0,0 mm 2,1 km/h (1 Bft) O 83 ° 0 min 0,000 mm 0,0 UV-I 30 W/m² 1,3 °C 4,8 °C 4,8 km/h (1 Bft)
04.02.2017 16:25 4,8 °C 4,9 °C 77 % 1001,3 hPa 0,0 mm 0,6 km/h (0 Bft) O 83 ° 0 min 0,000 mm 0,0 UV-I 35 W/m² 1,1 °C 4,8 °C 1,6 km/h (1 Bft)
04.02.2017 16:26 4,9 °C 4,9 °C 78 % 1001,3 hPa 0,0 mm 1,1 km/h (1 Bft) O 83 ° 0 min 0,000 mm 0,0 UV-I 46 W/m² 1,4 °C 4,9 °C 3,2 km/h (1 Bft)
04.02.2017 16:27 4,8 °C 4,9 °C 78 % 1001,3 hPa 0,0 mm 1,3 km/h (1 Bft) O 83 ° 0 min 0,000 mm 0,0 UV-I 60 W/m² 1,3 °C 4,8 °C 3,2 km/h (1 Bft)
04.02.2017 16:28 4,8 °C 4,8 °C 78 % 1001,3 hPa 0,0 mm 1,7 km/h (1 Bft) O 83 ° 0 min 0,000 mm 0,0 UV-I 76 W/m² 1,3 °C 4,8 °C 3,2 km/h (1 Bft)
04.02.2017 16:29 4,8 °C 4,8 °C 78 % 1001,3 hPa 0,0 mm 0,5 km/h (0 Bft) O 83 ° 0 min 0,000 mm 0,0 UV-I 107 W/m² 1,3 °C 4,8 °C 1,6 km/h (1 Bft)
04.02.2017 16:30 4,8 °C 4,8 °C 77 % 1001,3 hPa 0,0 mm 0,4 km/h (0 Bft) O 83 ° 0 min 0,000 mm 0,0 UV-I 120 W/m² 1,1 °C 4,8 °C 1,6 km/h (1 Bft)
04.02.2017 16:31 4,9 °C 4,9 °C 76 % 1001,3 hPa 0,0 mm 0,0 km/h (0 Bft) O 83 ° 0 min 0,000 mm 0,0 UV-I 130 W/m² 1,0 °C 4,9 °C 0,0 km/h (0 Bft)
04.02.2017 16:32 4,9 °C 4,9 °C 76 % 1001,3 hPa 0,0 mm 0,0 km/h (0 Bft) O 83 ° 0 min 0,000 mm 0,0 UV-I 139 W/m² 1,0 °C 4,9 °C 0,0 km/h (0 Bft)
04.02.2017 16:33 5,1 °C 5,1 °C 76 % 1001,3 hPa 0,0 mm 0,1 km/h (0 Bft) O 83 ° 0 min 0,000 mm 0,0 UV-I 146 W/m² 1,2 °C 5,1 °C 1,6 km/h (1 Bft)
04.02.2017 16:34 5,1 °C 5,1 °C 76 % 1001,3 hPa 0,0 mm 1,2 km/h (1 Bft) O 83 ° 0 min 0,000 mm 0,0 UV-I 153 W/m² 1,2 °C 5,1 °C 3,2 km/h (1 Bft)
04.02.2017 16:35 5,1 °C 5,1 °C 75 % 1001,4 hPa 0,0 mm 0,2 km/h (0 Bft) O 83 ° 0 min 0,000 mm 0,0 UV-I 151 W/m² 1,0 °C 5,1 °C 1,6 km/h (1 Bft)
04.02.2017 16:36 5,2 °C 5,2 °C 76 % 1001,3 hPa 0,0 mm 2,1 km/h (1 Bft) O 83 ° 0 min 0,000 mm 0,0 UV-I 146 W/m² 1,3 °C 5,2 °C 3,2 km/h (1 Bft)
04.02.2017 16:37 5,2 °C 5,2 °C 76 % 1001,3 hPa 0,0 mm 0,6 km/h (0 Bft) O 83 ° 0 min 0,000 mm 0,0 UV-I 139 W/m² 1,3 °C 5,2 °C 1,6 km/h (1 Bft)
04.02.2017 16:38 5,3 °C 5,3 °C 75 % 1001,2 hPa 0,0 mm 0,7 km/h (0 Bft) O 83 ° 0 min 0,000 mm 0,0 UV-I 132 W/m² 1,2 °C 5,3 °C 1,6 km/h (1 Bft)
04.02.2017 16:39 5,4 °C 5,4 °C 75 % 1001,2 hPa 0,0 mm 0,3 km/h (0 Bft) O 83 ° 0 min 0,000 mm 0,0 UV-I 123 W/m² 1,3 °C 5,4 °C 1,6 km/h (1 Bft)
04.02.2017 16:40 5,4 °C 5,4 °C 74 % 1001,2 hPa 0,0 mm 0,1 km/h (0 Bft) O 83 ° 0 min 0,000 mm 0,0 UV-I 102 W/m² 1,1 °C 5,4 °C 1,6 km/h (1 Bft)
04.02.2017 16:41 5,6 °C 5,6 °C 74 % 1001,2 hPa 0,0 mm 0,0 km/h (0 Bft) O 83 ° 0 min 0,000 mm 0,0 UV-I 91 W/m² 1,3 °C 5,6 °C 0,0 km/h (0 Bft)
04.02.2017 16:42 5,6 °C 5,6 °C 74 % 1001,1 hPa 0,0 mm 0,1 km/h (0 Bft) O 83 ° 0 min 0,000 mm 0,0 UV-I 81 W/m² 1,3 °C 5,6 °C 1,6 km/h (1 Bft)
04.02.2017 16:43 5,6 °C 5,6 °C 74 % 1001,2 hPa 0,0 mm 1,1 km/h (1 Bft) O 83 ° 0 min 0,000 mm 0,0 UV-I 70 W/m² 1,3 °C 5,6 °C 1,6 km/h (1 Bft)
04.02.2017 16:44 5,6 °C 5,6 °C 74 % 1001,1 hPa 0,0 mm 1,3 km/h (1 Bft) O 83 ° 0 min 0,000 mm 0,0 UV-I 62 W/m² 1,3 °C 5,6 °C 1,6 km/h (1 Bft)
04.02.2017 16:45 5,5 °C 5,6 °C 74 % 1001,1 hPa 0,0 mm 0,7 km/h (0 Bft) O 83 ° 0 min 0,000 mm 0,0 UV-I 54 W/m² 1,2 °C 5,5 °C 1,6 km/h (1 Bft)
04.02.2017 16:46 5,5 °C 5,5 °C 75 % 1001,2 hPa 0,0 mm 0,1 km/h (0 Bft) O 83 ° 0 min 0,000 mm 0,0 UV-I 49 W/m² 1,4 °C 5,5 °C 1,6 km/h (1 Bft)
04.02.2017 16:47 5,5 °C 5,5 °C 74 % 1001,2 hPa 0,0 mm 0,0 km/h (0 Bft) O 83 ° 0 min 0,000 mm 0,0 UV-I 47 W/m² 1,2 °C 5,5 °C 0,0 km/h (0 Bft)
04.02.2017 16:48 5,6 °C 5,6 °C 74 % 1001,2 hPa 0,0 mm 0,1 km/h (0 Bft) O 83 ° 0 min 0,000 mm 0,0 UV-I 44 W/m² 1,3 °C 5,6 °C 1,6 km/h (1 Bft)
04.02.2017 16:49 5,5 °C 5,6 °C 74 % 1001,2 hPa 0,0 mm 0,0 km/h (0 Bft) O 83 ° 0 min 0,000 mm 0,0 UV-I 44 W/m² 1,2 °C 5,5 °C 0,0 km/h (0 Bft)
04.02.2017 16:50 5,5 °C 5,5 °C 74 % 1001,3 hPa 0,0 mm 0,0 km/h (0 Bft) O 83 ° 0 min 0,000 mm 0,0 UV-I 44 W/m² 1,2 °C 5,5 °C 0,0 km/h (0 Bft)
04.02.2017 16:51 5,6 °C 5,6 °C 74 % 1001,3 hPa 0,0 mm 0,2 km/h (0 Bft) O 83 ° 0 min 0,000 mm 0,0 UV-I 44 W/m² 1,3 °C 5,6 °C 1,6 km/h (1 Bft)
04.02.2017 16:52 5,6 °C 5,6 °C 73 % 1001,2 hPa 0,0 mm 0,3 km/h (0 Bft) O 83 ° 0 min 0,000 mm 0,0 UV-I 46 W/m² 1,2 °C 5,6 °C 1,6 km/h (1 Bft)
04.02.2017 16:53 5,6 °C 5,6 °C 73 % 1001,2 hPa 0,0 mm 1,1 km/h (1 Bft) O 83 ° 0 min 0,000 mm 0,0 UV-I 46 W/m² 1,2 °C 5,6 °C 1,6 km/h (1 Bft)
04.02.2017 16:54 5,7 °C 5,7 °C 74 % 1001,3 hPa 0,0 mm 0,6 km/h (0 Bft) O 83 ° 0 min 0,000 mm 0,0 UV-I 44 W/m² 1,4 °C 5,7 °C 1,6 km/h (1 Bft)
04.02.2017 16:55 5,7 °C 5,7 °C 73 % 1001,3 hPa 0,0 mm 0,3 km/h (0 Bft) O 83 ° 0 min 0,000 mm 0,0 UV-I 42 W/m² 1,2 °C 5,7 °C 1,6 km/h (1 Bft)
04.02.2017 16:56 5,7 °C 5,7 °C 73 % 1001,2 hPa 0,0 mm 1,9 km/h (1 Bft) O 83 ° 0 min 0,000 mm 0,0 UV-I 39 W/m² 1,2 °C 5,7 °C 3,2 km/h (1 Bft)
04.02.2017 16:57 5,7 °C 5,7 °C 73 % 1001,3 hPa 0,0 mm 1,1 km/h (1 Bft) O 83 ° 0 min 0,000 mm 0,0 UV-I 35 W/m² 1,2 °C 5,7 °C 3,2 km/h (1 Bft)
04.02.2017 16:58 5,7 °C 5,7 °C 73 % 1001,3 hPa 0,0 mm 0,3 km/h (0 Bft) O 83 ° 0 min 0,000 mm 0,0 UV-I 33 W/m² 1,2 °C 5,7 °C 1,6 km/h (1 Bft)
04.02.2017 16:59 5,7 °C 5,7 °C 73 % 1001,3 hPa 0,0 mm 0,5 km/h (0 Bft) O 83 ° 0 min 0,000 mm 0,0 UV-I 26 W/m² 1,2 °C 5,7 °C 1,6 km/h (1 Bft)
04.02.2017 17:00 5,7 °C 5,7 °C 73 % 1001,3 hPa 0,0 mm 0,1 km/h (0 Bft) O 83 ° 0 min 0,025 mm 0,0 UV-I 25 W/m² 1,2 °C 5,7 °C 1,6 km/h (1 Bft)
04.02.2017 17:01 5,7 °C 5,7 °C 73 % 1001,2 hPa 0,0 mm 0,0 km/h (0 Bft) O 83 ° 0 min 0,000 mm 0,0 UV-I 21 W/m² 1,2 °C 5,7 °C 0,0 km/h (0 Bft)
04.02.2017 17:02 5,6 °C 5,7 °C 73 % 1001,2 hPa 0,0 mm 0,0 km/h (0 Bft) O 83 ° 0 min 0,000 mm 0,0 UV-I 19 W/m² 1,2 °C 5,6 °C 0,0 km/h (0 Bft)
04.02.2017 17:03 5,6 °C 5,6 °C 73 % 1001,2 hPa 0,0 mm 0,9 km/h (0 Bft) O 83 ° 0 min 0,000 mm 0,0 UV-I 18 W/m² 1,2 °C 5,6 °C 1,6 km/h (1 Bft)
04.02.2017 17:04 5,5 °C 5,6 °C 73 % 1001,3 hPa 0,0 mm 1,2 km/h (1 Bft) O 83 ° 0 min 0,000 mm 0,0 UV-I 14 W/m² 1,1 °C 5,5 °C 1,6 km/h (1 Bft)
04.02.2017 17:05 5,4 °C 5,5 °C 73 % 1001,3 hPa 0,0 mm 0,7 km/h (0 Bft) O 83 ° 0 min 0,000 mm 0,0 UV-I 12 W/m² 1,0 °C 5,4 °C 1,6 km/h (1 Bft)
04.02.2017 17:06 5,4 °C 5,5 °C 73 % 1001,3 hPa 0,0 mm 0,1 km/h (0 Bft) O 83 ° 0 min 0,000 mm 0,0 UV-I 11 W/m² 1,0 °C 5,4 °C 1,6 km/h (1 Bft)
04.02.2017 17:07 5,4 °C 5,5 °C 73 % 1001,3 hPa 0,0 mm 2,0 km/h (1 Bft) O 83 ° 0 min 0,000 mm 0,0 UV-I 9 W/m² 1,0 °C 5,4 °C 3,2 km/h (1 Bft)
04.02.2017 17:08 5,4 °C 5,4 °C 72 % 1001,3 hPa 0,0 mm 2,4 km/h (1 Bft) O 83 ° 0 min 0,000 mm 0,0 UV-I 7 W/m² 0,8 °C 5,4 °C 3,2 km/h (1 Bft)
04.02.2017 17:09 5,4 °C 5,4 °C 72 % 1001,3 hPa 0,0 mm 3,2 km/h (1 Bft) O 83 ° 0 min 0,000 mm 0,0 UV-I 7 W/m² 0,8 °C 5,4 °C 4,8 km/h (1 Bft)
04.02.2017 17:10 5,4 °C 5,4 °C 72 % 1001,4 hPa 0,0 mm 4,1 km/h (1 Bft) O 84 ° 0 min 0,000 mm 0,0 UV-I 5 W/m² 0,8 °C 5,4 °C 4,8 km/h (1 Bft)
04.02.2017 17:11 5,4 °C 5,4 °C 72 % 1001,4 hPa 0,0 mm 3,0 km/h (1 Bft) O 84 ° 0 min 0,000 mm 0,0 UV-I 5 W/m² 0,8 °C 5,4 °C 4,8 km/h (1 Bft)
04.02.2017 17:12 5,4 °C 5,4 °C 72 % 1001,4 hPa 0,0 mm 3,4 km/h (1 Bft) O 84 ° 0 min 0,000 mm 0,0 UV-I 5 W/m² 0,8 °C 5,4 °C 4,8 km/h (1 Bft)
04.02.2017 17:13 5,4 °C 5,4 °C 73 % 1001,5 hPa 0,0 mm 3,5 km/h (1 Bft) O 84 ° 0 min 0,000 mm 0,0 UV-I 5 W/m² 1,0 °C 5,4 °C 4,8 km/h (1 Bft)
04.02.2017 17:14 5,4 °C 5,4 °C 73 % 1001,5 hPa 0,0 mm 3,2 km/h (1 Bft) O 84 ° 0 min 0,000 mm 0,0 UV-I 0 W/m² 1,0 °C 5,4 °C 4,8 km/h (1 Bft)
04.02.2017 17:15 5,4 °C 5,4 °C 73 % 1001,5 hPa 0,0 mm 2,7 km/h (1 Bft) O 84 ° 0 min 0,000 mm 0,0 UV-I 0 W/m² 1,0 °C 5,4 °C 3,2 km/h (1 Bft)
04.02.2017 17:16 5,4 °C 5,4 °C 73 % 1001,5 hPa 0,0 mm 3,6 km/h (1 Bft) O 84 ° 0 min 0,000 mm 0,0 UV-I 0 W/m² 1,0 °C 5,4 °C 4,8 km/h (1 Bft)
04.02.2017 17:17 5,3 °C 5,4 °C 73 % 1001,5 hPa 0,0 mm 2,5 km/h (1 Bft) O 84 ° 0 min 0,000 mm 0,0 UV-I 0 W/m² 0,9 °C 5,3 °C 3,2 km/h (1 Bft)
04.02.2017 17:18 5,3 °C 5,4 °C 73 % 1001,5 hPa 0,0 mm 3,5 km/h (1 Bft) O 84 ° 0 min 0,000 mm 0,0 UV-I 0 W/m² 0,9 °C 5,3 °C 4,8 km/h (1 Bft)
04.02.2017 17:19 5,3 °C 5,3 °C 73 % 1001,5 hPa 0,0 mm 3,4 km/h (1 Bft) O 84 ° 0 min 0,000 mm 0,0 UV-I 0 W/m² 0,9 °C 5,3 °C 4,8 km/h (1 Bft)
04.02.2017 17:20 5,3 °C 5,3 °C 73 % 1001,5 hPa 0,0 mm 2,4 km/h (1 Bft) O 84 ° 0 min 0,000 mm 0,0 UV-I 0 W/m² 0,9 °C 5,3 °C 3,2 km/h (1 Bft)
04.02.2017 17:21 5,3 °C 5,3 °C 73 % 1001,5 hPa 0,0 mm 1,9 km/h (1 Bft) O 84 ° 0 min 0,000 mm 0,0 UV-I 0 W/m² 0,9 °C 5,3 °C 3,2 km/h (1 Bft)
04.02.2017 17:22 5,3 °C 5,3 °C 73 % 1001,5 hPa 0,0 mm 1,7 km/h (1 Bft) O 84 ° 0 min 0,000 mm 0,0 UV-I 0 W/m² 0,9 °C 5,3 °C 3,2 km/h (1 Bft)
04.02.2017 17:23 5,3 °C 5,3 °C 73 % 1001,4 hPa 0,0 mm 2,9 km/h (1 Bft) O 84 ° 0 min 0,000 mm 0,0 UV-I 0 W/m² 0,9 °C 5,3 °C 4,8 km/h (1 Bft)
04.02.2017 17:24 5,3 °C 5,3 °C 73 % 1001,5 hPa 0,0 mm 3,0 km/h (1 Bft) O 84 ° 0 min 0,000 mm 0,0 UV-I 0 W/m² 0,9 °C 5,3 °C 3,2 km/h (1 Bft)
04.02.2017 17:25 5,2 °C 5,3 °C 73 % 1001,5 hPa 0,0 mm 1,7 km/h (1 Bft) O 84 ° 0 min 0,000 mm 0,0 UV-I 0 W/m² 0,8 °C 5,2 °C 3,2 km/h (1 Bft)
04.02.2017 17:26 5,2 °C 5,2 °C 73 % 1001,5 hPa 0,0 mm 2,2 km/h (1 Bft) O 84 ° 0 min 0,000 mm 0,0 UV-I 0 W/m² 0,8 °C 5,2 °C 3,2 km/h (1 Bft)
04.02.2017 17:27 5,2 °C 5,2 °C 73 % 1001,5 hPa 0,0 mm 2,2 km/h (1 Bft) O 84 ° 0 min 0,000 mm 0,0 UV-I 0 W/m² 0,8 °C 5,2 °C 3,2 km/h (1 Bft)
04.02.2017 17:28 5,2 °C 5,2 °C 73 % 1001,5 hPa 0,0 mm 1,9 km/h (1 Bft) O 84 ° 0 min 0,000 mm 0,0 UV-I 0 W/m² 0,8 °C 5,2 °C 3,2 km/h (1 Bft)
04.02.2017 17:29 5,2 °C 5,2 °C 73 % 1001,6 hPa 0,0 mm 1,9 km/h (1 Bft) O 84 ° 0 min 0,000 mm 0,0 UV-I 0 W/m² 0,8 °C 5,2 °C 3,2 km/h (1 Bft)
04.02.2017 17:30 5,2 °C 5,2 °C 73 % 1001,6 hPa 0,0 mm 2,6 km/h (1 Bft) O 84 ° 0 min 0,000 mm 0,0 UV-I 0 W/m² 0,8 °C 5,2 °C 3,2 km/h (1 Bft)
04.02.2017 17:31 5,1 °C 5,2 °C 72 % 1001,6 hPa 0,0 mm 2,6 km/h (1 Bft) O 84 ° 0 min 0,000 mm 0,0 UV-I 0 W/m² 0,5 °C 5,1 °C 3,2 km/h (1 Bft)
04.02.2017 17:32 5,1 °C 5,1 °C 72 % 1001,7 hPa 0,0 mm 2,3 km/h (1 Bft) O 84 ° 0 min 0,000 mm 0,0 UV-I 0 W/m² 0,5 °C 5,1 °C 3,2 km/h (1 Bft)
04.02.2017 17:33 5,1 °C 5,1 °C 72 % 1001,7 hPa 0,0 mm 2,0 km/h (1 Bft) O 84 ° 0 min 0,000 mm 0,0 UV-I 0 W/m² 0,5 °C 5,1 °C 3,2 km/h (1 Bft)
04.02.2017 17:34 5,1 °C 5,1 °C 72 % 1001,7 hPa 0,0 mm 2,5 km/h (1 Bft) O 84 ° 0 min 0,000 mm 0,0 UV-I 0 W/m² 0,5 °C 5,1 °C 3,2 km/h (1 Bft)
04.02.2017 17:35 5,1 °C 5,1 °C 72 % 1001,7 hPa 0,0 mm 2,4 km/h (1 Bft) O 84 ° 0 min 0,000 mm 0,0 UV-I 0 W/m² 0,5 °C 5,1 °C 3,2 km/h (1 Bft)
04.02.2017 17:36 5,1 °C 5,1 °C 73 % 1001,7 hPa 0,0 mm 1,8 km/h (1 Bft) O 84 ° 0 min 0,000 mm 0,0 UV-I 0 W/m² 0,7 °C 5,1 °C 3,2 km/h (1 Bft)
04.02.2017 17:37 5,1 °C 5,1 °C 73 % 1001,7 hPa 0,0 mm 2,6 km/h (1 Bft) O 84 ° 0 min 0,000 mm 0,0 UV-I 0 W/m² 0,7 °C 5,1 °C 3,2 km/h (1 Bft)
04.02.2017 17:38 5,1 °C 5,1 °C 73 % 1001,7 hPa 0,0 mm 1,3 km/h (1 Bft) O 88 ° 0 min 0,000 mm 0,0 UV-I 0 W/m² 0,7 °C 5,1 °C 3,2 km/h (1 Bft)
04.02.2017 17:39 5,0 °C 5,1 °C 73 % 1001,7 hPa 0,0 mm 1,4 km/h (1 Bft) O 88 ° 0 min 0,000 mm 0,0 UV-I 0 W/m² 0,6 °C 5,0 °C 3,2 km/h (1 Bft)
04.02.2017 17:40 5,0 °C 5,1 °C 74 % 1001,7 hPa 0,0 mm 1,2 km/h (1 Bft) O 88 ° 0 min 0,000 mm 0,0 UV-I 0 W/m² 0,8 °C 5,0 °C 1,6 km/h (1 Bft)
04.02.2017 17:41 5,0 °C 5,0 °C 75 % 1001,7 hPa 0,0 mm 0,1 km/h (0 Bft) O 88 ° 0 min 0,000 mm 0,0 UV-I 0 W/m² 0,9 °C 5,0 °C 1,6 km/h (1 Bft)
04.02.2017 17:42 4,9 °C 5,0 °C 75 % 1001,8 hPa 0,0 mm 0,0 km/h (0 Bft) O 88 ° 0 min 0,000 mm 0,0 UV-I 0 W/m² 0,8 °C 4,9 °C 0,0 km/h (0 Bft)
04.02.2017 17:43 4,9 °C 4,9 °C 75 % 1001,8 hPa 0,0 mm 0,4 km/h (0 Bft) O 88 ° 0 min 0,000 mm 0,0 UV-I 0 W/m² 0,8 °C 4,9 °C 1,6 km/h (1 Bft)
04.02.2017 17:44 4,9 °C 4,9 °C 75 % 1001,8 hPa 0,0 mm 1,5 km/h (1 Bft) O 88 ° 0 min 0,000 mm 0,0 UV-I 0 W/m² 0,8 °C 4,9 °C 3,2 km/h (1 Bft)
04.02.2017 17:45 4,9 °C 4,9 °C 75 % 1001,8 hPa 0,0 mm 1,7 km/h (1 Bft) O 88 ° 0 min 0,000 mm 0,0 UV-I 0 W/m² 0,8 °C 4,9 °C 3,2 km/h (1 Bft)
04.02.2017 17:46 4,9 °C 4,9 °C 75 % 1001,9 hPa 0,0 mm 1,5 km/h (1 Bft) O 88 ° 0 min 0,000 mm 0,0 UV-I 0 W/m² 0,8 °C 4,9 °C 3,2 km/h (1 Bft)
04.02.2017 17:47 4,8 °C 4,9 °C 75 % 1001,9 hPa 0,0 mm 0,1 km/h (0 Bft) O 88 ° 0 min 0,000 mm 0,0 UV-I 0 W/m² 0,8 °C 4,8 °C 1,6 km/h (1 Bft)
04.02.2017 17:48 4,8 °C 4,8 °C 74 % 1001,9 hPa 0,0 mm 0,3 km/h (0 Bft) O 88 ° 0 min 0,000 mm 0,0 UV-I 0 W/m² 0,6 °C 4,8 °C 1,6 km/h (1 Bft)
04.02.2017 17:49 4,8 °C 4,8 °C 74 % 1001,9 hPa 0,0 mm 0,0 km/h (0 Bft) O 88 ° 0 min 0,000 mm 0,0 UV-I 0 W/m² 0,6 °C 4,8 °C 0,0 km/h (0 Bft)
04.02.2017 17:50 4,7 °C 4,8 °C 75 % 1001,9 hPa 0,0 mm 0,0 km/h (0 Bft) O 88 ° 0 min 0,000 mm 0,0 UV-I 0 W/m² 0,7 °C 4,7 °C 0,0 km/h (0 Bft)
04.02.2017 17:51 4,8 °C 4,8 °C 75 % 1001,9 hPa 0,0 mm 0,0 km/h (0 Bft) O 88 ° 0 min 0,000 mm 0,0 UV-I 0 W/m² 0,8 °C 4,8 °C 0,0 km/h (0 Bft)
04.02.2017 17:52 4,7 °C 4,8 °C 75 % 1001,9 hPa 0,0 mm 0,0 km/h (0 Bft) O 88 ° 0 min 0,000 mm 0,0 UV-I 0 W/m² 0,7 °C 4,7 °C 0,0 km/h (0 Bft)
04.02.2017 17:53 4,7 °C 4,7 °C 76 % 1002,0 hPa 0,0 mm 0,0 km/h (0 Bft) O 88 ° 0 min 0,000 mm 0,0 UV-I 0 W/m² 0,8 °C 4,7 °C 0,0 km/h (0 Bft)
04.02.2017 17:54 4,7 °C 4,7 °C 76 % 1002,1 hPa 0,0 mm 0,0 km/h (0 Bft) O 88 ° 0 min 0,000 mm 0,0 UV-I 0 W/m² 0,8 °C 4,7 °C 0,0 km/h (0 Bft)
04.02.2017 17:55 4,7 °C 4,7 °C 76 % 1002,1 hPa 0,0 mm 0,4 km/h (0 Bft) O 88 ° 0 min 0,000 mm 0,0 UV-I 0 W/m² 0,8 °C 4,7 °C 1,6 km/h (1 Bft)
04.02.2017 17:56 4,6 °C 4,7 °C 76 % 1002,1 hPa 0,0 mm 1,7 km/h (1 Bft) O 88 ° 0 min 0,000 mm 0,0 UV-I 0 W/m² 0,7 °C 4,6 °C 3,2 km/h (1 Bft)
04.02.2017 17:57 4,5 °C 4,6 °C 76 % 1002,2 hPa 0,0 mm 0,7 km/h (0 Bft) O 88 ° 0 min 0,000 mm 0,0 UV-I 0 W/m² 0,6 °C 4,5 °C 1,6 km/h (1 Bft)
04.02.2017 17:58 4,5 °C 4,5 °C 77 % 1002,3 hPa 0,0 mm 0,3 km/h (0 Bft) O 88 ° 0 min 0,000 mm 0,0 UV-I 0 W/m² 0,8 °C 4,5 °C 1,6 km/h (1 Bft)
04.02.2017 17:59 4,4 °C 4,5 °C 77 % 1002,3 hPa 0,0 mm 0,7 km/h (0 Bft) O 88 ° 0 min 0,000 mm 0,0 UV-I 0 W/m² 0,7 °C 4,4 °C 1,6 km/h (1 Bft)
04.02.2017 18:00 4,4 °C 4,4 °C 76 % 1002,3 hPa 0,0 mm 0,7 km/h (0 Bft) O 88 ° 0 min 0,000 mm 0,0 UV-I 0 W/m² 0,5 °C 4,4 °C 1,6 km/h (1 Bft)
04.02.2017 18:01 4,3 °C 4,4 °C 76 % 1002,4 hPa 0,0 mm 1,9 km/h (1 Bft) O 88 ° 0 min 0,000 mm 0,0 UV-I 0 W/m² 0,5 °C 4,3 °C 3,2 km/h (1 Bft)
04.02.2017 18:02 4,3 °C 4,3 °C 77 % 1002,5 hPa 0,0 mm 4,0 km/h (1 Bft) S 176 ° 0 min 0,000 mm 0,0 UV-I 0 W/m² 0,6 °C 4,3 °C 6,4 km/h (2 Bft)
04.02.2017 18:03 4,3 °C 4,3 °C 77 % 1002,5 hPa 0,0 mm 3,7 km/h (1 Bft) S 176 ° 0 min 0,000 mm 0,0 UV-I 0 W/m² 0,6 °C 4,3 °C 4,8 km/h (1 Bft)
04.02.2017 18:04 4,3 °C 4,3 °C 77 % 1002,5 hPa 0,0 mm 2,7 km/h (1 Bft) S 176 ° 0 min 0,000 mm 0,0 UV-I 0 W/m² 0,6 °C 4,3 °C 3,2 km/h (1 Bft)
04.02.2017 18:05 4,2 °C 4,3 °C 77 % 1002,5 hPa 0,0 mm 0,8 km/h (0 Bft) S 176 ° 0 min 0,000 mm 0,0 UV-I 0 W/m² 0,5 °C 4,2 °C 1,6 km/h (1 Bft)
04.02.2017 18:06 4,2 °C 4,2 °C 77 % 1002,5 hPa 0,0 mm 0,3 km/h (0 Bft) S 176 ° 0 min 0,000 mm 0,0 UV-I 0 W/m² 0,5 °C 4,2 °C 1,6 km/h (1 Bft)
04.02.2017 18:07 4,2 °C 4,2 °C 77 % 1002,6 hPa 0,0 mm 0,3 km/h (0 Bft) S 176 ° 0 min 0,000 mm 0,0 UV-I 0 W/m² 0,5 °C 4,2 °C 1,6 km/h (1 Bft)
04.02.2017 18:08 4,2 °C 4,2 °C 77 % 1002,7 hPa 0,0 mm 0,1 km/h (0 Bft) S 176 ° 0 min 0,000 mm 0,0 UV-I 0 W/m² 0,5 °C 4,2 °C 1,6 km/h (1 Bft)
04.02.2017 18:09 4,2 °C 4,2 °C 77 % 1002,7 hPa 0,0 mm 1,8 km/h (1 Bft) S 176 ° 0 min 0,000 mm 0,0 UV-I 0 W/m² 0,5 °C 4,2 °C 3,2 km/h (1 Bft)
04.02.2017 18:10 4,1 °C 4,2 °C 78 % 1002,7 hPa 0,0 mm 2,7 km/h (1 Bft) S 176 ° 0 min 0,000 mm 0,0 UV-I 0 W/m² 0,6 °C 4,1 °C 4,8 km/h (1 Bft)
04.02.2017 18:11 4,1 °C 4,1 °C 78 % 1002,7 hPa 0,0 mm 3,3 km/h (1 Bft) S 176 ° 0 min 0,000 mm 0,0 UV-I 0 W/m² 0,6 °C 4,1 °C 4,8 km/h (1 Bft)
04.02.2017 18:12 4,1 °C 4,1 °C 78 % 1002,7 hPa 0,0 mm 2,9 km/h (1 Bft) S 176 ° 0 min 0,000 mm 0,0 UV-I 0 W/m² 0,6 °C 4,1 °C 4,8 km/h (1 Bft)
04.02.2017 18:13 4,1 °C 4,1 °C 78 % 1002,7 hPa 0,0 mm 2,9 km/h (1 Bft) S 176 ° 0 min 0,000 mm 0,0 UV-I 0 W/m² 0,6 °C 4,1 °C 4,8 km/h (1 Bft)
04.02.2017 18:14 4,1 °C 4,1 °C 78 % 1002,8 hPa 0,0 mm 7,1 km/h (2 Bft) S-SW 196 ° 0 min 0,000 mm 0,0 UV-I 0 W/m² 0,6 °C 2,3 °C 11,3 km/h (2 Bft)
04.02.2017 18:15 4,0 °C 4,1 °C 78 % 1003,0 hPa 0,0 mm 10,9 km/h (2 Bft) S-SW 205 ° 0 min 0,000 mm 0,0 UV-I 0 W/m² 0,5 °C 1,3 °C 12,9 km/h (3 Bft)
04.02.2017 18:16 4,0 °C 4,0 °C 79 % 1003,1 hPa 0,0 mm 5,9 km/h (2 Bft) S-SW 207 ° 0 min 0,000 mm 0,0 UV-I 0 W/m² 0,7 °C 2,6 °C 8,0 km/h (2 Bft)
04.02.2017 18:17 3,9 °C 4,0 °C 79 % 1003,1 hPa 0,0 mm 4,5 km/h (1 Bft) W-SW 248 ° 0 min 0,000 mm 0,0 UV-I 0 W/m² 0,6 °C 3,9 °C 8,0 km/h (2 Bft)
04.02.2017 18:18 4,0 °C 4,0 °C 79 % 1003,2 hPa 0,0 mm 10,9 km/h (2 Bft) SW 229 ° 0 min 0,000 mm 0,0 UV-I 0 W/m² 0,7 °C 1,3 °C 19,3 km/h (3 Bft)
04.02.2017 18:19 4,0 °C 4,0 °C 79 % 1003,2 hPa 0,0 mm 5,6 km/h (1 Bft) W-SW 252 ° 0 min 0,000 mm 0,0 UV-I 0 W/m² 0,7 °C 2,7 °C 9,7 km/h (2 Bft)
04.02.2017 18:20 4,0 °C 4,0 °C 79 % 1003,2 hPa 0,0 mm 6,5 km/h (2 Bft) W-SW 251 ° 0 min 0,000 mm 0,0 UV-I 0 W/m² 0,7 °C 2,4 °C 11,3 km/h (2 Bft)
04.02.2017 18:21 3,9 °C 4,0 °C 79 % 1003,3 hPa 0,0 mm 6,8 km/h (2 Bft) W-SW 244 ° 0 min 0,000 mm 0,0 UV-I 0 W/m² 0,6 °C 2,2 °C 8,0 km/h (2 Bft)
04.02.2017 18:22 4,0 °C 4,0 °C 79 % 1003,4 hPa 0,0 mm 7,0 km/h (2 Bft) S-SW 195 ° 0 min 0,000 mm 0,0 UV-I 0 W/m² 0,7 °C 2,2 °C 9,7 km/h (2 Bft)
04.02.2017 18:23 4,0 °C 4,0 °C 79 % 1003,5 hPa 0,0 mm 7,1 km/h (2 Bft) SW 236 ° 0 min 0,000 mm 0,0 UV-I 0 W/m² 0,7 °C 2,2 °C 11,3 km/h (2 Bft)
04.02.2017 18:24 4,1 °C 4,1 °C 79 % 1003,5 hPa 0,0 mm 9,3 km/h (2 Bft) W-SW 246 ° 0 min 0,000 mm 0,0 UV-I 0 W/m² 0,8 °C 1,7 °C 14,5 km/h (3 Bft)
04.02.2017 18:25 4,1 °C 4,1 °C 79 % 1003,5 hPa 0,0 mm 9,1 km/h (2 Bft) W-SW 252 ° 0 min 0,000 mm 0,0 UV-I 0 W/m² 0,8 °C 1,8 °C 14,5 km/h (3 Bft)
04.02.2017 18:26 4,1 °C 4,1 °C 79 % 1003,5 hPa 0,0 mm 7,4 km/h (2 Bft) W-SW 249 ° 0 min 0,000 mm 0,0 UV-I 0 W/m² 0,8 °C 2,2 °C 12,9 km/h (3 Bft)
04.02.2017 18:27 4,1 °C 4,2 °C 79 % 1003,6 hPa 0,0 mm 9,9 km/h (2 Bft) W-SW 250 ° 0 min 0,000 mm 0,0 UV-I 0 W/m² 0,8 °C 1,6 °C 17,7 km/h (3 Bft)
04.02.2017 18:28 4,2 °C 4,2 °C 79 % 1003,6 hPa 0,0 mm 6,1 km/h (2 Bft) SW 226 ° 0 min 0,000 mm 0,0 UV-I 0 W/m² 0,9 °C 2,8 °C 17,7 km/h (3 Bft)
04.02.2017 18:29 4,2 °C 4,2 °C 79 % 1003,5 hPa 0,0 mm 8,9 km/h (2 Bft) W-SW 252 ° 0 min 0,000 mm 0,0 UV-I 0 W/m² 0,9 °C 2,0 °C 16,1 km/h (3 Bft)
04.02.2017 18:30 4,2 °C 4,2 °C 79 % 1003,6 hPa 0,0 mm 8,3 km/h (2 Bft) W-SW 242 ° 0 min 0,000 mm 0,0 UV-I 0 W/m² 0,9 °C 2,1 °C 11,3 km/h (2 Bft)
04.02.2017 18:31 4,2 °C 4,2 °C 79 % 1003,6 hPa 0,0 mm 5,1 km/h (1 Bft) SW 234 ° 0 min 0,000 mm 0,0 UV-I 0 W/m² 0,9 °C 3,1 °C 6,4 km/h (2 Bft)
04.02.2017 18:32 4,2 °C 4,2 °C 79 % 1003,6 hPa 0,0 mm 9,4 km/h (2 Bft) W 262 ° 0 min 0,000 mm 0,0 UV-I 0 W/m² 0,9 °C 1,8 °C 12,9 km/h (3 Bft)
04.02.2017 18:33 4,2 °C 4,2 °C 79 % 1003,7 hPa 0,0 mm 7,8 km/h (2 Bft) W-SW 254 ° 0 min 0,000 mm 0,0 UV-I 0 W/m² 0,9 °C 2,2 °C 11,3 km/h (2 Bft)
04.02.2017 18:34 4,2 °C 4,2 °C 79 % 1003,7 hPa 0,0 mm 7,3 km/h (2 Bft) SW 227 ° 0 min 0,000 mm 0,0 UV-I 0 W/m² 0,9 °C 2,4 °C 9,7 km/h (2 Bft)
04.02.2017 18:35 4,2 °C 4,2 °C 79 % 1003,8 hPa 0,0 mm 8,4 km/h (2 Bft) W-SW 252 ° 0 min 0,000 mm 0,0 UV-I 0 W/m² 0,9 °C 2,1 °C 12,9 km/h (3 Bft)
04.02.2017 18:36 4,2 °C 4,2 °C 79 % 1003,9 hPa 0,0 mm 10,3 km/h (2 Bft) W-SW 256 ° 0 min 0,000 mm 0,0 UV-I 0 W/m² 0,9 °C 1,6 °C 12,9 km/h (3 Bft)
04.02.2017 18:37 4,2 °C 4,2 °C 80 % 1003,9 hPa 0,0 mm 10,9 km/h (2 Bft) W-SW 256 ° 0 min 0,000 mm 0,0 UV-I 0 W/m² 1,1 °C 1,5 °C 14,5 km/h (3 Bft)
04.02.2017 18:38 4,2 °C 4,2 °C 80 % 1004,0 hPa 0,0 mm 9,0 km/h (2 Bft) W 261 ° 0 min 0,000 mm 0,0 UV-I 0 W/m² 1,1 °C 1,9 °C 14,5 km/h (3 Bft)
04.02.2017 18:39 4,2 °C 4,2 °C 80 % 1004,1 hPa 0,0 mm 12,0 km/h (2 Bft) W 263 ° 0 min 0,000 mm 0,0 UV-I 0 W/m² 1,1 °C 1,3 °C 16,1 km/h (3 Bft)
04.02.2017 18:40 4,2 °C 4,2 °C 80 % 1004,1 hPa 0,0 mm 9,8 km/h (2 Bft) SW 232 ° 0 min 0,000 mm 0,0 UV-I 0 W/m² 1,1 °C 1,7 °C 14,5 km/h (3 Bft)
04.02.2017 18:41 4,2 °C 4,2 °C 80 % 1004,2 hPa 0,0 mm 9,1 km/h (2 Bft) W-SW 246 ° 0 min 0,000 mm 0,0 UV-I 0 W/m² 1,1 °C 1,9 °C 14,5 km/h (3 Bft)
04.02.2017 18:42 4,2 °C 4,2 °C 80 % 1004,2 hPa 0,0 mm 9,3 km/h (2 Bft) W 267 ° 0 min 0,000 mm 0,0 UV-I 0 W/m² 1,1 °C 1,9 °C 12,9 km/h (3 Bft)
04.02.2017 18:43 4,2 °C 4,2 °C 80 % 1004,2 hPa 0,0 mm 11,7 km/h (2 Bft) W-SW 256 ° 0 min 0,000 mm 0,0 UV-I 0 W/m² 1,1 °C 1,3 °C 16,1 km/h (3 Bft)
04.02.2017 18:44 4,2 °C 4,2 °C 80 % 1004,2 hPa 0,0 mm 10,1 km/h (2 Bft) SW 233 ° 0 min 0,000 mm 0,0 UV-I 0 W/m² 1,1 °C 1,7 °C 14,5 km/h (3 Bft)
04.02.2017 18:45 4,2 °C 4,2 °C 81 % 1004,4 hPa 0,0 mm 6,5 km/h (2 Bft) W-SW 246 ° 0 min 0,000 mm 0,0 UV-I 0 W/m² 1,2 °C 2,6 °C 11,3 km/h (2 Bft)
04.02.2017 18:46 4,2 °C 4,2 °C 81 % 1004,3 hPa 0,0 mm 6,6 km/h (2 Bft) W-SW 254 ° 0 min 0,000 mm 0,0 UV-I 0 W/m² 1,2 °C 2,6 °C 9,7 km/h (2 Bft)
04.02.2017 18:47 4,3 °C 4,3 °C 81 % 1004,3 hPa 0,0 mm 5,1 km/h (1 Bft) W-SW 248 ° 0 min 0,000 mm 0,0 UV-I 0 W/m² 1,3 °C 3,2 °C 8,0 km/h (2 Bft)
04.02.2017 18:48 4,2 °C 4,3 °C 81 % 1004,3 hPa 0,0 mm 8,3 km/h (2 Bft) SW 215 ° 0 min 0,000 mm 0,0 UV-I 0 W/m² 1,2 °C 2,1 °C 14,5 km/h (3 Bft)
04.02.2017 18:49 4,2 °C 4,3 °C 81 % 1004,4 hPa 0,0 mm 12,5 km/h (3 Bft) W 276 ° 0 min 0,000 mm 0,0 UV-I 0 W/m² 1,2 °C 1,2 °C 17,7 km/h (3 Bft)
04.02.2017 18:50 4,3 °C 4,3 °C 81 % 1004,4 hPa 0,0 mm 8,2 km/h (2 Bft) SW 233 ° 0 min 0,000 mm 0,0 UV-I 0 W/m² 1,3 °C 2,3 °C 11,3 km/h (2 Bft)
04.02.2017 18:51 4,3 °C 4,3 °C 81 % 1004,4 hPa 0,0 mm 9,7 km/h (2 Bft) W 274 ° 0 min 0,000 mm 0,0 UV-I 0 W/m² 1,3 °C 1,9 °C 16,1 km/h (3 Bft)
04.02.2017 18:52 4,3 °C 4,3 °C 81 % 1004,4 hPa 0,0 mm 6,7 km/h (2 Bft) S-SW 209 ° 0 min 0,000 mm 0,0 UV-I 0 W/m² 1,3 °C 2,7 °C 12,9 km/h (3 Bft)
04.02.2017 18:53 4,3 °C 4,3 °C 81 % 1004,4 hPa 0,0 mm 6,4 km/h (2 Bft) SW 232 ° 0 min 0,000 mm 0,0 UV-I 0 W/m² 1,3 °C 2,8 °C 11,3 km/h (2 Bft)
04.02.2017 18:54 4,3 °C 4,3 °C 81 % 1004,4 hPa 0,0 mm 8,9 km/h (2 Bft) W 261 ° 0 min 0,000 mm 0,0 UV-I 0 W/m² 1,3 °C 2,1 °C 12,9 km/h (3 Bft)
04.02.2017 18:55 4,2 °C 4,3 °C 82 % 1004,5 hPa 0,0 mm 7,0 km/h (2 Bft) W-SW 245 ° 0 min 0,000 mm 0,0 UV-I 0 W/m² 1,4 °C 2,5 °C 12,9 km/h (3 Bft)
04.02.2017 18:56 4,3 °C 4,3 °C 82 % 1004,5 hPa 0,0 mm 9,0 km/h (2 Bft) W-SW 244 ° 0 min 0,000 mm 0,0 UV-I 0 W/m² 1,5 °C 2,1 °C 12,9 km/h (3 Bft)
04.02.2017 18:57 4,3 °C 4,3 °C 82 % 1004,7 hPa 0,0 mm 18,5 km/h (3 Bft) SW 230 ° 0 min 0,000 mm 0,0 UV-I 0 W/m² 1,5 °C 0,4 °C 25,7 km/h (4 Bft)
04.02.2017 18:58 4,3 °C 4,3 °C 82 % 1004,6 hPa 0,0 mm 19,4 km/h (3 Bft) W-SW 256 ° 0 min 0,000 mm 0,0 UV-I 0 W/m² 1,5 °C 0,3 °C 24,1 km/h (4 Bft)
04.02.2017 18:59 4,2 °C 4,3 °C 82 % 1004,6 hPa 0,2 mm 10,7 km/h (2 Bft) W-SW 258 ° 0 min 0,000 mm 0,0 UV-I 0 W/m² 1,4 °C 1,6 °C 16,1 km/h (3 Bft)
04.02.2017 19:00 4,2 °C 4,2 °C 82 % 1004,7 hPa 0,0 mm 11,2 km/h (2 Bft) W-SW 239 ° 0 min 0,000 mm 0,0 UV-I 0 W/m² 1,4 °C 1,4 °C 19,3 km/h (3 Bft)
04.02.2017 19:01 4,2 °C 4,2 °C 82 % 1004,7 hPa 0,0 mm 17,9 km/h (3 Bft) SW 221 ° 0 min 0,026 mm 0,0 UV-I 0 W/m² 1,4 °C 0,3 °C 24,1 km/h (4 Bft)
04.02.2017 19:02 4,2 °C 4,2 °C 82 % 1004,6 hPa 0,0 mm 10,5 km/h (2 Bft) W-SW 244 ° 0 min 0,000 mm 0,0 UV-I 0 W/m² 1,4 °C 1,6 °C 14,5 km/h (3 Bft)
04.02.2017 19:03 4,2 °C 4,2 °C 83 % 1004,7 hPa 0,0 mm 9,8 km/h (2 Bft) W-SW 250 ° 0 min 0,000 mm 0,0 UV-I 0 W/m² 1,6 °C 1,7 °C 16,1 km/h (3 Bft)
04.02.2017 19:04 4,1 °C 4,2 °C 83 % 1004,6 hPa 0,0 mm 11,9 km/h (2 Bft) W-SW 248 ° 0 min 0,000 mm 0,0 UV-I 0 W/m² 1,5 °C 1,2 °C 19,3 km/h (3 Bft)
04.02.2017 19:05 4,1 °C 4,1 °C 83 % 1004,7 hPa 0,0 mm 9,2 km/h (2 Bft) S-SW 201 ° 0 min 0,000 mm 0,0 UV-I 0 W/m² 1,5 °C 1,8 °C 14,5 km/h (3 Bft)
04.02.2017 19:06 4,1 °C 4,1 °C 84 % 1004,7 hPa 0,0 mm 10,8 km/h (2 Bft) SW 219 ° 0 min 0,000 mm 0,0 UV-I 0 W/m² 1,6 °C 1,4 °C 16,1 km/h (3 Bft)
04.02.2017 19:07 4,1 °C 4,1 °C 84 % 1004,7 hPa 0,0 mm 6,4 km/h (2 Bft) S-SW 197 ° 0 min 0,000 mm 0,0 UV-I 0 W/m² 1,6 °C 2,6 °C 9,7 km/h (2 Bft)
04.02.2017 19:08 4,0 °C 4,1 °C 84 % 1004,7 hPa 0,0 mm 8,7 km/h (2 Bft) W-SW 240 ° 0 min 0,000 mm 0,0 UV-I 0 W/m² 1,5 °C 1,8 °C 14,5 km/h (3 Bft)
04.02.2017 19:09 4,0 °C 4,1 °C 84 % 1004,8 hPa 0,2 mm 10,4 km/h (2 Bft) W 261 ° 0 min 0,000 mm 0,0 UV-I 0 W/m² 1,5 °C 1,4 °C 16,1 km/h (3 Bft)
04.02.2017 19:10 4,0 °C 4,0 °C 85 % 1004,7 hPa 0,0 mm 8,0 km/h (2 Bft) S-SO 166 ° 0 min 0,000 mm 0,0 UV-I 0 W/m² 1,7 °C 2,0 °C 14,5 km/h (3 Bft)
04.02.2017 19:11 3,9 °C 4,0 °C 85 % 1004,8 hPa 0,0 mm 10,2 km/h (2 Bft) W 276 ° 0 min 0,000 mm 0,0 UV-I 0 W/m² 1,6 °C 1,3 °C 16,1 km/h (3 Bft)
04.02.2017 19:12 3,9 °C 3,9 °C 85 % 1004,8 hPa 0,0 mm 10,5 km/h (2 Bft) W-SW 242 ° 0 min 0,000 mm 0,0 UV-I 0 W/m² 1,6 °C 1,2 °C 16,1 km/h (3 Bft)
04.02.2017 19:13 3,9 °C 3,9 °C 85 % 1004,8 hPa 0,0 mm 9,9 km/h (2 Bft) W-SW 252 ° 0 min 0,000 mm 0,0 UV-I 0 W/m² 1,6 °C 1,4 °C 16,1 km/h (3 Bft)
04.02.2017 19:14 3,9 °C 3,9 °C 85 % 1004,9 hPa 0,2 mm 9,2 km/h (2 Bft) W-SW 257 ° 0 min 0,000 mm 0,0 UV-I 0 W/m² 1,6 °C 1,5 °C 12,9 km/h (3 Bft)
04.02.2017 19:15 3,8 °C 3,9 °C 85 % 1004,9 hPa 0,0 mm 8,7 km/h (2 Bft) S-SW 192 ° 0 min 0,000 mm 0,0 UV-I 0 W/m² 1,5 °C 1,5 °C 12,9 km/h (3 Bft)
04.02.2017 19:16 3,7 °C 3,8 °C 86 % 1005,0 hPa 0,0 mm 4,8 km/h (1 Bft) W-SW 248 ° 0 min 0,000 mm 0,0 UV-I 0 W/m² 1,6 °C 2,7 °C 8,0 km/h (2 Bft)
04.02.2017 19:17 3,7 °C 3,8 °C 86 % 1004,9 hPa 0,0 mm 11,4 km/h (2 Bft) SW 228 ° 0 min 0,000 mm 0,0 UV-I 0 W/m² 1,6 °C 0,8 °C 16,1 km/h (3 Bft)
04.02.2017 19:18 3,7 °C 3,7 °C 86 % 1004,8 hPa 0,0 mm 12,2 km/h (2 Bft) W-SW 247 ° 0 min 0,000 mm 0,0 UV-I 0 W/m² 1,6 °C 0,6 °C 17,7 km/h (3 Bft)
04.02.2017 19:19 3,7 °C 3,7 °C 86 % 1004,8 hPa 0,0 mm 6,5 km/h (2 Bft) W 262 ° 0 min 0,000 mm 0,0 UV-I 0 W/m² 1,6 °C 2,1 °C 11,3 km/h (2 Bft)
04.02.2017 19:20 3,6 °C 3,7 °C 86 % 1004,8 hPa 0,2 mm 9,7 km/h (2 Bft) W 275 ° 0 min 0,000 mm 0,0 UV-I 0 W/m² 1,5 °C 1,1 °C 16,1 km/h (3 Bft)
04.02.2017 19:21 3,6 °C 3,6 °C 86 % 1004,7 hPa 0,0 mm 3,0 km/h (1 Bft) W 266 ° 0 min 0,000 mm 0,0 UV-I 0 W/m² 1,5 °C 3,6 °C 3,2 km/h (1 Bft)
04.02.2017 19:22 3,6 °C 3,6 °C 87 % 1004,8 hPa 0,0 mm 6,4 km/h (2 Bft) W-SW 239 ° 0 min 0,000 mm 0,0 UV-I 0 W/m² 1,6 °C 2,0 °C 9,7 km/h (2 Bft)
04.02.2017 19:23 3,6 °C 3,6 °C 87 % 1004,8 hPa 0,0 mm 7,1 km/h (2 Bft) S-SW 194 ° 0 min 0,000 mm 0,0 UV-I 0 W/m² 1,6 °C 1,8 °C 11,3 km/h (2 Bft)
04.02.2017 19:24 3,6 °C 3,6 °C 87 % 1004,7 hPa 0,0 mm 3,7 km/h (1 Bft) W-SW 247 ° 0 min 0,000 mm 0,0 UV-I 0 W/m² 1,6 °C 3,6 °C 4,8 km/h (1 Bft)
04.02.2017 19:25 3,5 °C 3,6 °C 87 % 1004,8 hPa 0,0 mm 7,4 km/h (2 Bft) W 262 ° 0 min 0,000 mm 0,0 UV-I 0 W/m² 1,5 °C 1,5 °C 11,3 km/h (2 Bft)
04.02.2017 19:26 3,4 °C 3,5 °C 87 % 1004,8 hPa 0,0 mm 13,7 km/h (3 Bft) W-SW 252 ° 0 min 0,000 mm 0,0 UV-I 0 W/m² 1,4 °C -0,0 °C 24,1 km/h (4 Bft)
04.02.2017 19:27 3,4 °C 3,4 °C 87 % 1004,7 hPa 0,0 mm 13,9 km/h (3 Bft) W 280 ° 0 min 0,000 mm 0,0 UV-I 0 W/m² 1,4 °C -0,0 °C 22,5 km/h (4 Bft)
04.02.2017 19:28 3,4 °C 3,4 °C 87 % 1004,7 hPa 0,0 mm 15,3 km/h (3 Bft) W 269 ° 0 min 0,000 mm 0,0 UV-I 0 W/m² 1,4 °C -0,3 °C 24,1 km/h (4 Bft)
04.02.2017 19:29 3,3 °C 3,4 °C 87 % 1004,8 hPa 0,0 mm 15,7 km/h (3 Bft) W-SW 246 ° 0 min 0,000 mm 0,0 UV-I 0 W/m² 1,3 °C -0,5 °C 32,2 km/h (5 Bft)
04.02.2017 19:30 3,3 °C 3,4 °C 87 % 1004,9 hPa 0,0 mm 23,5 km/h (4 Bft) S-SW 198 ° 0 min 0,000 mm 0,0 UV-I 0 W/m² 1,3 °C -1,5 °C 32,2 km/h (5 Bft)
04.02.2017 19:31 3,3 °C 3,3 °C 87 % 1004,9 hPa 0,0 mm 27,5 km/h (4 Bft) NW 307 ° 0 min 0,000 mm 0,0 UV-I 0 W/m² 1,3 °C -1,9 °C 38,6 km/h (5 Bft)
04.02.2017 19:32 3,3 °C 3,3 °C 87 % 1004,9 hPa 0,0 mm 23,8 km/h (4 Bft) W 265 ° 0 min 0,000 mm 0,0 UV-I 0 W/m² 1,3 °C -1,5 °C 46,7 km/h (6 Bft)
04.02.2017 19:33 3,3 °C 3,4 °C 86 % 1004,9 hPa 0,0 mm 17,5 km/h (3 Bft) W-NW 282 ° 0 min 0,000 mm 0,0 UV-I 0 W/m² 1,2 °C -0,7 °C 32,2 km/h (5 Bft)
04.02.2017 19:34 3,3 °C 3,3 °C 87 % 1005,0 hPa 0,0 mm 23,1 km/h (4 Bft) W-SW 250 ° 0 min 0,000 mm 0,0 UV-I 0 W/m² 1,3 °C -1,5 °C 30,6 km/h (5 Bft)
04.02.2017 19:35 3,4 °C 3,4 °C 87 % 1005,1 hPa 0,0 mm 21,6 km/h (4 Bft) NW 326 ° 0 min 0,000 mm 0,0 UV-I 0 W/m² 1,4 °C -1,2 °C 33,8 km/h (5 Bft)
04.02.2017 19:36 3,3 °C 3,4 °C 87 % 1005,0 hPa 0,0 mm 23,4 km/h (4 Bft) W-NW 300 ° 0 min 0,000 mm 0,0 UV-I 0 W/m² 1,3 °C -1,5 °C 48,3 km/h (6 Bft)
04.02.2017 19:37 3,3 °C 3,4 °C 86 % 1004,9 hPa 0,0 mm 19,1 km/h (3 Bft) W-SW 242 ° 0 min 0,000 mm 0,0 UV-I 0 W/m² 1,2 °C -1,0 °C 25,7 km/h (4 Bft)
04.02.2017 19:38 3,3 °C 3,4 °C 87 % 1004,9 hPa 0,0 mm 22,9 km/h (4 Bft) W-NW 288 ° 0 min 0,000 mm 0,0 UV-I 0 W/m² 1,3 °C -1,4 °C 33,8 km/h (5 Bft)
04.02.2017 19:39 3,3 °C 3,4 °C 86 % 1004,9 hPa 0,0 mm 16,0 km/h (3 Bft) W 259 ° 0 min 0,000 mm 0,0 UV-I 0 W/m² 1,2 °C -0,5 °C 22,5 km/h (4 Bft)
04.02.2017 19:40 3,3 °C 3,4 °C 86 % 1004,9 hPa 0,0 mm 16,0 km/h (3 Bft) W 266 ° 0 min 0,000 mm 0,0 UV-I 0 W/m² 1,2 °C -0,5 °C 25,7 km/h (4 Bft)
04.02.2017 19:41 3,3 °C 3,3 °C 86 % 1004,8 hPa 0,0 mm 16,8 km/h (3 Bft) W-SW 255 ° 0 min 0,000 mm 0,0 UV-I 0 W/m² 1,2 °C -0,6 °C 22,5 km/h (4 Bft)
04.02.2017 19:42 3,3 °C 3,4 °C 86 % 1004,8 hPa 0,0 mm 13,1 km/h (3 Bft) W-SW 257 ° 0 min 0,000 mm 0,0 UV-I 0 W/m² 1,2 °C -0,0 °C 19,3 km/h (3 Bft)
04.02.2017 19:43 3,3 °C 3,3 °C 86 % 1004,8 hPa 0,0 mm 12,7 km/h (3 Bft) W-SW 238 ° 0 min 0,000 mm 0,0 UV-I 0 W/m² 1,2 °C 0,1 °C 17,7 km/h (3 Bft)
04.02.2017 19:44 3,3 °C 3,3 °C 86 % 1004,8 hPa 0,0 mm 14,6 km/h (3 Bft) W-SW 253 ° 0 min 0,000 mm 0,0 UV-I 0 W/m² 1,2 °C -0,3 °C 19,3 km/h (3 Bft)
04.02.2017 19:45 3,3 °C 3,3 °C 86 % 1004,8 hPa 0,0 mm 17,2 km/h (3 Bft) W-SW 247 ° 0 min 0,000 mm 0,0 UV-I 0 W/m² 1,2 °C -0,7 °C 24,1 km/h (4 Bft)
04.02.2017 19:46 3,3 °C 3,3 °C 86 % 1004,7 hPa 0,0 mm 22,2 km/h (4 Bft) SW 233 ° 0 min 0,000 mm 0,0 UV-I 0 W/m² 1,2 °C -1,4 °C 35,4 km/h (5 Bft)
04.02.2017 19:47 3,3 °C 3,3 °C 86 % 1004,8 hPa 0,0 mm 13,9 km/h (3 Bft) W-SW 248 ° 0 min 0,000 mm 0,0 UV-I 0 W/m² 1,2 °C -0,2 °C 17,7 km/h (3 Bft)
04.02.2017 19:48 3,3 °C 3,3 °C 87 % 1004,8 hPa 0,0 mm 12,5 km/h (3 Bft) W 267 ° 0 min 0,000 mm 0,0 UV-I 0 W/m² 1,3 °C 0,1 °C 19,3 km/h (3 Bft)
04.02.2017 19:49 3,3 °C 3,3 °C 87 % 1004,8 hPa 0,0 mm 16,7 km/h (3 Bft) W 268 ° 0 min 0,000 mm 0,0 UV-I 0 W/m² 1,3 °C -0,6 °C 20,9 km/h (4 Bft)
04.02.2017 19:50 3,3 °C 3,3 °C 86 % 1004,8 hPa 0,0 mm 13,3 km/h (3 Bft) W 266 ° 0 min 0,000 mm 0,0 UV-I 0 W/m² 1,2 °C -0,1 °C 16,1 km/h (3 Bft)
04.02.2017 19:51 3,3 °C 3,3 °C 86 % 1004,9 hPa 0,0 mm 12,5 km/h (3 Bft) W-SW 244 ° 0 min 0,000 mm 0,0 UV-I 0 W/m² 1,2 °C 0,1 °C 19,3 km/h (3 Bft)
04.02.2017 19:52 3,3 °C 3,3 °C 86 % 1005,0 hPa 0,0 mm 14,8 km/h (3 Bft) W-SW 256 ° 0 min 0,000 mm 0,0 UV-I 0 W/m² 1,2 °C -0,3 °C 19,3 km/h (3 Bft)
04.02.2017 19:53 3,3 °C 3,3 °C 86 % 1004,9 hPa 0,0 mm 17,4 km/h (3 Bft) W-SW 244 ° 0 min 0,000 mm 0,0 UV-I 0 W/m² 1,2 °C -0,7 °C 27,4 km/h (4 Bft)
04.02.2017 19:54 3,3 °C 3,3 °C 86 % 1004,9 hPa 0,0 mm 15,8 km/h (3 Bft) W 267 ° 0 min 0,000 mm 0,0 UV-I 0 W/m² 1,2 °C -0,5 °C 22,5 km/h (4 Bft)
04.02.2017 19:55 3,3 °C 3,3 °C 87 % 1004,9 hPa 0,0 mm 13,2 km/h (3 Bft) SW 217 ° 0 min 0,000 mm 0,0 UV-I 0 W/m² 1,3 °C -0,0 °C 17,7 km/h (3 Bft)
04.02.2017 19:56 3,3 °C 3,3 °C 86 % 1004,9 hPa 0,0 mm 9,8 km/h (2 Bft) W-SW 248 ° 0 min 0,000 mm 0,0 UV-I 0 W/m² 1,2 °C 0,7 °C 16,1 km/h (3 Bft)
04.02.2017 19:57 3,3 °C 3,3 °C 86 % 1004,8 hPa 0,0 mm 16,8 km/h (3 Bft) SW 231 ° 0 min 0,000 mm 0,0 UV-I 0 W/m² 1,2 °C -0,6 °C 24,1 km/h (4 Bft)
04.02.2017 19:58 3,3 °C 3,3 °C 86 % 1004,9 hPa 0,0 mm 12,0 km/h (2 Bft) W-SW 245 ° 0 min 0,000 mm 0,0 UV-I 0 W/m² 1,2 °C 0,2 °C 17,7 km/h (3 Bft)
04.02.2017 19:59 3,3 °C 3,3 °C 86 % 1004,9 hPa 0,0 mm 13,5 km/h (3 Bft) W-NW 293 ° 0 min 0,000 mm 0,0 UV-I 0 W/m² 1,2 °C -0,1 °C 25,7 km/h (4 Bft)
04.02.2017 20:00 3,3 °C 3,3 °C 86 % 1005,0 hPa 0,0 mm 13,8 km/h (3 Bft) W 261 ° 0 min 0,025 mm 0,0 UV-I 0 W/m² 1,2 °C -0,1 °C 16,1 km/h (3 Bft)
04.02.2017 20:01 3,3 °C 3,3 °C 86 % 1004,9 hPa 0,0 mm 15,7 km/h (3 Bft) W-NW 294 ° 0 min 0,000 mm 0,0 UV-I 0 W/m² 1,2 °C -0,5 °C 24,1 km/h (4 Bft)
04.02.2017 20:02 3,3 °C 3,3 °C 86 % 1004,8 hPa 0,0 mm 13,5 km/h (3 Bft) W 265 ° 0 min 0,000 mm 0,0 UV-I 0 W/m² 1,2 °C -0,1 °C 17,7 km/h (3 Bft)
04.02.2017 20:03 3,3 °C 3,3 °C 86 % 1004,9 hPa 0,0 mm 15,1 km/h (3 Bft) W-SW 256 ° 0 min 0,000 mm 0,0 UV-I 0 W/m² 1,2 °C -0,4 °C 24,1 km/h (4 Bft)
04.02.2017 20:04 3,3 °C 3,3 °C 86 % 1004,9 hPa 0,0 mm 17,1 km/h (3 Bft) W-SW 254 ° 0 min 0,000 mm 0,0 UV-I 0 W/m² 1,2 °C -0,7 °C 24,1 km/h (4 Bft)
04.02.2017 20:05 3,3 °C 3,3 °C 86 % 1004,8 hPa 0,0 mm 11,4 km/h (2 Bft) W 261 ° 0 min 0,000 mm 0,0 UV-I 0 W/m² 1,2 °C 0,3 °C 16,1 km/h (3 Bft)
04.02.2017 20:06 3,3 °C 3,3 °C 86 % 1004,9 hPa 0,0 mm 14,7 km/h (3 Bft) W-SW 251 ° 0 min 0,000 mm 0,0 UV-I 0 W/m² 1,2 °C -0,3 °C 22,5 km/h (4 Bft)
04.02.2017 20:07 3,3 °C 3,3 °C 85 % 1004,8 hPa 0,0 mm 18,0 km/h (3 Bft) W-SW 244 ° 0 min 0,000 mm 0,0 UV-I 0 W/m² 1,0 °C -0,8 °C 24,1 km/h (4 Bft)
04.02.2017 20:08 3,3 °C 3,3 °C 85 % 1004,8 hPa 0,0 mm 17,9 km/h (3 Bft) W-SW 248 ° 0 min 0,000 mm 0,0 UV-I 0 W/m² 1,0 °C -0,8 °C 27,4 km/h (4 Bft)
04.02.2017 20:09 3,3 °C 3,3 °C 85 % 1004,8 hPa 0,0 mm 15,3 km/h (3 Bft) W-SW 258 ° 0 min 0,000 mm 0,0 UV-I 0 W/m² 1,0 °C -0,4 °C 25,7 km/h (4 Bft)
04.02.2017 20:10 3,3 °C 3,3 °C 85 % 1004,8 hPa 0,0 mm 13,0 km/h (3 Bft) O 88 ° 0 min 0,000 mm 0,0 UV-I 0 W/m² 1,0 °C 0,0 °C 19,3 km/h (3 Bft)
04.02.2017 20:11 3,3 °C 3,3 °C 85 % 1004,8 hPa 0,0 mm 13,0 km/h (3 Bft) W-SW 257 ° 0 min 0,000 mm 0,0 UV-I 0 W/m² 1,0 °C 0,0 °C 19,3 km/h (3 Bft)
04.02.2017 20:12 3,3 °C 3,3 °C 85 % 1004,9 hPa 0,0 mm 11,3 km/h (2 Bft) SW 231 ° 0 min 0,000 mm 0,0 UV-I 0 W/m² 1,0 °C 0,3 °C 19,3 km/h (3 Bft)
04.02.2017 20:13 3,3 °C 3,3 °C 85 % 1004,8 hPa 0,0 mm 12,2 km/h (2 Bft) W-SW 237 ° 0 min 0,000 mm 0,0 UV-I 0 W/m² 1,0 °C 0,2 °C 22,5 km/h (4 Bft)
04.02.2017 20:14 3,4 °C 3,4 °C 85 % 1004,8 hPa 0,0 mm 15,9 km/h (3 Bft) S 186 ° 0 min 0,000 mm 0,0 UV-I 0 W/m² 1,1 °C -0,4 °C 24,1 km/h (4 Bft)
04.02.2017 20:15 3,4 °C 3,4 °C 84 % 1004,8 hPa 0,0 mm 19,5 km/h (3 Bft) W 259 ° 0 min 0,000 mm 0,0 UV-I 0 W/m² 1,0 °C -0,9 °C 30,6 km/h (5 Bft)
04.02.2017 20:16 3,4 °C 3,4 °C 84 % 1004,8 hPa 0,0 mm 13,8 km/h (3 Bft) W-SW 255 ° 0 min 0,000 mm 0,0 UV-I 0 W/m² 1,0 °C -0,0 °C 17,7 km/h (3 Bft)
04.02.2017 20:17 3,4 °C 3,4 °C 84 % 1004,7 hPa 0,0 mm 18,1 km/h (3 Bft) S-SW 211 ° 0 min 0,000 mm 0,0 UV-I 0 W/m² 1,0 °C -0,7 °C 30,6 km/h (5 Bft)
04.02.2017 20:18 3,4 °C 3,4 °C 84 % 1004,8 hPa 0,0 mm 17,8 km/h (3 Bft) W-SW 250 ° 0 min 0,000 mm 0,0 UV-I 0 W/m² 1,0 °C -0,7 °C 25,7 km/h (4 Bft)
04.02.2017 20:19 3,4 °C 3,4 °C 84 % 1004,8 hPa 0,0 mm 16,0 km/h (3 Bft) W 259 ° 0 min 0,000 mm 0,0 UV-I 0 W/m² 1,0 °C -0,4 °C 22,5 km/h (4 Bft)
04.02.2017 20:20 3,4 °C 3,4 °C 84 % 1004,8 hPa 0,0 mm 13,4 km/h (3 Bft) S 176 ° 0 min 0,000 mm 0,0 UV-I 0 W/m² 1,0 °C 0,1 °C 19,3 km/h (3 Bft)
04.02.2017 20:21 3,4 °C 3,4 °C 84 % 1004,8 hPa 0,0 mm 9,9 km/h (2 Bft) W 273 ° 0 min 0,000 mm 0,0 UV-I 0 W/m² 1,0 °C 0,8 °C 16,1 km/h (3 Bft)
04.02.2017 20:22 3,4 °C 3,4 °C 83 % 1004,7 hPa 0,0 mm 10,1 km/h (2 Bft) W-SW 252 ° 0 min 0,000 mm 0,0 UV-I 0 W/m² 0,8 °C 0,7 °C 12,9 km/h (3 Bft)
04.02.2017 20:23 3,4 °C 3,4 °C 83 % 1004,8 hPa 0,0 mm 7,4 km/h (2 Bft) W 270 ° 0 min 0,000 mm 0,0 UV-I 0 W/m² 0,8 °C 1,4 °C 12,9 km/h (3 Bft)
04.02.2017 20:24 3,4 °C 3,4 °C 83 % 1004,8 hPa 0,0 mm 11,9 km/h (2 Bft) W 264 ° 0 min 0,000 mm 0,0 UV-I 0 W/m² 0,8 °C 0,3 °C 17,7 km/h (3 Bft)
04.02.2017 20:25 3,4 °C 3,4 °C 83 % 1004,8 hPa 0,0 mm 13,8 km/h (3 Bft) S-SW 212 ° 0 min 0,000 mm 0,0 UV-I 0 W/m² 0,8 °C -0,0 °C 19,3 km/h (3 Bft)
04.02.2017 20:26 3,4 °C 3,4 °C 83 % 1004,9 hPa 0,0 mm 17,3 km/h (3 Bft) W 271 ° 0 min 0,000 mm 0,0 UV-I 0 W/m² 0,8 °C -0,6 °C 24,1 km/h (4 Bft)
04.02.2017 20:27 3,4 °C 3,4 °C 83 % 1004,8 hPa 0,0 mm 16,6 km/h (3 Bft) W-SW 257 ° 0 min 0,000 mm 0,0 UV-I 0 W/m² 0,8 °C -0,5 °C 22,5 km/h (4 Bft)
04.02.2017 20:28 3,4 °C 3,4 °C 83 % 1004,9 hPa 0,0 mm 11,0 km/h (2 Bft) W 262 ° 0 min 0,000 mm 0,0 UV-I 0 W/m² 0,8 °C 0,5 °C 22,5 km/h (4 Bft)
04.02.2017 20:29 3,4 °C 3,4 °C 83 % 1005,0 hPa 0,0 mm 14,0 km/h (3 Bft) W-SW 250 ° 0 min 0,000 mm 0,0 UV-I 0 W/m² 0,8 °C -0,1 °C 20,9 km/h (4 Bft)
04.02.2017 20:30 3,4 °C 3,4 °C 83 % 1004,9 hPa 0,0 mm 10,1 km/h (2 Bft) W 271 ° 0 min 0,000 mm 0,0 UV-I 0 W/m² 0,8 °C 0,7 °C 14,5 km/h (3 Bft)
04.02.2017 20:31 3,4 °C 3,4 °C 83 % 1004,8 hPa 0,0 mm 10,6 km/h (2 Bft) W 271 ° 0 min 0,000 mm 0,0 UV-I 0 W/m² 0,8 °C 0,6 °C 14,5 km/h (3 Bft)
04.02.2017 20:32 3,4 °C 3,4 °C 83 % 1004,9 hPa 0,0 mm 9,5 km/h (2 Bft) W 262 ° 0 min 0,000 mm 0,0 UV-I 0 W/m² 0,8 °C 0,9 °C 16,1 km/h (3 Bft)
04.02.2017 20:33 3,4 °C 3,4 °C 82 % 1005,0 hPa 0,0 mm 13,1 km/h (3 Bft) W 266 ° 0 min 0,000 mm 0,0 UV-I 0 W/m² 0,6 °C 0,1 °C 19,3 km/h (3 Bft)
04.02.2017 20:34 3,4 °C 3,4 °C 82 % 1004,9 hPa 0,0 mm 11,9 km/h (2 Bft) W-SW 255 ° 0 min 0,000 mm 0,0 UV-I 0 W/m² 0,6 °C 0,3 °C 22,5 km/h (4 Bft)
04.02.2017 20:35 3,4 °C 3,4 °C 82 % 1004,9 hPa 0,0 mm 16,2 km/h (3 Bft) W-SW 256 ° 0 min 0,000 mm 0,0 UV-I 0 W/m² 0,6 °C -0,4 °C 24,1 km/h (4 Bft)
04.02.2017 20:36 3,4 °C 3,4 °C 82 % 1004,9 hPa 0,0 mm 16,3 km/h (3 Bft) SW 231 ° 0 min 0,000 mm 0,0 UV-I 0 W/m² 0,6 °C -0,4 °C 25,7 km/h (4 Bft)
04.02.2017 20:37 3,4 °C 3,5 °C 82 % 1004,9 hPa 0,0 mm 12,2 km/h (2 Bft) W-NW 288 ° 0 min 0,000 mm 0,0 UV-I 0 W/m² 0,6 °C 0,3 °C 20,9 km/h (4 Bft)
04.02.2017 20:38 3,4 °C 3,5 °C 82 % 1004,9 hPa 0,0 mm 10,8 km/h (2 Bft) W 281 ° 0 min 0,000 mm 0,0 UV-I 0 W/m² 0,6 °C 0,6 °C 16,1 km/h (3 Bft)
04.02.2017 20:39 3,4 °C 3,4 °C 82 % 1004,9 hPa 0,0 mm 8,5 km/h (2 Bft) W-SW 258 ° 0 min 0,000 mm 0,0 UV-I 0 W/m² 0,6 °C 1,1 °C 14,5 km/h (3 Bft)
04.02.2017 20:40 3,5 °C 3,5 °C 82 % 1005,0 hPa 0,0 mm 8,9 km/h (2 Bft) W-NW 291 ° 0 min 0,000 mm 0,0 UV-I 0 W/m² 0,7 °C 1,1 °C 12,9 km/h (3 Bft)
04.02.2017 20:41 3,4 °C 3,5 °C 82 % 1005,0 hPa 0,0 mm 13,2 km/h (3 Bft) W 270 ° 0 min 0,000 mm 0,0 UV-I 0 W/m² 0,6 °C 0,1 °C 17,7 km/h (3 Bft)
04.02.2017 20:42 3,4 °C 3,4 °C 82 % 1005,1 hPa 0,0 mm 15,4 km/h (3 Bft) SW 236 ° 0 min 0,000 mm 0,0 UV-I 0 W/m² 0,6 °C -0,3 °C 20,9 km/h (4 Bft)
04.02.2017 20:43 3,4 °C 3,5 °C 82 % 1005,1 hPa 0,0 mm 10,6 km/h (2 Bft) W-SW 251 ° 0 min 0,000 mm 0,0 UV-I 0 W/m² 0,6 °C 0,6 °C 17,7 km/h (3 Bft)
04.02.2017 20:44 3,4 °C 3,4 °C 82 % 1005,0 hPa 0,0 mm 10,8 km/h (2 Bft) SW 234 ° 0 min 0,000 mm 0,0 UV-I 0 W/m² 0,6 °C 0,6 °C 17,7 km/h (3 Bft)
04.02.2017 20:45 3,4 °C 3,4 °C 82 % 1005,0 hPa 0,0 mm 11,5 km/h (2 Bft) W 268 ° 0 min 0,000 mm 0,0 UV-I 0 W/m² 0,6 °C 0,4 °C 16,1 km/h (3 Bft)
04.02.2017 20:46 3,4 °C 3,4 °C 82 % 1005,0 hPa 0,0 mm 9,5 km/h (2 Bft) W-SW 257 ° 0 min 0,000 mm 0,0 UV-I 0 W/m² 0,6 °C 0,9 °C 12,9 km/h (3 Bft)
04.02.2017 20:47 3,4 °C 3,4 °C 82 % 1005,0 hPa 0,0 mm 12,7 km/h (3 Bft) SW 236 ° 0 min 0,000 mm 0,0 UV-I 0 W/m² 0,6 °C 0,2 °C 16,1 km/h (3 Bft)
04.02.2017 20:48 3,4 °C 3,4 °C 82 % 1005,0 hPa 0,0 mm 14,5 km/h (3 Bft) W-SW 256 ° 0 min 0,000 mm 0,0 UV-I 0 W/m² 0,6 °C -0,1 °C 24,1 km/h (4 Bft)
04.02.2017 20:49 3,4 °C 3,4 °C 82 % 1005,0 hPa 0,0 mm 15,6 km/h (3 Bft) W-SW 250 ° 0 min 0,000 mm 0,0 UV-I 0 W/m² 0,6 °C -0,3 °C 24,1 km/h (4 Bft)
04.02.2017 20:50 3,4 °C 3,4 °C 82 % 1005,1 hPa 0,0 mm 14,2 km/h (3 Bft) W-SW 255 ° 0 min 0,000 mm 0,0 UV-I 0 W/m² 0,6 °C -0,1 °C 17,7 km/h (3 Bft)
04.02.2017 20:51 3,4 °C 3,4 °C 82 % 1004,9 hPa 0,0 mm 17,6 km/h (3 Bft) W-SW 242 ° 0 min 0,000 mm 0,0 UV-I 0 W/m² 0,6 °C -0,6 °C 25,7 km/h (4 Bft)
04.02.2017 20:52 3,4 °C 3,4 °C 82 % 1005,1 hPa 0,0 mm 14,5 km/h (3 Bft) W-SW 250 ° 0 min 0,000 mm 0,0 UV-I 0 W/m² 0,6 °C -0,1 °C 20,9 km/h (4 Bft)
04.02.2017 20:53 3,4 °C 3,4 °C 82 % 1005,2 hPa 0,0 mm 10,2 km/h (2 Bft) W-SW 243 ° 0 min 0,000 mm 0,0 UV-I 0 W/m² 0,6 °C 0,7 °C 17,7 km/h (3 Bft)
04.02.2017 20:54 3,4 °C 3,4 °C 82 % 1005,1 hPa 0,0 mm 17,0 km/h (3 Bft) W 270 ° 0 min 0,000 mm 0,0 UV-I 0 W/m² 0,6 °C -0,5 °C 24,1 km/h (4 Bft)
04.02.2017 20:55 3,4 °C 3,4 °C 83 % 1005,1 hPa 0,0 mm 13,3 km/h (3 Bft) W-SW 247 ° 0 min 0,000 mm 0,0 UV-I 0 W/m² 0,8 °C 0,1 °C 25,7 km/h (4 Bft)
04.02.2017 20:56 3,4 °C 3,4 °C 83 % 1005,1 hPa 0,0 mm 9,0 km/h (2 Bft) W 277 ° 0 min 0,000 mm 0,0 UV-I 0 W/m² 0,8 °C 1,0 °C 14,5 km/h (3 Bft)
04.02.2017 20:57 3,4 °C 3,4 °C 83 % 1005,1 hPa 0,0 mm 9,7 km/h (2 Bft) W-SW 246 ° 0 min 0,000 mm 0,0 UV-I 0 W/m² 0,8 °C 0,8 °C 16,1 km/h (3 Bft)
04.02.2017 20:58 3,3 °C 3,4 °C 83 % 1005,1 hPa 0,0 mm 13,9 km/h (3 Bft) W-NW 286 ° 0 min 0,000 mm 0,0 UV-I 0 W/m² 0,7 °C -0,2 °C 19,3 km/h (3 Bft)
04.02.2017 20:59 3,3 °C 3,3 °C 83 % 1005,1 hPa 0,0 mm 8,7 km/h (2 Bft) W 267 ° 0 min 0,000 mm 0,0 UV-I 0 W/m² 0,7 °C 0,9 °C 19,3 km/h (3 Bft)
04.02.2017 21:00 3,3 °C 3,3 °C 83 % 1005,1 hPa 0,0 mm 6,5 km/h (2 Bft) SW 233 ° 0 min 0,000 mm 0,0 UV-I 0 W/m² 0,7 °C 1,6 °C 12,9 km/h (3 Bft)
04.02.2017 21:01 3,3 °C 3,3 °C 83 % 1005,1 hPa 0,0 mm 13,7 km/h (3 Bft) W 268 ° 0 min 0,025 mm 0,0 UV-I 0 W/m² 0,7 °C -0,1 °C 19,3 km/h (3 Bft)
04.02.2017 21:02 3,3 °C 3,3 °C 83 % 1005,1 hPa 0,0 mm 13,8 km/h (3 Bft) W-SW 246 ° 0 min 0,000 mm 0,0 UV-I 0 W/m² 0,7 °C -0,1 °C 24,1 km/h (4 Bft)
04.02.2017 21:03 3,3 °C 3,3 °C 83 % 1005,1 hPa 0,0 mm 7,7 km/h (2 Bft) W 263 ° 0 min 0,000 mm 0,0 UV-I 0 W/m² 0,7 °C 1,2 °C 12,9 km/h (3 Bft)
04.02.2017 21:04 3,3 °C 3,3 °C 83 % 1005,1 hPa 0,0 mm 8,0 km/h (2 Bft) W 261 ° 0 min 0,000 mm 0,0 UV-I 0 W/m² 0,7 °C 1,1 °C 19,3 km/h (3 Bft)
04.02.2017 21:05 3,3 °C 3,3 °C 83 % 1005,1 hPa 0,0 mm 16,8 km/h (3 Bft) S-SW 209 ° 0 min 0,000 mm 0,0 UV-I 0 W/m² 0,7 °C -0,6 °C 20,9 km/h (4 Bft)
04.02.2017 21:06 3,3 °C 3,3 °C 83 % 1005,0 hPa 0,0 mm 15,7 km/h (3 Bft) W-SW 257 ° 0 min 0,000 mm 0,0 UV-I 0 W/m² 0,7 °C -0,5 °C 24,1 km/h (4 Bft)
04.02.2017 21:07 3,3 °C 3,3 °C 82 % 1005,0 hPa 0,0 mm 16,3 km/h (3 Bft) W 271 ° 0 min 0,000 mm 0,0 UV-I 0 W/m² 0,5 °C -0,6 °C 22,5 km/h (4 Bft)
04.02.2017 21:08 3,3 °C 3,3 °C 82 % 1005,1 hPa 0,0 mm 10,2 km/h (2 Bft) W 265 ° 0 min 0,000 mm 0,0 UV-I 0 W/m² 0,5 °C 0,6 °C 14,5 km/h (3 Bft)
04.02.2017 21:09 3,3 °C 3,3 °C 82 % 1005,1 hPa 0,0 mm 11,0 km/h (2 Bft) W-SW 242 ° 0 min 0,000 mm 0,0 UV-I 0 W/m² 0,5 °C 0,4 °C 19,3 km/h (3 Bft)
04.02.2017 21:10 3,3 °C 3,3 °C 82 % 1005,1 hPa 0,0 mm 12,1 km/h (2 Bft) W 278 ° 0 min 0,000 mm 0,0 UV-I 0 W/m² 0,5 °C 0,2 °C 22,5 km/h (4 Bft)
04.02.2017 21:11 3,3 °C 3,3 °C 82 % 1005,1 hPa 0,0 mm 14,0 km/h (3 Bft) W-SW 257 ° 0 min 0,000 mm 0,0 UV-I 0 W/m² 0,5 °C -0,2 °C 22,5 km/h (4 Bft)
04.02.2017 21:12 3,3 °C 3,3 °C 82 % 1005,1 hPa 0,0 mm 20,6 km/h (4 Bft) W 267 ° 0 min 0,000 mm 0,0 UV-I 0 W/m² 0,5 °C -1,2 °C 32,2 km/h (5 Bft)
04.02.2017 21:13 3,3 °C 3,3 °C 81 % 1005,1 hPa 0,0 mm 18,4 km/h (3 Bft) SW 232 ° 0 min 0,000 mm 0,0 UV-I 0 W/m² 0,4 °C -0,9 °C 24,1 km/h (4 Bft)
04.02.2017 21:14 3,4 °C 3,4 °C 81 % 1005,0 hPa 0,0 mm 14,5 km/h (3 Bft) W-SW 244 ° 0 min 0,000 mm 0,0 UV-I 0 W/m² 0,5 °C -0,1 °C 19,3 km/h (3 Bft)
04.02.2017 21:15 3,4 °C 3,4 °C 81 % 1005,0 hPa 0,0 mm 25,1 km/h (4 Bft) W-SW 252 ° 0 min 0,000 mm 0,0 UV-I 0 W/m² 0,5 °C -1,6 °C 43,5 km/h (6 Bft)
04.02.2017 21:16 3,4 °C 3,4 °C 80 % 1005,0 hPa 0,0 mm 24,6 km/h (4 Bft) W-SW 250 ° 0 min 0,000 mm 0,0 UV-I 0 W/m² 0,3 °C -1,5 °C 37,0 km/h (5 Bft)
04.02.2017 21:17 3,4 °C 3,5 °C 80 % 1005,1 hPa 0,0 mm 20,7 km/h (4 Bft) W 264 ° 0 min 0,000 mm 0,0 UV-I 0 W/m² 0,3 °C -1,0 °C 30,6 km/h (5 Bft)
04.02.2017 21:18 3,5 °C 3,5 °C 80 % 1005,0 hPa 0,0 mm 25,0 km/h (4 Bft) W 273 ° 0 min 0,000 mm 0,0 UV-I 0 W/m² 0,4 °C -1,4 °C 33,8 km/h (5 Bft)
04.02.2017 21:19 3,6 °C 3,6 °C 80 % 1005,1 hPa 0,0 mm 22,5 km/h (4 Bft) W-SW 248 ° 0 min 0,000 mm 0,0 UV-I 0 W/m² 0,5 °C -1,0 °C 32,2 km/h (5 Bft)
04.02.2017 21:20 3,6 °C 3,6 °C 80 % 1005,1 hPa 0,0 mm 18,1 km/h (3 Bft) W-SW 237 ° 0 min 0,000 mm 0,0 UV-I 0 W/m² 0,5 °C -0,4 °C 24,1 km/h (4 Bft)
04.02.2017 21:21 3,6 °C 3,6 °C 80 % 1005,1 hPa 0,0 mm 13,0 km/h (3 Bft) W-SW 251 ° 0 min 0,000 mm 0,0 UV-I 0 W/m² 0,5 °C 0,4 °C 19,3 km/h (3 Bft)
04.02.2017 21:22 3,6 °C 3,6 °C 80 % 1005,1 hPa 0,0 mm 18,1 km/h (3 Bft) W 277 ° 0 min 0,000 mm 0,0 UV-I 0 W/m² 0,5 °C -0,4 °C 25,7 km/h (4 Bft)
04.02.2017 21:23 3,6 °C 3,6 °C 80 % 1005,2 hPa 0,0 mm 12,8 km/h (3 Bft) W-SW 248 ° 0 min 0,000 mm 0,0 UV-I 0 W/m² 0,5 °C 0,4 °C 20,9 km/h (4 Bft)
04.02.2017 21:24 3,6 °C 3,6 °C 80 % 1005,2 hPa 0,0 mm 14,2 km/h (3 Bft) W 269 ° 0 min 0,000 mm 0,0 UV-I 0 W/m² 0,5 °C 0,2 °C 17,7 km/h (3 Bft)
04.02.2017 21:25 3,6 °C 3,6 °C 80 % 1005,1 hPa 0,0 mm 12,6 km/h (3 Bft) W-SW 253 ° 0 min 0,000 mm 0,0 UV-I 0 W/m² 0,5 °C 0,4 °C 24,1 km/h (4 Bft)
04.02.2017 21:26 3,6 °C 3,6 °C 80 % 1005,2 hPa 0,0 mm 14,3 km/h (3 Bft) W-NW 290 ° 0 min 0,000 mm 0,0 UV-I 0 W/m² 0,5 °C 0,1 °C 19,3 km/h (3 Bft)
04.02.2017 21:27 3,6 °C 3,6 °C 80 % 1005,2 hPa 0,0 mm 11,5 km/h (2 Bft) W-SW 244 ° 0 min 0,000 mm 0,0 UV-I 0 W/m² 0,5 °C 0,7 °C 16,1 km/h (3 Bft)
04.02.2017 21:28 3,6 °C 3,6 °C 80 % 1005,2 hPa 0,0 mm 17,8 km/h (3 Bft) SW 233 ° 0 min 0,000 mm 0,0 UV-I 0 W/m² 0,5 °C -0,4 °C 27,4 km/h (4 Bft)
04.02.2017 21:29 3,6 °C 3,6 °C 79 % 1005,3 hPa 0,0 mm 11,5 km/h (2 Bft) SW 229 ° 0 min 0,000 mm 0,0 UV-I 0 W/m² 0,3 °C 0,7 °C 19,3 km/h (3 Bft)
04.02.2017 21:30 3,6 °C 3,6 °C 80 % 1005,2 hPa 0,0 mm 10,9 km/h (2 Bft) W 261 ° 0 min 0,000 mm 0,0 UV-I 0 W/m² 0,5 °C 0,8 °C 17,7 km/h (3 Bft)
04.02.2017 21:31 3,6 °C 3,7 °C 80 % 1005,2 hPa 0,0 mm 11,9 km/h (2 Bft) SW 216 ° 0 min 0,000 mm 0,0 UV-I 0 W/m² 0,5 °C 0,6 °C 17,7 km/h (3 Bft)
04.02.2017 21:32 3,6 °C 3,7 °C 80 % 1005,3 hPa 0,0 mm 11,1 km/h (2 Bft) S-SO 157 ° 0 min 0,000 mm 0,0 UV-I 0 W/m² 0,5 °C 0,7 °C 14,5 km/h (3 Bft)
04.02.2017 21:33 3,7 °C 3,7 °C 80 % 1005,2 hPa 0,0 mm 5,5 km/h (1 Bft) SW 221 ° 0 min 0,000 mm 0,0 UV-I 0 W/m² 0,6 °C 2,4 °C 8,0 km/h (2 Bft)
04.02.2017 21:34 3,6 °C 3,7 °C 80 % 1005,2 hPa 0,0 mm 9,2 km/h (2 Bft) W-SW 258 ° 0 min 0,000 mm 0,0 UV-I 0 W/m² 0,5 °C 1,2 °C 16,1 km/h (3 Bft)
04.02.2017 21:35 3,7 °C 3,7 °C 80 % 1005,2 hPa 0,0 mm 11,8 km/h (2 Bft) W-SW 240 ° 0 min 0,000 mm 0,0 UV-I 0 W/m² 0,6 °C 0,7 °C 20,9 km/h (4 Bft)
04.02.2017 21:36 3,6 °C 3,7 °C 80 % 1005,2 hPa 0,0 mm 10,3 km/h (2 Bft) S-SW 209 ° 0 min 0,000 mm 0,0 UV-I 0 W/m² 0,5 °C 0,9 °C 14,5 km/h (3 Bft)
04.02.2017 21:37 3,6 °C 3,6 °C 80 % 1005,3 hPa 0,0 mm 12,5 km/h (3 Bft) W-SW 244 ° 0 min 0,000 mm 0,0 UV-I 0 W/m² 0,5 °C 0,5 °C 17,7 km/h (3 Bft)
04.02.2017 21:38 3,6 °C 3,6 °C 80 % 1005,3 hPa 0,0 mm 9,5 km/h (2 Bft) W 265 ° 0 min 0,000 mm 0,0 UV-I 0 W/m² 0,5 °C 1,1 °C 16,1 km/h (3 Bft)
04.02.2017 21:39 3,6 °C 3,6 °C 79 % 1005,2 hPa 0,0 mm 14,2 km/h (3 Bft) W-SW 246 ° 0 min 0,000 mm 0,0 UV-I 0 W/m² 0,3 °C 0,2 °C 20,9 km/h (4 Bft)
04.02.2017 21:40 3,6 °C 3,6 °C 80 % 1005,3 hPa 0,0 mm 13,0 km/h (3 Bft) W-NW 290 ° 0 min 0,000 mm 0,0 UV-I 0 W/m² 0,5 °C 0,4 °C 25,7 km/h (4 Bft)
04.02.2017 21:41 3,6 °C 3,6 °C 80 % 1005,4 hPa 0,0 mm 11,4 km/h (2 Bft) N 355 ° 0 min 0,000 mm 0,0 UV-I 0 W/m² 0,5 °C 0,7 °C 20,9 km/h (4 Bft)
04.02.2017 21:42 3,6 °C 3,6 °C 79 % 1005,3 hPa 0,0 mm 12,7 km/h (3 Bft) S 190 ° 0 min 0,000 mm 0,0 UV-I 0 W/m² 0,3 °C 0,4 °C 22,5 km/h (4 Bft)
04.02.2017 21:43 3,6 °C 3,6 °C 80 % 1005,2 hPa 0,0 mm 13,5 km/h (3 Bft) SW 221 ° 0 min 0,000 mm 0,0 UV-I 0 W/m² 0,5 °C 0,3 °C 20,9 km/h (4 Bft)
04.02.2017 21:44 3,6 °C 3,6 °C 80 % 1005,2 hPa 0,0 mm 6,0 km/h (2 Bft) W 275 ° 0 min 0,000 mm 0,0 UV-I 0 W/m² 0,5 °C 2,1 °C 14,5 km/h (3 Bft)
04.02.2017 21:45 3,6 °C 3,6 °C 80 % 1005,1 hPa 0,0 mm 11,9 km/h (2 Bft) W-SW 238 ° 0 min 0,000 mm 0,0 UV-I 0 W/m² 0,5 °C 0,6 °C 19,3 km/h (3 Bft)
04.02.2017 21:46 3,6 °C 3,6 °C 80 % 1005,2 hPa 0,0 mm 3,8 km/h (1 Bft) SW 231 ° 0 min 0,000 mm 0,0 UV-I 0 W/m² 0,5 °C 3,6 °C 6,4 km/h (2 Bft)
04.02.2017 21:47 3,6 °C 3,6 °C 80 % 1005,2 hPa 0,0 mm 5,1 km/h (1 Bft) W-SW 256 ° 0 min 0,000 mm 0,0 UV-I 0 W/m² 0,5 °C 2,5 °C 6,4 km/h (2 Bft)
04.02.2017 21:48 3,6 °C 3,6 °C 80 % 1005,2 hPa 0,0 mm 11,9 km/h (2 Bft) SW 219 ° 0 min 0,000 mm 0,0 UV-I 0 W/m² 0,5 °C 0,6 °C 17,7 km/h (3 Bft)
04.02.2017 21:49 3,6 °C 3,6 °C 80 % 1005,2 hPa 0,0 mm 9,6 km/h (2 Bft) W-SW 247 ° 0 min 0,000 mm 0,0 UV-I 0 W/m² 0,5 °C 1,1 °C 12,9 km/h (3 Bft)
04.02.2017 21:50 3,6 °C 3,6 °C 80 % 1005,2 hPa 0,0 mm 12,9 km/h (3 Bft) W-SW 257 ° 0 min 0,000 mm 0,0 UV-I 0 W/m² 0,5 °C 0,4 °C 22,5 km/h (4 Bft)
04.02.2017 21:51 3,6 °C 3,6 °C 79 % 1005,2 hPa 0,0 mm 10,0 km/h (2 Bft) SW 227 ° 0 min 0,000 mm 0,0 UV-I 0 W/m² 0,3 °C 1,0 °C 19,3 km/h (3 Bft)
04.02.2017 21:52 3,6 °C 3,6 °C 80 % 1005,4 hPa 0,0 mm 6,0 km/h (2 Bft) W-SW 249 ° 0 min 0,000 mm 0,0 UV-I 0 W/m² 0,5 °C 2,1 °C 9,7 km/h (2 Bft)
04.02.2017 21:53 3,6 °C 3,6 °C 79 % 1005,3 hPa 0,0 mm 5,1 km/h (1 Bft) S-SW 213 ° 0 min 0,000 mm 0,0 UV-I 0 W/m² 0,3 °C 2,5 °C 8,0 km/h (2 Bft)
04.02.2017 21:54 3,6 °C 3,6 °C 79 % 1005,4 hPa 0,0 mm 7,1 km/h (2 Bft) SW 236 ° 0 min 0,000 mm 0,0 UV-I 0 W/m² 0,3 °C 1,8 °C 11,3 km/h (2 Bft)
04.02.2017 21:55 3,6 °C 3,6 °C 80 % 1005,4 hPa 0,0 mm 5,2 km/h (1 Bft) S-SW 207 ° 0 min 0,000 mm 0,0 UV-I 0 W/m² 0,5 °C 2,4 °C 11,3 km/h (2 Bft)
04.02.2017 21:56 3,5 °C 3,6 °C 79 % 1005,5 hPa 0,0 mm 9,2 km/h (2 Bft) SW 235 ° 0 min 0,000 mm 0,0 UV-I 0 W/m² 0,2 °C 1,1 °C 16,1 km/h (3 Bft)
04.02.2017 21:57 3,6 °C 3,6 °C 79 % 1005,5 hPa 0,0 mm 10,1 km/h (2 Bft) S-SW 195 ° 0 min 0,000 mm 0,0 UV-I 0 W/m² 0,3 °C 1,0 °C 14,5 km/h (3 Bft)
04.02.2017 21:58 3,5 °C 3,6 °C 79 % 1005,4 hPa 0,0 mm 6,4 km/h (2 Bft) W-SW 252 ° 0 min 0,000 mm 0,0 UV-I 0 W/m² 0,2 °C 1,9 °C 9,7 km/h (2 Bft)
04.02.2017 21:59 3,6 °C 3,6 °C 79 % 1005,4 hPa 0,0 mm 4,8 km/h (1 Bft) SW 231 ° 0 min 0,000 mm 0,0 UV-I 0 W/m² 0,3 °C 2,6 °C 6,4 km/h (2 Bft)
04.02.2017 22:00 3,6 °C 3,6 °C 79 % 1005,4 hPa 0,0 mm 10,1 km/h (2 Bft) W 260 ° 0 min 0,000 mm 0,0 UV-I 0 W/m² 0,3 °C 1,0 °C 16,1 km/h (3 Bft)
04.02.2017 22:01 3,6 °C 3,6 °C 79 % 1005,3 hPa 0,0 mm 5,5 km/h (1 Bft) SW 219 ° 0 min 0,026 mm 0,0 UV-I 0 W/m² 0,3 °C 2,3 °C 8,0 km/h (2 Bft)
04.02.2017 22:02 3,6 °C 3,6 °C 79 % 1005,4 hPa 0,0 mm 3,9 km/h (1 Bft) W-SW 240 ° 0 min 0,000 mm 0,0 UV-I 0 W/m² 0,3 °C 3,6 °C 4,8 km/h (1 Bft)
04.02.2017 22:03 3,6 °C 3,6 °C 79 % 1005,4 hPa 0,0 mm 7,5 km/h (2 Bft) SW 225 ° 0 min 0,000 mm 0,0 UV-I 0 W/m² 0,3 °C 1,6 °C 11,3 km/h (2 Bft)
04.02.2017 22:04 3,6 °C 3,6 °C 79 % 1005,5 hPa 0,0 mm 13,7 km/h (3 Bft) W-SW 254 ° 0 min 0,000 mm 0,0 UV-I 0 W/m² 0,3 °C 0,2 °C 20,9 km/h (4 Bft)
04.02.2017 22:05 3,6 °C 3,6 °C 79 % 1005,4 hPa 0,0 mm 10,0 km/h (2 Bft) W-SW 242 ° 0 min 0,000 mm 0,0 UV-I 0 W/m² 0,3 °C 1,0 °C 14,5 km/h (3 Bft)
04.02.2017 22:06 3,5 °C 3,6 °C 79 % 1005,4 hPa 0,0 mm 10,1 km/h (2 Bft) SW 217 ° 0 min 0,000 mm 0,0 UV-I 0 W/m² 0,2 °C 0,8 °C 16,1 km/h (3 Bft)
04.02.2017 22:07 3,5 °C 3,6 °C 79 % 1005,4 hPa 0,0 mm 6,2 km/h (2 Bft) SW 234 ° 0 min 0,000 mm 0,0 UV-I 0 W/m² 0,2 °C 1,9 °C 11,3 km/h (2 Bft)
04.02.2017 22:08 3,5 °C 3,5 °C 79 % 1005,3 hPa 0,0 mm 5,0 km/h (1 Bft) SW 215 ° 0 min 0,000 mm 0,0 UV-I 0 W/m² 0,2 °C 2,4 °C 8,0 km/h (2 Bft)
04.02.2017 22:09 3,5 °C 3,6 °C 79 % 1005,4 hPa 0,0 mm 10,4 km/h (2 Bft) W 267 ° 0 min 0,000 mm 0,0 UV-I 0 W/m² 0,2 °C 0,8 °C 16,1 km/h (3 Bft)
04.02.2017 22:10 3,5 °C 3,5 °C 79 % 1005,5 hPa 0,0 mm 12,3 km/h (3 Bft) W-SW 248 ° 0 min 0,000 mm 0,0 UV-I 0 W/m² 0,2 °C 0,4 °C 17,7 km/h (3 Bft)
04.02.2017 22:11 3,5 °C 3,5 °C 79 % 1005,5 hPa 0,0 mm 8,5 km/h (2 Bft) S 187 ° 0 min 0,000 mm 0,0 UV-I 0 W/m² 0,2 °C 1,2 °C 12,9 km/h (3 Bft)
04.02.2017 22:12 3,5 °C 3,5 °C 78 % 1005,4 hPa 0,0 mm 9,7 km/h (2 Bft) W 273 ° 0 min 0,000 mm 0,0 UV-I 0 W/m² 0,0 °C 0,9 °C 19,3 km/h (3 Bft)
04.02.2017 22:13 3,5 °C 3,5 °C 78 % 1005,5 hPa 0,0 mm 5,8 km/h (2 Bft) SW 221 ° 0 min 0,000 mm 0,0 UV-I 0 W/m² 0,0 °C 2,1 °C 16,1 km/h (3 Bft)
04.02.2017 22:14 3,5 °C 3,5 °C 78 % 1005,5 hPa 0,0 mm 6,9 km/h (2 Bft) W 263 ° 0 min 0,000 mm 0,0 UV-I 0 W/m² 0,0 °C 1,7 °C 12,9 km/h (3 Bft)
04.02.2017 22:15 3,5 °C 3,5 °C 78 % 1005,5 hPa 0,0 mm 15,1 km/h (3 Bft) W-SW 254 ° 0 min 0,000 mm 0,0 UV-I 0 W/m² 0,0 °C -0,1 °C 19,3 km/h (3 Bft)
04.02.2017 22:16 3,5 °C 3,5 °C 78 % 1005,6 hPa 0,0 mm 12,9 km/h (3 Bft) W-SW 248 ° 0 min 0,000 mm 0,0 UV-I 0 W/m² 0,0 °C 0,3 °C 17,7 km/h (3 Bft)
04.02.2017 22:17 3,5 °C 3,5 °C 78 % 1005,6 hPa 0,0 mm 8,9 km/h (2 Bft) S-SW 201 ° 0 min 0,000 mm 0,0 UV-I 0 W/m² 0,0 °C 1,1 °C 16,1 km/h (3 Bft)
04.02.2017 22:18 3,5 °C 3,5 °C 77 % 1005,5 hPa 0,0 mm 13,3 km/h (3 Bft) SW 230 ° 0 min 0,000 mm 0,0 UV-I 0 W/m² -0,1 °C 0,2 °C 19,3 km/h (3 Bft)
04.02.2017 22:19 3,5 °C 3,5 °C 77 % 1005,6 hPa 0,0 mm 11,6 km/h (2 Bft) W-SW 254 ° 0 min 0,000 mm 0,0 UV-I 0 W/m² -0,1 °C 0,5 °C 17,7 km/h (3 Bft)
04.02.2017 22:20 3,5 °C 3,5 °C 77 % 1005,6 hPa 0,0 mm 4,8 km/h (1 Bft) W-SW 255 ° 0 min 0,000 mm 0,0 UV-I 0 W/m² -0,1 °C 2,5 °C 8,0 km/h (2 Bft)
04.02.2017 22:21 3,5 °C 3,6 °C 78 % 1005,6 hPa 0,0 mm 5,6 km/h (1 Bft) W-SW 238 ° 0 min 0,000 mm 0,0 UV-I 0 W/m² 0,0 °C 2,1 °C 11,3 km/h (2 Bft)
04.02.2017 22:22 3,6 °C 3,6 °C 78 % 1005,6 hPa 0,0 mm 3,9 km/h (1 Bft) W 273 ° 0 min 0,000 mm 0,0 UV-I 0 W/m² 0,1 °C 3,6 °C 6,4 km/h (2 Bft)
04.02.2017 22:23 3,5 °C 3,6 °C 78 % 1005,6 hPa 0,0 mm 4,2 km/h (1 Bft) W 259 ° 0 min 0,000 mm 0,0 UV-I 0 W/m² 0,0 °C 3,5 °C 6,4 km/h (2 Bft)
04.02.2017 22:24 3,5 °C 3,6 °C 77 % 1005,6 hPa 0,0 mm 3,6 km/h (1 Bft) S 188 ° 0 min 0,000 mm 0,0 UV-I 0 W/m² -0,1 °C 3,5 °C 6,4 km/h (2 Bft)
04.02.2017 22:25 3,5 °C 3,5 °C 77 % 1005,6 hPa 0,0 mm 4,2 km/h (1 Bft) W-SW 240 ° 0 min 0,000 mm 0,0 UV-I 0 W/m² -0,1 °C 3,5 °C 6,4 km/h (2 Bft)
04.02.2017 22:26 3,5 °C 3,6 °C 77 % 1005,6 hPa 0,0 mm 9,1 km/h (2 Bft) W 261 ° 0 min 0,000 mm 0,0 UV-I 0 W/m² -0,1 °C 1,1 °C 19,3 km/h (3 Bft)
04.02.2017 22:27 3,5 °C 3,6 °C 76 % 1005,6 hPa 0,0 mm 12,3 km/h (3 Bft) SW 222 ° 0 min 0,000 mm 0,0 UV-I 0 W/m² -0,3 °C 0,4 °C 19,3 km/h (3 Bft)
04.02.2017 22:28 3,6 °C 3,6 °C 76 % 1005,6 hPa 0,0 mm 3,6 km/h (1 Bft) SW 221 ° 0 min 0,000 mm 0,0 UV-I 0 W/m² -0,2 °C 3,6 °C 6,4 km/h (2 Bft)
04.02.2017 22:29 3,6 °C 3,6 °C 76 % 1005,5 hPa 0,0 mm 3,4 km/h (1 Bft) SW 217 ° 0 min 0,000 mm 0,0 UV-I 0 W/m² -0,2 °C 3,6 °C 4,8 km/h (1 Bft)
04.02.2017 22:30 3,6 °C 3,6 °C 76 % 1005,6 hPa 0,0 mm 2,1 km/h (1 Bft) S 186 ° 0 min 0,000 mm 0,0 UV-I 0 W/m² -0,2 °C 3,6 °C 6,4 km/h (2 Bft)
04.02.2017 22:31 3,6 °C 3,6 °C 76 % 1005,6 hPa 0,0 mm 11,3 km/h (2 Bft) S-SW 205 ° 0 min 0,000 mm 0,0 UV-I 0 W/m² -0,2 °C 0,7 °C 16,1 km/h (3 Bft)
04.02.2017 22:32 3,6 °C 3,6 °C 76 % 1005,6 hPa 0,0 mm 10,4 km/h (2 Bft) W-SW 249 ° 0 min 0,000 mm 0,0 UV-I 0 W/m² -0,2 °C 0,9 °C 20,9 km/h (4 Bft)
04.02.2017 22:33 3,6 °C 3,6 °C 76 % 1005,7 hPa 0,0 mm 10,1 km/h (2 Bft) SW 234 ° 0 min 0,000 mm 0,0 UV-I 0 W/m² -0,2 °C 1,0 °C 14,5 km/h (3 Bft)
04.02.2017 22:34 3,6 °C 3,6 °C 76 % 1005,7 hPa 0,0 mm 4,2 km/h (1 Bft) W-SW 249 ° 0 min 0,000 mm 0,0 UV-I 0 W/m² -0,2 °C 3,6 °C 8,0 km/h (2 Bft)
04.02.2017 22:35 3,6 °C 3,6 °C 76 % 1005,7 hPa 0,0 mm 2,1 km/h (1 Bft) W 267 ° 0 min 0,000 mm 0,0 UV-I 0 W/m² -0,2 °C 3,6 °C 3,2 km/h (1 Bft)
04.02.2017 22:36 3,6 °C 3,6 °C 76 % 1005,8 hPa 0,0 mm 6,0 km/h (2 Bft) S-SW 199 ° 0 min 0,000 mm 0,0 UV-I 0 W/m² -0,2 °C 2,1 °C 8,0 km/h (2 Bft)
04.02.2017 22:37 3,6 °C 3,6 °C 76 % 1005,8 hPa 0,0 mm 4,7 km/h (1 Bft) S-SW 207 ° 0 min 0,000 mm 0,0 UV-I 0 W/m² -0,2 °C 2,6 °C 9,7 km/h (2 Bft)
04.02.2017 22:38 3,6 °C 3,6 °C 75 % 1005,7 hPa 0,0 mm 6,6 km/h (2 Bft) S 181 ° 0 min 0,000 mm 0,0 UV-I 0 W/m² -0,4 °C 1,9 °C 9,7 km/h (2 Bft)
04.02.2017 22:39 3,7 °C 3,7 °C 75 % 1005,8 hPa 0,0 mm 3,0 km/h (1 Bft) S 177 ° 0 min 0,000 mm 0,0 UV-I 0 W/m² -0,3 °C 3,7 °C 8,0 km/h (2 Bft)
04.02.2017 22:40 3,7 °C 3,7 °C 75 % 1005,8 hPa 0,0 mm 4,1 km/h (1 Bft) W-SW 250 ° 0 min 0,000 mm 0,0 UV-I 0 W/m² -0,3 °C 3,7 °C 8,0 km/h (2 Bft)
04.02.2017 22:41 3,7 °C 3,7 °C 75 % 1005,8 hPa 0,0 mm 2,5 km/h (1 Bft) SW 216 ° 0 min 0,000 mm 0,0 UV-I 0 W/m² -0,3 °C 3,7 °C 4,8 km/h (1 Bft)
04.02.2017 22:42 3,7 °C 3,7 °C 75 % 1005,8 hPa 0,0 mm 2,9 km/h (1 Bft) S 184 ° 0 min 0,000 mm 0,0 UV-I 0 W/m² -0,3 °C 3,7 °C 3,2 km/h (1 Bft)
04.02.2017 22:43 3,7 °C 3,7 °C 75 % 1005,8 hPa 0,0 mm 2,0 km/h (1 Bft) S 188 ° 0 min 0,000 mm 0,0 UV-I 0 W/m² -0,3 °C 3,7 °C 6,4 km/h (2 Bft)
04.02.2017 22:44 3,7 °C 3,7 °C 75 % 1005,8 hPa 0,0 mm 5,9 km/h (2 Bft) S-SW 203 ° 0 min 0,000 mm 0,0 UV-I 0 W/m² -0,3 °C 2,3 °C 11,3 km/h (2 Bft)
04.02.2017 22:45 3,7 °C 3,7 °C 75 % 1005,9 hPa 0,0 mm 5,3 km/h (1 Bft) S-SW 196 ° 0 min 0,000 mm 0,0 UV-I 0 W/m² -0,3 °C 2,5 °C 8,0 km/h (2 Bft)
04.02.2017 22:46 3,7 °C 3,7 °C 75 % 1005,8 hPa 0,0 mm 3,5 km/h (1 Bft) S-SW 202 ° 0 min 0,000 mm 0,0 UV-I 0 W/m² -0,3 °C 3,7 °C 6,4 km/h (2 Bft)
04.02.2017 22:47 3,7 °C 3,7 °C 74 % 1005,8 hPa 0,0 mm 2,9 km/h (1 Bft) W-SW 237 ° 0 min 0,000 mm 0,0 UV-I 0 W/m² -0,5 °C 3,7 °C 4,8 km/h (1 Bft)
04.02.2017 22:48 3,7 °C 3,8 °C 74 % 1005,8 hPa 0,0 mm 2,3 km/h (1 Bft) S-SW 212 ° 0 min 0,000 mm 0,0 UV-I 0 W/m² -0,5 °C 3,7 °C 4,8 km/h (1 Bft)
04.02.2017 22:49 3,8 °C 3,8 °C 74 % 1005,8 hPa 0,0 mm 5,0 km/h (1 Bft) S-SW 201 ° 0 min 0,000 mm 0,0 UV-I 0 W/m² -0,4 °C 2,7 °C 6,4 km/h (2 Bft)
04.02.2017 22:50 3,8 °C 3,8 °C 74 % 1005,9 hPa 0,0 mm 4,6 km/h (1 Bft) S 182 ° 0 min 0,000 mm 0,0 UV-I 0 W/m² -0,4 °C 2,9 °C 8,0 km/h (2 Bft)
04.02.2017 22:51 3,8 °C 3,8 °C 74 % 1005,8 hPa 0,0 mm 5,4 km/h (1 Bft) S-SW 200 ° 0 min 0,000 mm 0,0 UV-I 0 W/m² -0,4 °C 2,6 °C 9,7 km/h (2 Bft)
04.02.2017 22:52 3,8 °C 3,8 °C 73 % 1005,8 hPa 0,0 mm 5,9 km/h (2 Bft) SW 223 ° 0 min 0,000 mm 0,0 UV-I 0 W/m² -0,6 °C 2,4 °C 11,3 km/h (2 Bft)
04.02.2017 22:53 3,8 °C 3,8 °C 73 % 1005,9 hPa 0,0 mm 3,6 km/h (1 Bft) W-SW 242 ° 0 min 0,000 mm 0,0 UV-I 0 W/m² -0,6 °C 3,8 °C 6,4 km/h (2 Bft)
04.02.2017 22:54 3,8 °C 3,8 °C 73 % 1005,8 hPa 0,0 mm 2,6 km/h (1 Bft) W 262 ° 0 min 0,000 mm 0,0 UV-I 0 W/m² -0,6 °C 3,8 °C 9,7 km/h (2 Bft)
04.02.2017 22:55 3,9 °C 3,9 °C 74 % 1005,9 hPa 0,0 mm 8,2 km/h (2 Bft) W-SW 257 ° 0 min 0,000 mm 0,0 UV-I 0 W/m² -0,3 °C 1,8 °C 12,9 km/h (3 Bft)
04.02.2017 22:56 3,8 °C 3,9 °C 73 % 1005,8 hPa 0,0 mm 8,0 km/h (2 Bft) SW 215 ° 0 min 0,000 mm 0,0 UV-I 0 W/m² -0,6 °C 1,7 °C 12,9 km/h (3 Bft)
04.02.2017 22:57 3,9 °C 3,9 °C 73 % 1005,8 hPa 0,0 mm 3,7 km/h (1 Bft) W-SW 238 ° 0 min 0,000 mm 0,0 UV-I 0 W/m² -0,5 °C 3,9 °C 4,8 km/h (1 Bft)
04.02.2017 22:58 3,8 °C 3,9 °C 73 % 1005,9 hPa 0,0 mm 5,0 km/h (1 Bft) W-SW 256 ° 0 min 0,000 mm 0,0 UV-I 0 W/m² -0,6 °C 2,7 °C 8,0 km/h (2 Bft)
04.02.2017 22:59 3,8 °C 3,9 °C 72 % 1005,9 hPa 0,0 mm 7,1 km/h (2 Bft) SW 214 ° 0 min 0,000 mm 0,0 UV-I 0 W/m² -0,8 °C 2,0 °C 12,9 km/h (3 Bft)
04.02.2017 23:00 3,9 °C 3,9 °C 72 % 1005,9 hPa 0,0 mm 2,8 km/h (1 Bft) SW 233 ° 0 min 0,000 mm 0,0 UV-I 0 W/m² -0,7 °C 3,9 °C 4,8 km/h (1 Bft)
04.02.2017 23:01 3,9 °C 3,9 °C 72 % 1005,9 hPa 0,0 mm 3,8 km/h (1 Bft) S-SW 200 ° 0 min 0,025 mm 0,0 UV-I 0 W/m² -0,7 °C 3,9 °C 4,8 km/h (1 Bft)
04.02.2017 23:02 3,9 °C 3,9 °C 73 % 1006,0 hPa 0,0 mm 4,8 km/h (1 Bft) S-SO 163 ° 0 min 0,000 mm 0,0 UV-I 0 W/m² -0,5 °C 2,9 °C 9,7 km/h (2 Bft)
04.02.2017 23:03 3,9 °C 3,9 °C 72 % 1006,0 hPa 0,0 mm 9,2 km/h (2 Bft) W 281 ° 0 min 0,000 mm 0,0 UV-I 0 W/m² -0,7 °C 1,5 °C 16,1 km/h (3 Bft)
04.02.2017 23:04 3,9 °C 3,9 °C 71 % 1006,0 hPa 0,0 mm 6,6 km/h (2 Bft) W 259 ° 0 min 0,000 mm 0,0 UV-I 0 W/m² -0,9 °C 2,3 °C 11,3 km/h (2 Bft)
04.02.2017 23:05 3,9 °C 3,9 °C 72 % 1006,0 hPa 0,0 mm 9,7 km/h (2 Bft) W 268 ° 0 min 0,000 mm 0,0 UV-I 0 W/m² -0,7 °C 1,4 °C 12,9 km/h (3 Bft)
04.02.2017 23:06 3,9 °C 3,9 °C 72 % 1006,1 hPa 0,0 mm 4,6 km/h (1 Bft) W-SW 242 ° 0 min 0,000 mm 0,0 UV-I 0 W/m² -0,7 °C 3,0 °C 11,3 km/h (2 Bft)
04.02.2017 23:07 3,9 °C 3,9 °C 72 % 1006,1 hPa 0,0 mm 2,4 km/h (1 Bft) W-SW 242 ° 0 min 0,000 mm 0,0 UV-I 0 W/m² -0,7 °C 3,9 °C 4,8 km/h (1 Bft)
04.02.2017 23:08 3,9 °C 3,9 °C 71 % 1006,0 hPa 0,0 mm 3,6 km/h (1 Bft) W-SW 250 ° 0 min 0,000 mm 0,0 UV-I 0 W/m² -0,9 °C 3,9 °C 4,8 km/h (1 Bft)
04.02.2017 23:09 3,9 °C 3,9 °C 71 % 1006,0 hPa 0,0 mm 1,8 km/h (1 Bft) S 174 ° 0 min 0,000 mm 0,0 UV-I 0 W/m² -0,9 °C 3,9 °C 3,2 km/h (1 Bft)
04.02.2017 23:10 3,9 °C 3,9 °C 71 % 1006,1 hPa 0,0 mm 3,1 km/h (1 Bft) SW 221 ° 0 min 0,000 mm 0,0 UV-I 0 W/m² -0,9 °C 3,9 °C 4,8 km/h (1 Bft)
04.02.2017 23:11 3,9 °C 3,9 °C 71 % 1006,0 hPa 0,0 mm 3,1 km/h (1 Bft) W-SW 257 ° 0 min 0,000 mm 0,0 UV-I 0 W/m² -0,9 °C 3,9 °C 4,8 km/h (1 Bft)
04.02.2017 23:12 3,9 °C 3,9 °C 71 % 1006,1 hPa 0,0 mm 2,0 km/h (1 Bft) W-SW 257 ° 0 min 0,000 mm 0,0 UV-I 0 W/m² -0,9 °C 3,9 °C 3,2 km/h (1 Bft)
04.02.2017 23:13 3,9 °C 4,0 °C 71 % 1006,0 hPa 0,0 mm 3,0 km/h (1 Bft) S-SW 200 ° 0 min 0,000 mm 0,0 UV-I 0 W/m² -0,9 °C 3,9 °C 3,2 km/h (1 Bft)
04.02.2017 23:14 4,0 °C 4,0 °C 71 % 1006,0 hPa 0,0 mm 3,0 km/h (1 Bft) S-SW 200 ° 0 min 0,000 mm 0,0 UV-I 0 W/m² -0,8 °C 4,0 °C 4,8 km/h (1 Bft)
04.02.2017 23:15 3,9 °C 4,0 °C 71 % 1006,0 hPa 0,0 mm 4,8 km/h (1 Bft) S-SW 209 ° 0 min 0,000 mm 0,0 UV-I 0 W/m² -0,9 °C 2,9 °C 8,0 km/h (2 Bft)
04.02.2017 23:16 4,0 °C 4,0 °C 70 % 1006,1 hPa 0,0 mm 6,6 km/h (2 Bft) S-SW 201 ° 0 min 0,000 mm 0,0 UV-I 0 W/m² -1,0 °C 2,4 °C 9,7 km/h (2 Bft)
04.02.2017 23:17 4,0 °C 4,0 °C 70 % 1006,1 hPa 0,0 mm 5,3 km/h (1 Bft) W-SW 242 ° 0 min 0,000 mm 0,0 UV-I 0 W/m² -1,0 °C 2,8 °C 9,7 km/h (2 Bft)
04.02.2017 23:18 4,0 °C 4,0 °C 70 % 1006,1 hPa 0,0 mm 4,2 km/h (1 Bft) SW 225 ° 0 min 0,000 mm 0,0 UV-I 0 W/m² -1,0 °C 4,0 °C 6,4 km/h (2 Bft)
04.02.2017 23:19 4,0 °C 4,0 °C 71 % 1006,0 hPa 0,0 mm 3,7 km/h (1 Bft) SW 232 ° 0 min 0,000 mm 0,0 UV-I 0 W/m² -0,8 °C 4,0 °C 4,8 km/h (1 Bft)
04.02.2017 23:20 4,1 °C 4,1 °C 71 % 1006,1 hPa 0,0 mm 5,4 km/h (1 Bft) S-SW 211 ° 0 min 0,000 mm 0,0 UV-I 0 W/m² -0,7 °C 2,9 °C 8,0 km/h (2 Bft)
04.02.2017 23:21 4,0 °C 4,1 °C 71 % 1006,1 hPa 0,0 mm 4,6 km/h (1 Bft) W-SW 242 ° 0 min 0,000 mm 0,0 UV-I 0 W/m² -0,8 °C 3,1 °C 6,4 km/h (2 Bft)
04.02.2017 23:22 4,1 °C 4,1 °C 70 % 1006,1 hPa 0,0 mm 6,5 km/h (2 Bft) S 189 ° 0 min 0,000 mm 0,0 UV-I 0 W/m² -0,9 °C 2,5 °C 12,9 km/h (3 Bft)
04.02.2017 23:23 4,1 °C 4,1 °C 70 % 1006,2 hPa 0,0 mm 5,0 km/h (1 Bft) SW 217 ° 0 min 0,000 mm 0,0 UV-I 0 W/m² -0,9 °C 3,1 °C 11,3 km/h (2 Bft)
04.02.2017 23:24 4,1 °C 4,1 °C 70 % 1006,1 hPa 0,0 mm 3,4 km/h (1 Bft) SW 217 ° 0 min 0,000 mm 0,0 UV-I 0 W/m² -0,9 °C 4,1 °C 4,8 km/h (1 Bft)
04.02.2017 23:25 4,1 °C 4,1 °C 69 % 1006,2 hPa 0,0 mm 5,3 km/h (1 Bft) SW 219 ° 0 min 0,000 mm 0,0 UV-I 0 W/m² -1,1 °C 2,9 °C 9,7 km/h (2 Bft)
04.02.2017 23:26 4,1 °C 4,1 °C 69 % 1006,2 hPa 0,0 mm 7,6 km/h (2 Bft) SW 214 ° 0 min 0,000 mm 0,0 UV-I 0 W/m² -1,1 °C 2,2 °C 16,1 km/h (3 Bft)
04.02.2017 23:27 4,1 °C 4,1 °C 69 % 1006,2 hPa 0,0 mm 2,7 km/h (1 Bft) SW 214 ° 0 min 0,000 mm 0,0 UV-I 0 W/m² -1,1 °C 4,1 °C 4,8 km/h (1 Bft)
04.02.2017 23:28 4,1 °C 4,1 °C 69 % 1006,2 hPa 0,0 mm 3,0 km/h (1 Bft) S-SW 213 ° 0 min 0,000 mm 0,0 UV-I 0 W/m² -1,1 °C 4,1 °C 4,8 km/h (1 Bft)
04.02.2017 23:29 4,1 °C 4,1 °C 69 % 1006,1 hPa 0,0 mm 2,4 km/h (1 Bft) S-SW 213 ° 0 min 0,000 mm 0,0 UV-I 0 W/m² -1,1 °C 4,1 °C 3,2 km/h (1 Bft)
04.02.2017 23:30 4,1 °C 4,1 °C 69 % 1006,2 hPa 0,0 mm 8,1 km/h (2 Bft) S-SW 213 ° 0 min 0,000 mm 0,0 UV-I 0 W/m² -1,1 °C 2,1 °C 11,3 km/h (2 Bft)
04.02.2017 23:31 4,1 °C 4,1 °C 69 % 1006,2 hPa 0,0 mm 7,8 km/h (2 Bft) S-SW 192 ° 0 min 0,000 mm 0,0 UV-I 0 W/m² -1,1 °C 2,1 °C 12,9 km/h (3 Bft)
04.02.2017 23:32 4,1 °C 4,1 °C 69 % 1006,2 hPa 0,0 mm 5,0 km/h (1 Bft) SW 224 ° 0 min 0,000 mm 0,0 UV-I 0 W/m² -1,1 °C 3,1 °C 6,4 km/h (2 Bft)
04.02.2017 23:33 4,1 °C 4,1 °C 68 % 1006,3 hPa 0,0 mm 3,8 km/h (1 Bft) SW 236 ° 0 min 0,000 mm 0,0 UV-I 0 W/m² -1,3 °C 4,1 °C 8,0 km/h (2 Bft)
04.02.2017 23:34 4,1 °C 4,1 °C 69 % 1006,3 hPa 0,0 mm 7,0 km/h (2 Bft) S-SW 210 ° 0 min 0,000 mm 0,0 UV-I 0 W/m² -1,1 °C 2,4 °C 11,3 km/h (2 Bft)
04.02.2017 23:35 4,1 °C 4,1 °C 69 % 1006,2 hPa 0,0 mm 5,5 km/h (1 Bft) W-SW 241 ° 0 min 0,000 mm 0,0 UV-I 0 W/m² -1,1 °C 2,9 °C 6,4 km/h (2 Bft)
04.02.2017 23:36 4,1 °C 4,1 °C 69 % 1006,2 hPa 0,0 mm 6,8 km/h (2 Bft) W-SW 246 ° 0 min 0,000 mm 0,0 UV-I 0 W/m² -1,1 °C 2,4 °C 11,3 km/h (2 Bft)
04.02.2017 23:37 4,1 °C 4,1 °C 69 % 1006,3 hPa 0,0 mm 8,2 km/h (2 Bft) W-SW 254 ° 0 min 0,000 mm 0,0 UV-I 0 W/m² -1,1 °C 2,0 °C 12,9 km/h (3 Bft)
04.02.2017 23:38 4,1 °C 4,1 °C 69 % 1006,3 hPa 0,0 mm 6,2 km/h (2 Bft) SW 233 ° 0 min 0,000 mm 0,0 UV-I 0 W/m² -1,1 °C 2,6 °C 8,0 km/h (2 Bft)
04.02.2017 23:39 4,1 °C 4,1 °C 69 % 1006,3 hPa 0,0 mm 3,1 km/h (1 Bft) SW 228 ° 0 min 0,000 mm 0,0 UV-I 0 W/m² -1,1 °C 4,1 °C 4,8 km/h (1 Bft)
04.02.2017 23:40 4,1 °C 4,1 °C 69 % 1006,3 hPa 0,0 mm 4,4 km/h (1 Bft) W-SW 253 ° 0 min 0,000 mm 0,0 UV-I 0 W/m² -1,1 °C 4,1 °C 6,4 km/h (2 Bft)
04.02.2017 23:41 4,1 °C 4,1 °C 69 % 1006,3 hPa 0,0 mm 5,4 km/h (1 Bft) SW 236 ° 0 min 0,000 mm 0,0 UV-I 0 W/m² -1,1 °C 2,9 °C 9,7 km/h (2 Bft)
04.02.2017 23:42 4,1 °C 4,1 °C 68 % 1006,3 hPa 0,0 mm 6,6 km/h (2 Bft) W-SW 248 ° 0 min 0,000 mm 0,0 UV-I 0 W/m² -1,3 °C 2,5 °C 11,3 km/h (2 Bft)
04.02.2017 23:43 4,1 °C 4,1 °C 68 % 1006,3 hPa 0,0 mm 3,1 km/h (1 Bft) W-SW 242 ° 0 min 0,000 mm 0,0 UV-I 0 W/m² -1,3 °C 4,1 °C 6,4 km/h (2 Bft)
04.02.2017 23:44 4,1 °C 4,1 °C 68 % 1006,3 hPa 0,0 mm 4,1 km/h (1 Bft) S-SW 198 ° 0 min 0,000 mm 0,0 UV-I 0 W/m² -1,3 °C 4,1 °C 9,7 km/h (2 Bft)
04.02.2017 23:45 4,1 °C 4,1 °C 68 % 1006,3 hPa 0,0 mm 5,2 km/h (1 Bft) S-SW 212 ° 0 min 0,000 mm 0,0 UV-I 0 W/m² -1,3 °C 3,0 °C 9,7 km/h (2 Bft)
04.02.2017 23:46 4,1 °C 4,1 °C 68 % 1006,4 hPa 0,0 mm 3,4 km/h (1 Bft) W 262 ° 0 min 0,000 mm 0,0 UV-I 0 W/m² -1,3 °C 4,1 °C 4,8 km/h (1 Bft)
04.02.2017 23:47 4,1 °C 4,1 °C 69 % 1006,4 hPa 0,0 mm 3,7 km/h (1 Bft) W 262 ° 0 min 0,000 mm 0,0 UV-I 0 W/m² -1,1 °C 4,1 °C 6,4 km/h (2 Bft)
04.02.2017 23:48 4,1 °C 4,1 °C 69 % 1006,4 hPa 0,0 mm 6,8 km/h (2 Bft) W-SW 251 ° 0 min 0,000 mm 0,0 UV-I 0 W/m² -1,1 °C 2,4 °C 11,3 km/h (2 Bft)
04.02.2017 23:49 4,1 °C 4,1 °C 68 % 1006,5 hPa 0,0 mm 4,4 km/h (1 Bft) W 277 ° 0 min 0,000 mm 0,0 UV-I 0 W/m² -1,3 °C 4,1 °C 9,7 km/h (2 Bft)
04.02.2017 23:50 4,1 °C 4,1 °C 68 % 1006,4 hPa 0,0 mm 2,8 km/h (1 Bft) W 265 ° 0 min 0,000 mm 0,0 UV-I 0 W/m² -1,3 °C 4,1 °C 4,8 km/h (1 Bft)
04.02.2017 23:51 4,1 °C 4,1 °C 69 % 1006,4 hPa 0,0 mm 5,0 km/h (1 Bft) W-SW 251 ° 0 min 0,000 mm 0,0 UV-I 0 W/m² -1,1 °C 3,1 °C 8,0 km/h (2 Bft)
04.02.2017 23:52 4,1 °C 4,1 °C 69 % 1006,5 hPa 0,0 mm 5,3 km/h (1 Bft) W 266 ° 0 min 0,000 mm 0,0 UV-I 0 W/m² -1,1 °C 2,9 °C 9,7 km/h (2 Bft)
04.02.2017 23:53 4,1 °C 4,1 °C 69 % 1006,5 hPa 0,0 mm 9,7 km/h (2 Bft) S-SW 194 ° 0 min 0,000 mm 0,0 UV-I 0 W/m² -1,1 °C 1,7 °C 14,5 km/h (3 Bft)
04.02.2017 23:54 4,0 °C 4,1 °C 68 % 1006,4 hPa 0,0 mm 3,6 km/h (1 Bft) W-SW 238 ° 0 min 0,000 mm 0,0 UV-I 0 W/m² -1,4 °C 4,0 °C 4,8 km/h (1 Bft)
04.02.2017 23:55 4,0 °C 4,1 °C 68 % 1006,4 hPa 0,0 mm 4,1 km/h (1 Bft) SW 232 ° 0 min 0,000 mm 0,0 UV-I 0 W/m² -1,4 °C 4,0 °C 6,4 km/h (2 Bft)
04.02.2017 23:56 4,0 °C 4,0 °C 68 % 1006,4 hPa 0,0 mm 3,8 km/h (1 Bft) W-SW 244 ° 0 min 0,000 mm 0,0 UV-I 0 W/m² -1,4 °C 4,0 °C 8,0 km/h (2 Bft)
04.02.2017 23:57 3,9 °C 4,0 °C 68 % 1006,5 hPa 0,0 mm 10,3 km/h (2 Bft) W-SW 241 ° 0 min 0,000 mm 0,0 UV-I 0 W/m² -1,5 °C 1,3 °C 16,1 km/h (3 Bft)
04.02.2017 23:58 3,9 °C 3,9 °C 68 % 1006,5 hPa 0,0 mm 5,8 km/h (2 Bft) SW 219 ° 0 min 0,000 mm 0,0 UV-I 0 W/m² -1,5 °C 2,5 °C 9,7 km/h (2 Bft)
04.02.2017 23:59 3,9 °C 3,9 °C 67 % 1006,5 hPa 0,0 mm 5,3 km/h (1 Bft) S-SO 165 ° 0 min 0,000 mm 0,0 UV-I 0 W/m² -1,7 °C 2,7 °C 8,0 km/h (2 Bft)
_ Min-Zeit 08:26 08:26 23:59 13:47 - 17:54 - - - - - - 23:59 08:53 17:54
Minimum _ -0,3 °C -0,3 °C 67 % 999,5 hPa - 0,0 km/h (0 Bft) - - - - - - -1,7 °C -2,8 °C 0,0 km/h (0 Bft)
_ Max-Zeit 13:30 13:31 09:41 02:00 19:20 19:31 - - 23:59 12:01 11:51 11:52 13:02 13:32 19:36
Maximum _ 5,9 °C 5,9 °C 95 % 1009,3 hPa 0,2 mm 27,5 km/h
NW (4 Bft)
- - 0 min 0,076 mm 1,4 UV-I 193 W/m² 2,6 °C 5,8 °C 48,3 km/h
W-SW (6 Bft)
Durchschnitt _ 3,4 °C 3,4 °C 84 % 1004,6 hPa #2,6 mm 5,1 km/h (1 Bft) W-SW - #0 min. #0,457 mm 0,9 UV-I 33 W/m² 1,0 °C 2,5 °C 8,1 km/h (2 Bft)